<?xml version="1.0" encoding="UTF-8" standalone="no" ?>
<gpx xmlns="http://www.topografix.com/GPX/1/1" xmlns:xsi="http://www.w3.org/2001/XMLSchema-instance" xsi:schemaLocation="http://www.topografix.com/GPX/1/1 http://www.topografix.com/GPX/1/1/gpx.xsd" version="1.1" creator="VisuGPX - https://www.visugpx.com">
  <metadata>
    <name>Fleurie Saxonnex Rome Colombiere</name>
    <desc><![CDATA[Fleurie Saxonnex Rome Colombiere]]></desc>
  </metadata>
  <wpt lat="45.9048" lon="6.23158">
    <ele>629.8</ele>
    <name><![CDATA[Start]]></name>
    <desc><![CDATA[2013-07-20 04:53:54]]></desc>
  </wpt>
  <wpt lat="46.06044" lon="6.44156">
    <ele>480.1</ele>
    <name><![CDATA[Lap 1]]></name>
    <desc><![CDATA[44.32km, 115:56, 22.9kph]]></desc>
  </wpt>
  <wpt lat="45.90499" lon="6.23132">
    <ele>631.7</ele>
    <name><![CDATA[Lap 2]]></name>
    <desc><![CDATA[69.04km, 206:49, 20.0kph]]></desc>
  </wpt>
  <trk>
    <name><![CDATA[20_07_2013 06_53_54_history]]></name>
    <desc><![CDATA[322:44 - 113.4km]]></desc>
    <trkseg>
      <trkpt lat="45.9048" lon="6.23158">
        <ele>637.153</ele>
        <time>2013-07-20T04:53:54Z</time>
      </trkpt>
      <trkpt lat="45.9048" lon="6.23158">
        <ele>637.153</ele>
        <time>2013-07-20T04:53:54Z</time>
      </trkpt>
      <trkpt lat="45.90469" lon="6.2317">
        <ele>637.115</ele>
        <time>2013-07-20T04:54:03Z</time>
      </trkpt>
      <trkpt lat="45.90452" lon="6.23175">
        <ele>636.782</ele>
        <time>2013-07-20T04:54:08Z</time>
      </trkpt>
      <trkpt lat="45.90444" lon="6.23177">
        <ele>636.537</ele>
        <time>2013-07-20T04:54:10Z</time>
      </trkpt>
      <trkpt lat="45.9042" lon="6.23192">
        <ele>635.881</ele>
        <time>2013-07-20T04:54:15Z</time>
      </trkpt>
      <trkpt lat="45.90411" lon="6.23205">
        <ele>635.201</ele>
        <time>2013-07-20T04:54:17Z</time>
      </trkpt>
      <trkpt lat="45.90401" lon="6.23229">
        <ele>633.973</ele>
        <time>2013-07-20T04:54:20Z</time>
      </trkpt>
      <trkpt lat="45.90392" lon="6.23252">
        <ele>630.593</ele>
        <time>2013-07-20T04:54:24Z</time>
      </trkpt>
      <trkpt lat="45.90391" lon="6.23255">
        <ele>629.689</ele>
        <time>2013-07-20T04:54:25Z</time>
      </trkpt>
      <trkpt lat="45.90388" lon="6.23249">
        <ele>628.201</ele>
        <time>2013-07-20T04:54:29Z</time>
      </trkpt>
      <trkpt lat="45.90389" lon="6.23246">
        <ele>628.183</ele>
        <time>2013-07-20T04:54:30Z</time>
      </trkpt>
      <trkpt lat="45.90399" lon="6.23217">
        <ele>629.016</ele>
        <time>2013-07-20T04:54:36Z</time>
      </trkpt>
      <trkpt lat="45.90405" lon="6.232">
        <ele>629.614</ele>
        <time>2013-07-20T04:54:39Z</time>
      </trkpt>
      <trkpt lat="45.9041" lon="6.23189">
        <ele>630.065</ele>
        <time>2013-07-20T04:54:41Z</time>
      </trkpt>
      <trkpt lat="45.90415" lon="6.23178">
        <ele>630.267</ele>
        <time>2013-07-20T04:54:43Z</time>
      </trkpt>
      <trkpt lat="45.90418" lon="6.23173">
        <ele>630.3</ele>
        <time>2013-07-20T04:54:44Z</time>
      </trkpt>
      <trkpt lat="45.90425" lon="6.23162">
        <ele>630.147</ele>
        <time>2013-07-20T04:54:46Z</time>
      </trkpt>
      <trkpt lat="45.90443" lon="6.23139">
        <ele>629.679</ele>
        <time>2013-07-20T04:54:50Z</time>
      </trkpt>
      <trkpt lat="45.90459" lon="6.23105">
        <ele>628.55</ele>
        <time>2013-07-20T04:54:54Z</time>
      </trkpt>
      <trkpt lat="45.90468" lon="6.23074">
        <ele>628.076</ele>
        <time>2013-07-20T04:54:57Z</time>
      </trkpt>
      <trkpt lat="45.90489" lon="6.23037">
        <ele>626.625</ele>
        <time>2013-07-20T04:55:01Z</time>
      </trkpt>
      <trkpt lat="45.90496" lon="6.23028">
        <ele>626.283</ele>
        <time>2013-07-20T04:55:02Z</time>
      </trkpt>
      <trkpt lat="45.90516" lon="6.22974">
        <ele>625.03</ele>
        <time>2013-07-20T04:55:07Z</time>
      </trkpt>
      <trkpt lat="45.9053" lon="6.22906">
        <ele>624.126</ele>
        <time>2013-07-20T04:55:13Z</time>
      </trkpt>
      <trkpt lat="45.90533" lon="6.22896">
        <ele>624.127</ele>
        <time>2013-07-20T04:55:14Z</time>
      </trkpt>
      <trkpt lat="45.90569" lon="6.22825">
        <ele>623.247</ele>
        <time>2013-07-20T04:55:22Z</time>
      </trkpt>
      <trkpt lat="45.90606" lon="6.22777">
        <ele>621.791</ele>
        <time>2013-07-20T04:55:28Z</time>
      </trkpt>
      <trkpt lat="45.90613" lon="6.22768">
        <ele>621.201</ele>
        <time>2013-07-20T04:55:29Z</time>
      </trkpt>
      <trkpt lat="45.90632" lon="6.22725">
        <ele>619.563</ele>
        <time>2013-07-20T04:55:33Z</time>
      </trkpt>
      <trkpt lat="45.90646" lon="6.22681">
        <ele>619.124</ele>
        <time>2013-07-20T04:55:37Z</time>
      </trkpt>
      <trkpt lat="45.90667" lon="6.22647">
        <ele>618.896</ele>
        <time>2013-07-20T04:55:41Z</time>
      </trkpt>
      <trkpt lat="45.90696" lon="6.22615">
        <ele>618.62</ele>
        <time>2013-07-20T04:55:46Z</time>
      </trkpt>
      <trkpt lat="45.90724" lon="6.22582">
        <ele>618.034</ele>
        <time>2013-07-20T04:55:52Z</time>
      </trkpt>
      <trkpt lat="45.9075" lon="6.2256">
        <ele>619.289</ele>
        <time>2013-07-20T04:55:58Z</time>
      </trkpt>
      <trkpt lat="45.90785" lon="6.22539">
        <ele>619.224</ele>
        <time>2013-07-20T04:56:05Z</time>
      </trkpt>
      <trkpt lat="45.9082" lon="6.2251">
        <ele>618.371</ele>
        <time>2013-07-20T04:56:11Z</time>
      </trkpt>
      <trkpt lat="45.90868" lon="6.2247">
        <ele>618.176</ele>
        <time>2013-07-20T04:56:19Z</time>
      </trkpt>
      <trkpt lat="45.90899" lon="6.22433">
        <ele>617.587</ele>
        <time>2013-07-20T04:56:25Z</time>
      </trkpt>
      <trkpt lat="45.90932" lon="6.22387">
        <ele>616.053</ele>
        <time>2013-07-20T04:56:31Z</time>
      </trkpt>
      <trkpt lat="45.90984" lon="6.2234">
        <ele>614.877</ele>
        <time>2013-07-20T04:56:39Z</time>
      </trkpt>
      <trkpt lat="45.9102" lon="6.22306">
        <ele>614.553</ele>
        <time>2013-07-20T04:56:45Z</time>
      </trkpt>
      <trkpt lat="45.91036" lon="6.22272">
        <ele>614.314</ele>
        <time>2013-07-20T04:56:49Z</time>
      </trkpt>
      <trkpt lat="45.91043" lon="6.22242">
        <ele>613.841</ele>
        <time>2013-07-20T04:56:52Z</time>
      </trkpt>
      <trkpt lat="45.91053" lon="6.22213">
        <ele>613.145</ele>
        <time>2013-07-20T04:56:55Z</time>
      </trkpt>
      <trkpt lat="45.91054" lon="6.22183">
        <ele>612.642</ele>
        <time>2013-07-20T04:56:58Z</time>
      </trkpt>
      <trkpt lat="45.91042" lon="6.22169">
        <ele>611.916</ele>
        <time>2013-07-20T04:57:00Z</time>
      </trkpt>
      <trkpt lat="45.91034" lon="6.22164">
        <ele>611.394</ele>
        <time>2013-07-20T04:57:01Z</time>
      </trkpt>
      <trkpt lat="45.91008" lon="6.22154">
        <ele>610.158</ele>
        <time>2013-07-20T04:57:04Z</time>
      </trkpt>
      <trkpt lat="45.90988" lon="6.22153">
        <ele>608.389</ele>
        <time>2013-07-20T04:57:06Z</time>
      </trkpt>
      <trkpt lat="45.90955" lon="6.22156">
        <ele>605.664</ele>
        <time>2013-07-20T04:57:09Z</time>
      </trkpt>
      <trkpt lat="45.90899" lon="6.22143">
        <ele>602.701</ele>
        <time>2013-07-20T04:57:14Z</time>
      </trkpt>
      <trkpt lat="45.90868" lon="6.22129">
        <ele>600.954</ele>
        <time>2013-07-20T04:57:17Z</time>
      </trkpt>
      <trkpt lat="45.90791" lon="6.22113">
        <ele>597.548</ele>
        <time>2013-07-20T04:57:24Z</time>
      </trkpt>
      <trkpt lat="45.90694" lon="6.22087">
        <ele>592.852</ele>
        <time>2013-07-20T04:57:33Z</time>
      </trkpt>
      <trkpt lat="45.90618" lon="6.22074">
        <ele>589.109</ele>
        <time>2013-07-20T04:57:40Z</time>
      </trkpt>
      <trkpt lat="45.90527" lon="6.22067">
        <ele>584.143</ele>
        <time>2013-07-20T04:57:48Z</time>
      </trkpt>
      <trkpt lat="45.90455" lon="6.2207">
        <ele>578.897</ele>
        <time>2013-07-20T04:57:54Z</time>
      </trkpt>
      <trkpt lat="45.90406" lon="6.22081">
        <ele>575.956</ele>
        <time>2013-07-20T04:57:58Z</time>
      </trkpt>
      <trkpt lat="45.90382" lon="6.22088">
        <ele>574.395</ele>
        <time>2013-07-20T04:58:00Z</time>
      </trkpt>
      <trkpt lat="45.90331" lon="6.22087">
        <ele>570.582</ele>
        <time>2013-07-20T04:58:04Z</time>
      </trkpt>
      <trkpt lat="45.90309" lon="6.22074">
        <ele>567.87</ele>
        <time>2013-07-20T04:58:06Z</time>
      </trkpt>
      <trkpt lat="45.90294" lon="6.22049">
        <ele>565.663</ele>
        <time>2013-07-20T04:58:08Z</time>
      </trkpt>
      <trkpt lat="45.90269" lon="6.21985">
        <ele>560.415</ele>
        <time>2013-07-20T04:58:12Z</time>
      </trkpt>
      <trkpt lat="45.90254" lon="6.21933">
        <ele>556.949</ele>
        <time>2013-07-20T04:58:15Z</time>
      </trkpt>
      <trkpt lat="45.90246" lon="6.21855">
        <ele>551.045</ele>
        <time>2013-07-20T04:58:19Z</time>
      </trkpt>
      <trkpt lat="45.90254" lon="6.21762">
        <ele>546.096</ele>
        <time>2013-07-20T04:58:24Z</time>
      </trkpt>
      <trkpt lat="45.90264" lon="6.21654">
        <ele>543.957</ele>
        <time>2013-07-20T04:58:31Z</time>
      </trkpt>
      <trkpt lat="45.90267" lon="6.21612">
        <ele>543.342</ele>
        <time>2013-07-20T04:58:34Z</time>
      </trkpt>
      <trkpt lat="45.90273" lon="6.21537">
        <ele>543.053</ele>
        <time>2013-07-20T04:58:40Z</time>
      </trkpt>
      <trkpt lat="45.90283" lon="6.21445">
        <ele>542.22</ele>
        <time>2013-07-20T04:58:48Z</time>
      </trkpt>
      <trkpt lat="45.90293" lon="6.21353">
        <ele>541.153</ele>
        <time>2013-07-20T04:58:56Z</time>
      </trkpt>
      <trkpt lat="45.903" lon="6.21304">
        <ele>539.897</ele>
        <time>2013-07-20T04:59:00Z</time>
      </trkpt>
      <trkpt lat="45.9031" lon="6.21219">
        <ele>536.831</ele>
        <time>2013-07-20T04:59:06Z</time>
      </trkpt>
      <trkpt lat="45.90332" lon="6.21163">
        <ele>533.522</ele>
        <time>2013-07-20T04:59:10Z</time>
      </trkpt>
      <trkpt lat="45.90346" lon="6.2114">
        <ele>532.626</ele>
        <time>2013-07-20T04:59:12Z</time>
      </trkpt>
      <trkpt lat="45.90362" lon="6.21109">
        <ele>532.906</ele>
        <time>2013-07-20T04:59:15Z</time>
      </trkpt>
      <trkpt lat="45.90393" lon="6.21053">
        <ele>532.376</ele>
        <time>2013-07-20T04:59:21Z</time>
      </trkpt>
      <trkpt lat="45.90411" lon="6.20982">
        <ele>531.373</ele>
        <time>2013-07-20T04:59:27Z</time>
      </trkpt>
      <trkpt lat="45.90422" lon="6.20932">
        <ele>532.087</ele>
        <time>2013-07-20T04:59:32Z</time>
      </trkpt>
      <trkpt lat="45.90449" lon="6.20853">
        <ele>533.086</ele>
        <time>2013-07-20T04:59:41Z</time>
      </trkpt>
      <trkpt lat="45.90474" lon="6.20809">
        <ele>533.254</ele>
        <time>2013-07-20T04:59:47Z</time>
      </trkpt>
      <trkpt lat="45.90512" lon="6.20751">
        <ele>532.964</ele>
        <time>2013-07-20T04:59:55Z</time>
      </trkpt>
      <trkpt lat="45.9052" lon="6.20739">
        <ele>533.058</ele>
        <time>2013-07-20T04:59:57Z</time>
      </trkpt>
      <trkpt lat="45.90534" lon="6.20722">
        <ele>535.329</ele>
        <time>2013-07-20T05:00:02Z</time>
      </trkpt>
      <trkpt lat="45.90544" lon="6.20703">
        <ele>538.944</ele>
        <time>2013-07-20T05:00:08Z</time>
      </trkpt>
      <trkpt lat="45.90546" lon="6.20697">
        <ele>539.662</ele>
        <time>2013-07-20T05:00:10Z</time>
      </trkpt>
      <trkpt lat="45.90546" lon="6.20684">
        <ele>541.435</ele>
        <time>2013-07-20T05:00:14Z</time>
      </trkpt>
      <trkpt lat="45.90547" lon="6.20675">
        <ele>542.673</ele>
        <time>2013-07-20T05:00:17Z</time>
      </trkpt>
      <trkpt lat="45.90553" lon="6.20659">
        <ele>545.389</ele>
        <time>2013-07-20T05:00:23Z</time>
      </trkpt>
      <trkpt lat="45.90555" lon="6.2064">
        <ele>548.271</ele>
        <time>2013-07-20T05:00:29Z</time>
      </trkpt>
      <trkpt lat="45.90558" lon="6.20613">
        <ele>550.892</ele>
        <time>2013-07-20T05:00:36Z</time>
      </trkpt>
      <trkpt lat="45.90569" lon="6.20599">
        <ele>552.974</ele>
        <time>2013-07-20T05:00:42Z</time>
      </trkpt>
      <trkpt lat="45.90583" lon="6.20591">
        <ele>554.112</ele>
        <time>2013-07-20T05:00:48Z</time>
      </trkpt>
      <trkpt lat="45.90602" lon="6.20581">
        <ele>553.546</ele>
        <time>2013-07-20T05:00:53Z</time>
      </trkpt>
      <trkpt lat="45.9063" lon="6.2056">
        <ele>552.194</ele>
        <time>2013-07-20T05:00:57Z</time>
      </trkpt>
      <trkpt lat="45.90671" lon="6.20534">
        <ele>549.04</ele>
        <time>2013-07-20T05:01:02Z</time>
      </trkpt>
      <trkpt lat="45.90693" lon="6.20516">
        <ele>547.748</ele>
        <time>2013-07-20T05:01:05Z</time>
      </trkpt>
      <trkpt lat="45.90735" lon="6.20495">
        <ele>547.318</ele>
        <time>2013-07-20T05:01:11Z</time>
      </trkpt>
      <trkpt lat="45.90751" lon="6.20489">
        <ele>547.672</ele>
        <time>2013-07-20T05:01:14Z</time>
      </trkpt>
      <trkpt lat="45.90778" lon="6.20483">
        <ele>550.146</ele>
        <time>2013-07-20T05:01:21Z</time>
      </trkpt>
      <trkpt lat="45.90793" lon="6.20479">
        <ele>551.82</ele>
        <time>2013-07-20T05:01:26Z</time>
      </trkpt>
      <trkpt lat="45.90812" lon="6.20476">
        <ele>553.715</ele>
        <time>2013-07-20T05:01:34Z</time>
      </trkpt>
      <trkpt lat="45.90827" lon="6.20473">
        <ele>555.835</ele>
        <time>2013-07-20T05:01:41Z</time>
      </trkpt>
      <trkpt lat="45.90841" lon="6.20469">
        <ele>557.961</ele>
        <time>2013-07-20T05:01:48Z</time>
      </trkpt>
      <trkpt lat="45.90855" lon="6.20465">
        <ele>559.673</ele>
        <time>2013-07-20T05:01:54Z</time>
      </trkpt>
      <trkpt lat="45.90859" lon="6.20463">
        <ele>560.425</ele>
        <time>2013-07-20T05:01:56Z</time>
      </trkpt>
      <trkpt lat="45.90877" lon="6.20457">
        <ele>562.654</ele>
        <time>2013-07-20T05:02:04Z</time>
      </trkpt>
      <trkpt lat="45.90889" lon="6.20453">
        <ele>564.041</ele>
        <time>2013-07-20T05:02:09Z</time>
      </trkpt>
      <trkpt lat="45.90907" lon="6.20451">
        <ele>565.75</ele>
        <time>2013-07-20T05:02:16Z</time>
      </trkpt>
      <trkpt lat="45.90926" lon="6.20445">
        <ele>567.882</ele>
        <time>2013-07-20T05:02:24Z</time>
      </trkpt>
      <trkpt lat="45.90942" lon="6.20436">
        <ele>570.022</ele>
        <time>2013-07-20T05:02:31Z</time>
      </trkpt>
      <trkpt lat="45.90957" lon="6.20423">
        <ele>571.727</ele>
        <time>2013-07-20T05:02:38Z</time>
      </trkpt>
      <trkpt lat="45.90972" lon="6.20404">
        <ele>574.137</ele>
        <time>2013-07-20T05:02:47Z</time>
      </trkpt>
      <trkpt lat="45.90983" lon="6.20388">
        <ele>575.982</ele>
        <time>2013-07-20T05:02:54Z</time>
      </trkpt>
      <trkpt lat="45.90998" lon="6.20381">
        <ele>577.821</ele>
        <time>2013-07-20T05:03:00Z</time>
      </trkpt>
      <trkpt lat="45.91018" lon="6.20382">
        <ele>580.24</ele>
        <time>2013-07-20T05:03:08Z</time>
      </trkpt>
      <trkpt lat="45.91033" lon="6.20389">
        <ele>581.739</ele>
        <time>2013-07-20T05:03:15Z</time>
      </trkpt>
      <trkpt lat="45.91055" lon="6.20403">
        <ele>583.142</ele>
        <time>2013-07-20T05:03:24Z</time>
      </trkpt>
      <trkpt lat="45.91071" lon="6.20414">
        <ele>584.772</ele>
        <time>2013-07-20T05:03:31Z</time>
      </trkpt>
      <trkpt lat="45.91076" lon="6.20415">
        <ele>585.218</ele>
        <time>2013-07-20T05:03:37Z</time>
      </trkpt>
      <trkpt lat="45.91075" lon="6.20415">
        <ele>585.213</ele>
        <time>2013-07-20T05:03:38Z</time>
      </trkpt>
      <trkpt lat="45.91093" lon="6.20417">
        <ele>585.546</ele>
        <time>2013-07-20T05:04:57Z</time>
      </trkpt>
      <trkpt lat="45.91095" lon="6.20417">
        <ele>585.594</ele>
        <time>2013-07-20T05:04:58Z</time>
      </trkpt>
      <trkpt lat="45.91102" lon="6.20422">
        <ele>585.494</ele>
        <time>2013-07-20T05:05:03Z</time>
      </trkpt>
      <trkpt lat="45.91124" lon="6.2043">
        <ele>585.425</ele>
        <time>2013-07-20T05:05:09Z</time>
      </trkpt>
      <trkpt lat="45.91158" lon="6.20442">
        <ele>585.058</ele>
        <time>2013-07-20T05:05:16Z</time>
      </trkpt>
      <trkpt lat="45.91186" lon="6.20457">
        <ele>583.992</ele>
        <time>2013-07-20T05:05:22Z</time>
      </trkpt>
      <trkpt lat="45.91217" lon="6.2047">
        <ele>583.137</ele>
        <time>2013-07-20T05:05:28Z</time>
      </trkpt>
      <trkpt lat="45.91223" lon="6.2047">
        <ele>583.043</ele>
        <time>2013-07-20T05:05:29Z</time>
      </trkpt>
      <trkpt lat="45.91242" lon="6.2047">
        <ele>583.052</ele>
        <time>2013-07-20T05:05:33Z</time>
      </trkpt>
      <trkpt lat="45.91253" lon="6.20469">
        <ele>582.925</ele>
        <time>2013-07-20T05:05:35Z</time>
      </trkpt>
      <trkpt lat="45.91263" lon="6.20466">
        <ele>581.694</ele>
        <time>2013-07-20T05:05:39Z</time>
      </trkpt>
      <trkpt lat="45.91264" lon="6.20466">
        <ele>581.232</ele>
        <time>2013-07-20T05:05:40Z</time>
      </trkpt>
      <trkpt lat="45.91281" lon="6.20468">
        <ele>581.015</ele>
        <time>2013-07-20T05:06:00Z</time>
      </trkpt>
      <trkpt lat="45.91296" lon="6.20462">
        <ele>581.024</ele>
        <time>2013-07-20T05:06:05Z</time>
      </trkpt>
      <trkpt lat="45.91305" lon="6.2046">
        <ele>581.068</ele>
        <time>2013-07-20T05:06:07Z</time>
      </trkpt>
      <trkpt lat="45.91335" lon="6.20456">
        <ele>581.424</ele>
        <time>2013-07-20T05:06:13Z</time>
      </trkpt>
      <trkpt lat="45.91346" lon="6.20455">
        <ele>581.312</ele>
        <time>2013-07-20T05:06:15Z</time>
      </trkpt>
      <trkpt lat="45.91351" lon="6.20455">
        <ele>581.212</ele>
        <time>2013-07-20T05:06:16Z</time>
      </trkpt>
      <trkpt lat="45.91383" lon="6.20453">
        <ele>580.692</ele>
        <time>2013-07-20T05:06:22Z</time>
      </trkpt>
      <trkpt lat="45.91415" lon="6.20454">
        <ele>579.755</ele>
        <time>2013-07-20T05:06:27Z</time>
      </trkpt>
      <trkpt lat="45.91421" lon="6.20453">
        <ele>579.786</ele>
        <time>2013-07-20T05:06:28Z</time>
      </trkpt>
      <trkpt lat="45.91434" lon="6.20451">
        <ele>579.793</ele>
        <time>2013-07-20T05:06:30Z</time>
      </trkpt>
      <trkpt lat="45.91479" lon="6.2043">
        <ele>579.46</ele>
        <time>2013-07-20T05:06:37Z</time>
      </trkpt>
      <trkpt lat="45.9151" lon="6.20417">
        <ele>578.345</ele>
        <time>2013-07-20T05:06:42Z</time>
      </trkpt>
      <trkpt lat="45.91542" lon="6.2041">
        <ele>577.696</ele>
        <time>2013-07-20T05:06:47Z</time>
      </trkpt>
      <trkpt lat="45.916" lon="6.20397">
        <ele>576.215</ele>
        <time>2013-07-20T05:06:55Z</time>
      </trkpt>
      <trkpt lat="45.91654" lon="6.20388">
        <ele>576.347</ele>
        <time>2013-07-20T05:07:03Z</time>
      </trkpt>
      <trkpt lat="45.9171" lon="6.2039">
        <ele>576.803</ele>
        <time>2013-07-20T05:07:12Z</time>
      </trkpt>
      <trkpt lat="45.91751" lon="6.20392">
        <ele>577.395</ele>
        <time>2013-07-20T05:07:19Z</time>
      </trkpt>
      <trkpt lat="45.91792" lon="6.2038">
        <ele>579.021</ele>
        <time>2013-07-20T05:07:28Z</time>
      </trkpt>
      <trkpt lat="45.9182" lon="6.20372">
        <ele>580.97</ele>
        <time>2013-07-20T05:07:35Z</time>
      </trkpt>
      <trkpt lat="45.91835" lon="6.20369">
        <ele>581.959</ele>
        <time>2013-07-20T05:07:39Z</time>
      </trkpt>
      <trkpt lat="45.91851" lon="6.20366">
        <ele>583.476</ele>
        <time>2013-07-20T05:07:43Z</time>
      </trkpt>
      <trkpt lat="45.91875" lon="6.20364">
        <ele>584.366</ele>
        <time>2013-07-20T05:07:49Z</time>
      </trkpt>
      <trkpt lat="45.91904" lon="6.20356">
        <ele>585.067</ele>
        <time>2013-07-20T05:07:56Z</time>
      </trkpt>
      <trkpt lat="45.91912" lon="6.20351">
        <ele>585.213</ele>
        <time>2013-07-20T05:07:58Z</time>
      </trkpt>
      <trkpt lat="45.91941" lon="6.20323">
        <ele>586.31</ele>
        <time>2013-07-20T05:08:06Z</time>
      </trkpt>
      <trkpt lat="45.9196" lon="6.20307">
        <ele>588.363</ele>
        <time>2013-07-20T05:08:13Z</time>
      </trkpt>
      <trkpt lat="45.91977" lon="6.20309">
        <ele>589.951</ele>
        <time>2013-07-20T05:08:19Z</time>
      </trkpt>
      <trkpt lat="45.91988" lon="6.20322">
        <ele>591.498</ele>
        <time>2013-07-20T05:08:25Z</time>
      </trkpt>
      <trkpt lat="45.91992" lon="6.20335">
        <ele>592.651</ele>
        <time>2013-07-20T05:08:29Z</time>
      </trkpt>
      <trkpt lat="45.91992" lon="6.20356">
        <ele>594.215</ele>
        <time>2013-07-20T05:08:35Z</time>
      </trkpt>
      <trkpt lat="45.91996" lon="6.20385">
        <ele>595.973</ele>
        <time>2013-07-20T05:08:43Z</time>
      </trkpt>
      <trkpt lat="45.92" lon="6.20407">
        <ele>597.561</ele>
        <time>2013-07-20T05:08:49Z</time>
      </trkpt>
      <trkpt lat="45.92013" lon="6.20434">
        <ele>599.59</ele>
        <time>2013-07-20T05:08:58Z</time>
      </trkpt>
      <trkpt lat="45.92026" lon="6.20439">
        <ele>601.274</ele>
        <time>2013-07-20T05:09:04Z</time>
      </trkpt>
      <trkpt lat="45.92041" lon="6.20428">
        <ele>602.965</ele>
        <time>2013-07-20T05:09:11Z</time>
      </trkpt>
      <trkpt lat="45.9205" lon="6.20407">
        <ele>604.627</ele>
        <time>2013-07-20T05:09:18Z</time>
      </trkpt>
      <trkpt lat="45.9206" lon="6.20371">
        <ele>607.047</ele>
        <time>2013-07-20T05:09:29Z</time>
      </trkpt>
      <trkpt lat="45.92071" lon="6.2035">
        <ele>608.622</ele>
        <time>2013-07-20T05:09:36Z</time>
      </trkpt>
      <trkpt lat="45.92083" lon="6.2033">
        <ele>610.085</ele>
        <time>2013-07-20T05:09:43Z</time>
      </trkpt>
      <trkpt lat="45.92103" lon="6.20308">
        <ele>611.793</ele>
        <time>2013-07-20T05:09:52Z</time>
      </trkpt>
      <trkpt lat="45.92114" lon="6.20297">
        <ele>612.577</ele>
        <time>2013-07-20T05:09:57Z</time>
      </trkpt>
      <trkpt lat="45.92138" lon="6.20281">
        <ele>614.553</ele>
        <time>2013-07-20T05:10:06Z</time>
      </trkpt>
      <trkpt lat="45.92156" lon="6.2027">
        <ele>615.72</ele>
        <time>2013-07-20T05:10:13Z</time>
      </trkpt>
      <trkpt lat="45.92177" lon="6.20257">
        <ele>617.47</ele>
        <time>2013-07-20T05:10:21Z</time>
      </trkpt>
      <trkpt lat="45.92193" lon="6.20248">
        <ele>618.611</ele>
        <time>2013-07-20T05:10:27Z</time>
      </trkpt>
      <trkpt lat="45.92217" lon="6.20236">
        <ele>619.485</ele>
        <time>2013-07-20T05:10:35Z</time>
      </trkpt>
      <trkpt lat="45.92245" lon="6.20224">
        <ele>620.888</ele>
        <time>2013-07-20T05:10:43Z</time>
      </trkpt>
      <trkpt lat="45.9228" lon="6.20208">
        <ele>621.697</ele>
        <time>2013-07-20T05:10:53Z</time>
      </trkpt>
      <trkpt lat="45.92294" lon="6.20203">
        <ele>622.492</ele>
        <time>2013-07-20T05:10:57Z</time>
      </trkpt>
      <trkpt lat="45.92322" lon="6.2019">
        <ele>622.736</ele>
        <time>2013-07-20T05:11:05Z</time>
      </trkpt>
      <trkpt lat="45.92331" lon="6.20186">
        <ele>622.313</ele>
        <time>2013-07-20T05:11:07Z</time>
      </trkpt>
      <trkpt lat="45.92345" lon="6.20172">
        <ele>621.508</ele>
        <time>2013-07-20T05:11:10Z</time>
      </trkpt>
      <trkpt lat="45.9238" lon="6.20134">
        <ele>618.674</ele>
        <time>2013-07-20T05:11:16Z</time>
      </trkpt>
      <trkpt lat="45.92386" lon="6.20127">
        <ele>618.131</ele>
        <time>2013-07-20T05:11:17Z</time>
      </trkpt>
      <trkpt lat="45.92405" lon="6.20102">
        <ele>616.748</ele>
        <time>2013-07-20T05:11:20Z</time>
      </trkpt>
      <trkpt lat="45.92421" lon="6.20076">
        <ele>616.129</ele>
        <time>2013-07-20T05:11:23Z</time>
      </trkpt>
      <trkpt lat="45.92442" lon="6.20042">
        <ele>615.369</ele>
        <time>2013-07-20T05:11:27Z</time>
      </trkpt>
      <trkpt lat="45.92447" lon="6.20034">
        <ele>615.212</ele>
        <time>2013-07-20T05:11:28Z</time>
      </trkpt>
      <trkpt lat="45.92452" lon="6.20026">
        <ele>615.031</ele>
        <time>2013-07-20T05:11:29Z</time>
      </trkpt>
      <trkpt lat="45.92483" lon="6.19969">
        <ele>613.618</ele>
        <time>2013-07-20T05:11:36Z</time>
      </trkpt>
      <trkpt lat="45.92488" lon="6.19961">
        <ele>613.57</ele>
        <time>2013-07-20T05:11:37Z</time>
      </trkpt>
      <trkpt lat="45.92515" lon="6.19915">
        <ele>612.285</ele>
        <time>2013-07-20T05:11:43Z</time>
      </trkpt>
      <trkpt lat="45.92546" lon="6.19876">
        <ele>610.396</ele>
        <time>2013-07-20T05:11:48Z</time>
      </trkpt>
      <trkpt lat="45.92561" lon="6.19858">
        <ele>609.329</ele>
        <time>2013-07-20T05:11:50Z</time>
      </trkpt>
      <trkpt lat="45.92594" lon="6.19805">
        <ele>606.711</ele>
        <time>2013-07-20T05:11:55Z</time>
      </trkpt>
      <trkpt lat="45.92599" lon="6.19794">
        <ele>606.457</ele>
        <time>2013-07-20T05:11:56Z</time>
      </trkpt>
      <trkpt lat="45.92615" lon="6.19764">
        <ele>606.301</ele>
        <time>2013-07-20T05:11:59Z</time>
      </trkpt>
      <trkpt lat="45.92646" lon="6.19731">
        <ele>606.202</ele>
        <time>2013-07-20T05:12:04Z</time>
      </trkpt>
      <trkpt lat="45.92672" lon="6.19714">
        <ele>607.251</ele>
        <time>2013-07-20T05:12:09Z</time>
      </trkpt>
      <trkpt lat="45.92681" lon="6.19707">
        <ele>607.644</ele>
        <time>2013-07-20T05:12:11Z</time>
      </trkpt>
      <trkpt lat="45.9271" lon="6.1969">
        <ele>609.399</ele>
        <time>2013-07-20T05:12:18Z</time>
      </trkpt>
      <trkpt lat="45.92722" lon="6.19684">
        <ele>610.205</ele>
        <time>2013-07-20T05:12:21Z</time>
      </trkpt>
      <trkpt lat="45.92733" lon="6.19679">
        <ele>610.805</ele>
        <time>2013-07-20T05:12:24Z</time>
      </trkpt>
      <trkpt lat="45.92748" lon="6.19671">
        <ele>612.074</ele>
        <time>2013-07-20T05:12:28Z</time>
      </trkpt>
      <trkpt lat="45.92755" lon="6.19667">
        <ele>612.508</ele>
        <time>2013-07-20T05:12:30Z</time>
      </trkpt>
      <trkpt lat="45.92774" lon="6.19658">
        <ele>613.72</ele>
        <time>2013-07-20T05:12:36Z</time>
      </trkpt>
      <trkpt lat="45.92795" lon="6.19645">
        <ele>615.763</ele>
        <time>2013-07-20T05:12:43Z</time>
      </trkpt>
      <trkpt lat="45.92823" lon="6.19633">
        <ele>617.832</ele>
        <time>2013-07-20T05:12:52Z</time>
      </trkpt>
      <trkpt lat="45.92846" lon="6.19629">
        <ele>619.212</ele>
        <time>2013-07-20T05:12:59Z</time>
      </trkpt>
      <trkpt lat="45.9287" lon="6.1963">
        <ele>620.546</ele>
        <time>2013-07-20T05:13:06Z</time>
      </trkpt>
      <trkpt lat="45.92893" lon="6.19627">
        <ele>622.015</ele>
        <time>2013-07-20T05:13:13Z</time>
      </trkpt>
      <trkpt lat="45.92926" lon="6.19617">
        <ele>624.259</ele>
        <time>2013-07-20T05:13:24Z</time>
      </trkpt>
      <trkpt lat="45.92945" lon="6.19603">
        <ele>626.003</ele>
        <time>2013-07-20T05:13:31Z</time>
      </trkpt>
      <trkpt lat="45.9297" lon="6.19575">
        <ele>627.901</ele>
        <time>2013-07-20T05:13:40Z</time>
      </trkpt>
      <trkpt lat="45.92993" lon="6.19544">
        <ele>629.102</ele>
        <time>2013-07-20T05:13:49Z</time>
      </trkpt>
      <trkpt lat="45.93006" lon="6.19516">
        <ele>629.497</ele>
        <time>2013-07-20T05:13:55Z</time>
      </trkpt>
      <trkpt lat="45.93016" lon="6.1949">
        <ele>629.694</ele>
        <time>2013-07-20T05:14:00Z</time>
      </trkpt>
      <trkpt lat="45.93028" lon="6.19462">
        <ele>629.314</ele>
        <time>2013-07-20T05:14:05Z</time>
      </trkpt>
      <trkpt lat="45.93038" lon="6.19444">
        <ele>629.539</ele>
        <time>2013-07-20T05:14:08Z</time>
      </trkpt>
      <trkpt lat="45.93054" lon="6.19424">
        <ele>629.735</ele>
        <time>2013-07-20T05:14:12Z</time>
      </trkpt>
      <trkpt lat="45.93088" lon="6.19397">
        <ele>629.827</ele>
        <time>2013-07-20T05:14:19Z</time>
      </trkpt>
      <trkpt lat="45.93117" lon="6.19373">
        <ele>630.066</ele>
        <time>2013-07-20T05:14:26Z</time>
      </trkpt>
      <trkpt lat="45.93145" lon="6.19339">
        <ele>630.612</ele>
        <time>2013-07-20T05:14:34Z</time>
      </trkpt>
      <trkpt lat="45.93155" lon="6.19325">
        <ele>630.753</ele>
        <time>2013-07-20T05:14:37Z</time>
      </trkpt>
      <trkpt lat="45.93182" lon="6.19282">
        <ele>632.548</ele>
        <time>2013-07-20T05:14:46Z</time>
      </trkpt>
      <trkpt lat="45.93211" lon="6.19232">
        <ele>634.104</ele>
        <time>2013-07-20T05:14:57Z</time>
      </trkpt>
      <trkpt lat="45.93232" lon="6.19188">
        <ele>636.214</ele>
        <time>2013-07-20T05:15:06Z</time>
      </trkpt>
      <trkpt lat="45.93245" lon="6.19146">
        <ele>637.168</ele>
        <time>2013-07-20T05:15:14Z</time>
      </trkpt>
      <trkpt lat="45.93247" lon="6.19135">
        <ele>637.318</ele>
        <time>2013-07-20T05:15:16Z</time>
      </trkpt>
      <trkpt lat="45.9326" lon="6.19093">
        <ele>637.291</ele>
        <time>2013-07-20T05:15:24Z</time>
      </trkpt>
      <trkpt lat="45.93277" lon="6.19071">
        <ele>637.36</ele>
        <time>2013-07-20T05:15:30Z</time>
      </trkpt>
      <trkpt lat="45.93298" lon="6.19061">
        <ele>637.39</ele>
        <time>2013-07-20T05:15:36Z</time>
      </trkpt>
      <trkpt lat="45.93316" lon="6.19052">
        <ele>637.54</ele>
        <time>2013-07-20T05:15:41Z</time>
      </trkpt>
      <trkpt lat="45.9335" lon="6.19035">
        <ele>637.773</ele>
        <time>2013-07-20T05:15:49Z</time>
      </trkpt>
      <trkpt lat="45.9336" lon="6.19031">
        <ele>637.763</ele>
        <time>2013-07-20T05:15:51Z</time>
      </trkpt>
      <trkpt lat="45.9339" lon="6.19012">
        <ele>637.626</ele>
        <time>2013-07-20T05:15:58Z</time>
      </trkpt>
      <trkpt lat="45.93419" lon="6.1899">
        <ele>638.412</ele>
        <time>2013-07-20T05:16:06Z</time>
      </trkpt>
      <trkpt lat="45.93426" lon="6.18985">
        <ele>639.156</ele>
        <time>2013-07-20T05:16:10Z</time>
      </trkpt>
      <trkpt lat="45.93427" lon="6.18985">
        <ele>639.395</ele>
        <time>2013-07-20T05:16:12Z</time>
      </trkpt>
      <trkpt lat="45.93427" lon="6.18985">
        <ele>639.84</ele>
        <time>2013-07-20T05:16:44Z</time>
      </trkpt>
      <trkpt lat="45.93433" lon="6.18987">
        <ele>640.32</ele>
        <time>2013-07-20T05:16:49Z</time>
      </trkpt>
      <trkpt lat="45.93439" lon="6.18994">
        <ele>640.94</ele>
        <time>2013-07-20T05:16:53Z</time>
      </trkpt>
      <trkpt lat="45.9344" lon="6.18996">
        <ele>641.068</ele>
        <time>2013-07-20T05:16:54Z</time>
      </trkpt>
      <trkpt lat="45.93451" lon="6.19013">
        <ele>641.01</ele>
        <time>2013-07-20T05:17:01Z</time>
      </trkpt>
      <trkpt lat="45.93462" lon="6.19035">
        <ele>640.285</ele>
        <time>2013-07-20T05:17:07Z</time>
      </trkpt>
      <trkpt lat="45.93472" lon="6.19051">
        <ele>639.493</ele>
        <time>2013-07-20T05:17:10Z</time>
      </trkpt>
      <trkpt lat="45.93494" lon="6.19067">
        <ele>638.26</ele>
        <time>2013-07-20T05:17:14Z</time>
      </trkpt>
      <trkpt lat="45.93512" lon="6.19086">
        <ele>637.005</ele>
        <time>2013-07-20T05:17:17Z</time>
      </trkpt>
      <trkpt lat="45.93542" lon="6.19125">
        <ele>635.855</ele>
        <time>2013-07-20T05:17:23Z</time>
      </trkpt>
      <trkpt lat="45.93563" lon="6.19156">
        <ele>636.485</ele>
        <time>2013-07-20T05:17:29Z</time>
      </trkpt>
      <trkpt lat="45.93573" lon="6.19171">
        <ele>636.607</ele>
        <time>2013-07-20T05:17:32Z</time>
      </trkpt>
      <trkpt lat="45.93605" lon="6.19204">
        <ele>637.764</ele>
        <time>2013-07-20T05:17:41Z</time>
      </trkpt>
      <trkpt lat="45.93628" lon="6.19225">
        <ele>639.004</ele>
        <time>2013-07-20T05:17:47Z</time>
      </trkpt>
      <trkpt lat="45.93647" lon="6.19239">
        <ele>639.681</ele>
        <time>2013-07-20T05:17:52Z</time>
      </trkpt>
      <trkpt lat="45.93663" lon="6.19253">
        <ele>640.924</ele>
        <time>2013-07-20T05:17:57Z</time>
      </trkpt>
      <trkpt lat="45.93686" lon="6.1927">
        <ele>642.04</ele>
        <time>2013-07-20T05:18:04Z</time>
      </trkpt>
      <trkpt lat="45.93708" lon="6.19281">
        <ele>643.42</ele>
        <time>2013-07-20T05:18:11Z</time>
      </trkpt>
      <trkpt lat="45.93735" lon="6.19291">
        <ele>645.057</ele>
        <time>2013-07-20T05:18:19Z</time>
      </trkpt>
      <trkpt lat="45.93746" lon="6.19295">
        <ele>645.799</ele>
        <time>2013-07-20T05:18:22Z</time>
      </trkpt>
      <trkpt lat="45.93765" lon="6.19303">
        <ele>646.924</ele>
        <time>2013-07-20T05:18:27Z</time>
      </trkpt>
      <trkpt lat="45.93781" lon="6.19305">
        <ele>648.549</ele>
        <time>2013-07-20T05:18:32Z</time>
      </trkpt>
      <trkpt lat="45.93805" lon="6.19304">
        <ele>650.144</ele>
        <time>2013-07-20T05:18:40Z</time>
      </trkpt>
      <trkpt lat="45.93823" lon="6.19305">
        <ele>651.384</ele>
        <time>2013-07-20T05:18:45Z</time>
      </trkpt>
      <trkpt lat="45.93847" lon="6.19302">
        <ele>652.921</ele>
        <time>2013-07-20T05:18:52Z</time>
      </trkpt>
      <trkpt lat="45.93867" lon="6.19301">
        <ele>653.991</ele>
        <time>2013-07-20T05:18:58Z</time>
      </trkpt>
      <trkpt lat="45.93903" lon="6.19298">
        <ele>655.455</ele>
        <time>2013-07-20T05:19:08Z</time>
      </trkpt>
      <trkpt lat="45.9394" lon="6.19295">
        <ele>656.945</ele>
        <time>2013-07-20T05:19:18Z</time>
      </trkpt>
      <trkpt lat="45.93974" lon="6.19294">
        <ele>658.456</ele>
        <time>2013-07-20T05:19:27Z</time>
      </trkpt>
      <trkpt lat="45.94014" lon="6.19301">
        <ele>659.982</ele>
        <time>2013-07-20T05:19:37Z</time>
      </trkpt>
      <trkpt lat="45.94049" lon="6.19312">
        <ele>662.008</ele>
        <time>2013-07-20T05:19:47Z</time>
      </trkpt>
      <trkpt lat="45.94082" lon="6.19318">
        <ele>663.797</ele>
        <time>2013-07-20T05:19:56Z</time>
      </trkpt>
      <trkpt lat="45.94117" lon="6.19322">
        <ele>664.67</ele>
        <time>2013-07-20T05:20:05Z</time>
      </trkpt>
      <trkpt lat="45.94158" lon="6.19327">
        <ele>665.917</ele>
        <time>2013-07-20T05:20:15Z</time>
      </trkpt>
      <trkpt lat="45.94199" lon="6.19333">
        <ele>666.729</ele>
        <time>2013-07-20T05:20:25Z</time>
      </trkpt>
      <trkpt lat="45.94228" lon="6.19343">
        <ele>667.253</ele>
        <time>2013-07-20T05:20:32Z</time>
      </trkpt>
      <trkpt lat="45.94264" lon="6.19362">
        <ele>668.366</ele>
        <time>2013-07-20T05:20:41Z</time>
      </trkpt>
      <trkpt lat="45.94297" lon="6.19383">
        <ele>669.185</ele>
        <time>2013-07-20T05:20:49Z</time>
      </trkpt>
      <trkpt lat="45.94337" lon="6.19406">
        <ele>670.909</ele>
        <time>2013-07-20T05:20:59Z</time>
      </trkpt>
      <trkpt lat="45.94374" lon="6.19426">
        <ele>672.286</ele>
        <time>2013-07-20T05:21:08Z</time>
      </trkpt>
      <trkpt lat="45.94432" lon="6.19457">
        <ele>674.328</ele>
        <time>2013-07-20T05:21:22Z</time>
      </trkpt>
      <trkpt lat="45.94473" lon="6.19477">
        <ele>675.843</ele>
        <time>2013-07-20T05:21:32Z</time>
      </trkpt>
      <trkpt lat="45.94494" lon="6.19477">
        <ele>676.437</ele>
        <time>2013-07-20T05:21:37Z</time>
      </trkpt>
      <trkpt lat="45.94506" lon="6.19474">
        <ele>676.964</ele>
        <time>2013-07-20T05:21:40Z</time>
      </trkpt>
      <trkpt lat="45.94514" lon="6.1947">
        <ele>677.296</ele>
        <time>2013-07-20T05:21:42Z</time>
      </trkpt>
      <trkpt lat="45.94556" lon="6.1944">
        <ele>679.231</ele>
        <time>2013-07-20T05:21:53Z</time>
      </trkpt>
      <trkpt lat="45.94596" lon="6.1941">
        <ele>681.51</ele>
        <time>2013-07-20T05:22:04Z</time>
      </trkpt>
      <trkpt lat="45.9462" lon="6.19392">
        <ele>683.034</ele>
        <time>2013-07-20T05:22:11Z</time>
      </trkpt>
      <trkpt lat="45.94654" lon="6.19373">
        <ele>684.986</ele>
        <time>2013-07-20T05:22:21Z</time>
      </trkpt>
      <trkpt lat="45.94683" lon="6.19369">
        <ele>686.925</ele>
        <time>2013-07-20T05:22:29Z</time>
      </trkpt>
      <trkpt lat="45.94717" lon="6.19375">
        <ele>688.693</ele>
        <time>2013-07-20T05:22:38Z</time>
      </trkpt>
      <trkpt lat="45.9475" lon="6.19391">
        <ele>690.524</ele>
        <time>2013-07-20T05:22:47Z</time>
      </trkpt>
      <trkpt lat="45.94794" lon="6.19418">
        <ele>692.737</ele>
        <time>2013-07-20T05:22:59Z</time>
      </trkpt>
      <trkpt lat="45.94835" lon="6.19444">
        <ele>694.246</ele>
        <time>2013-07-20T05:23:10Z</time>
      </trkpt>
      <trkpt lat="45.94872" lon="6.19467">
        <ele>695.907</ele>
        <time>2013-07-20T05:23:20Z</time>
      </trkpt>
      <trkpt lat="45.9491" lon="6.19491">
        <ele>697.427</ele>
        <time>2013-07-20T05:23:30Z</time>
      </trkpt>
      <trkpt lat="45.94949" lon="6.19516">
        <ele>699.188</ele>
        <time>2013-07-20T05:23:40Z</time>
      </trkpt>
      <trkpt lat="45.94992" lon="6.19544">
        <ele>700.732</ele>
        <time>2013-07-20T05:23:51Z</time>
      </trkpt>
      <trkpt lat="45.95025" lon="6.19567">
        <ele>702.451</ele>
        <time>2013-07-20T05:24:00Z</time>
      </trkpt>
      <trkpt lat="45.95047" lon="6.19582">
        <ele>703.717</ele>
        <time>2013-07-20T05:24:07Z</time>
      </trkpt>
      <trkpt lat="45.95081" lon="6.19603">
        <ele>705.189</ele>
        <time>2013-07-20T05:24:16Z</time>
      </trkpt>
      <trkpt lat="45.95123" lon="6.1963">
        <ele>707.193</ele>
        <time>2013-07-20T05:24:27Z</time>
      </trkpt>
      <trkpt lat="45.95159" lon="6.19653">
        <ele>708.829</ele>
        <time>2013-07-20T05:24:37Z</time>
      </trkpt>
      <trkpt lat="45.95197" lon="6.19677">
        <ele>710.205</ele>
        <time>2013-07-20T05:24:47Z</time>
      </trkpt>
      <trkpt lat="45.95231" lon="6.19709">
        <ele>711.345</ele>
        <time>2013-07-20T05:24:56Z</time>
      </trkpt>
      <trkpt lat="45.95269" lon="6.19756">
        <ele>712.86</ele>
        <time>2013-07-20T05:25:07Z</time>
      </trkpt>
      <trkpt lat="45.9529" lon="6.19797">
        <ele>713.896</ele>
        <time>2013-07-20T05:25:15Z</time>
      </trkpt>
      <trkpt lat="45.95308" lon="6.19842">
        <ele>715.721</ele>
        <time>2013-07-20T05:25:23Z</time>
      </trkpt>
      <trkpt lat="45.95329" lon="6.19899">
        <ele>718.037</ele>
        <time>2013-07-20T05:25:34Z</time>
      </trkpt>
      <trkpt lat="45.95345" lon="6.19942">
        <ele>720.07</ele>
        <time>2013-07-20T05:25:43Z</time>
      </trkpt>
      <trkpt lat="45.95359" lon="6.1998">
        <ele>722.192</ele>
        <time>2013-07-20T05:25:52Z</time>
      </trkpt>
      <trkpt lat="45.95373" lon="6.20018">
        <ele>724.625</ele>
        <time>2013-07-20T05:26:01Z</time>
      </trkpt>
      <trkpt lat="45.95388" lon="6.20058">
        <ele>726.706</ele>
        <time>2013-07-20T05:26:11Z</time>
      </trkpt>
      <trkpt lat="45.95401" lon="6.20095">
        <ele>728.716</ele>
        <time>2013-07-20T05:26:20Z</time>
      </trkpt>
      <trkpt lat="45.95415" lon="6.20136">
        <ele>730.951</ele>
        <time>2013-07-20T05:26:30Z</time>
      </trkpt>
      <trkpt lat="45.95429" lon="6.20186">
        <ele>733.965</ele>
        <time>2013-07-20T05:26:42Z</time>
      </trkpt>
      <trkpt lat="45.95436" lon="6.20224">
        <ele>736.349</ele>
        <time>2013-07-20T05:26:51Z</time>
      </trkpt>
      <trkpt lat="45.9544" lon="6.20255">
        <ele>737.748</ele>
        <time>2013-07-20T05:26:58Z</time>
      </trkpt>
      <trkpt lat="45.95444" lon="6.20309">
        <ele>741.055</ele>
        <time>2013-07-20T05:27:10Z</time>
      </trkpt>
      <trkpt lat="45.95444" lon="6.20347">
        <ele>742.765</ele>
        <time>2013-07-20T05:27:18Z</time>
      </trkpt>
      <trkpt lat="45.95442" lon="6.20387">
        <ele>744.624</ele>
        <time>2013-07-20T05:27:26Z</time>
      </trkpt>
      <trkpt lat="45.95438" lon="6.20442">
        <ele>745.826</ele>
        <time>2013-07-20T05:27:36Z</time>
      </trkpt>
      <trkpt lat="45.95434" lon="6.2052">
        <ele>747.128</ele>
        <time>2013-07-20T05:27:49Z</time>
      </trkpt>
      <trkpt lat="45.95435" lon="6.20573">
        <ele>748.511</ele>
        <time>2013-07-20T05:27:58Z</time>
      </trkpt>
      <trkpt lat="45.95444" lon="6.20621">
        <ele>750.015</ele>
        <time>2013-07-20T05:28:07Z</time>
      </trkpt>
      <trkpt lat="45.95462" lon="6.20665">
        <ele>751.475</ele>
        <time>2013-07-20T05:28:16Z</time>
      </trkpt>
      <trkpt lat="45.95476" lon="6.20693">
        <ele>751.909</ele>
        <time>2013-07-20T05:28:22Z</time>
      </trkpt>
      <trkpt lat="45.95499" lon="6.20733">
        <ele>753.641</ele>
        <time>2013-07-20T05:28:31Z</time>
      </trkpt>
      <trkpt lat="45.95519" lon="6.20754">
        <ele>754.27</ele>
        <time>2013-07-20T05:28:37Z</time>
      </trkpt>
      <trkpt lat="45.95553" lon="6.20766">
        <ele>755.278</ele>
        <time>2013-07-20T05:28:45Z</time>
      </trkpt>
      <trkpt lat="45.95596" lon="6.20779">
        <ele>756.809</ele>
        <time>2013-07-20T05:28:55Z</time>
      </trkpt>
      <trkpt lat="45.95631" lon="6.20797">
        <ele>758.285</ele>
        <time>2013-07-20T05:29:04Z</time>
      </trkpt>
      <trkpt lat="45.95669" lon="6.20821">
        <ele>760.119</ele>
        <time>2013-07-20T05:29:14Z</time>
      </trkpt>
      <trkpt lat="45.95705" lon="6.20843">
        <ele>762.042</ele>
        <time>2013-07-20T05:29:24Z</time>
      </trkpt>
      <trkpt lat="45.95728" lon="6.20858">
        <ele>763.128</ele>
        <time>2013-07-20T05:29:31Z</time>
      </trkpt>
      <trkpt lat="45.95755" lon="6.20876">
        <ele>765.166</ele>
        <time>2013-07-20T05:29:39Z</time>
      </trkpt>
      <trkpt lat="45.95785" lon="6.20897">
        <ele>766.424</ele>
        <time>2013-07-20T05:29:47Z</time>
      </trkpt>
      <trkpt lat="45.9581" lon="6.20925">
        <ele>767.216</ele>
        <time>2013-07-20T05:29:54Z</time>
      </trkpt>
      <trkpt lat="45.95829" lon="6.20955">
        <ele>767.629</ele>
        <time>2013-07-20T05:30:00Z</time>
      </trkpt>
      <trkpt lat="45.95845" lon="6.21008">
        <ele>768.138</ele>
        <time>2013-07-20T05:30:08Z</time>
      </trkpt>
      <trkpt lat="45.95855" lon="6.21063">
        <ele>768.572</ele>
        <time>2013-07-20T05:30:16Z</time>
      </trkpt>
      <trkpt lat="45.9586" lon="6.21091">
        <ele>769.206</ele>
        <time>2013-07-20T05:30:20Z</time>
      </trkpt>
      <trkpt lat="45.95875" lon="6.21138">
        <ele>769.911</ele>
        <time>2013-07-20T05:30:28Z</time>
      </trkpt>
      <trkpt lat="45.95891" lon="6.21167">
        <ele>770.166</ele>
        <time>2013-07-20T05:30:34Z</time>
      </trkpt>
      <trkpt lat="45.95902" lon="6.21184">
        <ele>770.674</ele>
        <time>2013-07-20T05:30:38Z</time>
      </trkpt>
      <trkpt lat="45.95918" lon="6.21203">
        <ele>770.11</ele>
        <time>2013-07-20T05:30:43Z</time>
      </trkpt>
      <trkpt lat="45.95932" lon="6.21224">
        <ele>769.699</ele>
        <time>2013-07-20T05:30:47Z</time>
      </trkpt>
      <trkpt lat="45.95962" lon="6.21268">
        <ele>768.481</ele>
        <time>2013-07-20T05:30:54Z</time>
      </trkpt>
      <trkpt lat="45.95984" lon="6.21295">
        <ele>767.157</ele>
        <time>2013-07-20T05:30:58Z</time>
      </trkpt>
      <trkpt lat="45.96002" lon="6.21318">
        <ele>766.087</ele>
        <time>2013-07-20T05:31:01Z</time>
      </trkpt>
      <trkpt lat="45.96018" lon="6.21344">
        <ele>764.93</ele>
        <time>2013-07-20T05:31:04Z</time>
      </trkpt>
      <trkpt lat="45.96031" lon="6.21375">
        <ele>764.197</ele>
        <time>2013-07-20T05:31:07Z</time>
      </trkpt>
      <trkpt lat="45.96038" lon="6.21423">
        <ele>762.409</ele>
        <time>2013-07-20T05:31:11Z</time>
      </trkpt>
      <trkpt lat="45.96036" lon="6.21436">
        <ele>762.112</ele>
        <time>2013-07-20T05:31:12Z</time>
      </trkpt>
      <trkpt lat="45.9603" lon="6.21459">
        <ele>761.236</ele>
        <time>2013-07-20T05:31:14Z</time>
      </trkpt>
      <trkpt lat="45.96022" lon="6.21482">
        <ele>760.263</ele>
        <time>2013-07-20T05:31:16Z</time>
      </trkpt>
      <trkpt lat="45.96014" lon="6.21548">
        <ele>758.139</ele>
        <time>2013-07-20T05:31:21Z</time>
      </trkpt>
      <trkpt lat="45.96013" lon="6.21599">
        <ele>756.29</ele>
        <time>2013-07-20T05:31:25Z</time>
      </trkpt>
      <trkpt lat="45.96019" lon="6.21636">
        <ele>754.447</ele>
        <time>2013-07-20T05:31:28Z</time>
      </trkpt>
      <trkpt lat="45.9604" lon="6.21648">
        <ele>754.196</ele>
        <time>2013-07-20T05:31:31Z</time>
      </trkpt>
      <trkpt lat="45.96054" lon="6.21642">
        <ele>754.014</ele>
        <time>2013-07-20T05:31:33Z</time>
      </trkpt>
      <trkpt lat="45.96091" lon="6.21616">
        <ele>752.778</ele>
        <time>2013-07-20T05:31:39Z</time>
      </trkpt>
      <trkpt lat="45.96129" lon="6.21592">
        <ele>751.9</ele>
        <time>2013-07-20T05:31:45Z</time>
      </trkpt>
      <trkpt lat="45.96175" lon="6.21562">
        <ele>752.478</ele>
        <time>2013-07-20T05:31:54Z</time>
      </trkpt>
      <trkpt lat="45.96213" lon="6.2155">
        <ele>752.303</ele>
        <time>2013-07-20T05:32:01Z</time>
      </trkpt>
      <trkpt lat="45.96234" lon="6.21545">
        <ele>752.003</ele>
        <time>2013-07-20T05:32:05Z</time>
      </trkpt>
      <trkpt lat="45.9627" lon="6.21517">
        <ele>751.991</ele>
        <time>2013-07-20T05:32:13Z</time>
      </trkpt>
      <trkpt lat="45.96288" lon="6.21505">
        <ele>751.944</ele>
        <time>2013-07-20T05:32:17Z</time>
      </trkpt>
      <trkpt lat="45.96316" lon="6.21502">
        <ele>752.054</ele>
        <time>2013-07-20T05:32:22Z</time>
      </trkpt>
      <trkpt lat="45.96356" lon="6.2152">
        <ele>752.764</ele>
        <time>2013-07-20T05:32:30Z</time>
      </trkpt>
      <trkpt lat="45.96414" lon="6.21553">
        <ele>753.658</ele>
        <time>2013-07-20T05:32:42Z</time>
      </trkpt>
      <trkpt lat="45.96454" lon="6.21579">
        <ele>754.61</ele>
        <time>2013-07-20T05:32:51Z</time>
      </trkpt>
      <trkpt lat="45.96486" lon="6.21597">
        <ele>755</ele>
        <time>2013-07-20T05:32:58Z</time>
      </trkpt>
      <trkpt lat="45.9653" lon="6.21625">
        <ele>755.617</ele>
        <time>2013-07-20T05:33:08Z</time>
      </trkpt>
      <trkpt lat="45.9657" lon="6.21648">
        <ele>756.36</ele>
        <time>2013-07-20T05:33:17Z</time>
      </trkpt>
      <trkpt lat="45.96613" lon="6.21674">
        <ele>757.004</ele>
        <time>2013-07-20T05:33:27Z</time>
      </trkpt>
      <trkpt lat="45.96647" lon="6.21694">
        <ele>757.664</ele>
        <time>2013-07-20T05:33:35Z</time>
      </trkpt>
      <trkpt lat="45.96682" lon="6.21714">
        <ele>759.593</ele>
        <time>2013-07-20T05:33:44Z</time>
      </trkpt>
      <trkpt lat="45.96706" lon="6.21728">
        <ele>760.567</ele>
        <time>2013-07-20T05:33:51Z</time>
      </trkpt>
      <trkpt lat="45.9673" lon="6.21744">
        <ele>761.493</ele>
        <time>2013-07-20T05:33:59Z</time>
      </trkpt>
      <trkpt lat="45.96756" lon="6.2176">
        <ele>762.756</ele>
        <time>2013-07-20T05:34:07Z</time>
      </trkpt>
      <trkpt lat="45.96789" lon="6.21778">
        <ele>764.249</ele>
        <time>2013-07-20T05:34:16Z</time>
      </trkpt>
      <trkpt lat="45.96821" lon="6.21797">
        <ele>765.551</ele>
        <time>2013-07-20T05:34:25Z</time>
      </trkpt>
      <trkpt lat="45.96847" lon="6.21808">
        <ele>766.76</ele>
        <time>2013-07-20T05:34:32Z</time>
      </trkpt>
      <trkpt lat="45.96881" lon="6.21822">
        <ele>768.111</ele>
        <time>2013-07-20T05:34:41Z</time>
      </trkpt>
      <trkpt lat="45.96923" lon="6.21844">
        <ele>770.119</ele>
        <time>2013-07-20T05:34:52Z</time>
      </trkpt>
      <trkpt lat="45.96952" lon="6.21864">
        <ele>771.4</ele>
        <time>2013-07-20T05:35:00Z</time>
      </trkpt>
      <trkpt lat="45.9697" lon="6.21868">
        <ele>771.921</ele>
        <time>2013-07-20T05:35:05Z</time>
      </trkpt>
      <trkpt lat="45.9699" lon="6.21868">
        <ele>772.624</ele>
        <time>2013-07-20T05:35:11Z</time>
      </trkpt>
      <trkpt lat="45.97008" lon="6.21868">
        <ele>773.006</ele>
        <time>2013-07-20T05:35:16Z</time>
      </trkpt>
      <trkpt lat="45.97036" lon="6.21868">
        <ele>773.078</ele>
        <time>2013-07-20T05:35:23Z</time>
      </trkpt>
      <trkpt lat="45.97051" lon="6.21869">
        <ele>773.129</ele>
        <time>2013-07-20T05:35:27Z</time>
      </trkpt>
      <trkpt lat="45.97084" lon="6.21871">
        <ele>774.158</ele>
        <time>2013-07-20T05:35:36Z</time>
      </trkpt>
      <trkpt lat="45.97101" lon="6.21871">
        <ele>774.138</ele>
        <time>2013-07-20T05:35:41Z</time>
      </trkpt>
      <trkpt lat="45.9712" lon="6.21863">
        <ele>774.913</ele>
        <time>2013-07-20T05:35:47Z</time>
      </trkpt>
      <trkpt lat="45.97132" lon="6.21848">
        <ele>774.879</ele>
        <time>2013-07-20T05:35:52Z</time>
      </trkpt>
      <trkpt lat="45.97148" lon="6.21814">
        <ele>775.245</ele>
        <time>2013-07-20T05:36:00Z</time>
      </trkpt>
      <trkpt lat="45.97167" lon="6.21778">
        <ele>775.69</ele>
        <time>2013-07-20T05:36:08Z</time>
      </trkpt>
      <trkpt lat="45.97187" lon="6.21764">
        <ele>776.266</ele>
        <time>2013-07-20T05:36:14Z</time>
      </trkpt>
      <trkpt lat="45.97218" lon="6.21759">
        <ele>777.133</ele>
        <time>2013-07-20T05:36:22Z</time>
      </trkpt>
      <trkpt lat="45.97247" lon="6.21757">
        <ele>777.436</ele>
        <time>2013-07-20T05:36:29Z</time>
      </trkpt>
      <trkpt lat="45.97291" lon="6.21754">
        <ele>779.076</ele>
        <time>2013-07-20T05:36:39Z</time>
      </trkpt>
      <trkpt lat="45.97346" lon="6.21753">
        <ele>780.185</ele>
        <time>2013-07-20T05:36:51Z</time>
      </trkpt>
      <trkpt lat="45.97378" lon="6.21766">
        <ele>780.78</ele>
        <time>2013-07-20T05:36:58Z</time>
      </trkpt>
      <trkpt lat="45.97399" lon="6.21782">
        <ele>781.415</ele>
        <time>2013-07-20T05:37:03Z</time>
      </trkpt>
      <trkpt lat="45.97436" lon="6.21822">
        <ele>782.639</ele>
        <time>2013-07-20T05:37:13Z</time>
      </trkpt>
      <trkpt lat="45.97468" lon="6.21857">
        <ele>783.469</ele>
        <time>2013-07-20T05:37:22Z</time>
      </trkpt>
      <trkpt lat="45.97493" lon="6.21885">
        <ele>783.956</ele>
        <time>2013-07-20T05:37:30Z</time>
      </trkpt>
      <trkpt lat="45.97508" lon="6.21915">
        <ele>783.731</ele>
        <time>2013-07-20T05:37:36Z</time>
      </trkpt>
      <trkpt lat="45.97534" lon="6.21959">
        <ele>782.837</ele>
        <time>2013-07-20T05:37:44Z</time>
      </trkpt>
      <trkpt lat="45.97559" lon="6.21988">
        <ele>782.122</ele>
        <time>2013-07-20T05:37:50Z</time>
      </trkpt>
      <trkpt lat="45.97569" lon="6.21996">
        <ele>781.676</ele>
        <time>2013-07-20T05:37:52Z</time>
      </trkpt>
      <trkpt lat="45.97592" lon="6.22004">
        <ele>780.998</ele>
        <time>2013-07-20T05:37:56Z</time>
      </trkpt>
      <trkpt lat="45.97623" lon="6.22009">
        <ele>779.981</ele>
        <time>2013-07-20T05:38:01Z</time>
      </trkpt>
      <trkpt lat="45.97651" lon="6.22016">
        <ele>778.725</ele>
        <time>2013-07-20T05:38:05Z</time>
      </trkpt>
      <trkpt lat="45.97681" lon="6.22036">
        <ele>776.933</ele>
        <time>2013-07-20T05:38:09Z</time>
      </trkpt>
      <trkpt lat="45.97701" lon="6.22064">
        <ele>775.513</ele>
        <time>2013-07-20T05:38:12Z</time>
      </trkpt>
      <trkpt lat="45.97742" lon="6.22148">
        <ele>771.612</ele>
        <time>2013-07-20T05:38:19Z</time>
      </trkpt>
      <trkpt lat="45.97781" lon="6.22222">
        <ele>768.827</ele>
        <time>2013-07-20T05:38:25Z</time>
      </trkpt>
      <trkpt lat="45.97825" lon="6.2228">
        <ele>766.041</ele>
        <time>2013-07-20T05:38:31Z</time>
      </trkpt>
      <trkpt lat="45.97871" lon="6.22343">
        <ele>763.886</ele>
        <time>2013-07-20T05:38:38Z</time>
      </trkpt>
      <trkpt lat="45.97892" lon="6.22399">
        <ele>763.191</ele>
        <time>2013-07-20T05:38:43Z</time>
      </trkpt>
      <trkpt lat="45.97914" lon="6.22466">
        <ele>762.728</ele>
        <time>2013-07-20T05:38:49Z</time>
      </trkpt>
      <trkpt lat="45.97948" lon="6.22517">
        <ele>762.169</ele>
        <time>2013-07-20T05:38:55Z</time>
      </trkpt>
      <trkpt lat="45.97989" lon="6.2256">
        <ele>761.432</ele>
        <time>2013-07-20T05:39:01Z</time>
      </trkpt>
      <trkpt lat="45.98034" lon="6.22616">
        <ele>761.317</ele>
        <time>2013-07-20T05:39:08Z</time>
      </trkpt>
      <trkpt lat="45.98077" lon="6.22675">
        <ele>760.639</ele>
        <time>2013-07-20T05:39:15Z</time>
      </trkpt>
      <trkpt lat="45.98143" lon="6.22766">
        <ele>760.434</ele>
        <time>2013-07-20T05:39:26Z</time>
      </trkpt>
      <trkpt lat="45.98174" lon="6.22819">
        <ele>760.56</ele>
        <time>2013-07-20T05:39:32Z</time>
      </trkpt>
      <trkpt lat="45.98221" lon="6.2291">
        <ele>760.755</ele>
        <time>2013-07-20T05:39:42Z</time>
      </trkpt>
      <trkpt lat="45.9823" lon="6.22927">
        <ele>760.736</ele>
        <time>2013-07-20T05:39:44Z</time>
      </trkpt>
      <trkpt lat="45.98259" lon="6.22953">
        <ele>760.473</ele>
        <time>2013-07-20T05:39:49Z</time>
      </trkpt>
      <trkpt lat="45.98287" lon="6.22952">
        <ele>760.788</ele>
        <time>2013-07-20T05:39:53Z</time>
      </trkpt>
      <trkpt lat="45.983" lon="6.22945">
        <ele>760.565</ele>
        <time>2013-07-20T05:39:55Z</time>
      </trkpt>
      <trkpt lat="45.98361" lon="6.22906">
        <ele>757.982</ele>
        <time>2013-07-20T05:40:04Z</time>
      </trkpt>
      <trkpt lat="45.98398" lon="6.22884">
        <ele>757.179</ele>
        <time>2013-07-20T05:40:09Z</time>
      </trkpt>
      <trkpt lat="45.98451" lon="6.2285">
        <ele>754.693</ele>
        <time>2013-07-20T05:40:16Z</time>
      </trkpt>
      <trkpt lat="45.98491" lon="6.22833">
        <ele>752.793</ele>
        <time>2013-07-20T05:40:21Z</time>
      </trkpt>
      <trkpt lat="45.98518" lon="6.22829">
        <ele>751.559</ele>
        <time>2013-07-20T05:40:24Z</time>
      </trkpt>
      <trkpt lat="45.98537" lon="6.22833">
        <ele>750.623</ele>
        <time>2013-07-20T05:40:26Z</time>
      </trkpt>
      <trkpt lat="45.98556" lon="6.2284">
        <ele>749.579</ele>
        <time>2013-07-20T05:40:28Z</time>
      </trkpt>
      <trkpt lat="45.98565" lon="6.22846">
        <ele>749.015</ele>
        <time>2013-07-20T05:40:29Z</time>
      </trkpt>
      <trkpt lat="45.98582" lon="6.22861">
        <ele>748.156</ele>
        <time>2013-07-20T05:40:31Z</time>
      </trkpt>
      <trkpt lat="45.98611" lon="6.22903">
        <ele>745.621</ele>
        <time>2013-07-20T05:40:35Z</time>
      </trkpt>
      <trkpt lat="45.98629" lon="6.2296">
        <ele>742.683</ele>
        <time>2013-07-20T05:40:39Z</time>
      </trkpt>
      <trkpt lat="45.98633" lon="6.23008">
        <ele>740.74</ele>
        <time>2013-07-20T05:40:42Z</time>
      </trkpt>
      <trkpt lat="45.98633" lon="6.2313">
        <ele>735.94</ele>
        <time>2013-07-20T05:40:49Z</time>
      </trkpt>
      <trkpt lat="45.98642" lon="6.23202">
        <ele>733.352</ele>
        <time>2013-07-20T05:40:53Z</time>
      </trkpt>
      <trkpt lat="45.98669" lon="6.23286">
        <ele>729.994</ele>
        <time>2013-07-20T05:40:58Z</time>
      </trkpt>
      <trkpt lat="45.98696" lon="6.2337">
        <ele>725.203</ele>
        <time>2013-07-20T05:41:03Z</time>
      </trkpt>
      <trkpt lat="45.98703" lon="6.23443">
        <ele>721.295</ele>
        <time>2013-07-20T05:41:07Z</time>
      </trkpt>
      <trkpt lat="45.98696" lon="6.23497">
        <ele>718.925</ele>
        <time>2013-07-20T05:41:10Z</time>
      </trkpt>
      <trkpt lat="45.98692" lon="6.23514">
        <ele>717.955</ele>
        <time>2013-07-20T05:41:11Z</time>
      </trkpt>
      <trkpt lat="45.98683" lon="6.23548">
        <ele>716.303</ele>
        <time>2013-07-20T05:41:13Z</time>
      </trkpt>
      <trkpt lat="45.98683" lon="6.23601">
        <ele>714.432</ele>
        <time>2013-07-20T05:41:16Z</time>
      </trkpt>
      <trkpt lat="45.98696" lon="6.23631">
        <ele>712.625</ele>
        <time>2013-07-20T05:41:18Z</time>
      </trkpt>
      <trkpt lat="45.98726" lon="6.23709">
        <ele>708.523</ele>
        <time>2013-07-20T05:41:23Z</time>
      </trkpt>
      <trkpt lat="45.98759" lon="6.23762">
        <ele>704.856</ele>
        <time>2013-07-20T05:41:27Z</time>
      </trkpt>
      <trkpt lat="45.9878" lon="6.23805">
        <ele>702.517</ele>
        <time>2013-07-20T05:41:30Z</time>
      </trkpt>
      <trkpt lat="45.98777" lon="6.23841">
        <ele>700.374</ele>
        <time>2013-07-20T05:41:32Z</time>
      </trkpt>
      <trkpt lat="45.98761" lon="6.2389">
        <ele>697.539</ele>
        <time>2013-07-20T05:41:35Z</time>
      </trkpt>
      <trkpt lat="45.98769" lon="6.23923">
        <ele>695.64</ele>
        <time>2013-07-20T05:41:37Z</time>
      </trkpt>
      <trkpt lat="45.98776" lon="6.23937">
        <ele>694.899</ele>
        <time>2013-07-20T05:41:38Z</time>
      </trkpt>
      <trkpt lat="45.98793" lon="6.23963">
        <ele>693.243</ele>
        <time>2013-07-20T05:41:40Z</time>
      </trkpt>
      <trkpt lat="45.98814" lon="6.24026">
        <ele>690.321</ele>
        <time>2013-07-20T05:41:44Z</time>
      </trkpt>
      <trkpt lat="45.98845" lon="6.24235">
        <ele>680.305</ele>
        <time>2013-07-20T05:41:56Z</time>
      </trkpt>
      <trkpt lat="45.98846" lon="6.24252">
        <ele>679.245</ele>
        <time>2013-07-20T05:41:57Z</time>
      </trkpt>
      <trkpt lat="45.98841" lon="6.24321">
        <ele>676.1</ele>
        <time>2013-07-20T05:42:01Z</time>
      </trkpt>
      <trkpt lat="45.98839" lon="6.24338">
        <ele>675.307</ele>
        <time>2013-07-20T05:42:02Z</time>
      </trkpt>
      <trkpt lat="45.98848" lon="6.24406">
        <ele>672.157</ele>
        <time>2013-07-20T05:42:06Z</time>
      </trkpt>
      <trkpt lat="45.98881" lon="6.24515">
        <ele>667.839</ele>
        <time>2013-07-20T05:42:13Z</time>
      </trkpt>
      <trkpt lat="45.98898" lon="6.24578">
        <ele>665.147</ele>
        <time>2013-07-20T05:42:17Z</time>
      </trkpt>
      <trkpt lat="45.98901" lon="6.2466">
        <ele>662.26</ele>
        <time>2013-07-20T05:42:22Z</time>
      </trkpt>
      <trkpt lat="45.98896" lon="6.24777">
        <ele>657.756</ele>
        <time>2013-07-20T05:42:29Z</time>
      </trkpt>
      <trkpt lat="45.98896" lon="6.24793">
        <ele>657.171</ele>
        <time>2013-07-20T05:42:30Z</time>
      </trkpt>
      <trkpt lat="45.98913" lon="6.2485">
        <ele>654.483</ele>
        <time>2013-07-20T05:42:34Z</time>
      </trkpt>
      <trkpt lat="45.98943" lon="6.24869">
        <ele>652.746</ele>
        <time>2013-07-20T05:42:37Z</time>
      </trkpt>
      <trkpt lat="45.98965" lon="6.2487">
        <ele>652.417</ele>
        <time>2013-07-20T05:42:39Z</time>
      </trkpt>
      <trkpt lat="45.99055" lon="6.24855">
        <ele>646.721</ele>
        <time>2013-07-20T05:42:47Z</time>
      </trkpt>
      <trkpt lat="45.99101" lon="6.24846">
        <ele>644.433</ele>
        <time>2013-07-20T05:42:51Z</time>
      </trkpt>
      <trkpt lat="45.99181" lon="6.24832">
        <ele>639.733</ele>
        <time>2013-07-20T05:42:58Z</time>
      </trkpt>
      <trkpt lat="45.99231" lon="6.24826">
        <ele>638.382</ele>
        <time>2013-07-20T05:43:03Z</time>
      </trkpt>
      <trkpt lat="45.99273" lon="6.24822">
        <ele>638.891</ele>
        <time>2013-07-20T05:43:08Z</time>
      </trkpt>
      <trkpt lat="45.99305" lon="6.24827">
        <ele>640.32</ele>
        <time>2013-07-20T05:43:13Z</time>
      </trkpt>
      <trkpt lat="45.99328" lon="6.2484">
        <ele>641.608</ele>
        <time>2013-07-20T05:43:18Z</time>
      </trkpt>
      <trkpt lat="45.99344" lon="6.24852">
        <ele>642.714</ele>
        <time>2013-07-20T05:43:22Z</time>
      </trkpt>
      <trkpt lat="45.99364" lon="6.24881">
        <ele>644.357</ele>
        <time>2013-07-20T05:43:29Z</time>
      </trkpt>
      <trkpt lat="45.99376" lon="6.24905">
        <ele>645.496</ele>
        <time>2013-07-20T05:43:34Z</time>
      </trkpt>
      <trkpt lat="45.99387" lon="6.24952">
        <ele>647.023</ele>
        <time>2013-07-20T05:43:42Z</time>
      </trkpt>
      <trkpt lat="45.9939" lon="6.24999">
        <ele>648.703</ele>
        <time>2013-07-20T05:43:50Z</time>
      </trkpt>
      <trkpt lat="45.9939" lon="6.25053">
        <ele>650.545</ele>
        <time>2013-07-20T05:43:59Z</time>
      </trkpt>
      <trkpt lat="45.99392" lon="6.25077">
        <ele>651.212</ele>
        <time>2013-07-20T05:44:03Z</time>
      </trkpt>
      <trkpt lat="45.99405" lon="6.25122">
        <ele>652.896</ele>
        <time>2013-07-20T05:44:11Z</time>
      </trkpt>
      <trkpt lat="45.99424" lon="6.25161">
        <ele>653.993</ele>
        <time>2013-07-20T05:44:19Z</time>
      </trkpt>
      <trkpt lat="45.99441" lon="6.25196">
        <ele>656.041</ele>
        <time>2013-07-20T05:44:27Z</time>
      </trkpt>
      <trkpt lat="45.99455" lon="6.25242">
        <ele>657.389</ele>
        <time>2013-07-20T05:44:36Z</time>
      </trkpt>
      <trkpt lat="45.99473" lon="6.2527">
        <ele>658.568</ele>
        <time>2013-07-20T05:44:43Z</time>
      </trkpt>
      <trkpt lat="45.99491" lon="6.25281">
        <ele>659.279</ele>
        <time>2013-07-20T05:44:48Z</time>
      </trkpt>
      <trkpt lat="45.99523" lon="6.25291">
        <ele>660.825</ele>
        <time>2013-07-20T05:44:56Z</time>
      </trkpt>
      <trkpt lat="45.99554" lon="6.25305">
        <ele>663.263</ele>
        <time>2013-07-20T05:45:04Z</time>
      </trkpt>
      <trkpt lat="45.99577" lon="6.25323">
        <ele>665.08</ele>
        <time>2013-07-20T05:45:11Z</time>
      </trkpt>
      <trkpt lat="45.99595" lon="6.25336">
        <ele>666.134</ele>
        <time>2013-07-20T05:45:16Z</time>
      </trkpt>
      <trkpt lat="45.99635" lon="6.25341">
        <ele>666.983</ele>
        <time>2013-07-20T05:45:25Z</time>
      </trkpt>
      <trkpt lat="45.99675" lon="6.25345">
        <ele>668.183</ele>
        <time>2013-07-20T05:45:34Z</time>
      </trkpt>
      <trkpt lat="45.99715" lon="6.25347">
        <ele>669.67</ele>
        <time>2013-07-20T05:45:43Z</time>
      </trkpt>
      <trkpt lat="45.99732" lon="6.25339">
        <ele>670.444</ele>
        <time>2013-07-20T05:45:48Z</time>
      </trkpt>
      <trkpt lat="45.99736" lon="6.25324">
        <ele>671.178</ele>
        <time>2013-07-20T05:45:51Z</time>
      </trkpt>
      <trkpt lat="45.9973" lon="6.25303">
        <ele>672.105</ele>
        <time>2013-07-20T05:45:55Z</time>
      </trkpt>
      <trkpt lat="45.99713" lon="6.25283">
        <ele>673.641</ele>
        <time>2013-07-20T05:46:01Z</time>
      </trkpt>
      <trkpt lat="45.99688" lon="6.25271">
        <ele>674.99</ele>
        <time>2013-07-20T05:46:08Z</time>
      </trkpt>
      <trkpt lat="45.99654" lon="6.25259">
        <ele>676.902</ele>
        <time>2013-07-20T05:46:17Z</time>
      </trkpt>
      <trkpt lat="45.99639" lon="6.25247">
        <ele>677.718</ele>
        <time>2013-07-20T05:46:21Z</time>
      </trkpt>
      <trkpt lat="45.99626" lon="6.25218">
        <ele>679.26</ele>
        <time>2013-07-20T05:46:27Z</time>
      </trkpt>
      <trkpt lat="45.99625" lon="6.25212">
        <ele>679.539</ele>
        <time>2013-07-20T05:46:28Z</time>
      </trkpt>
      <trkpt lat="45.99624" lon="6.252">
        <ele>680.061</ele>
        <time>2013-07-20T05:46:30Z</time>
      </trkpt>
      <trkpt lat="45.99627" lon="6.25145">
        <ele>682.077</ele>
        <time>2013-07-20T05:46:39Z</time>
      </trkpt>
      <trkpt lat="45.99634" lon="6.25088">
        <ele>683.594</ele>
        <time>2013-07-20T05:46:48Z</time>
      </trkpt>
      <trkpt lat="45.99639" lon="6.25047">
        <ele>684.107</ele>
        <time>2013-07-20T05:46:55Z</time>
      </trkpt>
      <trkpt lat="45.99649" lon="6.24994">
        <ele>684.981</ele>
        <time>2013-07-20T05:47:03Z</time>
      </trkpt>
      <trkpt lat="45.99657" lon="6.24954">
        <ele>685.425</ele>
        <time>2013-07-20T05:47:10Z</time>
      </trkpt>
      <trkpt lat="45.99659" lon="6.2495">
        <ele>685.527</ele>
        <time>2013-07-20T05:47:11Z</time>
      </trkpt>
      <trkpt lat="45.99673" lon="6.24946">
        <ele>685.406</ele>
        <time>2013-07-20T05:47:16Z</time>
      </trkpt>
      <trkpt lat="45.99691" lon="6.24955">
        <ele>685.084</ele>
        <time>2013-07-20T05:47:21Z</time>
      </trkpt>
      <trkpt lat="45.99707" lon="6.2497">
        <ele>685.034</ele>
        <time>2013-07-20T05:47:26Z</time>
      </trkpt>
      <trkpt lat="45.99711" lon="6.24974">
        <ele>684.975</ele>
        <time>2013-07-20T05:47:29Z</time>
      </trkpt>
      <trkpt lat="45.99711" lon="6.24974">
        <ele>684.964</ele>
        <time>2013-07-20T05:47:30Z</time>
      </trkpt>
      <trkpt lat="45.99715" lon="6.24976">
        <ele>684.943</ele>
        <time>2013-07-20T05:48:32Z</time>
      </trkpt>
      <trkpt lat="45.99726" lon="6.24984">
        <ele>684.957</ele>
        <time>2013-07-20T05:48:36Z</time>
      </trkpt>
      <trkpt lat="45.9975" lon="6.25004">
        <ele>685.112</ele>
        <time>2013-07-20T05:48:43Z</time>
      </trkpt>
      <trkpt lat="45.99777" lon="6.25023">
        <ele>685.424</ele>
        <time>2013-07-20T05:48:49Z</time>
      </trkpt>
      <trkpt lat="45.99812" lon="6.25038">
        <ele>686.37</ele>
        <time>2013-07-20T05:48:56Z</time>
      </trkpt>
      <trkpt lat="45.99844" lon="6.25046">
        <ele>687.687</ele>
        <time>2013-07-20T05:49:03Z</time>
      </trkpt>
      <trkpt lat="45.99873" lon="6.2505">
        <ele>689.373</ele>
        <time>2013-07-20T05:49:10Z</time>
      </trkpt>
      <trkpt lat="45.999" lon="6.25061">
        <ele>690.783</ele>
        <time>2013-07-20T05:49:17Z</time>
      </trkpt>
      <trkpt lat="45.9993" lon="6.2508">
        <ele>692.516</ele>
        <time>2013-07-20T05:49:25Z</time>
      </trkpt>
      <trkpt lat="45.99959" lon="6.25098">
        <ele>694.264</ele>
        <time>2013-07-20T05:49:33Z</time>
      </trkpt>
      <trkpt lat="45.99999" lon="6.25118">
        <ele>696.315</ele>
        <time>2013-07-20T05:49:44Z</time>
      </trkpt>
      <trkpt lat="46.00034" lon="6.25134">
        <ele>698.148</ele>
        <time>2013-07-20T05:49:53Z</time>
      </trkpt>
      <trkpt lat="46.00057" lon="6.25157">
        <ele>699.707</ele>
        <time>2013-07-20T05:50:00Z</time>
      </trkpt>
      <trkpt lat="46.00069" lon="6.25185">
        <ele>701.151</ele>
        <time>2013-07-20T05:50:06Z</time>
      </trkpt>
      <trkpt lat="46.00075" lon="6.25223">
        <ele>702.906</ele>
        <time>2013-07-20T05:50:13Z</time>
      </trkpt>
      <trkpt lat="46.0008" lon="6.25273">
        <ele>704.488</ele>
        <time>2013-07-20T05:50:22Z</time>
      </trkpt>
      <trkpt lat="46.00085" lon="6.25324">
        <ele>706.478</ele>
        <time>2013-07-20T05:50:31Z</time>
      </trkpt>
      <trkpt lat="46.00087" lon="6.25388">
        <ele>708.618</ele>
        <time>2013-07-20T05:50:42Z</time>
      </trkpt>
      <trkpt lat="46.00085" lon="6.25416">
        <ele>709.797</ele>
        <time>2013-07-20T05:50:47Z</time>
      </trkpt>
      <trkpt lat="46.00084" lon="6.25455">
        <ele>711.387</ele>
        <time>2013-07-20T05:50:54Z</time>
      </trkpt>
      <trkpt lat="46.0009" lon="6.25498">
        <ele>713.197</ele>
        <time>2013-07-20T05:51:02Z</time>
      </trkpt>
      <trkpt lat="46.00104" lon="6.25538">
        <ele>714.786</ele>
        <time>2013-07-20T05:51:10Z</time>
      </trkpt>
      <trkpt lat="46.00125" lon="6.25564">
        <ele>715.929</ele>
        <time>2013-07-20T05:51:17Z</time>
      </trkpt>
      <trkpt lat="46.00154" lon="6.25583">
        <ele>717.112</ele>
        <time>2013-07-20T05:51:25Z</time>
      </trkpt>
      <trkpt lat="46.00201" lon="6.25611">
        <ele>719.653</ele>
        <time>2013-07-20T05:51:38Z</time>
      </trkpt>
      <trkpt lat="46.00235" lon="6.25623">
        <ele>721.931</ele>
        <time>2013-07-20T05:51:47Z</time>
      </trkpt>
      <trkpt lat="46.0028" lon="6.25627">
        <ele>724.019</ele>
        <time>2013-07-20T05:51:58Z</time>
      </trkpt>
      <trkpt lat="46.00305" lon="6.25632">
        <ele>724.709</ele>
        <time>2013-07-20T05:52:04Z</time>
      </trkpt>
      <trkpt lat="46.00324" lon="6.25649">
        <ele>725.435</ele>
        <time>2013-07-20T05:52:09Z</time>
      </trkpt>
      <trkpt lat="46.00342" lon="6.25686">
        <ele>727.292</ele>
        <time>2013-07-20T05:52:17Z</time>
      </trkpt>
      <trkpt lat="46.0036" lon="6.25708">
        <ele>729.221</ele>
        <time>2013-07-20T05:52:23Z</time>
      </trkpt>
      <trkpt lat="46.00391" lon="6.25726">
        <ele>730.936</ele>
        <time>2013-07-20T05:52:32Z</time>
      </trkpt>
      <trkpt lat="46.00413" lon="6.25725">
        <ele>732.461</ele>
        <time>2013-07-20T05:52:38Z</time>
      </trkpt>
      <trkpt lat="46.00443" lon="6.25712">
        <ele>733.929</ele>
        <time>2013-07-20T05:52:46Z</time>
      </trkpt>
      <trkpt lat="46.00475" lon="6.2571">
        <ele>735.403</ele>
        <time>2013-07-20T05:52:54Z</time>
      </trkpt>
      <trkpt lat="46.0051" lon="6.25717">
        <ele>737.353</ele>
        <time>2013-07-20T05:53:03Z</time>
      </trkpt>
      <trkpt lat="46.00518" lon="6.2572">
        <ele>737.711</ele>
        <time>2013-07-20T05:53:05Z</time>
      </trkpt>
      <trkpt lat="46.00525" lon="6.25725">
        <ele>738.055</ele>
        <time>2013-07-20T05:53:07Z</time>
      </trkpt>
      <trkpt lat="46.00538" lon="6.25739">
        <ele>738.962</ele>
        <time>2013-07-20T05:53:11Z</time>
      </trkpt>
      <trkpt lat="46.00548" lon="6.25769">
        <ele>740.264</ele>
        <time>2013-07-20T05:53:17Z</time>
      </trkpt>
      <trkpt lat="46.00556" lon="6.25807">
        <ele>742.62</ele>
        <time>2013-07-20T05:53:24Z</time>
      </trkpt>
      <trkpt lat="46.00574" lon="6.25837">
        <ele>744.182</ele>
        <time>2013-07-20T05:53:31Z</time>
      </trkpt>
      <trkpt lat="46.00585" lon="6.25842">
        <ele>744.874</ele>
        <time>2013-07-20T05:53:34Z</time>
      </trkpt>
      <trkpt lat="46.00612" lon="6.25846">
        <ele>746.22</ele>
        <time>2013-07-20T05:53:41Z</time>
      </trkpt>
      <trkpt lat="46.00639" lon="6.25849">
        <ele>747.154</ele>
        <time>2013-07-20T05:53:47Z</time>
      </trkpt>
      <trkpt lat="46.00665" lon="6.25866">
        <ele>749.113</ele>
        <time>2013-07-20T05:53:54Z</time>
      </trkpt>
      <trkpt lat="46.00695" lon="6.259">
        <ele>751.084</ele>
        <time>2013-07-20T05:54:03Z</time>
      </trkpt>
      <trkpt lat="46.00719" lon="6.25941">
        <ele>752.684</ele>
        <time>2013-07-20T05:54:12Z</time>
      </trkpt>
      <trkpt lat="46.00738" lon="6.25971">
        <ele>754.646</ele>
        <time>2013-07-20T05:54:19Z</time>
      </trkpt>
      <trkpt lat="46.00768" lon="6.25992">
        <ele>756.459</ele>
        <time>2013-07-20T05:54:27Z</time>
      </trkpt>
      <trkpt lat="46.00802" lon="6.26017">
        <ele>757.943</ele>
        <time>2013-07-20T05:54:36Z</time>
      </trkpt>
      <trkpt lat="46.00818" lon="6.26041">
        <ele>759.093</ele>
        <time>2013-07-20T05:54:42Z</time>
      </trkpt>
      <trkpt lat="46.0083" lon="6.26075">
        <ele>760.605</ele>
        <time>2013-07-20T05:54:49Z</time>
      </trkpt>
      <trkpt lat="46.00843" lon="6.26103">
        <ele>762.178</ele>
        <time>2013-07-20T05:54:55Z</time>
      </trkpt>
      <trkpt lat="46.00864" lon="6.26128">
        <ele>763.496</ele>
        <time>2013-07-20T05:55:02Z</time>
      </trkpt>
      <trkpt lat="46.00895" lon="6.26159">
        <ele>765.561</ele>
        <time>2013-07-20T05:55:12Z</time>
      </trkpt>
      <trkpt lat="46.00902" lon="6.26172">
        <ele>765.967</ele>
        <time>2013-07-20T05:55:15Z</time>
      </trkpt>
      <trkpt lat="46.00909" lon="6.26212">
        <ele>767.384</ele>
        <time>2013-07-20T05:55:22Z</time>
      </trkpt>
      <trkpt lat="46.00913" lon="6.2625">
        <ele>769.04</ele>
        <time>2013-07-20T05:55:29Z</time>
      </trkpt>
      <trkpt lat="46.00917" lon="6.2626">
        <ele>769.286</ele>
        <time>2013-07-20T05:55:31Z</time>
      </trkpt>
      <trkpt lat="46.00932" lon="6.26282">
        <ele>770.754</ele>
        <time>2013-07-20T05:55:36Z</time>
      </trkpt>
      <trkpt lat="46.00967" lon="6.26299">
        <ele>771.959</ele>
        <time>2013-07-20T05:55:45Z</time>
      </trkpt>
      <trkpt lat="46.00991" lon="6.26316">
        <ele>773.449</ele>
        <time>2013-07-20T05:55:52Z</time>
      </trkpt>
      <trkpt lat="46.01003" lon="6.26332">
        <ele>774.195</ele>
        <time>2013-07-20T05:55:56Z</time>
      </trkpt>
      <trkpt lat="46.01023" lon="6.26362">
        <ele>776.173</ele>
        <time>2013-07-20T05:56:03Z</time>
      </trkpt>
      <trkpt lat="46.01052" lon="6.26381">
        <ele>777.823</ele>
        <time>2013-07-20T05:56:11Z</time>
      </trkpt>
      <trkpt lat="46.01085" lon="6.26404">
        <ele>779.873</ele>
        <time>2013-07-20T05:56:20Z</time>
      </trkpt>
      <trkpt lat="46.01116" lon="6.26425">
        <ele>781.803</ele>
        <time>2013-07-20T05:56:29Z</time>
      </trkpt>
      <trkpt lat="46.0114" lon="6.2644">
        <ele>783.279</ele>
        <time>2013-07-20T05:56:36Z</time>
      </trkpt>
      <trkpt lat="46.01159" lon="6.2646">
        <ele>784.563</ele>
        <time>2013-07-20T05:56:42Z</time>
      </trkpt>
      <trkpt lat="46.01176" lon="6.26497">
        <ele>786.397</ele>
        <time>2013-07-20T05:56:50Z</time>
      </trkpt>
      <trkpt lat="46.0119" lon="6.26547">
        <ele>789.156</ele>
        <time>2013-07-20T05:57:00Z</time>
      </trkpt>
      <trkpt lat="46.01203" lon="6.26587">
        <ele>791.22</ele>
        <time>2013-07-20T05:57:08Z</time>
      </trkpt>
      <trkpt lat="46.01215" lon="6.26626">
        <ele>792.977</ele>
        <time>2013-07-20T05:57:16Z</time>
      </trkpt>
      <trkpt lat="46.01231" lon="6.2666">
        <ele>794.681</ele>
        <time>2013-07-20T05:57:24Z</time>
      </trkpt>
      <trkpt lat="46.01255" lon="6.2669">
        <ele>796.013</ele>
        <time>2013-07-20T05:57:32Z</time>
      </trkpt>
      <trkpt lat="46.01282" lon="6.26719">
        <ele>797.764</ele>
        <time>2013-07-20T05:57:41Z</time>
      </trkpt>
      <trkpt lat="46.01285" lon="6.26723">
        <ele>797.889</ele>
        <time>2013-07-20T05:57:42Z</time>
      </trkpt>
      <trkpt lat="46.01296" lon="6.26754">
        <ele>799.201</ele>
        <time>2013-07-20T05:57:48Z</time>
      </trkpt>
      <trkpt lat="46.01303" lon="6.26794">
        <ele>800.895</ele>
        <time>2013-07-20T05:57:56Z</time>
      </trkpt>
      <trkpt lat="46.01312" lon="6.26825">
        <ele>802.147</ele>
        <time>2013-07-20T05:58:02Z</time>
      </trkpt>
      <trkpt lat="46.01322" lon="6.2686">
        <ele>803.407</ele>
        <time>2013-07-20T05:58:09Z</time>
      </trkpt>
      <trkpt lat="46.01319" lon="6.26894">
        <ele>804.303</ele>
        <time>2013-07-20T05:58:15Z</time>
      </trkpt>
      <trkpt lat="46.01315" lon="6.26903">
        <ele>804.874</ele>
        <time>2013-07-20T05:58:17Z</time>
      </trkpt>
      <trkpt lat="46.01296" lon="6.26951">
        <ele>807.092</ele>
        <time>2013-07-20T05:58:27Z</time>
      </trkpt>
      <trkpt lat="46.01293" lon="6.26989">
        <ele>808.099</ele>
        <time>2013-07-20T05:58:34Z</time>
      </trkpt>
      <trkpt lat="46.01298" lon="6.27031">
        <ele>809.971</ele>
        <time>2013-07-20T05:58:42Z</time>
      </trkpt>
      <trkpt lat="46.01313" lon="6.27075">
        <ele>811.885</ele>
        <time>2013-07-20T05:58:51Z</time>
      </trkpt>
      <trkpt lat="46.01328" lon="6.27117">
        <ele>813.581</ele>
        <time>2013-07-20T05:59:00Z</time>
      </trkpt>
      <trkpt lat="46.01337" lon="6.2716">
        <ele>815.137</ele>
        <time>2013-07-20T05:59:08Z</time>
      </trkpt>
      <trkpt lat="46.01347" lon="6.27208">
        <ele>817.102</ele>
        <time>2013-07-20T05:59:17Z</time>
      </trkpt>
      <trkpt lat="46.01364" lon="6.27251">
        <ele>819.029</ele>
        <time>2013-07-20T05:59:26Z</time>
      </trkpt>
      <trkpt lat="46.01387" lon="6.27299">
        <ele>821.091</ele>
        <time>2013-07-20T05:59:37Z</time>
      </trkpt>
      <trkpt lat="46.01403" lon="6.27331">
        <ele>822.642</ele>
        <time>2013-07-20T05:59:45Z</time>
      </trkpt>
      <trkpt lat="46.01419" lon="6.27362">
        <ele>824.063</ele>
        <time>2013-07-20T05:59:53Z</time>
      </trkpt>
      <trkpt lat="46.01436" lon="6.27396">
        <ele>825.61</ele>
        <time>2013-07-20T06:00:02Z</time>
      </trkpt>
      <trkpt lat="46.01449" lon="6.27419">
        <ele>826.822</ele>
        <time>2013-07-20T06:00:08Z</time>
      </trkpt>
      <trkpt lat="46.01467" lon="6.27447">
        <ele>828.446</ele>
        <time>2013-07-20T06:00:16Z</time>
      </trkpt>
      <trkpt lat="46.01489" lon="6.27466">
        <ele>830.144</ele>
        <time>2013-07-20T06:00:24Z</time>
      </trkpt>
      <trkpt lat="46.01512" lon="6.2748">
        <ele>831.204</ele>
        <time>2013-07-20T06:00:32Z</time>
      </trkpt>
      <trkpt lat="46.01537" lon="6.27496">
        <ele>832.372</ele>
        <time>2013-07-20T06:00:40Z</time>
      </trkpt>
      <trkpt lat="46.0155" lon="6.27518">
        <ele>833.798</ele>
        <time>2013-07-20T06:00:46Z</time>
      </trkpt>
      <trkpt lat="46.01554" lon="6.27547">
        <ele>835.135</ele>
        <time>2013-07-20T06:00:52Z</time>
      </trkpt>
      <trkpt lat="46.01551" lon="6.27591">
        <ele>836.467</ele>
        <time>2013-07-20T06:01:00Z</time>
      </trkpt>
      <trkpt lat="46.0155" lon="6.27633">
        <ele>838.092</ele>
        <time>2013-07-20T06:01:08Z</time>
      </trkpt>
      <trkpt lat="46.01556" lon="6.27675">
        <ele>839.548</ele>
        <time>2013-07-20T06:01:16Z</time>
      </trkpt>
      <trkpt lat="46.01564" lon="6.27717">
        <ele>840.896</ele>
        <time>2013-07-20T06:01:24Z</time>
      </trkpt>
      <trkpt lat="46.01574" lon="6.27758">
        <ele>842.33</ele>
        <time>2013-07-20T06:01:32Z</time>
      </trkpt>
      <trkpt lat="46.01581" lon="6.27806">
        <ele>844.034</ele>
        <time>2013-07-20T06:01:41Z</time>
      </trkpt>
      <trkpt lat="46.01586" lon="6.27853">
        <ele>845.677</ele>
        <time>2013-07-20T06:01:50Z</time>
      </trkpt>
      <trkpt lat="46.01593" lon="6.279">
        <ele>847.396</ele>
        <time>2013-07-20T06:01:59Z</time>
      </trkpt>
      <trkpt lat="46.01601" lon="6.27949">
        <ele>848.903</ele>
        <time>2013-07-20T06:02:08Z</time>
      </trkpt>
      <trkpt lat="46.01611" lon="6.27997">
        <ele>850.39</ele>
        <time>2013-07-20T06:02:17Z</time>
      </trkpt>
      <trkpt lat="46.01625" lon="6.2804">
        <ele>852.33</ele>
        <time>2013-07-20T06:02:26Z</time>
      </trkpt>
      <trkpt lat="46.01646" lon="6.28075">
        <ele>853.615</ele>
        <time>2013-07-20T06:02:34Z</time>
      </trkpt>
      <trkpt lat="46.01673" lon="6.28116">
        <ele>855.508</ele>
        <time>2013-07-20T06:02:44Z</time>
      </trkpt>
      <trkpt lat="46.017" lon="6.28156">
        <ele>857.051</ele>
        <time>2013-07-20T06:02:54Z</time>
      </trkpt>
      <trkpt lat="46.01733" lon="6.28201">
        <ele>859.256</ele>
        <time>2013-07-20T06:03:06Z</time>
      </trkpt>
      <trkpt lat="46.0176" lon="6.28224">
        <ele>860.791</ele>
        <time>2013-07-20T06:03:14Z</time>
      </trkpt>
      <trkpt lat="46.01797" lon="6.28244">
        <ele>862.689</ele>
        <time>2013-07-20T06:03:24Z</time>
      </trkpt>
      <trkpt lat="46.01837" lon="6.28265">
        <ele>864.688</ele>
        <time>2013-07-20T06:03:35Z</time>
      </trkpt>
      <trkpt lat="46.01872" lon="6.28284">
        <ele>866.935</ele>
        <time>2013-07-20T06:03:45Z</time>
      </trkpt>
      <trkpt lat="46.01917" lon="6.28307">
        <ele>869.317</ele>
        <time>2013-07-20T06:03:58Z</time>
      </trkpt>
      <trkpt lat="46.01956" lon="6.28328">
        <ele>871.58</ele>
        <time>2013-07-20T06:04:09Z</time>
      </trkpt>
      <trkpt lat="46.01986" lon="6.28344">
        <ele>873.116</ele>
        <time>2013-07-20T06:04:18Z</time>
      </trkpt>
      <trkpt lat="46.02026" lon="6.28364">
        <ele>875.166</ele>
        <time>2013-07-20T06:04:29Z</time>
      </trkpt>
      <trkpt lat="46.02052" lon="6.28367">
        <ele>876.633</ele>
        <time>2013-07-20T06:04:36Z</time>
      </trkpt>
      <trkpt lat="46.02063" lon="6.28352">
        <ele>877.408</ele>
        <time>2013-07-20T06:04:40Z</time>
      </trkpt>
      <trkpt lat="46.02064" lon="6.28347">
        <ele>877.579</ele>
        <time>2013-07-20T06:04:41Z</time>
      </trkpt>
      <trkpt lat="46.02059" lon="6.28318">
        <ele>878.546</ele>
        <time>2013-07-20T06:04:46Z</time>
      </trkpt>
      <trkpt lat="46.02046" lon="6.28305">
        <ele>879.191</ele>
        <time>2013-07-20T06:04:50Z</time>
      </trkpt>
      <trkpt lat="46.02016" lon="6.28286">
        <ele>880.129</ele>
        <time>2013-07-20T06:04:58Z</time>
      </trkpt>
      <trkpt lat="46.02007" lon="6.28281">
        <ele>880.281</ele>
        <time>2013-07-20T06:05:00Z</time>
      </trkpt>
      <trkpt lat="46.01977" lon="6.28253">
        <ele>881.327</ele>
        <time>2013-07-20T06:05:08Z</time>
      </trkpt>
      <trkpt lat="46.01971" lon="6.28245">
        <ele>881.641</ele>
        <time>2013-07-20T06:05:10Z</time>
      </trkpt>
      <trkpt lat="46.01946" lon="6.28198">
        <ele>883.463</ele>
        <time>2013-07-20T06:05:20Z</time>
      </trkpt>
      <trkpt lat="46.01932" lon="6.28154">
        <ele>885.064</ele>
        <time>2013-07-20T06:05:28Z</time>
      </trkpt>
      <trkpt lat="46.01919" lon="6.28104">
        <ele>886.658</ele>
        <time>2013-07-20T06:05:37Z</time>
      </trkpt>
      <trkpt lat="46.01905" lon="6.28056">
        <ele>888.361</ele>
        <time>2013-07-20T06:05:46Z</time>
      </trkpt>
      <trkpt lat="46.01892" lon="6.28">
        <ele>890.428</ele>
        <time>2013-07-20T06:05:57Z</time>
      </trkpt>
      <trkpt lat="46.01894" lon="6.2799">
        <ele>890.654</ele>
        <time>2013-07-20T06:05:59Z</time>
      </trkpt>
      <trkpt lat="46.01907" lon="6.27982">
        <ele>891.329</ele>
        <time>2013-07-20T06:06:03Z</time>
      </trkpt>
      <trkpt lat="46.0192" lon="6.27993">
        <ele>891.713</ele>
        <time>2013-07-20T06:06:07Z</time>
      </trkpt>
      <trkpt lat="46.01925" lon="6.28004">
        <ele>892.159</ele>
        <time>2013-07-20T06:06:09Z</time>
      </trkpt>
      <trkpt lat="46.01948" lon="6.28054">
        <ele>894.538</ele>
        <time>2013-07-20T06:06:19Z</time>
      </trkpt>
      <trkpt lat="46.01966" lon="6.2809">
        <ele>895.754</ele>
        <time>2013-07-20T06:06:26Z</time>
      </trkpt>
      <trkpt lat="46.01992" lon="6.28127">
        <ele>897.638</ele>
        <time>2013-07-20T06:06:34Z</time>
      </trkpt>
      <trkpt lat="46.01999" lon="6.28134">
        <ele>898.178</ele>
        <time>2013-07-20T06:06:36Z</time>
      </trkpt>
      <trkpt lat="46.02029" lon="6.2815">
        <ele>899.416</ele>
        <time>2013-07-20T06:06:44Z</time>
      </trkpt>
      <trkpt lat="46.0206" lon="6.28161">
        <ele>900.832</ele>
        <time>2013-07-20T06:06:52Z</time>
      </trkpt>
      <trkpt lat="46.02091" lon="6.28172">
        <ele>902.115</ele>
        <time>2013-07-20T06:07:00Z</time>
      </trkpt>
      <trkpt lat="46.02116" lon="6.28187">
        <ele>903.794</ele>
        <time>2013-07-20T06:07:07Z</time>
      </trkpt>
      <trkpt lat="46.02142" lon="6.28213">
        <ele>905.436</ele>
        <time>2013-07-20T06:07:15Z</time>
      </trkpt>
      <trkpt lat="46.02169" lon="6.28246">
        <ele>907.491</ele>
        <time>2013-07-20T06:07:24Z</time>
      </trkpt>
      <trkpt lat="46.0219" lon="6.28281">
        <ele>909.101</ele>
        <time>2013-07-20T06:07:32Z</time>
      </trkpt>
      <trkpt lat="46.02209" lon="6.28325">
        <ele>910.955</ele>
        <time>2013-07-20T06:07:41Z</time>
      </trkpt>
      <trkpt lat="46.02229" lon="6.28379">
        <ele>913.509</ele>
        <time>2013-07-20T06:07:52Z</time>
      </trkpt>
      <trkpt lat="46.02246" lon="6.28427">
        <ele>915.45</ele>
        <time>2013-07-20T06:08:02Z</time>
      </trkpt>
      <trkpt lat="46.02263" lon="6.28473">
        <ele>917.75</ele>
        <time>2013-07-20T06:08:12Z</time>
      </trkpt>
      <trkpt lat="46.02279" lon="6.28494">
        <ele>919.044</ele>
        <time>2013-07-20T06:08:18Z</time>
      </trkpt>
      <trkpt lat="46.02305" lon="6.28503">
        <ele>920.423</ele>
        <time>2013-07-20T06:08:25Z</time>
      </trkpt>
      <trkpt lat="46.02347" lon="6.28517">
        <ele>922.028</ele>
        <time>2013-07-20T06:08:36Z</time>
      </trkpt>
      <trkpt lat="46.02369" lon="6.28537">
        <ele>923.409</ele>
        <time>2013-07-20T06:08:43Z</time>
      </trkpt>
      <trkpt lat="46.02385" lon="6.28565">
        <ele>924.727</ele>
        <time>2013-07-20T06:08:50Z</time>
      </trkpt>
      <trkpt lat="46.02398" lon="6.28605">
        <ele>926.204</ele>
        <time>2013-07-20T06:08:58Z</time>
      </trkpt>
      <trkpt lat="46.02409" lon="6.28651">
        <ele>928.317</ele>
        <time>2013-07-20T06:09:07Z</time>
      </trkpt>
      <trkpt lat="46.02427" lon="6.28699">
        <ele>930.509</ele>
        <time>2013-07-20T06:09:17Z</time>
      </trkpt>
      <trkpt lat="46.02441" lon="6.2872">
        <ele>931.567</ele>
        <time>2013-07-20T06:09:22Z</time>
      </trkpt>
      <trkpt lat="46.02456" lon="6.28739">
        <ele>932.206</ele>
        <time>2013-07-20T06:09:27Z</time>
      </trkpt>
      <trkpt lat="46.02476" lon="6.28755">
        <ele>932.899</ele>
        <time>2013-07-20T06:09:32Z</time>
      </trkpt>
      <trkpt lat="46.02505" lon="6.28762">
        <ele>933.489</ele>
        <time>2013-07-20T06:09:39Z</time>
      </trkpt>
      <trkpt lat="46.02516" lon="6.28762">
        <ele>933.517</ele>
        <time>2013-07-20T06:09:44Z</time>
      </trkpt>
      <trkpt lat="46.02517" lon="6.28762">
        <ele>933.413</ele>
        <time>2013-07-20T06:09:45Z</time>
      </trkpt>
      <trkpt lat="46.02521" lon="6.2876">
        <ele>933.95</ele>
        <time>2013-07-20T06:12:09Z</time>
      </trkpt>
      <trkpt lat="46.02521" lon="6.2876">
        <ele>933.949</ele>
        <time>2013-07-20T06:12:10Z</time>
      </trkpt>
      <trkpt lat="46.02529" lon="6.28759">
        <ele>933.892</ele>
        <time>2013-07-20T06:12:17Z</time>
      </trkpt>
      <trkpt lat="46.02548" lon="6.28755">
        <ele>933.904</ele>
        <time>2013-07-20T06:12:24Z</time>
      </trkpt>
      <trkpt lat="46.02577" lon="6.28749">
        <ele>933.389</ele>
        <time>2013-07-20T06:12:33Z</time>
      </trkpt>
      <trkpt lat="46.02604" lon="6.28743">
        <ele>933.216</ele>
        <time>2013-07-20T06:12:40Z</time>
      </trkpt>
      <trkpt lat="46.02634" lon="6.2873">
        <ele>932.63</ele>
        <time>2013-07-20T06:12:47Z</time>
      </trkpt>
      <trkpt lat="46.02638" lon="6.28727">
        <ele>932.615</ele>
        <time>2013-07-20T06:12:48Z</time>
      </trkpt>
      <trkpt lat="46.02667" lon="6.28697">
        <ele>932.387</ele>
        <time>2013-07-20T06:12:55Z</time>
      </trkpt>
      <trkpt lat="46.02689" lon="6.28661">
        <ele>931.799</ele>
        <time>2013-07-20T06:13:01Z</time>
      </trkpt>
      <trkpt lat="46.0271" lon="6.28604">
        <ele>930.988</ele>
        <time>2013-07-20T06:13:08Z</time>
      </trkpt>
      <trkpt lat="46.02737" lon="6.28527">
        <ele>928.08</ele>
        <time>2013-07-20T06:13:17Z</time>
      </trkpt>
      <trkpt lat="46.02764" lon="6.28444">
        <ele>928.039</ele>
        <time>2013-07-20T06:13:27Z</time>
      </trkpt>
      <trkpt lat="46.02791" lon="6.28364">
        <ele>927.244</ele>
        <time>2013-07-20T06:13:36Z</time>
      </trkpt>
      <trkpt lat="46.02815" lon="6.28299">
        <ele>925.793</ele>
        <time>2013-07-20T06:13:43Z</time>
      </trkpt>
      <trkpt lat="46.02839" lon="6.28273">
        <ele>924.807</ele>
        <time>2013-07-20T06:13:47Z</time>
      </trkpt>
      <trkpt lat="46.02863" lon="6.28269">
        <ele>924.023</ele>
        <time>2013-07-20T06:13:50Z</time>
      </trkpt>
      <trkpt lat="46.02887" lon="6.28283">
        <ele>922.873</ele>
        <time>2013-07-20T06:13:53Z</time>
      </trkpt>
      <trkpt lat="46.02894" lon="6.28291">
        <ele>922.255</ele>
        <time>2013-07-20T06:13:54Z</time>
      </trkpt>
      <trkpt lat="46.02949" lon="6.28366">
        <ele>917.68</ele>
        <time>2013-07-20T06:14:02Z</time>
      </trkpt>
      <trkpt lat="46.02998" lon="6.28433">
        <ele>914.646</ele>
        <time>2013-07-20T06:14:09Z</time>
      </trkpt>
      <trkpt lat="46.03052" lon="6.28497">
        <ele>911.18</ele>
        <time>2013-07-20T06:14:16Z</time>
      </trkpt>
      <trkpt lat="46.03088" lon="6.28516">
        <ele>908.554</ele>
        <time>2013-07-20T06:14:20Z</time>
      </trkpt>
      <trkpt lat="46.03108" lon="6.2852">
        <ele>907.636</ele>
        <time>2013-07-20T06:14:22Z</time>
      </trkpt>
      <trkpt lat="46.03128" lon="6.28525">
        <ele>906.385</ele>
        <time>2013-07-20T06:14:24Z</time>
      </trkpt>
      <trkpt lat="46.03164" lon="6.28559">
        <ele>903.791</ele>
        <time>2013-07-20T06:14:28Z</time>
      </trkpt>
      <trkpt lat="46.03173" lon="6.28588">
        <ele>902.557</ele>
        <time>2013-07-20T06:14:30Z</time>
      </trkpt>
      <trkpt lat="46.03184" lon="6.28633">
        <ele>900.777</ele>
        <time>2013-07-20T06:14:33Z</time>
      </trkpt>
      <trkpt lat="46.03211" lon="6.28682">
        <ele>898.438</ele>
        <time>2013-07-20T06:14:37Z</time>
      </trkpt>
      <trkpt lat="46.0322" lon="6.28691">
        <ele>897.635</ele>
        <time>2013-07-20T06:14:38Z</time>
      </trkpt>
      <trkpt lat="46.03239" lon="6.28706">
        <ele>896.056</ele>
        <time>2013-07-20T06:14:40Z</time>
      </trkpt>
      <trkpt lat="46.03281" lon="6.28724">
        <ele>893.933</ele>
        <time>2013-07-20T06:14:44Z</time>
      </trkpt>
      <trkpt lat="46.03317" lon="6.2876">
        <ele>891.671</ele>
        <time>2013-07-20T06:14:48Z</time>
      </trkpt>
      <trkpt lat="46.03323" lon="6.28774">
        <ele>890.512</ele>
        <time>2013-07-20T06:14:49Z</time>
      </trkpt>
      <trkpt lat="46.03344" lon="6.28844">
        <ele>887.083</ele>
        <time>2013-07-20T06:14:54Z</time>
      </trkpt>
      <trkpt lat="46.03367" lon="6.28895">
        <ele>885.202</ele>
        <time>2013-07-20T06:14:58Z</time>
      </trkpt>
      <trkpt lat="46.03375" lon="6.28905">
        <ele>884.783</ele>
        <time>2013-07-20T06:14:59Z</time>
      </trkpt>
      <trkpt lat="46.03437" lon="6.28964">
        <ele>880.281</ele>
        <time>2013-07-20T06:15:06Z</time>
      </trkpt>
      <trkpt lat="46.03454" lon="6.28982">
        <ele>878.989</ele>
        <time>2013-07-20T06:15:08Z</time>
      </trkpt>
      <trkpt lat="46.03478" lon="6.29032">
        <ele>876.654</ele>
        <time>2013-07-20T06:15:12Z</time>
      </trkpt>
      <trkpt lat="46.03484" lon="6.2906">
        <ele>875.706</ele>
        <time>2013-07-20T06:15:14Z</time>
      </trkpt>
      <trkpt lat="46.03496" lon="6.2912">
        <ele>874.178</ele>
        <time>2013-07-20T06:15:18Z</time>
      </trkpt>
      <trkpt lat="46.03514" lon="6.29174">
        <ele>871.829</ele>
        <time>2013-07-20T06:15:22Z</time>
      </trkpt>
      <trkpt lat="46.03562" lon="6.29259">
        <ele>869.771</ele>
        <time>2013-07-20T06:15:29Z</time>
      </trkpt>
      <trkpt lat="46.03585" lon="6.29292">
        <ele>868.348</ele>
        <time>2013-07-20T06:15:32Z</time>
      </trkpt>
      <trkpt lat="46.03593" lon="6.29303">
        <ele>867.602</ele>
        <time>2013-07-20T06:15:33Z</time>
      </trkpt>
      <trkpt lat="46.03654" lon="6.29375">
        <ele>863.033</ele>
        <time>2013-07-20T06:15:40Z</time>
      </trkpt>
      <trkpt lat="46.03671" lon="6.29397">
        <ele>861.794</ele>
        <time>2013-07-20T06:15:42Z</time>
      </trkpt>
      <trkpt lat="46.03711" lon="6.29475">
        <ele>858.75</ele>
        <time>2013-07-20T06:15:48Z</time>
      </trkpt>
      <trkpt lat="46.03718" lon="6.29487">
        <ele>858.156</ele>
        <time>2013-07-20T06:15:49Z</time>
      </trkpt>
      <trkpt lat="46.03762" lon="6.29536">
        <ele>854.992</ele>
        <time>2013-07-20T06:15:54Z</time>
      </trkpt>
      <trkpt lat="46.0379" lon="6.29586">
        <ele>852.785</ele>
        <time>2013-07-20T06:15:58Z</time>
      </trkpt>
      <trkpt lat="46.03794" lon="6.296">
        <ele>852.04</ele>
        <time>2013-07-20T06:15:59Z</time>
      </trkpt>
      <trkpt lat="46.03801" lon="6.29629">
        <ele>850.37</ele>
        <time>2013-07-20T06:16:01Z</time>
      </trkpt>
      <trkpt lat="46.03812" lon="6.29656">
        <ele>849.732</ele>
        <time>2013-07-20T06:16:03Z</time>
      </trkpt>
      <trkpt lat="46.03835" lon="6.29688">
        <ele>848.489</ele>
        <time>2013-07-20T06:16:06Z</time>
      </trkpt>
      <trkpt lat="46.03844" lon="6.29696">
        <ele>847.712</ele>
        <time>2013-07-20T06:16:07Z</time>
      </trkpt>
      <trkpt lat="46.0392" lon="6.29756">
        <ele>842.758</ele>
        <time>2013-07-20T06:16:15Z</time>
      </trkpt>
      <trkpt lat="46.03929" lon="6.29764">
        <ele>842.404</ele>
        <time>2013-07-20T06:16:16Z</time>
      </trkpt>
      <trkpt lat="46.03954" lon="6.29815">
        <ele>839.864</ele>
        <time>2013-07-20T06:16:20Z</time>
      </trkpt>
      <trkpt lat="46.03968" lon="6.29874">
        <ele>837.466</ele>
        <time>2013-07-20T06:16:24Z</time>
      </trkpt>
      <trkpt lat="46.03994" lon="6.29922">
        <ele>835.224</ele>
        <time>2013-07-20T06:16:28Z</time>
      </trkpt>
      <trkpt lat="46.04025" lon="6.29982">
        <ele>832.281</ele>
        <time>2013-07-20T06:16:33Z</time>
      </trkpt>
      <trkpt lat="46.04032" lon="6.30011">
        <ele>831.402</ele>
        <time>2013-07-20T06:16:35Z</time>
      </trkpt>
      <trkpt lat="46.04051" lon="6.30081">
        <ele>828.838</ele>
        <time>2013-07-20T06:16:40Z</time>
      </trkpt>
      <trkpt lat="46.04078" lon="6.30119">
        <ele>826.45</ele>
        <time>2013-07-20T06:16:44Z</time>
      </trkpt>
      <trkpt lat="46.04105" lon="6.30115">
        <ele>824.347</ele>
        <time>2013-07-20T06:16:47Z</time>
      </trkpt>
      <trkpt lat="46.04121" lon="6.301">
        <ele>823.53</ele>
        <time>2013-07-20T06:16:49Z</time>
      </trkpt>
      <trkpt lat="46.04131" lon="6.30077">
        <ele>822.626</ele>
        <time>2013-07-20T06:16:51Z</time>
      </trkpt>
      <trkpt lat="46.04148" lon="6.30029">
        <ele>820.545</ele>
        <time>2013-07-20T06:16:55Z</time>
      </trkpt>
      <trkpt lat="46.04156" lon="6.29973">
        <ele>818.621</ele>
        <time>2013-07-20T06:16:59Z</time>
      </trkpt>
      <trkpt lat="46.04153" lon="6.29822">
        <ele>812.957</ele>
        <time>2013-07-20T06:17:09Z</time>
      </trkpt>
      <trkpt lat="46.04152" lon="6.29744">
        <ele>810.578</ele>
        <time>2013-07-20T06:17:14Z</time>
      </trkpt>
      <trkpt lat="46.04165" lon="6.29668">
        <ele>807.613</ele>
        <time>2013-07-20T06:17:19Z</time>
      </trkpt>
      <trkpt lat="46.04169" lon="6.29621">
        <ele>806.053</ele>
        <time>2013-07-20T06:17:22Z</time>
      </trkpt>
      <trkpt lat="46.04183" lon="6.29568">
        <ele>803.074</ele>
        <time>2013-07-20T06:17:26Z</time>
      </trkpt>
      <trkpt lat="46.04211" lon="6.29552">
        <ele>801.203</ele>
        <time>2013-07-20T06:17:29Z</time>
      </trkpt>
      <trkpt lat="46.0422" lon="6.29552">
        <ele>800.796</ele>
        <time>2013-07-20T06:17:30Z</time>
      </trkpt>
      <trkpt lat="46.0424" lon="6.29554">
        <ele>799.653</ele>
        <time>2013-07-20T06:17:32Z</time>
      </trkpt>
      <trkpt lat="46.04272" lon="6.29578">
        <ele>797.342</ele>
        <time>2013-07-20T06:17:36Z</time>
      </trkpt>
      <trkpt lat="46.04277" lon="6.29589">
        <ele>796.56</ele>
        <time>2013-07-20T06:17:37Z</time>
      </trkpt>
      <trkpt lat="46.04285" lon="6.29614">
        <ele>795.73</ele>
        <time>2013-07-20T06:17:39Z</time>
      </trkpt>
      <trkpt lat="46.04308" lon="6.29691">
        <ele>792.095</ele>
        <time>2013-07-20T06:17:45Z</time>
      </trkpt>
      <trkpt lat="46.04313" lon="6.29703">
        <ele>791.847</ele>
        <time>2013-07-20T06:17:46Z</time>
      </trkpt>
      <trkpt lat="46.04342" lon="6.2974">
        <ele>790.294</ele>
        <time>2013-07-20T06:17:50Z</time>
      </trkpt>
      <trkpt lat="46.04362" lon="6.29745">
        <ele>789.47</ele>
        <time>2013-07-20T06:17:52Z</time>
      </trkpt>
      <trkpt lat="46.04391" lon="6.29732">
        <ele>787.816</ele>
        <time>2013-07-20T06:17:55Z</time>
      </trkpt>
      <trkpt lat="46.04443" lon="6.29675">
        <ele>783.953</ele>
        <time>2013-07-20T06:18:01Z</time>
      </trkpt>
      <trkpt lat="46.0448" lon="6.29635">
        <ele>781.842</ele>
        <time>2013-07-20T06:18:05Z</time>
      </trkpt>
      <trkpt lat="46.04507" lon="6.29605">
        <ele>779.986</ele>
        <time>2013-07-20T06:18:08Z</time>
      </trkpt>
      <trkpt lat="46.04588" lon="6.29515">
        <ele>773.512</ele>
        <time>2013-07-20T06:18:17Z</time>
      </trkpt>
      <trkpt lat="46.04631" lon="6.29438">
        <ele>769.885</ele>
        <time>2013-07-20T06:18:23Z</time>
      </trkpt>
      <trkpt lat="46.0466" lon="6.29367">
        <ele>766.666</ele>
        <time>2013-07-20T06:18:28Z</time>
      </trkpt>
      <trkpt lat="46.0467" lon="6.29338">
        <ele>765.55</ele>
        <time>2013-07-20T06:18:30Z</time>
      </trkpt>
      <trkpt lat="46.04698" lon="6.29303">
        <ele>762.116</ele>
        <time>2013-07-20T06:18:34Z</time>
      </trkpt>
      <trkpt lat="46.04727" lon="6.29299">
        <ele>760.568</ele>
        <time>2013-07-20T06:18:37Z</time>
      </trkpt>
      <trkpt lat="46.04757" lon="6.29303">
        <ele>758.683</ele>
        <time>2013-07-20T06:18:40Z</time>
      </trkpt>
      <trkpt lat="46.04799" lon="6.29295">
        <ele>756.45</ele>
        <time>2013-07-20T06:18:44Z</time>
      </trkpt>
      <trkpt lat="46.04819" lon="6.2929">
        <ele>755.197</ele>
        <time>2013-07-20T06:18:46Z</time>
      </trkpt>
      <trkpt lat="46.04852" lon="6.29309">
        <ele>751.939</ele>
        <time>2013-07-20T06:18:50Z</time>
      </trkpt>
      <trkpt lat="46.04865" lon="6.29345">
        <ele>750.163</ele>
        <time>2013-07-20T06:18:53Z</time>
      </trkpt>
      <trkpt lat="46.0489" lon="6.29447">
        <ele>745.874</ele>
        <time>2013-07-20T06:19:00Z</time>
      </trkpt>
      <trkpt lat="46.04913" lon="6.29541">
        <ele>741.022</ele>
        <time>2013-07-20T06:19:06Z</time>
      </trkpt>
      <trkpt lat="46.04923" lon="6.29588">
        <ele>739.421</ele>
        <time>2013-07-20T06:19:09Z</time>
      </trkpt>
      <trkpt lat="46.04928" lon="6.2965">
        <ele>737.326</ele>
        <time>2013-07-20T06:19:13Z</time>
      </trkpt>
      <trkpt lat="46.04931" lon="6.29709">
        <ele>734.746</ele>
        <time>2013-07-20T06:19:17Z</time>
      </trkpt>
      <trkpt lat="46.04939" lon="6.29745">
        <ele>732.822</ele>
        <time>2013-07-20T06:19:20Z</time>
      </trkpt>
      <trkpt lat="46.04946" lon="6.29751">
        <ele>732.648</ele>
        <time>2013-07-20T06:19:21Z</time>
      </trkpt>
      <trkpt lat="46.04963" lon="6.2975">
        <ele>731.776</ele>
        <time>2013-07-20T06:19:23Z</time>
      </trkpt>
      <trkpt lat="46.04987" lon="6.29731">
        <ele>730.266</ele>
        <time>2013-07-20T06:19:26Z</time>
      </trkpt>
      <trkpt lat="46.05017" lon="6.29699">
        <ele>728.406</ele>
        <time>2013-07-20T06:19:30Z</time>
      </trkpt>
      <trkpt lat="46.05039" lon="6.29655">
        <ele>726.734</ele>
        <time>2013-07-20T06:19:34Z</time>
      </trkpt>
      <trkpt lat="46.05044" lon="6.29629">
        <ele>725.521</ele>
        <time>2013-07-20T06:19:36Z</time>
      </trkpt>
      <trkpt lat="46.05056" lon="6.29574">
        <ele>723.253</ele>
        <time>2013-07-20T06:19:40Z</time>
      </trkpt>
      <trkpt lat="46.05092" lon="6.29504">
        <ele>720</ele>
        <time>2013-07-20T06:19:46Z</time>
      </trkpt>
      <trkpt lat="46.05099" lon="6.29494">
        <ele>719.678</ele>
        <time>2013-07-20T06:19:47Z</time>
      </trkpt>
      <trkpt lat="46.05149" lon="6.29446">
        <ele>716.548</ele>
        <time>2013-07-20T06:19:53Z</time>
      </trkpt>
      <trkpt lat="46.05158" lon="6.2944">
        <ele>715.836</ele>
        <time>2013-07-20T06:19:54Z</time>
      </trkpt>
      <trkpt lat="46.05206" lon="6.29427">
        <ele>713.436</ele>
        <time>2013-07-20T06:19:59Z</time>
      </trkpt>
      <trkpt lat="46.05227" lon="6.29431">
        <ele>712.051</ele>
        <time>2013-07-20T06:20:01Z</time>
      </trkpt>
      <trkpt lat="46.05277" lon="6.2945">
        <ele>709.156</ele>
        <time>2013-07-20T06:20:06Z</time>
      </trkpt>
      <trkpt lat="46.05286" lon="6.29455">
        <ele>708.567</ele>
        <time>2013-07-20T06:20:07Z</time>
      </trkpt>
      <trkpt lat="46.05306" lon="6.2948">
        <ele>705.962</ele>
        <time>2013-07-20T06:20:10Z</time>
      </trkpt>
      <trkpt lat="46.0531" lon="6.29506">
        <ele>704.356</ele>
        <time>2013-07-20T06:20:12Z</time>
      </trkpt>
      <trkpt lat="46.05306" lon="6.29533">
        <ele>703.384</ele>
        <time>2013-07-20T06:20:14Z</time>
      </trkpt>
      <trkpt lat="46.05292" lon="6.29601">
        <ele>701.235</ele>
        <time>2013-07-20T06:20:19Z</time>
      </trkpt>
      <trkpt lat="46.05297" lon="6.29658">
        <ele>699.492</ele>
        <time>2013-07-20T06:20:23Z</time>
      </trkpt>
      <trkpt lat="46.05301" lon="6.29672">
        <ele>699.252</ele>
        <time>2013-07-20T06:20:24Z</time>
      </trkpt>
      <trkpt lat="46.05332" lon="6.29771">
        <ele>695.051</ele>
        <time>2013-07-20T06:20:31Z</time>
      </trkpt>
      <trkpt lat="46.05334" lon="6.29787">
        <ele>694.47</ele>
        <time>2013-07-20T06:20:32Z</time>
      </trkpt>
      <trkpt lat="46.05335" lon="6.29885">
        <ele>690.824</ele>
        <time>2013-07-20T06:20:38Z</time>
      </trkpt>
      <trkpt lat="46.05326" lon="6.29948">
        <ele>688.243</ele>
        <time>2013-07-20T06:20:42Z</time>
      </trkpt>
      <trkpt lat="46.05319" lon="6.29978">
        <ele>687.401</ele>
        <time>2013-07-20T06:20:44Z</time>
      </trkpt>
      <trkpt lat="46.0529" lon="6.30023">
        <ele>684.776</ele>
        <time>2013-07-20T06:20:48Z</time>
      </trkpt>
      <trkpt lat="46.05269" lon="6.30057">
        <ele>682.789</ele>
        <time>2013-07-20T06:20:51Z</time>
      </trkpt>
      <trkpt lat="46.05262" lon="6.30086">
        <ele>681.59</ele>
        <time>2013-07-20T06:20:53Z</time>
      </trkpt>
      <trkpt lat="46.05253" lon="6.30159">
        <ele>679.333</ele>
        <time>2013-07-20T06:20:58Z</time>
      </trkpt>
      <trkpt lat="46.05255" lon="6.30203">
        <ele>677.755</ele>
        <time>2013-07-20T06:21:01Z</time>
      </trkpt>
      <trkpt lat="46.05267" lon="6.30228">
        <ele>676.861</ele>
        <time>2013-07-20T06:21:03Z</time>
      </trkpt>
      <trkpt lat="46.05285" lon="6.30282">
        <ele>673.878</ele>
        <time>2013-07-20T06:21:07Z</time>
      </trkpt>
      <trkpt lat="46.0528" lon="6.30328">
        <ele>672.133</ele>
        <time>2013-07-20T06:21:10Z</time>
      </trkpt>
      <trkpt lat="46.05269" lon="6.30373">
        <ele>670.217</ele>
        <time>2013-07-20T06:21:13Z</time>
      </trkpt>
      <trkpt lat="46.05271" lon="6.30433">
        <ele>667.607</ele>
        <time>2013-07-20T06:21:17Z</time>
      </trkpt>
      <trkpt lat="46.05276" lon="6.30445">
        <ele>666.902</ele>
        <time>2013-07-20T06:21:18Z</time>
      </trkpt>
      <trkpt lat="46.05304" lon="6.30505">
        <ele>664.478</ele>
        <time>2013-07-20T06:21:23Z</time>
      </trkpt>
      <trkpt lat="46.05319" lon="6.30573">
        <ele>661.935</ele>
        <time>2013-07-20T06:21:28Z</time>
      </trkpt>
      <trkpt lat="46.05317" lon="6.30618">
        <ele>659.699</ele>
        <time>2013-07-20T06:21:31Z</time>
      </trkpt>
      <trkpt lat="46.05293" lon="6.3072">
        <ele>655.685</ele>
        <time>2013-07-20T06:21:38Z</time>
      </trkpt>
      <trkpt lat="46.05275" lon="6.30788">
        <ele>652.648</ele>
        <time>2013-07-20T06:21:43Z</time>
      </trkpt>
      <trkpt lat="46.05275" lon="6.30822">
        <ele>649.16</ele>
        <time>2013-07-20T06:21:47Z</time>
      </trkpt>
      <trkpt lat="46.05276" lon="6.30829">
        <ele>648.892</ele>
        <time>2013-07-20T06:21:48Z</time>
      </trkpt>
      <trkpt lat="46.05276" lon="6.3085">
        <ele>647.178</ele>
        <time>2013-07-20T06:21:52Z</time>
      </trkpt>
      <trkpt lat="46.05269" lon="6.30868">
        <ele>646.393</ele>
        <time>2013-07-20T06:21:56Z</time>
      </trkpt>
      <trkpt lat="46.05249" lon="6.30887">
        <ele>645.989</ele>
        <time>2013-07-20T06:22:01Z</time>
      </trkpt>
      <trkpt lat="46.05244" lon="6.30891">
        <ele>645.795</ele>
        <time>2013-07-20T06:22:02Z</time>
      </trkpt>
      <trkpt lat="46.05226" lon="6.30914">
        <ele>645.316</ele>
        <time>2013-07-20T06:22:06Z</time>
      </trkpt>
      <trkpt lat="46.05217" lon="6.30943">
        <ele>646.659</ele>
        <time>2013-07-20T06:22:11Z</time>
      </trkpt>
      <trkpt lat="46.0522" lon="6.3095">
        <ele>646.971</ele>
        <time>2013-07-20T06:22:13Z</time>
      </trkpt>
      <trkpt lat="46.05226" lon="6.30959">
        <ele>646.825</ele>
        <time>2013-07-20T06:22:15Z</time>
      </trkpt>
      <trkpt lat="46.05259" lon="6.30993">
        <ele>642.823</ele>
        <time>2013-07-20T06:22:22Z</time>
      </trkpt>
      <trkpt lat="46.05272" lon="6.31006">
        <ele>640.899</ele>
        <time>2013-07-20T06:22:24Z</time>
      </trkpt>
      <trkpt lat="46.05284" lon="6.31034">
        <ele>637.756</ele>
        <time>2013-07-20T06:22:27Z</time>
      </trkpt>
      <trkpt lat="46.05281" lon="6.31053">
        <ele>635.745</ele>
        <time>2013-07-20T06:22:29Z</time>
      </trkpt>
      <trkpt lat="46.05267" lon="6.31094">
        <ele>635.615</ele>
        <time>2013-07-20T06:22:35Z</time>
      </trkpt>
      <trkpt lat="46.05253" lon="6.3114">
        <ele>635.389</ele>
        <time>2013-07-20T06:22:41Z</time>
      </trkpt>
      <trkpt lat="46.05237" lon="6.31197">
        <ele>635.468</ele>
        <time>2013-07-20T06:22:48Z</time>
      </trkpt>
      <trkpt lat="46.05211" lon="6.31258">
        <ele>635.162</ele>
        <time>2013-07-20T06:22:56Z</time>
      </trkpt>
      <trkpt lat="46.05193" lon="6.31308">
        <ele>634.759</ele>
        <time>2013-07-20T06:23:03Z</time>
      </trkpt>
      <trkpt lat="46.05195" lon="6.31346">
        <ele>634.687</ele>
        <time>2013-07-20T06:23:08Z</time>
      </trkpt>
      <trkpt lat="46.05211" lon="6.31362">
        <ele>633.627</ele>
        <time>2013-07-20T06:23:11Z</time>
      </trkpt>
      <trkpt lat="46.05257" lon="6.31381">
        <ele>629.902</ele>
        <time>2013-07-20T06:23:16Z</time>
      </trkpt>
      <trkpt lat="46.05302" lon="6.31381">
        <ele>626.785</ele>
        <time>2013-07-20T06:23:20Z</time>
      </trkpt>
      <trkpt lat="46.05361" lon="6.31367">
        <ele>622.052</ele>
        <time>2013-07-20T06:23:25Z</time>
      </trkpt>
      <trkpt lat="46.05392" lon="6.31361">
        <ele>618.553</ele>
        <time>2013-07-20T06:23:28Z</time>
      </trkpt>
      <trkpt lat="46.05421" lon="6.31375">
        <ele>614.792</ele>
        <time>2013-07-20T06:23:32Z</time>
      </trkpt>
      <trkpt lat="46.0543" lon="6.31391">
        <ele>613.518</ele>
        <time>2013-07-20T06:23:34Z</time>
      </trkpt>
      <trkpt lat="46.05438" lon="6.31414">
        <ele>610.258</ele>
        <time>2013-07-20T06:23:39Z</time>
      </trkpt>
      <trkpt lat="46.05438" lon="6.31418">
        <ele>610.003</ele>
        <time>2013-07-20T06:23:40Z</time>
      </trkpt>
      <trkpt lat="46.05425" lon="6.31451">
        <ele>609.911</ele>
        <time>2013-07-20T06:23:47Z</time>
      </trkpt>
      <trkpt lat="46.05422" lon="6.31457">
        <ele>609.966</ele>
        <time>2013-07-20T06:23:48Z</time>
      </trkpt>
      <trkpt lat="46.05401" lon="6.3151">
        <ele>610.87</ele>
        <time>2013-07-20T06:23:56Z</time>
      </trkpt>
      <trkpt lat="46.05386" lon="6.31545">
        <ele>611.309</ele>
        <time>2013-07-20T06:24:01Z</time>
      </trkpt>
      <trkpt lat="46.05365" lon="6.31586">
        <ele>611.721</ele>
        <time>2013-07-20T06:24:07Z</time>
      </trkpt>
      <trkpt lat="46.05349" lon="6.31621">
        <ele>612.311</ele>
        <time>2013-07-20T06:24:12Z</time>
      </trkpt>
      <trkpt lat="46.0534" lon="6.3165">
        <ele>612.98</ele>
        <time>2013-07-20T06:24:16Z</time>
      </trkpt>
      <trkpt lat="46.05328" lon="6.31709">
        <ele>614.455</ele>
        <time>2013-07-20T06:24:24Z</time>
      </trkpt>
      <trkpt lat="46.05318" lon="6.31761">
        <ele>615.104</ele>
        <time>2013-07-20T06:24:31Z</time>
      </trkpt>
      <trkpt lat="46.05301" lon="6.31845">
        <ele>614.012</ele>
        <time>2013-07-20T06:24:41Z</time>
      </trkpt>
      <trkpt lat="46.05295" lon="6.31898">
        <ele>613.264</ele>
        <time>2013-07-20T06:24:47Z</time>
      </trkpt>
      <trkpt lat="46.05291" lon="6.31956">
        <ele>613.281</ele>
        <time>2013-07-20T06:24:53Z</time>
      </trkpt>
      <trkpt lat="46.05288" lon="6.31996">
        <ele>613.213</ele>
        <time>2013-07-20T06:24:57Z</time>
      </trkpt>
      <trkpt lat="46.05282" lon="6.32083">
        <ele>613.566</ele>
        <time>2013-07-20T06:25:06Z</time>
      </trkpt>
      <trkpt lat="46.05276" lon="6.32167">
        <ele>614.155</ele>
        <time>2013-07-20T06:25:15Z</time>
      </trkpt>
      <trkpt lat="46.05266" lon="6.32233">
        <ele>615.35</ele>
        <time>2013-07-20T06:25:23Z</time>
      </trkpt>
      <trkpt lat="46.05259" lon="6.32265">
        <ele>615.949</ele>
        <time>2013-07-20T06:25:27Z</time>
      </trkpt>
      <trkpt lat="46.05245" lon="6.32327">
        <ele>617.399</ele>
        <time>2013-07-20T06:25:35Z</time>
      </trkpt>
      <trkpt lat="46.05238" lon="6.32356">
        <ele>617.959</ele>
        <time>2013-07-20T06:25:39Z</time>
      </trkpt>
      <trkpt lat="46.05227" lon="6.32388">
        <ele>618.582</ele>
        <time>2013-07-20T06:25:44Z</time>
      </trkpt>
      <trkpt lat="46.05227" lon="6.32405">
        <ele>619.005</ele>
        <time>2013-07-20T06:25:46Z</time>
      </trkpt>
      <trkpt lat="46.05215" lon="6.32465">
        <ele>619.13</ele>
        <time>2013-07-20T06:25:53Z</time>
      </trkpt>
      <trkpt lat="46.05199" lon="6.32535">
        <ele>619.069</ele>
        <time>2013-07-20T06:26:01Z</time>
      </trkpt>
      <trkpt lat="46.05182" lon="6.32616">
        <ele>619.346</ele>
        <time>2013-07-20T06:26:10Z</time>
      </trkpt>
      <trkpt lat="46.05176" lon="6.32673">
        <ele>619.151</ele>
        <time>2013-07-20T06:26:16Z</time>
      </trkpt>
      <trkpt lat="46.05178" lon="6.32701">
        <ele>619.032</ele>
        <time>2013-07-20T06:26:19Z</time>
      </trkpt>
      <trkpt lat="46.05187" lon="6.32731">
        <ele>618.887</ele>
        <time>2013-07-20T06:26:23Z</time>
      </trkpt>
      <trkpt lat="46.05191" lon="6.32745">
        <ele>618.946</ele>
        <time>2013-07-20T06:26:25Z</time>
      </trkpt>
      <trkpt lat="46.05195" lon="6.32775">
        <ele>618.735</ele>
        <time>2013-07-20T06:26:29Z</time>
      </trkpt>
      <trkpt lat="46.05211" lon="6.32811">
        <ele>619.014</ele>
        <time>2013-07-20T06:26:34Z</time>
      </trkpt>
      <trkpt lat="46.05248" lon="6.32862">
        <ele>619.17</ele>
        <time>2013-07-20T06:26:42Z</time>
      </trkpt>
      <trkpt lat="46.05289" lon="6.32912">
        <ele>619.89</ele>
        <time>2013-07-20T06:26:51Z</time>
      </trkpt>
      <trkpt lat="46.05301" lon="6.32929">
        <ele>620.478</ele>
        <time>2013-07-20T06:26:55Z</time>
      </trkpt>
      <trkpt lat="46.05295" lon="6.32952">
        <ele>622.018</ele>
        <time>2013-07-20T06:27:00Z</time>
      </trkpt>
      <trkpt lat="46.05292" lon="6.32955">
        <ele>622.191</ele>
        <time>2013-07-20T06:27:01Z</time>
      </trkpt>
      <trkpt lat="46.05268" lon="6.3298">
        <ele>624.161</ele>
        <time>2013-07-20T06:27:08Z</time>
      </trkpt>
      <trkpt lat="46.05243" lon="6.32996">
        <ele>625.034</ele>
        <time>2013-07-20T06:27:14Z</time>
      </trkpt>
      <trkpt lat="46.05214" lon="6.33022">
        <ele>625.908</ele>
        <time>2013-07-20T06:27:21Z</time>
      </trkpt>
      <trkpt lat="46.05192" lon="6.33055">
        <ele>626.673</ele>
        <time>2013-07-20T06:27:27Z</time>
      </trkpt>
      <trkpt lat="46.05179" lon="6.33093">
        <ele>628.133</ele>
        <time>2013-07-20T06:27:33Z</time>
      </trkpt>
      <trkpt lat="46.05163" lon="6.33138">
        <ele>630.013</ele>
        <time>2013-07-20T06:27:41Z</time>
      </trkpt>
      <trkpt lat="46.05144" lon="6.33195">
        <ele>631.011</ele>
        <time>2013-07-20T06:27:50Z</time>
      </trkpt>
      <trkpt lat="46.05123" lon="6.3326">
        <ele>631.866</ele>
        <time>2013-07-20T06:28:00Z</time>
      </trkpt>
      <trkpt lat="46.05117" lon="6.33279">
        <ele>632.077</ele>
        <time>2013-07-20T06:28:03Z</time>
      </trkpt>
      <trkpt lat="46.05092" lon="6.3334">
        <ele>632.568</ele>
        <time>2013-07-20T06:28:12Z</time>
      </trkpt>
      <trkpt lat="46.05063" lon="6.33382">
        <ele>632.92</ele>
        <time>2013-07-20T06:28:19Z</time>
      </trkpt>
      <trkpt lat="46.05027" lon="6.33427">
        <ele>633.325</ele>
        <time>2013-07-20T06:28:27Z</time>
      </trkpt>
      <trkpt lat="46.04992" lon="6.33469">
        <ele>634.449</ele>
        <time>2013-07-20T06:28:35Z</time>
      </trkpt>
      <trkpt lat="46.04962" lon="6.33506">
        <ele>635.9</ele>
        <time>2013-07-20T06:28:43Z</time>
      </trkpt>
      <trkpt lat="46.04944" lon="6.33544">
        <ele>637.365</ele>
        <time>2013-07-20T06:28:49Z</time>
      </trkpt>
      <trkpt lat="46.04939" lon="6.33571">
        <ele>638.253</ele>
        <time>2013-07-20T06:28:53Z</time>
      </trkpt>
      <trkpt lat="46.04932" lon="6.33626">
        <ele>638.287</ele>
        <time>2013-07-20T06:29:00Z</time>
      </trkpt>
      <trkpt lat="46.04929" lon="6.33686">
        <ele>638.65</ele>
        <time>2013-07-20T06:29:07Z</time>
      </trkpt>
      <trkpt lat="46.04924" lon="6.33746">
        <ele>639.484</ele>
        <time>2013-07-20T06:29:14Z</time>
      </trkpt>
      <trkpt lat="46.04922" lon="6.33808">
        <ele>641.094</ele>
        <time>2013-07-20T06:29:22Z</time>
      </trkpt>
      <trkpt lat="46.0492" lon="6.33893">
        <ele>643.536</ele>
        <time>2013-07-20T06:29:34Z</time>
      </trkpt>
      <trkpt lat="46.0492" lon="6.33914">
        <ele>644.151</ele>
        <time>2013-07-20T06:29:37Z</time>
      </trkpt>
      <trkpt lat="46.04911" lon="6.33981">
        <ele>646.094</ele>
        <time>2013-07-20T06:29:47Z</time>
      </trkpt>
      <trkpt lat="46.04901" lon="6.34034">
        <ele>648.351</ele>
        <time>2013-07-20T06:29:56Z</time>
      </trkpt>
      <trkpt lat="46.04888" lon="6.34089">
        <ele>650.814</ele>
        <time>2013-07-20T06:30:06Z</time>
      </trkpt>
      <trkpt lat="46.04878" lon="6.34133">
        <ele>653.577</ele>
        <time>2013-07-20T06:30:15Z</time>
      </trkpt>
      <trkpt lat="46.04871" lon="6.34188">
        <ele>656.406</ele>
        <time>2013-07-20T06:30:26Z</time>
      </trkpt>
      <trkpt lat="46.04866" lon="6.34234">
        <ele>657.04</ele>
        <time>2013-07-20T06:30:34Z</time>
      </trkpt>
      <trkpt lat="46.04861" lon="6.34275">
        <ele>658.792</ele>
        <time>2013-07-20T06:30:41Z</time>
      </trkpt>
      <trkpt lat="46.0486" lon="6.34281">
        <ele>658.884</ele>
        <time>2013-07-20T06:30:42Z</time>
      </trkpt>
      <trkpt lat="46.04864" lon="6.34337">
        <ele>660.834</ele>
        <time>2013-07-20T06:30:51Z</time>
      </trkpt>
      <trkpt lat="46.04871" lon="6.34388">
        <ele>660.903</ele>
        <time>2013-07-20T06:30:58Z</time>
      </trkpt>
      <trkpt lat="46.0488" lon="6.34452">
        <ele>660.198</ele>
        <time>2013-07-20T06:31:05Z</time>
      </trkpt>
      <trkpt lat="46.04888" lon="6.34521">
        <ele>659.328</ele>
        <time>2013-07-20T06:31:12Z</time>
      </trkpt>
      <trkpt lat="46.04894" lon="6.34591">
        <ele>658.124</ele>
        <time>2013-07-20T06:31:19Z</time>
      </trkpt>
      <trkpt lat="46.04895" lon="6.3465">
        <ele>657.34</ele>
        <time>2013-07-20T06:31:25Z</time>
      </trkpt>
      <trkpt lat="46.04894" lon="6.34668">
        <ele>657.163</ele>
        <time>2013-07-20T06:31:27Z</time>
      </trkpt>
      <trkpt lat="46.04892" lon="6.34695">
        <ele>656.583</ele>
        <time>2013-07-20T06:31:30Z</time>
      </trkpt>
      <trkpt lat="46.04889" lon="6.3473">
        <ele>656.502</ele>
        <time>2013-07-20T06:31:34Z</time>
      </trkpt>
      <trkpt lat="46.04882" lon="6.34825">
        <ele>657.245</ele>
        <time>2013-07-20T06:31:45Z</time>
      </trkpt>
      <trkpt lat="46.04872" lon="6.34901">
        <ele>657.137</ele>
        <time>2013-07-20T06:31:54Z</time>
      </trkpt>
      <trkpt lat="46.04859" lon="6.34968">
        <ele>657.007</ele>
        <time>2013-07-20T06:32:02Z</time>
      </trkpt>
      <trkpt lat="46.04845" lon="6.3504">
        <ele>657.049</ele>
        <time>2013-07-20T06:32:10Z</time>
      </trkpt>
      <trkpt lat="46.0484" lon="6.35058">
        <ele>656.86</ele>
        <time>2013-07-20T06:32:12Z</time>
      </trkpt>
      <trkpt lat="46.04815" lon="6.35103">
        <ele>656.873</ele>
        <time>2013-07-20T06:32:18Z</time>
      </trkpt>
      <trkpt lat="46.04776" lon="6.35153">
        <ele>656.865</ele>
        <time>2013-07-20T06:32:26Z</time>
      </trkpt>
      <trkpt lat="46.04771" lon="6.3516">
        <ele>656.744</ele>
        <time>2013-07-20T06:32:27Z</time>
      </trkpt>
      <trkpt lat="46.04761" lon="6.35196">
        <ele>656.334</ele>
        <time>2013-07-20T06:32:31Z</time>
      </trkpt>
      <trkpt lat="46.04762" lon="6.35207">
        <ele>656.165</ele>
        <time>2013-07-20T06:32:32Z</time>
      </trkpt>
      <trkpt lat="46.04766" lon="6.35319">
        <ele>653.633</ele>
        <time>2013-07-20T06:32:42Z</time>
      </trkpt>
      <trkpt lat="46.04767" lon="6.3539">
        <ele>651.899</ele>
        <time>2013-07-20T06:32:48Z</time>
      </trkpt>
      <trkpt lat="46.0477" lon="6.35435">
        <ele>651.297</ele>
        <time>2013-07-20T06:32:52Z</time>
      </trkpt>
      <trkpt lat="46.04772" lon="6.3551">
        <ele>651.055</ele>
        <time>2013-07-20T06:32:59Z</time>
      </trkpt>
      <trkpt lat="46.04764" lon="6.35601">
        <ele>650.187</ele>
        <time>2013-07-20T06:33:08Z</time>
      </trkpt>
      <trkpt lat="46.04757" lon="6.35668">
        <ele>650.87</ele>
        <time>2013-07-20T06:33:15Z</time>
      </trkpt>
      <trkpt lat="46.04748" lon="6.3575">
        <ele>651.516</ele>
        <time>2013-07-20T06:33:24Z</time>
      </trkpt>
      <trkpt lat="46.04746" lon="6.35797">
        <ele>652.362</ele>
        <time>2013-07-20T06:33:30Z</time>
      </trkpt>
      <trkpt lat="46.04746" lon="6.35804">
        <ele>652.707</ele>
        <time>2013-07-20T06:33:31Z</time>
      </trkpt>
      <trkpt lat="46.0474" lon="6.3584">
        <ele>653.766</ele>
        <time>2013-07-20T06:33:36Z</time>
      </trkpt>
      <trkpt lat="46.04734" lon="6.35867">
        <ele>654.334</ele>
        <time>2013-07-20T06:33:40Z</time>
      </trkpt>
      <trkpt lat="46.04726" lon="6.35917">
        <ele>655.281</ele>
        <time>2013-07-20T06:33:47Z</time>
      </trkpt>
      <trkpt lat="46.04725" lon="6.35923">
        <ele>655.339</ele>
        <time>2013-07-20T06:33:48Z</time>
      </trkpt>
      <trkpt lat="46.04717" lon="6.35944">
        <ele>655.846</ele>
        <time>2013-07-20T06:33:52Z</time>
      </trkpt>
      <trkpt lat="46.04701" lon="6.35957">
        <ele>656.153</ele>
        <time>2013-07-20T06:33:56Z</time>
      </trkpt>
      <trkpt lat="46.04682" lon="6.35957">
        <ele>656.756</ele>
        <time>2013-07-20T06:34:00Z</time>
      </trkpt>
      <trkpt lat="46.04678" lon="6.35956">
        <ele>656.913</ele>
        <time>2013-07-20T06:34:01Z</time>
      </trkpt>
      <trkpt lat="46.04658" lon="6.35949">
        <ele>657.761</ele>
        <time>2013-07-20T06:34:07Z</time>
      </trkpt>
      <trkpt lat="46.04648" lon="6.35946">
        <ele>658.016</ele>
        <time>2013-07-20T06:34:12Z</time>
      </trkpt>
      <trkpt lat="46.04636" lon="6.35946">
        <ele>658.608</ele>
        <time>2013-07-20T06:34:17Z</time>
      </trkpt>
      <trkpt lat="46.04629" lon="6.35948">
        <ele>658.904</ele>
        <time>2013-07-20T06:34:20Z</time>
      </trkpt>
      <trkpt lat="46.04633" lon="6.35952">
        <ele>659.22</ele>
        <time>2013-07-20T06:34:24Z</time>
      </trkpt>
      <trkpt lat="46.04635" lon="6.35951">
        <ele>659.226</ele>
        <time>2013-07-20T06:34:25Z</time>
      </trkpt>
      <trkpt lat="46.04646" lon="6.35948">
        <ele>658.958</ele>
        <time>2013-07-20T06:34:28Z</time>
      </trkpt>
      <trkpt lat="46.04655" lon="6.35949">
        <ele>658.596</ele>
        <time>2013-07-20T06:34:30Z</time>
      </trkpt>
      <trkpt lat="46.04679" lon="6.35955">
        <ele>657.855</ele>
        <time>2013-07-20T06:34:35Z</time>
      </trkpt>
      <trkpt lat="46.04707" lon="6.35953">
        <ele>656.954</ele>
        <time>2013-07-20T06:34:40Z</time>
      </trkpt>
      <trkpt lat="46.04721" lon="6.35942">
        <ele>656.945</ele>
        <time>2013-07-20T06:34:43Z</time>
      </trkpt>
      <trkpt lat="46.04724" lon="6.35936">
        <ele>656.933</ele>
        <time>2013-07-20T06:34:44Z</time>
      </trkpt>
      <trkpt lat="46.04726" lon="6.35929">
        <ele>656.898</ele>
        <time>2013-07-20T06:34:45Z</time>
      </trkpt>
      <trkpt lat="46.04735" lon="6.35891">
        <ele>655.962</ele>
        <time>2013-07-20T06:34:50Z</time>
      </trkpt>
      <trkpt lat="46.04748" lon="6.35863">
        <ele>655.221</ele>
        <time>2013-07-20T06:34:55Z</time>
      </trkpt>
      <trkpt lat="46.04754" lon="6.35864">
        <ele>655.055</ele>
        <time>2013-07-20T06:34:56Z</time>
      </trkpt>
      <trkpt lat="46.048" lon="6.35866">
        <ele>652.264</ele>
        <time>2013-07-20T06:35:02Z</time>
      </trkpt>
      <trkpt lat="46.04808" lon="6.35866">
        <ele>652.001</ele>
        <time>2013-07-20T06:35:03Z</time>
      </trkpt>
      <trkpt lat="46.04843" lon="6.3587">
        <ele>650.394</ele>
        <time>2013-07-20T06:35:07Z</time>
      </trkpt>
      <trkpt lat="46.04868" lon="6.35877">
        <ele>649.119</ele>
        <time>2013-07-20T06:35:10Z</time>
      </trkpt>
      <trkpt lat="46.04915" lon="6.359">
        <ele>646.599</ele>
        <time>2013-07-20T06:35:16Z</time>
      </trkpt>
      <trkpt lat="46.04971" lon="6.35939">
        <ele>644.905</ele>
        <time>2013-07-20T06:35:24Z</time>
      </trkpt>
      <trkpt lat="46.0501" lon="6.35963">
        <ele>644.145</ele>
        <time>2013-07-20T06:35:30Z</time>
      </trkpt>
      <trkpt lat="46.05026" lon="6.35971">
        <ele>644.07</ele>
        <time>2013-07-20T06:35:33Z</time>
      </trkpt>
      <trkpt lat="46.05039" lon="6.35977">
        <ele>643.456</ele>
        <time>2013-07-20T06:35:37Z</time>
      </trkpt>
      <trkpt lat="46.05041" lon="6.35985">
        <ele>643.105</ele>
        <time>2013-07-20T06:35:41Z</time>
      </trkpt>
      <trkpt lat="46.05042" lon="6.35988">
        <ele>643.037</ele>
        <time>2013-07-20T06:35:46Z</time>
      </trkpt>
      <trkpt lat="46.05043" lon="6.35989">
        <ele>643.299</ele>
        <time>2013-07-20T06:35:53Z</time>
      </trkpt>
      <trkpt lat="46.0504" lon="6.35986">
        <ele>643.423</ele>
        <time>2013-07-20T06:36:38Z</time>
      </trkpt>
      <trkpt lat="46.05048" lon="6.36">
        <ele>643.005</ele>
        <time>2013-07-20T06:36:43Z</time>
      </trkpt>
      <trkpt lat="46.0505" lon="6.36029">
        <ele>642.523</ele>
        <time>2013-07-20T06:36:47Z</time>
      </trkpt>
      <trkpt lat="46.05045" lon="6.36093">
        <ele>640.585</ele>
        <time>2013-07-20T06:36:53Z</time>
      </trkpt>
      <trkpt lat="46.05041" lon="6.3616">
        <ele>638.569</ele>
        <time>2013-07-20T06:36:58Z</time>
      </trkpt>
      <trkpt lat="46.05041" lon="6.36222">
        <ele>636.233</ele>
        <time>2013-07-20T06:37:02Z</time>
      </trkpt>
      <trkpt lat="46.05042" lon="6.36289">
        <ele>634.065</ele>
        <time>2013-07-20T06:37:06Z</time>
      </trkpt>
      <trkpt lat="46.05053" lon="6.36393">
        <ele>629.378</ele>
        <time>2013-07-20T06:37:12Z</time>
      </trkpt>
      <trkpt lat="46.05067" lon="6.36469">
        <ele>627.032</ele>
        <time>2013-07-20T06:37:16Z</time>
      </trkpt>
      <trkpt lat="46.05074" lon="6.36574">
        <ele>622.412</ele>
        <time>2013-07-20T06:37:22Z</time>
      </trkpt>
      <trkpt lat="46.05089" lon="6.3668">
        <ele>617.609</ele>
        <time>2013-07-20T06:37:28Z</time>
      </trkpt>
      <trkpt lat="46.05094" lon="6.36765">
        <ele>614.038</ele>
        <time>2013-07-20T06:37:33Z</time>
      </trkpt>
      <trkpt lat="46.05099" lon="6.36841">
        <ele>609.919</ele>
        <time>2013-07-20T06:37:38Z</time>
      </trkpt>
      <trkpt lat="46.05101" lon="6.36855">
        <ele>609.242</ele>
        <time>2013-07-20T06:37:39Z</time>
      </trkpt>
      <trkpt lat="46.05111" lon="6.36926">
        <ele>606.35</ele>
        <time>2013-07-20T06:37:44Z</time>
      </trkpt>
      <trkpt lat="46.05113" lon="6.3697">
        <ele>604.332</ele>
        <time>2013-07-20T06:37:47Z</time>
      </trkpt>
      <trkpt lat="46.0512" lon="6.37016">
        <ele>602.753</ele>
        <time>2013-07-20T06:37:50Z</time>
      </trkpt>
      <trkpt lat="46.05123" lon="6.3711">
        <ele>599.573</ele>
        <time>2013-07-20T06:37:56Z</time>
      </trkpt>
      <trkpt lat="46.0512" lon="6.37188">
        <ele>596.662</ele>
        <time>2013-07-20T06:38:01Z</time>
      </trkpt>
      <trkpt lat="46.05119" lon="6.37202">
        <ele>595.826</ele>
        <time>2013-07-20T06:38:02Z</time>
      </trkpt>
      <trkpt lat="46.05125" lon="6.37236">
        <ele>592.858</ele>
        <time>2013-07-20T06:38:05Z</time>
      </trkpt>
      <trkpt lat="46.05138" lon="6.3724">
        <ele>591.69</ele>
        <time>2013-07-20T06:38:07Z</time>
      </trkpt>
      <trkpt lat="46.05154" lon="6.37229">
        <ele>590.542</ele>
        <time>2013-07-20T06:38:09Z</time>
      </trkpt>
      <trkpt lat="46.05161" lon="6.37205">
        <ele>589.236</ele>
        <time>2013-07-20T06:38:11Z</time>
      </trkpt>
      <trkpt lat="46.05162" lon="6.37192">
        <ele>588.607</ele>
        <time>2013-07-20T06:38:12Z</time>
      </trkpt>
      <trkpt lat="46.0516" lon="6.37118">
        <ele>585.118</ele>
        <time>2013-07-20T06:38:18Z</time>
      </trkpt>
      <trkpt lat="46.05161" lon="6.37095">
        <ele>584.329</ele>
        <time>2013-07-20T06:38:20Z</time>
      </trkpt>
      <trkpt lat="46.05171" lon="6.37023">
        <ele>581.769</ele>
        <time>2013-07-20T06:38:26Z</time>
      </trkpt>
      <trkpt lat="46.0519" lon="6.36976">
        <ele>579.833</ele>
        <time>2013-07-20T06:38:30Z</time>
      </trkpt>
      <trkpt lat="46.05211" lon="6.36946">
        <ele>578.095</ele>
        <time>2013-07-20T06:38:33Z</time>
      </trkpt>
      <trkpt lat="46.05255" lon="6.36881">
        <ele>575.227</ele>
        <time>2013-07-20T06:38:39Z</time>
      </trkpt>
      <trkpt lat="46.05274" lon="6.36829">
        <ele>571.418</ele>
        <time>2013-07-20T06:38:43Z</time>
      </trkpt>
      <trkpt lat="46.05282" lon="6.36769">
        <ele>569.348</ele>
        <time>2013-07-20T06:38:47Z</time>
      </trkpt>
      <trkpt lat="46.05309" lon="6.36681">
        <ele>566.366</ele>
        <time>2013-07-20T06:38:53Z</time>
      </trkpt>
      <trkpt lat="46.05335" lon="6.36608">
        <ele>562.566</ele>
        <time>2013-07-20T06:38:58Z</time>
      </trkpt>
      <trkpt lat="46.05357" lon="6.36537">
        <ele>559.523</ele>
        <time>2013-07-20T06:39:03Z</time>
      </trkpt>
      <trkpt lat="46.05366" lon="6.36509">
        <ele>558.729</ele>
        <time>2013-07-20T06:39:05Z</time>
      </trkpt>
      <trkpt lat="46.05382" lon="6.36434">
        <ele>554.667</ele>
        <time>2013-07-20T06:39:10Z</time>
      </trkpt>
      <trkpt lat="46.05385" lon="6.36372">
        <ele>551.483</ele>
        <time>2013-07-20T06:39:14Z</time>
      </trkpt>
      <trkpt lat="46.05384" lon="6.3634">
        <ele>550.813</ele>
        <time>2013-07-20T06:39:16Z</time>
      </trkpt>
      <trkpt lat="46.0539" lon="6.36282">
        <ele>547.755</ele>
        <time>2013-07-20T06:39:20Z</time>
      </trkpt>
      <trkpt lat="46.05402" lon="6.36251">
        <ele>545.631</ele>
        <time>2013-07-20T06:39:23Z</time>
      </trkpt>
      <trkpt lat="46.05418" lon="6.36252">
        <ele>543.776</ele>
        <time>2013-07-20T06:39:25Z</time>
      </trkpt>
      <trkpt lat="46.05435" lon="6.36271">
        <ele>542.175</ele>
        <time>2013-07-20T06:39:27Z</time>
      </trkpt>
      <trkpt lat="46.05437" lon="6.36299">
        <ele>540.827</ele>
        <time>2013-07-20T06:39:29Z</time>
      </trkpt>
      <trkpt lat="46.05436" lon="6.36313">
        <ele>540.541</ele>
        <time>2013-07-20T06:39:30Z</time>
      </trkpt>
      <trkpt lat="46.05433" lon="6.36421">
        <ele>536.646</ele>
        <time>2013-07-20T06:39:37Z</time>
      </trkpt>
      <trkpt lat="46.0543" lon="6.36502">
        <ele>533.365</ele>
        <time>2013-07-20T06:39:42Z</time>
      </trkpt>
      <trkpt lat="46.05429" lon="6.36533">
        <ele>531.926</ele>
        <time>2013-07-20T06:39:44Z</time>
      </trkpt>
      <trkpt lat="46.05443" lon="6.36609">
        <ele>528.447</ele>
        <time>2013-07-20T06:39:49Z</time>
      </trkpt>
      <trkpt lat="46.05461" lon="6.36648">
        <ele>526.149</ele>
        <time>2013-07-20T06:39:52Z</time>
      </trkpt>
      <trkpt lat="46.05488" lon="6.3668">
        <ele>524.586</ele>
        <time>2013-07-20T06:39:55Z</time>
      </trkpt>
      <trkpt lat="46.05508" lon="6.36734">
        <ele>521.905</ele>
        <time>2013-07-20T06:39:59Z</time>
      </trkpt>
      <trkpt lat="46.05523" lon="6.36808">
        <ele>520.602</ele>
        <time>2013-07-20T06:40:04Z</time>
      </trkpt>
      <trkpt lat="46.05532" lon="6.36835">
        <ele>519.907</ele>
        <time>2013-07-20T06:40:06Z</time>
      </trkpt>
      <trkpt lat="46.05537" lon="6.36891">
        <ele>516.82</ele>
        <time>2013-07-20T06:40:10Z</time>
      </trkpt>
      <trkpt lat="46.0553" lon="6.36951">
        <ele>513.576</ele>
        <time>2013-07-20T06:40:14Z</time>
      </trkpt>
      <trkpt lat="46.05521" lon="6.37055">
        <ele>510.28</ele>
        <time>2013-07-20T06:40:21Z</time>
      </trkpt>
      <trkpt lat="46.0552" lon="6.37085">
        <ele>509.849</ele>
        <time>2013-07-20T06:40:23Z</time>
      </trkpt>
      <trkpt lat="46.0551" lon="6.37154">
        <ele>507.015</ele>
        <time>2013-07-20T06:40:28Z</time>
      </trkpt>
      <trkpt lat="46.05506" lon="6.37173">
        <ele>505.641</ele>
        <time>2013-07-20T06:40:30Z</time>
      </trkpt>
      <trkpt lat="46.05502" lon="6.37189">
        <ele>503.559</ele>
        <time>2013-07-20T06:40:33Z</time>
      </trkpt>
      <trkpt lat="46.05514" lon="6.37206">
        <ele>503.198</ele>
        <time>2013-07-20T06:40:37Z</time>
      </trkpt>
      <trkpt lat="46.05551" lon="6.37242">
        <ele>500.892</ele>
        <time>2013-07-20T06:40:43Z</time>
      </trkpt>
      <trkpt lat="46.05601" lon="6.37296">
        <ele>498.519</ele>
        <time>2013-07-20T06:40:50Z</time>
      </trkpt>
      <trkpt lat="46.05649" lon="6.37349">
        <ele>496.013</ele>
        <time>2013-07-20T06:40:57Z</time>
      </trkpt>
      <trkpt lat="46.05662" lon="6.37364">
        <ele>495.778</ele>
        <time>2013-07-20T06:40:59Z</time>
      </trkpt>
      <trkpt lat="46.05684" lon="6.37415">
        <ele>495.681</ele>
        <time>2013-07-20T06:41:04Z</time>
      </trkpt>
      <trkpt lat="46.05711" lon="6.37484">
        <ele>494.209</ele>
        <time>2013-07-20T06:41:11Z</time>
      </trkpt>
      <trkpt lat="46.05714" lon="6.37493">
        <ele>494.078</ele>
        <time>2013-07-20T06:41:12Z</time>
      </trkpt>
      <trkpt lat="46.05717" lon="6.37513">
        <ele>493.645</ele>
        <time>2013-07-20T06:41:14Z</time>
      </trkpt>
      <trkpt lat="46.05722" lon="6.37531">
        <ele>493.273</ele>
        <time>2013-07-20T06:41:16Z</time>
      </trkpt>
      <trkpt lat="46.05739" lon="6.37603">
        <ele>493.083</ele>
        <time>2013-07-20T06:41:23Z</time>
      </trkpt>
      <trkpt lat="46.05764" lon="6.37674">
        <ele>491.177</ele>
        <time>2013-07-20T06:41:30Z</time>
      </trkpt>
      <trkpt lat="46.05781" lon="6.37714">
        <ele>490.567</ele>
        <time>2013-07-20T06:41:34Z</time>
      </trkpt>
      <trkpt lat="46.05791" lon="6.37759">
        <ele>489.918</ele>
        <time>2013-07-20T06:41:38Z</time>
      </trkpt>
      <trkpt lat="46.058" lon="6.37862">
        <ele>488.918</ele>
        <time>2013-07-20T06:41:47Z</time>
      </trkpt>
      <trkpt lat="46.05817" lon="6.37913">
        <ele>488.703</ele>
        <time>2013-07-20T06:41:52Z</time>
      </trkpt>
      <trkpt lat="46.05848" lon="6.37971">
        <ele>487.402</ele>
        <time>2013-07-20T06:41:58Z</time>
      </trkpt>
      <trkpt lat="46.05896" lon="6.38054">
        <ele>486.012</ele>
        <time>2013-07-20T06:42:07Z</time>
      </trkpt>
      <trkpt lat="46.05925" lon="6.38107">
        <ele>485.918</ele>
        <time>2013-07-20T06:42:13Z</time>
      </trkpt>
      <trkpt lat="46.05929" lon="6.38115">
        <ele>485.88</ele>
        <time>2013-07-20T06:42:14Z</time>
      </trkpt>
      <trkpt lat="46.05929" lon="6.3815">
        <ele>485.557</ele>
        <time>2013-07-20T06:42:18Z</time>
      </trkpt>
      <trkpt lat="46.05925" lon="6.38158">
        <ele>485.518</ele>
        <time>2013-07-20T06:42:19Z</time>
      </trkpt>
      <trkpt lat="46.05889" lon="6.38228">
        <ele>485.883</ele>
        <time>2013-07-20T06:42:28Z</time>
      </trkpt>
      <trkpt lat="46.0585" lon="6.38301">
        <ele>485.597</ele>
        <time>2013-07-20T06:42:37Z</time>
      </trkpt>
      <trkpt lat="46.05838" lon="6.38329">
        <ele>485.25</ele>
        <time>2013-07-20T06:42:40Z</time>
      </trkpt>
      <trkpt lat="46.05826" lon="6.38371">
        <ele>485.073</ele>
        <time>2013-07-20T06:42:44Z</time>
      </trkpt>
      <trkpt lat="46.05819" lon="6.38406">
        <ele>485.103</ele>
        <time>2013-07-20T06:42:47Z</time>
      </trkpt>
      <trkpt lat="46.05816" lon="6.38467">
        <ele>484.601</ele>
        <time>2013-07-20T06:42:52Z</time>
      </trkpt>
      <trkpt lat="46.05821" lon="6.38567">
        <ele>483.996</ele>
        <time>2013-07-20T06:43:00Z</time>
      </trkpt>
      <trkpt lat="46.05835" lon="6.38627">
        <ele>483.195</ele>
        <time>2013-07-20T06:43:05Z</time>
      </trkpt>
      <trkpt lat="46.05868" lon="6.38744">
        <ele>482.272</ele>
        <time>2013-07-20T06:43:15Z</time>
      </trkpt>
      <trkpt lat="46.05891" lon="6.38811">
        <ele>481.762</ele>
        <time>2013-07-20T06:43:21Z</time>
      </trkpt>
      <trkpt lat="46.05924" lon="6.38868">
        <ele>481.059</ele>
        <time>2013-07-20T06:43:27Z</time>
      </trkpt>
      <trkpt lat="46.05976" lon="6.38948">
        <ele>479.932</ele>
        <time>2013-07-20T06:43:36Z</time>
      </trkpt>
      <trkpt lat="46.06013" lon="6.39016">
        <ele>479.55</ele>
        <time>2013-07-20T06:43:43Z</time>
      </trkpt>
      <trkpt lat="46.06041" lon="6.3906">
        <ele>478.843</ele>
        <time>2013-07-20T06:43:48Z</time>
      </trkpt>
      <trkpt lat="46.06083" lon="6.391">
        <ele>478.084</ele>
        <time>2013-07-20T06:43:54Z</time>
      </trkpt>
      <trkpt lat="46.06125" lon="6.39141">
        <ele>477.802</ele>
        <time>2013-07-20T06:44:00Z</time>
      </trkpt>
      <trkpt lat="46.06152" lon="6.39186">
        <ele>477.368</ele>
        <time>2013-07-20T06:44:05Z</time>
      </trkpt>
      <trkpt lat="46.06197" lon="6.3929">
        <ele>476.079</ele>
        <time>2013-07-20T06:44:15Z</time>
      </trkpt>
      <trkpt lat="46.06232" lon="6.39372">
        <ele>474.861</ele>
        <time>2013-07-20T06:44:23Z</time>
      </trkpt>
      <trkpt lat="46.06257" lon="6.39435">
        <ele>474.69</ele>
        <time>2013-07-20T06:44:29Z</time>
      </trkpt>
      <trkpt lat="46.06292" lon="6.39519">
        <ele>473.865</ele>
        <time>2013-07-20T06:44:37Z</time>
      </trkpt>
      <trkpt lat="46.06337" lon="6.39627">
        <ele>472.867</ele>
        <time>2013-07-20T06:44:47Z</time>
      </trkpt>
      <trkpt lat="46.06378" lon="6.39708">
        <ele>472.103</ele>
        <time>2013-07-20T06:44:55Z</time>
      </trkpt>
      <trkpt lat="46.06444" lon="6.3981">
        <ele>471.234</ele>
        <time>2013-07-20T06:45:06Z</time>
      </trkpt>
      <trkpt lat="46.06456" lon="6.39829">
        <ele>470.931</ele>
        <time>2013-07-20T06:45:08Z</time>
      </trkpt>
      <trkpt lat="46.06473" lon="6.39886">
        <ele>470.459</ele>
        <time>2013-07-20T06:45:13Z</time>
      </trkpt>
      <trkpt lat="46.06474" lon="6.39912">
        <ele>469.915</ele>
        <time>2013-07-20T06:45:15Z</time>
      </trkpt>
      <trkpt lat="46.06471" lon="6.39975">
        <ele>469.017</ele>
        <time>2013-07-20T06:45:20Z</time>
      </trkpt>
      <trkpt lat="46.06482" lon="6.40023">
        <ele>468.451</ele>
        <time>2013-07-20T06:45:24Z</time>
      </trkpt>
      <trkpt lat="46.065" lon="6.4005">
        <ele>468.37</ele>
        <time>2013-07-20T06:45:27Z</time>
      </trkpt>
      <trkpt lat="46.06508" lon="6.40057">
        <ele>468.281</ele>
        <time>2013-07-20T06:45:28Z</time>
      </trkpt>
      <trkpt lat="46.0654" lon="6.40082">
        <ele>467.622</ele>
        <time>2013-07-20T06:45:32Z</time>
      </trkpt>
      <trkpt lat="46.06568" lon="6.40111">
        <ele>467.374</ele>
        <time>2013-07-20T06:45:36Z</time>
      </trkpt>
      <trkpt lat="46.06592" lon="6.4016">
        <ele>467.754</ele>
        <time>2013-07-20T06:45:41Z</time>
      </trkpt>
      <trkpt lat="46.06621" lon="6.40234">
        <ele>467.276</ele>
        <time>2013-07-20T06:45:48Z</time>
      </trkpt>
      <trkpt lat="46.06672" lon="6.40366">
        <ele>466.021</ele>
        <time>2013-07-20T06:46:00Z</time>
      </trkpt>
      <trkpt lat="46.06735" lon="6.4052">
        <ele>464.521</ele>
        <time>2013-07-20T06:46:14Z</time>
      </trkpt>
      <trkpt lat="46.0676" lon="6.40556">
        <ele>464.149</ele>
        <time>2013-07-20T06:46:18Z</time>
      </trkpt>
      <trkpt lat="46.06796" lon="6.40617">
        <ele>462.977</ele>
        <time>2013-07-20T06:46:25Z</time>
      </trkpt>
      <trkpt lat="46.06814" lon="6.40634">
        <ele>462.277</ele>
        <time>2013-07-20T06:46:29Z</time>
      </trkpt>
      <trkpt lat="46.06824" lon="6.40648">
        <ele>461.885</ele>
        <time>2013-07-20T06:46:33Z</time>
      </trkpt>
      <trkpt lat="46.06824" lon="6.40656">
        <ele>461.892</ele>
        <time>2013-07-20T06:46:35Z</time>
      </trkpt>
      <trkpt lat="46.06825" lon="6.40675">
        <ele>461.783</ele>
        <time>2013-07-20T06:46:40Z</time>
      </trkpt>
      <trkpt lat="46.06825" lon="6.40683">
        <ele>461.852</ele>
        <time>2013-07-20T06:46:42Z</time>
      </trkpt>
      <trkpt lat="46.06825" lon="6.40687">
        <ele>461.847</ele>
        <time>2013-07-20T06:46:43Z</time>
      </trkpt>
      <trkpt lat="46.06824" lon="6.40716">
        <ele>461.537</ele>
        <time>2013-07-20T06:46:50Z</time>
      </trkpt>
      <trkpt lat="46.06823" lon="6.40727">
        <ele>461.506</ele>
        <time>2013-07-20T06:46:52Z</time>
      </trkpt>
      <trkpt lat="46.0682" lon="6.40769">
        <ele>461.694</ele>
        <time>2013-07-20T06:46:57Z</time>
      </trkpt>
      <trkpt lat="46.06817" lon="6.40806">
        <ele>461.44</ele>
        <time>2013-07-20T06:47:01Z</time>
      </trkpt>
      <trkpt lat="46.06813" lon="6.40854">
        <ele>460.694</ele>
        <time>2013-07-20T06:47:06Z</time>
      </trkpt>
      <trkpt lat="46.06807" lon="6.40951">
        <ele>460.209</ele>
        <time>2013-07-20T06:47:15Z</time>
      </trkpt>
      <trkpt lat="46.06802" lon="6.41047">
        <ele>460.351</ele>
        <time>2013-07-20T06:47:24Z</time>
      </trkpt>
      <trkpt lat="46.06798" lon="6.41131">
        <ele>460.158</ele>
        <time>2013-07-20T06:47:32Z</time>
      </trkpt>
      <trkpt lat="46.06802" lon="6.41183">
        <ele>460.415</ele>
        <time>2013-07-20T06:47:37Z</time>
      </trkpt>
      <trkpt lat="46.06798" lon="6.41208">
        <ele>460.173</ele>
        <time>2013-07-20T06:47:40Z</time>
      </trkpt>
      <trkpt lat="46.068" lon="6.41236">
        <ele>459.965</ele>
        <time>2013-07-20T06:47:44Z</time>
      </trkpt>
      <trkpt lat="46.06797" lon="6.41252">
        <ele>459.741</ele>
        <time>2013-07-20T06:47:47Z</time>
      </trkpt>
      <trkpt lat="46.06795" lon="6.41259">
        <ele>459.669</ele>
        <time>2013-07-20T06:47:48Z</time>
      </trkpt>
      <trkpt lat="46.06791" lon="6.41274">
        <ele>459.619</ele>
        <time>2013-07-20T06:47:50Z</time>
      </trkpt>
      <trkpt lat="46.06788" lon="6.41327">
        <ele>460.165</ele>
        <time>2013-07-20T06:47:56Z</time>
      </trkpt>
      <trkpt lat="46.06784" lon="6.41402">
        <ele>460.099</ele>
        <time>2013-07-20T06:48:04Z</time>
      </trkpt>
      <trkpt lat="46.0678" lon="6.41464">
        <ele>459.909</ele>
        <time>2013-07-20T06:48:11Z</time>
      </trkpt>
      <trkpt lat="46.06775" lon="6.4153">
        <ele>460.237</ele>
        <time>2013-07-20T06:48:18Z</time>
      </trkpt>
      <trkpt lat="46.06772" lon="6.41585">
        <ele>460.494</ele>
        <time>2013-07-20T06:48:24Z</time>
      </trkpt>
      <trkpt lat="46.06771" lon="6.41611">
        <ele>460.152</ele>
        <time>2013-07-20T06:48:27Z</time>
      </trkpt>
      <trkpt lat="46.06779" lon="6.41631">
        <ele>459.699</ele>
        <time>2013-07-20T06:48:31Z</time>
      </trkpt>
      <trkpt lat="46.06784" lon="6.41631">
        <ele>459.723</ele>
        <time>2013-07-20T06:48:32Z</time>
      </trkpt>
      <trkpt lat="46.0682" lon="6.41634">
        <ele>459.733</ele>
        <time>2013-07-20T06:48:38Z</time>
      </trkpt>
      <trkpt lat="46.06859" lon="6.41641">
        <ele>459.599</ele>
        <time>2013-07-20T06:48:44Z</time>
      </trkpt>
      <trkpt lat="46.06915" lon="6.41651">
        <ele>459.754</ele>
        <time>2013-07-20T06:48:52Z</time>
      </trkpt>
      <trkpt lat="46.06946" lon="6.41655">
        <ele>459.445</ele>
        <time>2013-07-20T06:48:57Z</time>
      </trkpt>
      <trkpt lat="46.06964" lon="6.41669">
        <ele>459.47</ele>
        <time>2013-07-20T06:49:01Z</time>
      </trkpt>
      <trkpt lat="46.06966" lon="6.41694">
        <ele>459.816</ele>
        <time>2013-07-20T06:49:04Z</time>
      </trkpt>
      <trkpt lat="46.0696" lon="6.41755">
        <ele>460.468</ele>
        <time>2013-07-20T06:49:11Z</time>
      </trkpt>
      <trkpt lat="46.06951" lon="6.41847">
        <ele>460.525</ele>
        <time>2013-07-20T06:49:21Z</time>
      </trkpt>
      <trkpt lat="46.06943" lon="6.41939">
        <ele>461.041</ele>
        <time>2013-07-20T06:49:31Z</time>
      </trkpt>
      <trkpt lat="46.06943" lon="6.41949">
        <ele>460.904</ele>
        <time>2013-07-20T06:49:32Z</time>
      </trkpt>
      <trkpt lat="46.06947" lon="6.41992">
        <ele>460.752</ele>
        <time>2013-07-20T06:49:37Z</time>
      </trkpt>
      <trkpt lat="46.06943" lon="6.42008">
        <ele>460.79</ele>
        <time>2013-07-20T06:49:39Z</time>
      </trkpt>
      <trkpt lat="46.06936" lon="6.42031">
        <ele>460.693</ele>
        <time>2013-07-20T06:49:42Z</time>
      </trkpt>
      <trkpt lat="46.06926" lon="6.42114">
        <ele>460.766</ele>
        <time>2013-07-20T06:49:51Z</time>
      </trkpt>
      <trkpt lat="46.06917" lon="6.42159">
        <ele>460.881</ele>
        <time>2013-07-20T06:49:56Z</time>
      </trkpt>
      <trkpt lat="46.06911" lon="6.42175">
        <ele>460.909</ele>
        <time>2013-07-20T06:49:58Z</time>
      </trkpt>
      <trkpt lat="46.06899" lon="6.42195">
        <ele>461.484</ele>
        <time>2013-07-20T06:50:01Z</time>
      </trkpt>
      <trkpt lat="46.06873" lon="6.42222">
        <ele>462.411</ele>
        <time>2013-07-20T06:50:07Z</time>
      </trkpt>
      <trkpt lat="46.06848" lon="6.42237">
        <ele>463.392</ele>
        <time>2013-07-20T06:50:12Z</time>
      </trkpt>
      <trkpt lat="46.06832" lon="6.42246">
        <ele>464.048</ele>
        <time>2013-07-20T06:50:15Z</time>
      </trkpt>
      <trkpt lat="46.06817" lon="6.42255">
        <ele>464.835</ele>
        <time>2013-07-20T06:50:18Z</time>
      </trkpt>
      <trkpt lat="46.06779" lon="6.42278">
        <ele>466.492</ele>
        <time>2013-07-20T06:50:25Z</time>
      </trkpt>
      <trkpt lat="46.06733" lon="6.42306">
        <ele>467.466</ele>
        <time>2013-07-20T06:50:33Z</time>
      </trkpt>
      <trkpt lat="46.06687" lon="6.42334">
        <ele>466.587</ele>
        <time>2013-07-20T06:50:40Z</time>
      </trkpt>
      <trkpt lat="46.06658" lon="6.42354">
        <ele>465.647</ele>
        <time>2013-07-20T06:50:44Z</time>
      </trkpt>
      <trkpt lat="46.06628" lon="6.42396">
        <ele>463.661</ele>
        <time>2013-07-20T06:50:49Z</time>
      </trkpt>
      <trkpt lat="46.06616" lon="6.42441">
        <ele>462.512</ele>
        <time>2013-07-20T06:50:53Z</time>
      </trkpt>
      <trkpt lat="46.06616" lon="6.42488">
        <ele>462.323</ele>
        <time>2013-07-20T06:50:57Z</time>
      </trkpt>
      <trkpt lat="46.0662" lon="6.42509">
        <ele>462.455</ele>
        <time>2013-07-20T06:50:59Z</time>
      </trkpt>
      <trkpt lat="46.06641" lon="6.426">
        <ele>462.335</ele>
        <time>2013-07-20T06:51:08Z</time>
      </trkpt>
      <trkpt lat="46.06646" lon="6.4267">
        <ele>462.65</ele>
        <time>2013-07-20T06:51:15Z</time>
      </trkpt>
      <trkpt lat="46.06646" lon="6.42767">
        <ele>462.922</ele>
        <time>2013-07-20T06:51:25Z</time>
      </trkpt>
      <trkpt lat="46.06642" lon="6.42823">
        <ele>462.841</ele>
        <time>2013-07-20T06:51:31Z</time>
      </trkpt>
      <trkpt lat="46.0664" lon="6.42875">
        <ele>462.203</ele>
        <time>2013-07-20T06:51:37Z</time>
      </trkpt>
      <trkpt lat="46.06641" lon="6.42893">
        <ele>462.159</ele>
        <time>2013-07-20T06:51:39Z</time>
      </trkpt>
      <trkpt lat="46.0665" lon="6.42989">
        <ele>463.67</ele>
        <time>2013-07-20T06:51:49Z</time>
      </trkpt>
      <trkpt lat="46.06653" lon="6.43027">
        <ele>463.477</ele>
        <time>2013-07-20T06:51:53Z</time>
      </trkpt>
      <trkpt lat="46.06645" lon="6.43104">
        <ele>463.717</ele>
        <time>2013-07-20T06:52:01Z</time>
      </trkpt>
      <trkpt lat="46.06631" lon="6.43192">
        <ele>464.138</ele>
        <time>2013-07-20T06:52:10Z</time>
      </trkpt>
      <trkpt lat="46.06616" lon="6.43277">
        <ele>464.127</ele>
        <time>2013-07-20T06:52:19Z</time>
      </trkpt>
      <trkpt lat="46.06597" lon="6.43339">
        <ele>464.273</ele>
        <time>2013-07-20T06:52:26Z</time>
      </trkpt>
      <trkpt lat="46.06577" lon="6.43399">
        <ele>464.413</ele>
        <time>2013-07-20T06:52:33Z</time>
      </trkpt>
      <trkpt lat="46.06553" lon="6.43465">
        <ele>464.274</ele>
        <time>2013-07-20T06:52:41Z</time>
      </trkpt>
      <trkpt lat="46.06538" lon="6.43523">
        <ele>464.649</ele>
        <time>2013-07-20T06:52:48Z</time>
      </trkpt>
      <trkpt lat="46.06534" lon="6.43585">
        <ele>465.458</ele>
        <time>2013-07-20T06:52:55Z</time>
      </trkpt>
      <trkpt lat="46.06535" lon="6.43645">
        <ele>466.375</ele>
        <time>2013-07-20T06:53:02Z</time>
      </trkpt>
      <trkpt lat="46.06527" lon="6.43682">
        <ele>466.57</ele>
        <time>2013-07-20T06:53:07Z</time>
      </trkpt>
      <trkpt lat="46.06511" lon="6.43697">
        <ele>466.335</ele>
        <time>2013-07-20T06:53:11Z</time>
      </trkpt>
      <trkpt lat="46.06491" lon="6.43702">
        <ele>467.152</ele>
        <time>2013-07-20T06:53:15Z</time>
      </trkpt>
      <trkpt lat="46.06466" lon="6.43715">
        <ele>468.254</ele>
        <time>2013-07-20T06:53:20Z</time>
      </trkpt>
      <trkpt lat="46.06448" lon="6.43745">
        <ele>468.9</ele>
        <time>2013-07-20T06:53:25Z</time>
      </trkpt>
      <trkpt lat="46.06429" lon="6.43811">
        <ele>469.613</ele>
        <time>2013-07-20T06:53:34Z</time>
      </trkpt>
      <trkpt lat="46.06411" lon="6.43863">
        <ele>470.36</ele>
        <time>2013-07-20T06:53:41Z</time>
      </trkpt>
      <trkpt lat="46.06394" lon="6.43915">
        <ele>471.163</ele>
        <time>2013-07-20T06:53:48Z</time>
      </trkpt>
      <trkpt lat="46.06386" lon="6.43962">
        <ele>471.555</ele>
        <time>2013-07-20T06:53:54Z</time>
      </trkpt>
      <trkpt lat="46.06383" lon="6.43988">
        <ele>471.999</ele>
        <time>2013-07-20T06:53:58Z</time>
      </trkpt>
      <trkpt lat="46.06384" lon="6.44031">
        <ele>472.53</ele>
        <time>2013-07-20T06:54:04Z</time>
      </trkpt>
      <trkpt lat="46.06382" lon="6.44094">
        <ele>474.01</ele>
        <time>2013-07-20T06:54:12Z</time>
      </trkpt>
      <trkpt lat="46.06382" lon="6.44147">
        <ele>474.299</ele>
        <time>2013-07-20T06:54:19Z</time>
      </trkpt>
      <trkpt lat="46.06381" lon="6.44197">
        <ele>474.841</ele>
        <time>2013-07-20T06:54:26Z</time>
      </trkpt>
      <trkpt lat="46.06377" lon="6.44212">
        <ele>475.129</ele>
        <time>2013-07-20T06:54:30Z</time>
      </trkpt>
      <trkpt lat="46.06369" lon="6.44212">
        <ele>475.433</ele>
        <time>2013-07-20T06:54:34Z</time>
      </trkpt>
      <trkpt lat="46.06343" lon="6.44196">
        <ele>476.328</ele>
        <time>2013-07-20T06:54:41Z</time>
      </trkpt>
      <trkpt lat="46.06316" lon="6.44183">
        <ele>477.321</ele>
        <time>2013-07-20T06:54:47Z</time>
      </trkpt>
      <trkpt lat="46.06312" lon="6.44181">
        <ele>477.553</ele>
        <time>2013-07-20T06:54:48Z</time>
      </trkpt>
      <trkpt lat="46.06304" lon="6.44174">
        <ele>477.873</ele>
        <time>2013-07-20T06:54:50Z</time>
      </trkpt>
      <trkpt lat="46.06283" lon="6.44164">
        <ele>478.879</ele>
        <time>2013-07-20T06:54:55Z</time>
      </trkpt>
      <trkpt lat="46.06268" lon="6.44172">
        <ele>479.428</ele>
        <time>2013-07-20T06:54:59Z</time>
      </trkpt>
      <trkpt lat="46.06254" lon="6.44198">
        <ele>480.149</ele>
        <time>2013-07-20T06:55:04Z</time>
      </trkpt>
      <trkpt lat="46.06242" lon="6.44212">
        <ele>481.123</ele>
        <time>2013-07-20T06:55:08Z</time>
      </trkpt>
      <trkpt lat="46.06207" lon="6.44225">
        <ele>483.493</ele>
        <time>2013-07-20T06:55:17Z</time>
      </trkpt>
      <trkpt lat="46.06189" lon="6.44229">
        <ele>484.603</ele>
        <time>2013-07-20T06:55:22Z</time>
      </trkpt>
      <trkpt lat="46.06166" lon="6.44222">
        <ele>486.269</ele>
        <time>2013-07-20T06:55:28Z</time>
      </trkpt>
      <trkpt lat="46.0614" lon="6.4421">
        <ele>487.633</ele>
        <time>2013-07-20T06:55:35Z</time>
      </trkpt>
      <trkpt lat="46.06137" lon="6.44208">
        <ele>487.758</ele>
        <time>2013-07-20T06:55:36Z</time>
      </trkpt>
      <trkpt lat="46.06109" lon="6.44192">
        <ele>488.901</ele>
        <time>2013-07-20T06:55:43Z</time>
      </trkpt>
      <trkpt lat="46.06075" lon="6.44175">
        <ele>490.471</ele>
        <time>2013-07-20T06:55:52Z</time>
      </trkpt>
      <trkpt lat="46.06063" lon="6.44166">
        <ele>491.241</ele>
        <time>2013-07-20T06:55:57Z</time>
      </trkpt>
      <trkpt lat="46.06054" lon="6.44158">
        <ele>491.976</ele>
        <time>2013-07-20T06:56:02Z</time>
      </trkpt>
      <trkpt lat="46.06045" lon="6.44156">
        <ele>492.728</ele>
        <time>2013-07-20T06:56:07Z</time>
      </trkpt>
      <trkpt lat="46.06044" lon="6.44156">
        <ele>492.91</ele>
        <time>2013-07-20T06:56:08Z</time>
      </trkpt>
      <trkpt lat="46.06047" lon="6.44106">
        <ele>496.763</ele>
        <time>2013-07-20T06:57:47Z</time>
      </trkpt>
      <trkpt lat="46.06052" lon="6.44097">
        <ele>497.704</ele>
        <time>2013-07-20T06:57:50Z</time>
      </trkpt>
      <trkpt lat="46.06064" lon="6.44078">
        <ele>499.882</ele>
        <time>2013-07-20T06:57:56Z</time>
      </trkpt>
      <trkpt lat="46.06072" lon="6.44065">
        <ele>501.122</ele>
        <time>2013-07-20T06:58:00Z</time>
      </trkpt>
      <trkpt lat="46.06076" lon="6.44054">
        <ele>502.04</ele>
        <time>2013-07-20T06:58:03Z</time>
      </trkpt>
      <trkpt lat="46.06086" lon="6.44022">
        <ele>504.465</ele>
        <time>2013-07-20T06:58:12Z</time>
      </trkpt>
      <trkpt lat="46.06091" lon="6.43996">
        <ele>506.629</ele>
        <time>2013-07-20T06:58:19Z</time>
      </trkpt>
      <trkpt lat="46.06081" lon="6.43967">
        <ele>509.099</ele>
        <time>2013-07-20T06:58:26Z</time>
      </trkpt>
      <trkpt lat="46.06071" lon="6.43951">
        <ele>510.379</ele>
        <time>2013-07-20T06:58:30Z</time>
      </trkpt>
      <trkpt lat="46.06055" lon="6.43929">
        <ele>512.068</ele>
        <time>2013-07-20T06:58:36Z</time>
      </trkpt>
      <trkpt lat="46.06047" lon="6.43908">
        <ele>513.798</ele>
        <time>2013-07-20T06:58:39Z</time>
      </trkpt>
      <trkpt lat="46.06044" lon="6.4389">
        <ele>515.188</ele>
        <time>2013-07-20T06:58:44Z</time>
      </trkpt>
      <trkpt lat="46.06045" lon="6.43878">
        <ele>516.261</ele>
        <time>2013-07-20T06:58:48Z</time>
      </trkpt>
      <trkpt lat="46.06043" lon="6.4385">
        <ele>518.465</ele>
        <time>2013-07-20T06:58:56Z</time>
      </trkpt>
      <trkpt lat="46.06041" lon="6.43827">
        <ele>520.54</ele>
        <time>2013-07-20T06:59:03Z</time>
      </trkpt>
      <trkpt lat="46.06041" lon="6.43801">
        <ele>523.043</ele>
        <time>2013-07-20T06:59:12Z</time>
      </trkpt>
      <trkpt lat="46.06042" lon="6.43781">
        <ele>524.558</ele>
        <time>2013-07-20T06:59:18Z</time>
      </trkpt>
      <trkpt lat="46.06042" lon="6.43775">
        <ele>525.244</ele>
        <time>2013-07-20T06:59:20Z</time>
      </trkpt>
      <trkpt lat="46.06044" lon="6.43768">
        <ele>526.462</ele>
        <time>2013-07-20T06:59:24Z</time>
      </trkpt>
      <trkpt lat="46.06043" lon="6.43747">
        <ele>528.082</ele>
        <time>2013-07-20T06:59:30Z</time>
      </trkpt>
      <trkpt lat="46.06043" lon="6.4373">
        <ele>529.682</ele>
        <time>2013-07-20T06:59:35Z</time>
      </trkpt>
      <trkpt lat="46.06038" lon="6.43709">
        <ele>531.062</ele>
        <time>2013-07-20T06:59:40Z</time>
      </trkpt>
      <trkpt lat="46.06036" lon="6.43691">
        <ele>532.633</ele>
        <time>2013-07-20T06:59:45Z</time>
      </trkpt>
      <trkpt lat="46.06039" lon="6.43677">
        <ele>533.736</ele>
        <time>2013-07-20T06:59:49Z</time>
      </trkpt>
      <trkpt lat="46.06042" lon="6.43658">
        <ele>535.49</ele>
        <time>2013-07-20T06:59:55Z</time>
      </trkpt>
      <trkpt lat="46.06059" lon="6.43633">
        <ele>538.223</ele>
        <time>2013-07-20T07:00:05Z</time>
      </trkpt>
      <trkpt lat="46.06059" lon="6.43619">
        <ele>539.204</ele>
        <time>2013-07-20T07:00:09Z</time>
      </trkpt>
      <trkpt lat="46.06049" lon="6.43606">
        <ele>540.266</ele>
        <time>2013-07-20T07:00:14Z</time>
      </trkpt>
      <trkpt lat="46.06034" lon="6.43607">
        <ele>541.259</ele>
        <time>2013-07-20T07:00:18Z</time>
      </trkpt>
      <trkpt lat="46.06018" lon="6.43616">
        <ele>542.503</ele>
        <time>2013-07-20T07:00:23Z</time>
      </trkpt>
      <trkpt lat="46.06002" lon="6.43639">
        <ele>544.338</ele>
        <time>2013-07-20T07:00:30Z</time>
      </trkpt>
      <trkpt lat="46.05988" lon="6.43669">
        <ele>546.931</ele>
        <time>2013-07-20T07:00:39Z</time>
      </trkpt>
      <trkpt lat="46.05976" lon="6.43691">
        <ele>548.638</ele>
        <time>2013-07-20T07:00:46Z</time>
      </trkpt>
      <trkpt lat="46.05967" lon="6.4371">
        <ele>550.517</ele>
        <time>2013-07-20T07:00:52Z</time>
      </trkpt>
      <trkpt lat="46.05957" lon="6.43726">
        <ele>552.254</ele>
        <time>2013-07-20T07:00:58Z</time>
      </trkpt>
      <trkpt lat="46.05948" lon="6.43745">
        <ele>553.781</ele>
        <time>2013-07-20T07:01:04Z</time>
      </trkpt>
      <trkpt lat="46.05942" lon="6.43759">
        <ele>555.143</ele>
        <time>2013-07-20T07:01:09Z</time>
      </trkpt>
      <trkpt lat="46.05929" lon="6.43772">
        <ele>556.579</ele>
        <time>2013-07-20T07:01:14Z</time>
      </trkpt>
      <trkpt lat="46.05922" lon="6.4379">
        <ele>558.247</ele>
        <time>2013-07-20T07:01:20Z</time>
      </trkpt>
      <trkpt lat="46.05917" lon="6.4381">
        <ele>559.95</ele>
        <time>2013-07-20T07:01:27Z</time>
      </trkpt>
      <trkpt lat="46.05915" lon="6.43829">
        <ele>561.649</ele>
        <time>2013-07-20T07:01:33Z</time>
      </trkpt>
      <trkpt lat="46.05908" lon="6.4385">
        <ele>563.123</ele>
        <time>2013-07-20T07:01:39Z</time>
      </trkpt>
      <trkpt lat="46.05903" lon="6.43868">
        <ele>564.336</ele>
        <time>2013-07-20T07:01:44Z</time>
      </trkpt>
      <trkpt lat="46.05887" lon="6.43893">
        <ele>566.927</ele>
        <time>2013-07-20T07:01:52Z</time>
      </trkpt>
      <trkpt lat="46.05878" lon="6.43913">
        <ele>568.868</ele>
        <time>2013-07-20T07:01:59Z</time>
      </trkpt>
      <trkpt lat="46.05863" lon="6.43931">
        <ele>570.967</ele>
        <time>2013-07-20T07:02:06Z</time>
      </trkpt>
      <trkpt lat="46.05853" lon="6.43943">
        <ele>572.304</ele>
        <time>2013-07-20T07:02:11Z</time>
      </trkpt>
      <trkpt lat="46.05843" lon="6.43952">
        <ele>573.853</ele>
        <time>2013-07-20T07:02:17Z</time>
      </trkpt>
      <trkpt lat="46.05829" lon="6.43963">
        <ele>575.716</ele>
        <time>2013-07-20T07:02:23Z</time>
      </trkpt>
      <trkpt lat="46.05814" lon="6.43979">
        <ele>577.503</ele>
        <time>2013-07-20T07:02:29Z</time>
      </trkpt>
      <trkpt lat="46.05802" lon="6.44">
        <ele>579.467</ele>
        <time>2013-07-20T07:02:37Z</time>
      </trkpt>
      <trkpt lat="46.05799" lon="6.44017">
        <ele>580.782</ele>
        <time>2013-07-20T07:02:42Z</time>
      </trkpt>
      <trkpt lat="46.05796" lon="6.44037">
        <ele>582.314</ele>
        <time>2013-07-20T07:02:48Z</time>
      </trkpt>
      <trkpt lat="46.05794" lon="6.44053">
        <ele>583.614</ele>
        <time>2013-07-20T07:02:53Z</time>
      </trkpt>
      <trkpt lat="46.05791" lon="6.44071">
        <ele>585.042</ele>
        <time>2013-07-20T07:02:58Z</time>
      </trkpt>
      <trkpt lat="46.05787" lon="6.44095">
        <ele>586.777</ele>
        <time>2013-07-20T07:03:05Z</time>
      </trkpt>
      <trkpt lat="46.05784" lon="6.44114">
        <ele>588.014</ele>
        <time>2013-07-20T07:03:10Z</time>
      </trkpt>
      <trkpt lat="46.05785" lon="6.44141">
        <ele>589.808</ele>
        <time>2013-07-20T07:03:17Z</time>
      </trkpt>
      <trkpt lat="46.05788" lon="6.44166">
        <ele>591.591</ele>
        <time>2013-07-20T07:03:24Z</time>
      </trkpt>
      <trkpt lat="46.05799" lon="6.44181">
        <ele>592.934</ele>
        <time>2013-07-20T07:03:29Z</time>
      </trkpt>
      <trkpt lat="46.05796" lon="6.442">
        <ele>594.539</ele>
        <time>2013-07-20T07:03:35Z</time>
      </trkpt>
      <trkpt lat="46.05808" lon="6.44227">
        <ele>596.289</ele>
        <time>2013-07-20T07:03:41Z</time>
      </trkpt>
      <trkpt lat="46.05808" lon="6.44243">
        <ele>597.453</ele>
        <time>2013-07-20T07:03:45Z</time>
      </trkpt>
      <trkpt lat="46.05811" lon="6.44268">
        <ele>599.576</ele>
        <time>2013-07-20T07:03:52Z</time>
      </trkpt>
      <trkpt lat="46.05814" lon="6.44291">
        <ele>601.612</ele>
        <time>2013-07-20T07:03:59Z</time>
      </trkpt>
      <trkpt lat="46.05817" lon="6.44311">
        <ele>603.259</ele>
        <time>2013-07-20T07:04:05Z</time>
      </trkpt>
      <trkpt lat="46.05819" lon="6.44328">
        <ele>604.397</ele>
        <time>2013-07-20T07:04:10Z</time>
      </trkpt>
      <trkpt lat="46.05829" lon="6.44355">
        <ele>606.601</ele>
        <time>2013-07-20T07:04:18Z</time>
      </trkpt>
      <trkpt lat="46.05845" lon="6.44381">
        <ele>608.558</ele>
        <time>2013-07-20T07:04:26Z</time>
      </trkpt>
      <trkpt lat="46.05851" lon="6.44404">
        <ele>610.43</ele>
        <time>2013-07-20T07:04:33Z</time>
      </trkpt>
      <trkpt lat="46.05849" lon="6.44419">
        <ele>611.722</ele>
        <time>2013-07-20T07:04:38Z</time>
      </trkpt>
      <trkpt lat="46.05853" lon="6.44445">
        <ele>613.726</ele>
        <time>2013-07-20T07:04:46Z</time>
      </trkpt>
      <trkpt lat="46.05854" lon="6.44461">
        <ele>614.874</ele>
        <time>2013-07-20T07:04:51Z</time>
      </trkpt>
      <trkpt lat="46.05854" lon="6.44468">
        <ele>615.336</ele>
        <time>2013-07-20T07:04:53Z</time>
      </trkpt>
      <trkpt lat="46.05851" lon="6.44485">
        <ele>616.653</ele>
        <time>2013-07-20T07:04:58Z</time>
      </trkpt>
      <trkpt lat="46.05847" lon="6.44516">
        <ele>618.934</ele>
        <time>2013-07-20T07:05:07Z</time>
      </trkpt>
      <trkpt lat="46.05843" lon="6.44546">
        <ele>621.206</ele>
        <time>2013-07-20T07:05:16Z</time>
      </trkpt>
      <trkpt lat="46.05838" lon="6.44568">
        <ele>622.954</ele>
        <time>2013-07-20T07:05:23Z</time>
      </trkpt>
      <trkpt lat="46.05836" lon="6.4459">
        <ele>624.734</ele>
        <time>2013-07-20T07:05:30Z</time>
      </trkpt>
      <trkpt lat="46.05844" lon="6.44617">
        <ele>626.677</ele>
        <time>2013-07-20T07:05:38Z</time>
      </trkpt>
      <trkpt lat="46.05853" lon="6.44643">
        <ele>628.58</ele>
        <time>2013-07-20T07:05:46Z</time>
      </trkpt>
      <trkpt lat="46.0586" lon="6.44665">
        <ele>630.427</ele>
        <time>2013-07-20T07:05:53Z</time>
      </trkpt>
      <trkpt lat="46.05869" lon="6.44682">
        <ele>631.895</ele>
        <time>2013-07-20T07:05:59Z</time>
      </trkpt>
      <trkpt lat="46.05881" lon="6.44708">
        <ele>634.104</ele>
        <time>2013-07-20T07:06:08Z</time>
      </trkpt>
      <trkpt lat="46.0589" lon="6.44728">
        <ele>635.59</ele>
        <time>2013-07-20T07:06:14Z</time>
      </trkpt>
      <trkpt lat="46.05897" lon="6.44748">
        <ele>637.057</ele>
        <time>2013-07-20T07:06:20Z</time>
      </trkpt>
      <trkpt lat="46.05905" lon="6.44772">
        <ele>638.75</ele>
        <time>2013-07-20T07:06:27Z</time>
      </trkpt>
      <trkpt lat="46.0591" lon="6.44794">
        <ele>640.339</ele>
        <time>2013-07-20T07:06:33Z</time>
      </trkpt>
      <trkpt lat="46.05905" lon="6.44823">
        <ele>642.242</ele>
        <time>2013-07-20T07:06:41Z</time>
      </trkpt>
      <trkpt lat="46.05891" lon="6.44844">
        <ele>644.17</ele>
        <time>2013-07-20T07:06:48Z</time>
      </trkpt>
      <trkpt lat="46.05874" lon="6.44873">
        <ele>646.521</ele>
        <time>2013-07-20T07:06:57Z</time>
      </trkpt>
      <trkpt lat="46.05862" lon="6.44878">
        <ele>647.768</ele>
        <time>2013-07-20T07:07:02Z</time>
      </trkpt>
      <trkpt lat="46.05851" lon="6.44875">
        <ele>649.611</ele>
        <time>2013-07-20T07:07:07Z</time>
      </trkpt>
      <trkpt lat="46.05841" lon="6.44875">
        <ele>651.046</ele>
        <time>2013-07-20T07:07:12Z</time>
      </trkpt>
      <trkpt lat="46.05827" lon="6.4488">
        <ele>652.418</ele>
        <time>2013-07-20T07:07:18Z</time>
      </trkpt>
      <trkpt lat="46.05812" lon="6.44889">
        <ele>654.067</ele>
        <time>2013-07-20T07:07:24Z</time>
      </trkpt>
      <trkpt lat="46.05795" lon="6.44897">
        <ele>655.807</ele>
        <time>2013-07-20T07:07:31Z</time>
      </trkpt>
      <trkpt lat="46.05783" lon="6.44899">
        <ele>657.135</ele>
        <time>2013-07-20T07:07:36Z</time>
      </trkpt>
      <trkpt lat="46.05768" lon="6.44902">
        <ele>658.619</ele>
        <time>2013-07-20T07:07:41Z</time>
      </trkpt>
      <trkpt lat="46.05757" lon="6.449">
        <ele>659.69</ele>
        <time>2013-07-20T07:07:45Z</time>
      </trkpt>
      <trkpt lat="46.05743" lon="6.44904">
        <ele>661.486</ele>
        <time>2013-07-20T07:07:50Z</time>
      </trkpt>
      <trkpt lat="46.05737" lon="6.44919">
        <ele>662.627</ele>
        <time>2013-07-20T07:07:55Z</time>
      </trkpt>
      <trkpt lat="46.0573" lon="6.44941">
        <ele>664.242</ele>
        <time>2013-07-20T07:08:01Z</time>
      </trkpt>
      <trkpt lat="46.05719" lon="6.44948">
        <ele>665.308</ele>
        <time>2013-07-20T07:08:05Z</time>
      </trkpt>
      <trkpt lat="46.05706" lon="6.44951">
        <ele>667.084</ele>
        <time>2013-07-20T07:08:10Z</time>
      </trkpt>
      <trkpt lat="46.05695" lon="6.4496">
        <ele>668.519</ele>
        <time>2013-07-20T07:08:15Z</time>
      </trkpt>
      <trkpt lat="46.05687" lon="6.44976">
        <ele>669.802</ele>
        <time>2013-07-20T07:08:20Z</time>
      </trkpt>
      <trkpt lat="46.05673" lon="6.44998">
        <ele>672.018</ele>
        <time>2013-07-20T07:08:27Z</time>
      </trkpt>
      <trkpt lat="46.05664" lon="6.45012">
        <ele>673.503</ele>
        <time>2013-07-20T07:08:32Z</time>
      </trkpt>
      <trkpt lat="46.05659" lon="6.4503">
        <ele>674.775</ele>
        <time>2013-07-20T07:08:37Z</time>
      </trkpt>
      <trkpt lat="46.05656" lon="6.45053">
        <ele>676.167</ele>
        <time>2013-07-20T07:08:43Z</time>
      </trkpt>
      <trkpt lat="46.05653" lon="6.45073">
        <ele>677.271</ele>
        <time>2013-07-20T07:08:48Z</time>
      </trkpt>
      <trkpt lat="46.05649" lon="6.45098">
        <ele>678.972</ele>
        <time>2013-07-20T07:08:54Z</time>
      </trkpt>
      <trkpt lat="46.05648" lon="6.45119">
        <ele>680.359</ele>
        <time>2013-07-20T07:08:59Z</time>
      </trkpt>
      <trkpt lat="46.05648" lon="6.45146">
        <ele>681.624</ele>
        <time>2013-07-20T07:09:05Z</time>
      </trkpt>
      <trkpt lat="46.05646" lon="6.45164">
        <ele>682.714</ele>
        <time>2013-07-20T07:09:09Z</time>
      </trkpt>
      <trkpt lat="46.05641" lon="6.4519">
        <ele>684.241</ele>
        <time>2013-07-20T07:09:15Z</time>
      </trkpt>
      <trkpt lat="46.05637" lon="6.45209">
        <ele>685.69</ele>
        <time>2013-07-20T07:09:20Z</time>
      </trkpt>
      <trkpt lat="46.05633" lon="6.45227">
        <ele>687.019</ele>
        <time>2013-07-20T07:09:24Z</time>
      </trkpt>
      <trkpt lat="46.05639" lon="6.4525">
        <ele>688.348</ele>
        <time>2013-07-20T07:09:29Z</time>
      </trkpt>
      <trkpt lat="46.05649" lon="6.45274">
        <ele>689.647</ele>
        <time>2013-07-20T07:09:35Z</time>
      </trkpt>
      <trkpt lat="46.05648" lon="6.45292">
        <ele>690.679</ele>
        <time>2013-07-20T07:09:39Z</time>
      </trkpt>
      <trkpt lat="46.05649" lon="6.45296">
        <ele>690.995</ele>
        <time>2013-07-20T07:09:40Z</time>
      </trkpt>
      <trkpt lat="46.05643" lon="6.45319">
        <ele>692.447</ele>
        <time>2013-07-20T07:09:45Z</time>
      </trkpt>
      <trkpt lat="46.05634" lon="6.4534">
        <ele>693.869</ele>
        <time>2013-07-20T07:09:50Z</time>
      </trkpt>
      <trkpt lat="46.05621" lon="6.45367">
        <ele>695.412</ele>
        <time>2013-07-20T07:09:56Z</time>
      </trkpt>
      <trkpt lat="46.05611" lon="6.45388">
        <ele>696.824</ele>
        <time>2013-07-20T07:10:01Z</time>
      </trkpt>
      <trkpt lat="46.05596" lon="6.45421">
        <ele>698.694</ele>
        <time>2013-07-20T07:10:08Z</time>
      </trkpt>
      <trkpt lat="46.05582" lon="6.4545">
        <ele>700.395</ele>
        <time>2013-07-20T07:10:15Z</time>
      </trkpt>
      <trkpt lat="46.05578" lon="6.45455">
        <ele>700.686</ele>
        <time>2013-07-20T07:10:16Z</time>
      </trkpt>
      <trkpt lat="46.05561" lon="6.45467">
        <ele>702.148</ele>
        <time>2013-07-20T07:10:21Z</time>
      </trkpt>
      <trkpt lat="46.05558" lon="6.45469">
        <ele>702.414</ele>
        <time>2013-07-20T07:10:22Z</time>
      </trkpt>
      <trkpt lat="46.05539" lon="6.45477">
        <ele>704.104</ele>
        <time>2013-07-20T07:10:29Z</time>
      </trkpt>
      <trkpt lat="46.05521" lon="6.45482">
        <ele>705.356</ele>
        <time>2013-07-20T07:10:35Z</time>
      </trkpt>
      <trkpt lat="46.05505" lon="6.45485">
        <ele>706.596</ele>
        <time>2013-07-20T07:10:40Z</time>
      </trkpt>
      <trkpt lat="46.05489" lon="6.45486">
        <ele>707.722</ele>
        <time>2013-07-20T07:10:45Z</time>
      </trkpt>
      <trkpt lat="46.05471" lon="6.45483">
        <ele>708.696</ele>
        <time>2013-07-20T07:10:50Z</time>
      </trkpt>
      <trkpt lat="46.05458" lon="6.45479">
        <ele>709.895</ele>
        <time>2013-07-20T07:10:54Z</time>
      </trkpt>
      <trkpt lat="46.05448" lon="6.45477">
        <ele>710.893</ele>
        <time>2013-07-20T07:10:58Z</time>
      </trkpt>
      <trkpt lat="46.05441" lon="6.45492">
        <ele>711.94</ele>
        <time>2013-07-20T07:11:03Z</time>
      </trkpt>
      <trkpt lat="46.05431" lon="6.45511">
        <ele>712.687</ele>
        <time>2013-07-20T07:11:08Z</time>
      </trkpt>
      <trkpt lat="46.05415" lon="6.45535">
        <ele>714.285</ele>
        <time>2013-07-20T07:11:16Z</time>
      </trkpt>
      <trkpt lat="46.054" lon="6.45537">
        <ele>715.603</ele>
        <time>2013-07-20T07:11:21Z</time>
      </trkpt>
      <trkpt lat="46.05387" lon="6.45537">
        <ele>717.308</ele>
        <time>2013-07-20T07:11:27Z</time>
      </trkpt>
      <trkpt lat="46.05373" lon="6.45536">
        <ele>718.721</ele>
        <time>2013-07-20T07:11:32Z</time>
      </trkpt>
      <trkpt lat="46.05359" lon="6.45534">
        <ele>720.981</ele>
        <time>2013-07-20T07:11:38Z</time>
      </trkpt>
      <trkpt lat="46.05347" lon="6.45526">
        <ele>722.592</ele>
        <time>2013-07-20T07:11:43Z</time>
      </trkpt>
      <trkpt lat="46.05333" lon="6.45515">
        <ele>724.441</ele>
        <time>2013-07-20T07:11:49Z</time>
      </trkpt>
      <trkpt lat="46.05324" lon="6.45508">
        <ele>726.032</ele>
        <time>2013-07-20T07:11:54Z</time>
      </trkpt>
      <trkpt lat="46.05318" lon="6.45502">
        <ele>727.233</ele>
        <time>2013-07-20T07:11:58Z</time>
      </trkpt>
      <trkpt lat="46.0531" lon="6.45492">
        <ele>728.971</ele>
        <time>2013-07-20T07:12:03Z</time>
      </trkpt>
      <trkpt lat="46.05304" lon="6.45481">
        <ele>730.049</ele>
        <time>2013-07-20T07:12:08Z</time>
      </trkpt>
      <trkpt lat="46.05304" lon="6.45479">
        <ele>730.505</ele>
        <time>2013-07-20T07:12:09Z</time>
      </trkpt>
      <trkpt lat="46.05289" lon="6.45468">
        <ele>732.25</ele>
        <time>2013-07-20T07:12:16Z</time>
      </trkpt>
      <trkpt lat="46.0528" lon="6.45473">
        <ele>733.272</ele>
        <time>2013-07-20T07:12:19Z</time>
      </trkpt>
      <trkpt lat="46.05279" lon="6.45477">
        <ele>733.599</ele>
        <time>2013-07-20T07:12:20Z</time>
      </trkpt>
      <trkpt lat="46.05312" lon="6.45534">
        <ele>739.937</ele>
        <time>2013-07-20T07:12:42Z</time>
      </trkpt>
      <trkpt lat="46.05325" lon="6.45545">
        <ele>741.612</ele>
        <time>2013-07-20T07:12:47Z</time>
      </trkpt>
      <trkpt lat="46.05323" lon="6.45545">
        <ele>741.961</ele>
        <time>2013-07-20T07:12:48Z</time>
      </trkpt>
      <trkpt lat="46.05316" lon="6.45552">
        <ele>743.764</ele>
        <time>2013-07-20T07:12:54Z</time>
      </trkpt>
      <trkpt lat="46.05324" lon="6.45564">
        <ele>745.574</ele>
        <time>2013-07-20T07:13:00Z</time>
      </trkpt>
      <trkpt lat="46.05331" lon="6.4557">
        <ele>746.318</ele>
        <time>2013-07-20T07:13:03Z</time>
      </trkpt>
      <trkpt lat="46.05337" lon="6.45575">
        <ele>747.502</ele>
        <time>2013-07-20T07:13:07Z</time>
      </trkpt>
      <trkpt lat="46.05339" lon="6.45576">
        <ele>749.135</ele>
        <time>2013-07-20T07:13:13Z</time>
      </trkpt>
      <trkpt lat="46.05329" lon="6.45566">
        <ele>750.783</ele>
        <time>2013-07-20T07:13:19Z</time>
      </trkpt>
      <trkpt lat="46.05337" lon="6.45562">
        <ele>752.267</ele>
        <time>2013-07-20T07:13:25Z</time>
      </trkpt>
      <trkpt lat="46.05346" lon="6.45557">
        <ele>753.481</ele>
        <time>2013-07-20T07:13:31Z</time>
      </trkpt>
      <trkpt lat="46.05346" lon="6.45557">
        <ele>753.805</ele>
        <time>2013-07-20T07:13:32Z</time>
      </trkpt>
      <trkpt lat="46.05345" lon="6.45569">
        <ele>755.302</ele>
        <time>2013-07-20T07:13:37Z</time>
      </trkpt>
      <trkpt lat="46.05347" lon="6.4559">
        <ele>756.921</ele>
        <time>2013-07-20T07:13:42Z</time>
      </trkpt>
      <trkpt lat="46.05348" lon="6.45592">
        <ele>757.364</ele>
        <time>2013-07-20T07:13:43Z</time>
      </trkpt>
      <trkpt lat="46.05333" lon="6.45585">
        <ele>759.162</ele>
        <time>2013-07-20T07:13:49Z</time>
      </trkpt>
      <trkpt lat="46.05326" lon="6.45591">
        <ele>760.562</ele>
        <time>2013-07-20T07:13:55Z</time>
      </trkpt>
      <trkpt lat="46.05324" lon="6.45595">
        <ele>762.018</ele>
        <time>2013-07-20T07:14:01Z</time>
      </trkpt>
      <trkpt lat="46.05324" lon="6.45595">
        <ele>762.296</ele>
        <time>2013-07-20T07:14:02Z</time>
      </trkpt>
      <trkpt lat="46.05324" lon="6.45596">
        <ele>763.796</ele>
        <time>2013-07-20T07:14:08Z</time>
      </trkpt>
      <trkpt lat="46.05313" lon="6.45592">
        <ele>765.043</ele>
        <time>2013-07-20T07:14:13Z</time>
      </trkpt>
      <trkpt lat="46.05301" lon="6.4559">
        <ele>766.57</ele>
        <time>2013-07-20T07:14:18Z</time>
      </trkpt>
      <trkpt lat="46.05287" lon="6.45586">
        <ele>768.346</ele>
        <time>2013-07-20T07:14:25Z</time>
      </trkpt>
      <trkpt lat="46.0528" lon="6.45581">
        <ele>769.358</ele>
        <time>2013-07-20T07:14:29Z</time>
      </trkpt>
      <trkpt lat="46.05272" lon="6.45567">
        <ele>770.71</ele>
        <time>2013-07-20T07:14:34Z</time>
      </trkpt>
      <trkpt lat="46.05255" lon="6.45541">
        <ele>772.809</ele>
        <time>2013-07-20T07:14:42Z</time>
      </trkpt>
      <trkpt lat="46.05238" lon="6.45535">
        <ele>774.231</ele>
        <time>2013-07-20T07:14:47Z</time>
      </trkpt>
      <trkpt lat="46.05215" lon="6.45531">
        <ele>776</ele>
        <time>2013-07-20T07:14:54Z</time>
      </trkpt>
      <trkpt lat="46.05203" lon="6.45522">
        <ele>777.408</ele>
        <time>2013-07-20T07:14:59Z</time>
      </trkpt>
      <trkpt lat="46.05191" lon="6.4551">
        <ele>779.137</ele>
        <time>2013-07-20T07:15:05Z</time>
      </trkpt>
      <trkpt lat="46.05189" lon="6.45493">
        <ele>780.346</ele>
        <time>2013-07-20T07:15:10Z</time>
      </trkpt>
      <trkpt lat="46.05181" lon="6.45482">
        <ele>781.879</ele>
        <time>2013-07-20T07:15:15Z</time>
      </trkpt>
      <trkpt lat="46.05171" lon="6.45482">
        <ele>782.872</ele>
        <time>2013-07-20T07:15:19Z</time>
      </trkpt>
      <trkpt lat="46.05153" lon="6.4549">
        <ele>784.648</ele>
        <time>2013-07-20T07:15:25Z</time>
      </trkpt>
      <trkpt lat="46.0514" lon="6.45485">
        <ele>785.994</ele>
        <time>2013-07-20T07:15:29Z</time>
      </trkpt>
      <trkpt lat="46.0513" lon="6.45481">
        <ele>786.642</ele>
        <time>2013-07-20T07:15:31Z</time>
      </trkpt>
      <trkpt lat="46.05121" lon="6.45473">
        <ele>788.184</ele>
        <time>2013-07-20T07:15:35Z</time>
      </trkpt>
      <trkpt lat="46.0511" lon="6.45478">
        <ele>789.593</ele>
        <time>2013-07-20T07:15:40Z</time>
      </trkpt>
      <trkpt lat="46.05099" lon="6.45483">
        <ele>790.592</ele>
        <time>2013-07-20T07:15:44Z</time>
      </trkpt>
      <trkpt lat="46.05087" lon="6.45495">
        <ele>792.411</ele>
        <time>2013-07-20T07:15:50Z</time>
      </trkpt>
      <trkpt lat="46.05075" lon="6.45513">
        <ele>794.347</ele>
        <time>2013-07-20T07:15:56Z</time>
      </trkpt>
      <trkpt lat="46.05064" lon="6.45535">
        <ele>796.404</ele>
        <time>2013-07-20T07:16:03Z</time>
      </trkpt>
      <trkpt lat="46.05056" lon="6.45556">
        <ele>798.071</ele>
        <time>2013-07-20T07:16:09Z</time>
      </trkpt>
      <trkpt lat="46.05064" lon="6.45583">
        <ele>799.47</ele>
        <time>2013-07-20T07:16:14Z</time>
      </trkpt>
      <trkpt lat="46.05076" lon="6.45616">
        <ele>801.577</ele>
        <time>2013-07-20T07:16:21Z</time>
      </trkpt>
      <trkpt lat="46.05086" lon="6.4564">
        <ele>803.313</ele>
        <time>2013-07-20T07:16:27Z</time>
      </trkpt>
      <trkpt lat="46.0509" lon="6.45663">
        <ele>804.965</ele>
        <time>2013-07-20T07:16:33Z</time>
      </trkpt>
      <trkpt lat="46.05089" lon="6.45681">
        <ele>806.814</ele>
        <time>2013-07-20T07:16:38Z</time>
      </trkpt>
      <trkpt lat="46.05083" lon="6.45695">
        <ele>807.716</ele>
        <time>2013-07-20T07:16:42Z</time>
      </trkpt>
      <trkpt lat="46.05078" lon="6.45716">
        <ele>809.496</ele>
        <time>2013-07-20T07:16:48Z</time>
      </trkpt>
      <trkpt lat="46.05073" lon="6.45751">
        <ele>811.919</ele>
        <time>2013-07-20T07:16:56Z</time>
      </trkpt>
      <trkpt lat="46.0507" lon="6.45769">
        <ele>813.178</ele>
        <time>2013-07-20T07:17:00Z</time>
      </trkpt>
      <trkpt lat="46.05064" lon="6.45794">
        <ele>815.202</ele>
        <time>2013-07-20T07:17:06Z</time>
      </trkpt>
      <trkpt lat="46.05066" lon="6.45813">
        <ele>816.61</ele>
        <time>2013-07-20T07:17:11Z</time>
      </trkpt>
      <trkpt lat="46.05075" lon="6.45816">
        <ele>817.669</ele>
        <time>2013-07-20T07:17:15Z</time>
      </trkpt>
      <trkpt lat="46.05078" lon="6.45814">
        <ele>817.956</ele>
        <time>2013-07-20T07:17:16Z</time>
      </trkpt>
      <trkpt lat="46.05084" lon="6.45788">
        <ele>819.747</ele>
        <time>2013-07-20T07:17:22Z</time>
      </trkpt>
      <trkpt lat="46.05079" lon="6.45759">
        <ele>821.692</ele>
        <time>2013-07-20T07:17:28Z</time>
      </trkpt>
      <trkpt lat="46.05086" lon="6.4574">
        <ele>823.529</ele>
        <time>2013-07-20T07:17:34Z</time>
      </trkpt>
      <trkpt lat="46.05098" lon="6.45725">
        <ele>825.325</ele>
        <time>2013-07-20T07:17:40Z</time>
      </trkpt>
      <trkpt lat="46.05114" lon="6.45709">
        <ele>827.164</ele>
        <time>2013-07-20T07:17:47Z</time>
      </trkpt>
      <trkpt lat="46.05118" lon="6.45691">
        <ele>828.684</ele>
        <time>2013-07-20T07:17:52Z</time>
      </trkpt>
      <trkpt lat="46.05119" lon="6.4567">
        <ele>830.217</ele>
        <time>2013-07-20T07:17:58Z</time>
      </trkpt>
      <trkpt lat="46.05118" lon="6.45664">
        <ele>830.707</ele>
        <time>2013-07-20T07:18:00Z</time>
      </trkpt>
      <trkpt lat="46.05115" lon="6.45649">
        <ele>831.69</ele>
        <time>2013-07-20T07:18:04Z</time>
      </trkpt>
      <trkpt lat="46.05112" lon="6.45619">
        <ele>833.948</ele>
        <time>2013-07-20T07:18:12Z</time>
      </trkpt>
      <trkpt lat="46.0511" lon="6.45599">
        <ele>834.682</ele>
        <time>2013-07-20T07:18:17Z</time>
      </trkpt>
      <trkpt lat="46.0511" lon="6.45585">
        <ele>835.83</ele>
        <time>2013-07-20T07:18:20Z</time>
      </trkpt>
      <trkpt lat="46.05122" lon="6.45591">
        <ele>837.189</ele>
        <time>2013-07-20T07:18:24Z</time>
      </trkpt>
      <trkpt lat="46.05125" lon="6.45599">
        <ele>837.782</ele>
        <time>2013-07-20T07:18:26Z</time>
      </trkpt>
      <trkpt lat="46.05126" lon="6.45629">
        <ele>839.906</ele>
        <time>2013-07-20T07:18:32Z</time>
      </trkpt>
      <trkpt lat="46.05128" lon="6.45656">
        <ele>841.884</ele>
        <time>2013-07-20T07:18:39Z</time>
      </trkpt>
      <trkpt lat="46.05136" lon="6.45682">
        <ele>844.036</ele>
        <time>2013-07-20T07:18:47Z</time>
      </trkpt>
      <trkpt lat="46.05133" lon="6.45696">
        <ele>845.576</ele>
        <time>2013-07-20T07:18:53Z</time>
      </trkpt>
      <trkpt lat="46.05128" lon="6.45708">
        <ele>846.763</ele>
        <time>2013-07-20T07:18:57Z</time>
      </trkpt>
      <trkpt lat="46.05123" lon="6.45734">
        <ele>849.025</ele>
        <time>2013-07-20T07:19:05Z</time>
      </trkpt>
      <trkpt lat="46.05123" lon="6.45742">
        <ele>849.424</ele>
        <time>2013-07-20T07:19:07Z</time>
      </trkpt>
      <trkpt lat="46.05122" lon="6.45764">
        <ele>850.99</ele>
        <time>2013-07-20T07:19:13Z</time>
      </trkpt>
      <trkpt lat="46.05123" lon="6.45773">
        <ele>851.586</ele>
        <time>2013-07-20T07:19:15Z</time>
      </trkpt>
      <trkpt lat="46.05124" lon="6.45807">
        <ele>854.181</ele>
        <time>2013-07-20T07:19:25Z</time>
      </trkpt>
      <trkpt lat="46.05126" lon="6.4583">
        <ele>855.911</ele>
        <time>2013-07-20T07:19:32Z</time>
      </trkpt>
      <trkpt lat="46.05126" lon="6.45844">
        <ele>857.288</ele>
        <time>2013-07-20T07:19:37Z</time>
      </trkpt>
      <trkpt lat="46.05122" lon="6.45859">
        <ele>858.525</ele>
        <time>2013-07-20T07:19:42Z</time>
      </trkpt>
      <trkpt lat="46.05119" lon="6.45875">
        <ele>859.768</ele>
        <time>2013-07-20T07:19:47Z</time>
      </trkpt>
      <trkpt lat="46.05118" lon="6.45896">
        <ele>861.316</ele>
        <time>2013-07-20T07:19:53Z</time>
      </trkpt>
      <trkpt lat="46.0512" lon="6.45916">
        <ele>862.866</ele>
        <time>2013-07-20T07:19:59Z</time>
      </trkpt>
      <trkpt lat="46.05122" lon="6.45941">
        <ele>864.651</ele>
        <time>2013-07-20T07:20:06Z</time>
      </trkpt>
      <trkpt lat="46.05121" lon="6.45971">
        <ele>866.659</ele>
        <time>2013-07-20T07:20:14Z</time>
      </trkpt>
      <trkpt lat="46.05117" lon="6.45999">
        <ele>868.53</ele>
        <time>2013-07-20T07:20:22Z</time>
      </trkpt>
      <trkpt lat="46.05114" lon="6.46023">
        <ele>870.26</ele>
        <time>2013-07-20T07:20:29Z</time>
      </trkpt>
      <trkpt lat="46.05108" lon="6.4605">
        <ele>872.161</ele>
        <time>2013-07-20T07:20:36Z</time>
      </trkpt>
      <trkpt lat="46.05095" lon="6.46069">
        <ele>873.944</ele>
        <time>2013-07-20T07:20:43Z</time>
      </trkpt>
      <trkpt lat="46.05091" lon="6.46086">
        <ele>875.545</ele>
        <time>2013-07-20T07:20:49Z</time>
      </trkpt>
      <trkpt lat="46.05082" lon="6.46098">
        <ele>877.38</ele>
        <time>2013-07-20T07:20:54Z</time>
      </trkpt>
      <trkpt lat="46.05071" lon="6.46107">
        <ele>878.852</ele>
        <time>2013-07-20T07:20:59Z</time>
      </trkpt>
      <trkpt lat="46.05059" lon="6.46117">
        <ele>880.732</ele>
        <time>2013-07-20T07:21:04Z</time>
      </trkpt>
      <trkpt lat="46.05043" lon="6.46134">
        <ele>882.946</ele>
        <time>2013-07-20T07:21:10Z</time>
      </trkpt>
      <trkpt lat="46.05033" lon="6.4615">
        <ele>884.511</ele>
        <time>2013-07-20T07:21:15Z</time>
      </trkpt>
      <trkpt lat="46.05029" lon="6.46156">
        <ele>885.096</ele>
        <time>2013-07-20T07:21:17Z</time>
      </trkpt>
      <trkpt lat="46.05023" lon="6.46168">
        <ele>885.978</ele>
        <time>2013-07-20T07:21:21Z</time>
      </trkpt>
      <trkpt lat="46.05014" lon="6.46193">
        <ele>888.026</ele>
        <time>2013-07-20T07:21:29Z</time>
      </trkpt>
      <trkpt lat="46.05018" lon="6.46218">
        <ele>889.813</ele>
        <time>2013-07-20T07:21:36Z</time>
      </trkpt>
      <trkpt lat="46.05028" lon="6.46248">
        <ele>891.952</ele>
        <time>2013-07-20T07:21:45Z</time>
      </trkpt>
      <trkpt lat="46.05031" lon="6.46268">
        <ele>893.631</ele>
        <time>2013-07-20T07:21:51Z</time>
      </trkpt>
      <trkpt lat="46.05031" lon="6.4627">
        <ele>893.814</ele>
        <time>2013-07-20T07:21:52Z</time>
      </trkpt>
      <trkpt lat="46.05021" lon="6.46292">
        <ele>896.233</ele>
        <time>2013-07-20T07:22:01Z</time>
      </trkpt>
      <trkpt lat="46.05017" lon="6.46306">
        <ele>897.528</ele>
        <time>2013-07-20T07:22:06Z</time>
      </trkpt>
      <trkpt lat="46.05014" lon="6.46332">
        <ele>899.324</ele>
        <time>2013-07-20T07:22:13Z</time>
      </trkpt>
      <trkpt lat="46.05012" lon="6.46342">
        <ele>900.293</ele>
        <time>2013-07-20T07:22:16Z</time>
      </trkpt>
      <trkpt lat="46.05002" lon="6.46356">
        <ele>901.82</ele>
        <time>2013-07-20T07:22:22Z</time>
      </trkpt>
      <trkpt lat="46.04989" lon="6.46369">
        <ele>903.789</ele>
        <time>2013-07-20T07:22:29Z</time>
      </trkpt>
      <trkpt lat="46.04974" lon="6.46381">
        <ele>905.796</ele>
        <time>2013-07-20T07:22:36Z</time>
      </trkpt>
      <trkpt lat="46.04962" lon="6.46395">
        <ele>907.214</ele>
        <time>2013-07-20T07:22:41Z</time>
      </trkpt>
      <trkpt lat="46.04957" lon="6.46414">
        <ele>908.824</ele>
        <time>2013-07-20T07:22:47Z</time>
      </trkpt>
      <trkpt lat="46.0495" lon="6.46429">
        <ele>909.97</ele>
        <time>2013-07-20T07:22:52Z</time>
      </trkpt>
      <trkpt lat="46.04946" lon="6.46458">
        <ele>912.173</ele>
        <time>2013-07-20T07:22:59Z</time>
      </trkpt>
      <trkpt lat="46.04943" lon="6.46482">
        <ele>913.728</ele>
        <time>2013-07-20T07:23:04Z</time>
      </trkpt>
      <trkpt lat="46.0495" lon="6.46504">
        <ele>915.64</ele>
        <time>2013-07-20T07:23:09Z</time>
      </trkpt>
      <trkpt lat="46.04962" lon="6.46525">
        <ele>917.613</ele>
        <time>2013-07-20T07:23:16Z</time>
      </trkpt>
      <trkpt lat="46.04973" lon="6.46539">
        <ele>919.216</ele>
        <time>2013-07-20T07:23:22Z</time>
      </trkpt>
      <trkpt lat="46.04982" lon="6.46561">
        <ele>921.093</ele>
        <time>2013-07-20T07:23:29Z</time>
      </trkpt>
      <trkpt lat="46.04987" lon="6.46585">
        <ele>923.028</ele>
        <time>2013-07-20T07:23:36Z</time>
      </trkpt>
      <trkpt lat="46.04987" lon="6.46616">
        <ele>925.47</ele>
        <time>2013-07-20T07:23:45Z</time>
      </trkpt>
      <trkpt lat="46.04987" lon="6.46635">
        <ele>927.142</ele>
        <time>2013-07-20T07:23:51Z</time>
      </trkpt>
      <trkpt lat="46.04987" lon="6.46652">
        <ele>928.114</ele>
        <time>2013-07-20T07:23:56Z</time>
      </trkpt>
      <trkpt lat="46.04987" lon="6.46659">
        <ele>928.73</ele>
        <time>2013-07-20T07:23:58Z</time>
      </trkpt>
      <trkpt lat="46.04981" lon="6.46672">
        <ele>930.227</ele>
        <time>2013-07-20T07:24:03Z</time>
      </trkpt>
      <trkpt lat="46.04972" lon="6.46697">
        <ele>931.89</ele>
        <time>2013-07-20T07:24:09Z</time>
      </trkpt>
      <trkpt lat="46.04964" lon="6.4673">
        <ele>933.865</ele>
        <time>2013-07-20T07:24:16Z</time>
      </trkpt>
      <trkpt lat="46.04956" lon="6.46768">
        <ele>935.865</ele>
        <time>2013-07-20T07:24:24Z</time>
      </trkpt>
      <trkpt lat="46.04955" lon="6.46799">
        <ele>937.249</ele>
        <time>2013-07-20T07:24:30Z</time>
      </trkpt>
      <trkpt lat="46.04963" lon="6.46858">
        <ele>939.749</ele>
        <time>2013-07-20T07:24:41Z</time>
      </trkpt>
      <trkpt lat="46.04967" lon="6.46889">
        <ele>941.305</ele>
        <time>2013-07-20T07:24:47Z</time>
      </trkpt>
      <trkpt lat="46.04966" lon="6.4692">
        <ele>942.93</ele>
        <time>2013-07-20T07:24:53Z</time>
      </trkpt>
      <trkpt lat="46.04967" lon="6.46966">
        <ele>945.255</ele>
        <time>2013-07-20T07:25:01Z</time>
      </trkpt>
      <trkpt lat="46.04969" lon="6.46983">
        <ele>945.9</ele>
        <time>2013-07-20T07:25:04Z</time>
      </trkpt>
      <trkpt lat="46.04969" lon="6.47022">
        <ele>946.865</ele>
        <time>2013-07-20T07:25:10Z</time>
      </trkpt>
      <trkpt lat="46.04961" lon="6.47045">
        <ele>947.715</ele>
        <time>2013-07-20T07:25:14Z</time>
      </trkpt>
      <trkpt lat="46.04954" lon="6.47059">
        <ele>948.398</ele>
        <time>2013-07-20T07:25:17Z</time>
      </trkpt>
      <trkpt lat="46.0495" lon="6.4707">
        <ele>948.816</ele>
        <time>2013-07-20T07:25:19Z</time>
      </trkpt>
      <trkpt lat="46.04946" lon="6.47111">
        <ele>950.091</ele>
        <time>2013-07-20T07:25:25Z</time>
      </trkpt>
      <trkpt lat="46.04953" lon="6.47155">
        <ele>951.312</ele>
        <time>2013-07-20T07:25:31Z</time>
      </trkpt>
      <trkpt lat="46.04957" lon="6.47178">
        <ele>952.131</ele>
        <time>2013-07-20T07:25:34Z</time>
      </trkpt>
      <trkpt lat="46.04973" lon="6.47241">
        <ele>954.472</ele>
        <time>2013-07-20T07:25:42Z</time>
      </trkpt>
      <trkpt lat="46.04975" lon="6.47271">
        <ele>955.545</ele>
        <time>2013-07-20T07:25:46Z</time>
      </trkpt>
      <trkpt lat="46.04971" lon="6.47306">
        <ele>956.759</ele>
        <time>2013-07-20T07:25:51Z</time>
      </trkpt>
      <trkpt lat="46.04974" lon="6.4734">
        <ele>957.672</ele>
        <time>2013-07-20T07:25:56Z</time>
      </trkpt>
      <trkpt lat="46.04978" lon="6.47353">
        <ele>958.11</ele>
        <time>2013-07-20T07:25:58Z</time>
      </trkpt>
      <trkpt lat="46.05003" lon="6.47418">
        <ele>959.96</ele>
        <time>2013-07-20T07:26:08Z</time>
      </trkpt>
      <trkpt lat="46.05023" lon="6.47472">
        <ele>961.136</ele>
        <time>2013-07-20T07:26:16Z</time>
      </trkpt>
      <trkpt lat="46.05035" lon="6.47522">
        <ele>962.238</ele>
        <time>2013-07-20T07:26:23Z</time>
      </trkpt>
      <trkpt lat="46.0504" lon="6.47589">
        <ele>961.907</ele>
        <time>2013-07-20T07:26:31Z</time>
      </trkpt>
      <trkpt lat="46.05042" lon="6.47652">
        <ele>961.526</ele>
        <time>2013-07-20T07:26:37Z</time>
      </trkpt>
      <trkpt lat="46.05041" lon="6.47699">
        <ele>962.349</ele>
        <time>2013-07-20T07:26:42Z</time>
      </trkpt>
      <trkpt lat="46.05041" lon="6.47707">
        <ele>962.662</ele>
        <time>2013-07-20T07:26:43Z</time>
      </trkpt>
      <trkpt lat="46.05047" lon="6.47749">
        <ele>964.332</ele>
        <time>2013-07-20T07:26:50Z</time>
      </trkpt>
      <trkpt lat="46.05043" lon="6.47772">
        <ele>965.653</ele>
        <time>2013-07-20T07:26:54Z</time>
      </trkpt>
      <trkpt lat="46.05024" lon="6.47809">
        <ele>968.286</ele>
        <time>2013-07-20T07:27:01Z</time>
      </trkpt>
      <trkpt lat="46.05013" lon="6.47824">
        <ele>969.617</ele>
        <time>2013-07-20T07:27:05Z</time>
      </trkpt>
      <trkpt lat="46.05006" lon="6.47833">
        <ele>970.246</ele>
        <time>2013-07-20T07:27:11Z</time>
      </trkpt>
      <trkpt lat="46.05005" lon="6.47836">
        <ele>970.371</ele>
        <time>2013-07-20T07:27:12Z</time>
      </trkpt>
      <trkpt lat="46.05007" lon="6.47845">
        <ele>970.981</ele>
        <time>2013-07-20T07:27:16Z</time>
      </trkpt>
      <trkpt lat="46.05018" lon="6.47858">
        <ele>971.891</ele>
        <time>2013-07-20T07:27:24Z</time>
      </trkpt>
      <trkpt lat="46.05029" lon="6.47872">
        <ele>972.736</ele>
        <time>2013-07-20T07:27:29Z</time>
      </trkpt>
      <trkpt lat="46.05044" lon="6.47889">
        <ele>974.138</ele>
        <time>2013-07-20T07:27:35Z</time>
      </trkpt>
      <trkpt lat="46.05058" lon="6.47901">
        <ele>974.5</ele>
        <time>2013-07-20T07:27:41Z</time>
      </trkpt>
      <trkpt lat="46.05069" lon="6.4792">
        <ele>974.515</ele>
        <time>2013-07-20T07:27:47Z</time>
      </trkpt>
      <trkpt lat="46.05073" lon="6.47941">
        <ele>974.75</ele>
        <time>2013-07-20T07:27:52Z</time>
      </trkpt>
      <trkpt lat="46.05069" lon="6.47965">
        <ele>975.251</ele>
        <time>2013-07-20T07:27:57Z</time>
      </trkpt>
      <trkpt lat="46.05062" lon="6.47991">
        <ele>975.677</ele>
        <time>2013-07-20T07:28:02Z</time>
      </trkpt>
      <trkpt lat="46.05053" lon="6.48026">
        <ele>975.848</ele>
        <time>2013-07-20T07:28:10Z</time>
      </trkpt>
      <trkpt lat="46.05047" lon="6.48047">
        <ele>976.051</ele>
        <time>2013-07-20T07:28:16Z</time>
      </trkpt>
      <trkpt lat="46.05042" lon="6.48067">
        <ele>976.493</ele>
        <time>2013-07-20T07:28:22Z</time>
      </trkpt>
      <trkpt lat="46.05042" lon="6.48077">
        <ele>976.716</ele>
        <time>2013-07-20T07:28:26Z</time>
      </trkpt>
      <trkpt lat="46.05042" lon="6.48088">
        <ele>976.622</ele>
        <time>2013-07-20T07:28:30Z</time>
      </trkpt>
      <trkpt lat="46.05039" lon="6.48097">
        <ele>976.589</ele>
        <time>2013-07-20T07:28:34Z</time>
      </trkpt>
      <trkpt lat="46.05029" lon="6.4812">
        <ele>976.724</ele>
        <time>2013-07-20T07:28:42Z</time>
      </trkpt>
      <trkpt lat="46.05018" lon="6.48133">
        <ele>976.818</ele>
        <time>2013-07-20T07:28:48Z</time>
      </trkpt>
      <trkpt lat="46.05009" lon="6.48143">
        <ele>976.891</ele>
        <time>2013-07-20T07:28:53Z</time>
      </trkpt>
      <trkpt lat="46.05" lon="6.48159">
        <ele>976.968</ele>
        <time>2013-07-20T07:28:59Z</time>
      </trkpt>
      <trkpt lat="46.04996" lon="6.48169">
        <ele>977.118</ele>
        <time>2013-07-20T07:29:03Z</time>
      </trkpt>
      <trkpt lat="46.05" lon="6.48168">
        <ele>976.923</ele>
        <time>2013-07-20T07:29:07Z</time>
      </trkpt>
      <trkpt lat="46.05012" lon="6.48146">
        <ele>976.823</ele>
        <time>2013-07-20T07:29:15Z</time>
      </trkpt>
      <trkpt lat="46.05024" lon="6.48132">
        <ele>976.994</ele>
        <time>2013-07-20T07:29:20Z</time>
      </trkpt>
      <trkpt lat="46.05038" lon="6.4811">
        <ele>977.171</ele>
        <time>2013-07-20T07:29:26Z</time>
      </trkpt>
      <trkpt lat="46.05043" lon="6.48096">
        <ele>976.858</ele>
        <time>2013-07-20T07:29:31Z</time>
      </trkpt>
      <trkpt lat="46.05045" lon="6.48089">
        <ele>976.642</ele>
        <time>2013-07-20T07:29:34Z</time>
      </trkpt>
      <trkpt lat="46.05047" lon="6.48088">
        <ele>976.567</ele>
        <time>2013-07-20T07:29:38Z</time>
      </trkpt>
      <trkpt lat="46.05041" lon="6.4808">
        <ele>976.413</ele>
        <time>2013-07-20T07:29:59Z</time>
      </trkpt>
      <trkpt lat="46.05038" lon="6.48088">
        <ele>976.527</ele>
        <time>2013-07-20T07:30:01Z</time>
      </trkpt>
      <trkpt lat="46.05028" lon="6.48119">
        <ele>976.941</ele>
        <time>2013-07-20T07:30:08Z</time>
      </trkpt>
      <trkpt lat="46.05011" lon="6.4814">
        <ele>976.912</ele>
        <time>2013-07-20T07:30:14Z</time>
      </trkpt>
      <trkpt lat="46.05" lon="6.48155">
        <ele>977.001</ele>
        <time>2013-07-20T07:30:18Z</time>
      </trkpt>
      <trkpt lat="46.04994" lon="6.48188">
        <ele>977.11</ele>
        <time>2013-07-20T07:30:23Z</time>
      </trkpt>
      <trkpt lat="46.05005" lon="6.48215">
        <ele>977.287</ele>
        <time>2013-07-20T07:30:27Z</time>
      </trkpt>
      <trkpt lat="46.05009" lon="6.4822">
        <ele>977.342</ele>
        <time>2013-07-20T07:30:28Z</time>
      </trkpt>
      <trkpt lat="46.05041" lon="6.48255">
        <ele>978.519</ele>
        <time>2013-07-20T07:30:36Z</time>
      </trkpt>
      <trkpt lat="46.05074" lon="6.48289">
        <ele>979.959</ele>
        <time>2013-07-20T07:30:45Z</time>
      </trkpt>
      <trkpt lat="46.051" lon="6.48316">
        <ele>980.959</ele>
        <time>2013-07-20T07:30:52Z</time>
      </trkpt>
      <trkpt lat="46.05131" lon="6.48362">
        <ele>982.686</ele>
        <time>2013-07-20T07:31:02Z</time>
      </trkpt>
      <trkpt lat="46.05134" lon="6.48367">
        <ele>982.92</ele>
        <time>2013-07-20T07:31:03Z</time>
      </trkpt>
      <trkpt lat="46.05145" lon="6.48386">
        <ele>983.514</ele>
        <time>2013-07-20T07:31:07Z</time>
      </trkpt>
      <trkpt lat="46.05165" lon="6.48405">
        <ele>984.32</ele>
        <time>2013-07-20T07:31:12Z</time>
      </trkpt>
      <trkpt lat="46.05179" lon="6.48421">
        <ele>984.985</ele>
        <time>2013-07-20T07:31:16Z</time>
      </trkpt>
      <trkpt lat="46.05204" lon="6.48438">
        <ele>986.361</ele>
        <time>2013-07-20T07:31:23Z</time>
      </trkpt>
      <trkpt lat="46.05211" lon="6.48444">
        <ele>986.656</ele>
        <time>2013-07-20T07:31:25Z</time>
      </trkpt>
      <trkpt lat="46.05227" lon="6.48459">
        <ele>987.699</ele>
        <time>2013-07-20T07:31:30Z</time>
      </trkpt>
      <trkpt lat="46.0524" lon="6.48474">
        <ele>988.426</ele>
        <time>2013-07-20T07:31:35Z</time>
      </trkpt>
      <trkpt lat="46.05256" lon="6.48491">
        <ele>989.563</ele>
        <time>2013-07-20T07:31:42Z</time>
      </trkpt>
      <trkpt lat="46.05263" lon="6.48502">
        <ele>990.165</ele>
        <time>2013-07-20T07:31:47Z</time>
      </trkpt>
      <trkpt lat="46.05272" lon="6.48513">
        <ele>990.242</ele>
        <time>2013-07-20T07:31:52Z</time>
      </trkpt>
      <trkpt lat="46.0529" lon="6.48527">
        <ele>989.935</ele>
        <time>2013-07-20T07:31:57Z</time>
      </trkpt>
      <trkpt lat="46.053" lon="6.48535">
        <ele>989.52</ele>
        <time>2013-07-20T07:31:59Z</time>
      </trkpt>
      <trkpt lat="46.05334" lon="6.48571">
        <ele>987.914</ele>
        <time>2013-07-20T07:32:06Z</time>
      </trkpt>
      <trkpt lat="46.05357" lon="6.48591">
        <ele>986.696</ele>
        <time>2013-07-20T07:32:10Z</time>
      </trkpt>
      <trkpt lat="46.05366" lon="6.48598">
        <ele>985.228</ele>
        <time>2013-07-20T07:32:13Z</time>
      </trkpt>
      <trkpt lat="46.05368" lon="6.48588">
        <ele>984.922</ele>
        <time>2013-07-20T07:32:17Z</time>
      </trkpt>
      <trkpt lat="46.05361" lon="6.48578">
        <ele>985.257</ele>
        <time>2013-07-20T07:32:21Z</time>
      </trkpt>
      <trkpt lat="46.0536" lon="6.48577">
        <ele>985.346</ele>
        <time>2013-07-20T07:32:23Z</time>
      </trkpt>
      <trkpt lat="46.05358" lon="6.48574">
        <ele>985.255</ele>
        <time>2013-07-20T07:32:30Z</time>
      </trkpt>
      <trkpt lat="46.05358" lon="6.48574">
        <ele>985.234</ele>
        <time>2013-07-20T07:32:31Z</time>
      </trkpt>
      <trkpt lat="46.05355" lon="6.48583">
        <ele>985.056</ele>
        <time>2013-07-20T07:34:30Z</time>
      </trkpt>
      <trkpt lat="46.05355" lon="6.48587">
        <ele>984.866</ele>
        <time>2013-07-20T07:34:36Z</time>
      </trkpt>
      <trkpt lat="46.05359" lon="6.48589">
        <ele>984.794</ele>
        <time>2013-07-20T07:35:04Z</time>
      </trkpt>
      <trkpt lat="46.05363" lon="6.4859">
        <ele>984.884</ele>
        <time>2013-07-20T07:35:35Z</time>
      </trkpt>
      <trkpt lat="46.05364" lon="6.48593">
        <ele>984.693</ele>
        <time>2013-07-20T07:35:39Z</time>
      </trkpt>
      <trkpt lat="46.05366" lon="6.48602">
        <ele>984.75</ele>
        <time>2013-07-20T07:35:47Z</time>
      </trkpt>
      <trkpt lat="46.05378" lon="6.48619">
        <ele>984.312</ele>
        <time>2013-07-20T07:35:52Z</time>
      </trkpt>
      <trkpt lat="46.05387" lon="6.48635">
        <ele>983.83</ele>
        <time>2013-07-20T07:35:55Z</time>
      </trkpt>
      <trkpt lat="46.05401" lon="6.48673">
        <ele>981.688</ele>
        <time>2013-07-20T07:36:00Z</time>
      </trkpt>
      <trkpt lat="46.05414" lon="6.48716">
        <ele>980.268</ele>
        <time>2013-07-20T07:36:04Z</time>
      </trkpt>
      <trkpt lat="46.0542" lon="6.48787">
        <ele>976.407</ele>
        <time>2013-07-20T07:36:09Z</time>
      </trkpt>
      <trkpt lat="46.05418" lon="6.48803">
        <ele>976.029</ele>
        <time>2013-07-20T07:36:10Z</time>
      </trkpt>
      <trkpt lat="46.05401" lon="6.48922">
        <ele>969.113</ele>
        <time>2013-07-20T07:36:17Z</time>
      </trkpt>
      <trkpt lat="46.05396" lon="6.48957">
        <ele>966.304</ele>
        <time>2013-07-20T07:36:19Z</time>
      </trkpt>
      <trkpt lat="46.05403" lon="6.48998">
        <ele>962.441</ele>
        <time>2013-07-20T07:36:22Z</time>
      </trkpt>
      <trkpt lat="46.05425" lon="6.49021">
        <ele>958.753</ele>
        <time>2013-07-20T07:36:25Z</time>
      </trkpt>
      <trkpt lat="46.05455" lon="6.49051">
        <ele>954.886</ele>
        <time>2013-07-20T07:36:29Z</time>
      </trkpt>
      <trkpt lat="46.05456" lon="6.49076">
        <ele>952.579</ele>
        <time>2013-07-20T07:36:31Z</time>
      </trkpt>
      <trkpt lat="46.05453" lon="6.49088">
        <ele>951.555</ele>
        <time>2013-07-20T07:36:32Z</time>
      </trkpt>
      <trkpt lat="46.05446" lon="6.49129">
        <ele>949.462</ele>
        <time>2013-07-20T07:36:35Z</time>
      </trkpt>
      <trkpt lat="46.05446" lon="6.49242">
        <ele>943.376</ele>
        <time>2013-07-20T07:36:42Z</time>
      </trkpt>
      <trkpt lat="46.0546" lon="6.49295">
        <ele>939.285</ele>
        <time>2013-07-20T07:36:46Z</time>
      </trkpt>
      <trkpt lat="46.05477" lon="6.4931">
        <ele>938.274</ele>
        <time>2013-07-20T07:36:48Z</time>
      </trkpt>
      <trkpt lat="46.0551" lon="6.49314">
        <ele>936.186</ele>
        <time>2013-07-20T07:36:51Z</time>
      </trkpt>
      <trkpt lat="46.05539" lon="6.49294">
        <ele>934.098</ele>
        <time>2013-07-20T07:36:54Z</time>
      </trkpt>
      <trkpt lat="46.05553" lon="6.49268">
        <ele>932.282</ele>
        <time>2013-07-20T07:36:56Z</time>
      </trkpt>
      <trkpt lat="46.05578" lon="6.49206">
        <ele>929.26</ele>
        <time>2013-07-20T07:37:00Z</time>
      </trkpt>
      <trkpt lat="46.05586" lon="6.49192">
        <ele>928.649</ele>
        <time>2013-07-20T07:37:01Z</time>
      </trkpt>
      <trkpt lat="46.05626" lon="6.4915">
        <ele>924.025</ele>
        <time>2013-07-20T07:37:05Z</time>
      </trkpt>
      <trkpt lat="46.05637" lon="6.49143">
        <ele>922.201</ele>
        <time>2013-07-20T07:37:06Z</time>
      </trkpt>
      <trkpt lat="46.05658" lon="6.49131">
        <ele>919.599</ele>
        <time>2013-07-20T07:37:08Z</time>
      </trkpt>
      <trkpt lat="46.05689" lon="6.49128">
        <ele>915.409</ele>
        <time>2013-07-20T07:37:11Z</time>
      </trkpt>
      <trkpt lat="46.05699" lon="6.49134">
        <ele>914.453</ele>
        <time>2013-07-20T07:37:12Z</time>
      </trkpt>
      <trkpt lat="46.05751" lon="6.49152">
        <ele>910.349</ele>
        <time>2013-07-20T07:37:17Z</time>
      </trkpt>
      <trkpt lat="46.05791" lon="6.49189">
        <ele>905.391</ele>
        <time>2013-07-20T07:37:21Z</time>
      </trkpt>
      <trkpt lat="46.05805" lon="6.49242">
        <ele>901.354</ele>
        <time>2013-07-20T07:37:24Z</time>
      </trkpt>
      <trkpt lat="46.05805" lon="6.49299">
        <ele>898.153</ele>
        <time>2013-07-20T07:37:27Z</time>
      </trkpt>
      <trkpt lat="46.05802" lon="6.49318">
        <ele>896.587</ele>
        <time>2013-07-20T07:37:28Z</time>
      </trkpt>
      <trkpt lat="46.05796" lon="6.49355">
        <ele>893.79</ele>
        <time>2013-07-20T07:37:30Z</time>
      </trkpt>
      <trkpt lat="46.0577" lon="6.49424">
        <ele>889.237</ele>
        <time>2013-07-20T07:37:34Z</time>
      </trkpt>
      <trkpt lat="46.05762" lon="6.49478">
        <ele>884.803</ele>
        <time>2013-07-20T07:37:37Z</time>
      </trkpt>
      <trkpt lat="46.05767" lon="6.49515">
        <ele>883.039</ele>
        <time>2013-07-20T07:37:39Z</time>
      </trkpt>
      <trkpt lat="46.05778" lon="6.49569">
        <ele>879.363</ele>
        <time>2013-07-20T07:37:42Z</time>
      </trkpt>
      <trkpt lat="46.05783" lon="6.49667">
        <ele>872.776</ele>
        <time>2013-07-20T07:37:47Z</time>
      </trkpt>
      <trkpt lat="46.05773" lon="6.49745">
        <ele>869.841</ele>
        <time>2013-07-20T07:37:51Z</time>
      </trkpt>
      <trkpt lat="46.05766" lon="6.49784">
        <ele>867.086</ele>
        <time>2013-07-20T07:37:53Z</time>
      </trkpt>
      <trkpt lat="46.05765" lon="6.49862">
        <ele>861.893</ele>
        <time>2013-07-20T07:37:57Z</time>
      </trkpt>
      <trkpt lat="46.05775" lon="6.4996">
        <ele>857.929</ele>
        <time>2013-07-20T07:38:02Z</time>
      </trkpt>
      <trkpt lat="46.05794" lon="6.50074">
        <ele>850.441</ele>
        <time>2013-07-20T07:38:08Z</time>
      </trkpt>
      <trkpt lat="46.05812" lon="6.50184">
        <ele>844.415</ele>
        <time>2013-07-20T07:38:14Z</time>
      </trkpt>
      <trkpt lat="46.05814" lon="6.50201">
        <ele>843.561</ele>
        <time>2013-07-20T07:38:15Z</time>
      </trkpt>
      <trkpt lat="46.05808" lon="6.50251">
        <ele>841.138</ele>
        <time>2013-07-20T07:38:18Z</time>
      </trkpt>
      <trkpt lat="46.05801" lon="6.50265">
        <ele>840.027</ele>
        <time>2013-07-20T07:38:19Z</time>
      </trkpt>
      <trkpt lat="46.05741" lon="6.50291">
        <ele>835.635</ele>
        <time>2013-07-20T07:38:24Z</time>
      </trkpt>
      <trkpt lat="46.05662" lon="6.50308">
        <ele>829.799</ele>
        <time>2013-07-20T07:38:30Z</time>
      </trkpt>
      <trkpt lat="46.05646" lon="6.50334">
        <ele>825.493</ele>
        <time>2013-07-20T07:38:33Z</time>
      </trkpt>
      <trkpt lat="46.05653" lon="6.50378">
        <ele>822.966</ele>
        <time>2013-07-20T07:38:36Z</time>
      </trkpt>
      <trkpt lat="46.05671" lon="6.50404">
        <ele>821.264</ele>
        <time>2013-07-20T07:38:38Z</time>
      </trkpt>
      <trkpt lat="46.05685" lon="6.50434">
        <ele>819.203</ele>
        <time>2013-07-20T07:38:40Z</time>
      </trkpt>
      <trkpt lat="46.05702" lon="6.50508">
        <ele>815.12</ele>
        <time>2013-07-20T07:38:44Z</time>
      </trkpt>
      <trkpt lat="46.05699" lon="6.50526">
        <ele>814.043</ele>
        <time>2013-07-20T07:38:45Z</time>
      </trkpt>
      <trkpt lat="46.05706" lon="6.50603">
        <ele>806.109</ele>
        <time>2013-07-20T07:38:50Z</time>
      </trkpt>
      <trkpt lat="46.05727" lon="6.5062">
        <ele>803.583</ele>
        <time>2013-07-20T07:38:52Z</time>
      </trkpt>
      <trkpt lat="46.05746" lon="6.50644">
        <ele>801.82</ele>
        <time>2013-07-20T07:38:54Z</time>
      </trkpt>
      <trkpt lat="46.05756" lon="6.50678">
        <ele>799.443</ele>
        <time>2013-07-20T07:38:56Z</time>
      </trkpt>
      <trkpt lat="46.05758" lon="6.50697">
        <ele>798.252</ele>
        <time>2013-07-20T07:38:57Z</time>
      </trkpt>
      <trkpt lat="46.05762" lon="6.50776">
        <ele>793.394</ele>
        <time>2013-07-20T07:39:01Z</time>
      </trkpt>
      <trkpt lat="46.05747" lon="6.5086">
        <ele>787.56</ele>
        <time>2013-07-20T07:39:05Z</time>
      </trkpt>
      <trkpt lat="46.05726" lon="6.50992">
        <ele>778.789</ele>
        <time>2013-07-20T07:39:11Z</time>
      </trkpt>
      <trkpt lat="46.05713" lon="6.51058">
        <ele>774.541</ele>
        <time>2013-07-20T07:39:14Z</time>
      </trkpt>
      <trkpt lat="46.05692" lon="6.51145">
        <ele>767.686</ele>
        <time>2013-07-20T07:39:18Z</time>
      </trkpt>
      <trkpt lat="46.05655" lon="6.51294">
        <ele>757.194</ele>
        <time>2013-07-20T07:39:25Z</time>
      </trkpt>
      <trkpt lat="46.05645" lon="6.51353">
        <ele>751.581</ele>
        <time>2013-07-20T07:39:28Z</time>
      </trkpt>
      <trkpt lat="46.05622" lon="6.51425">
        <ele>745.258</ele>
        <time>2013-07-20T07:39:32Z</time>
      </trkpt>
      <trkpt lat="46.05604" lon="6.51457">
        <ele>742.489</ele>
        <time>2013-07-20T07:39:34Z</time>
      </trkpt>
      <trkpt lat="46.05588" lon="6.51524">
        <ele>736.903</ele>
        <time>2013-07-20T07:39:38Z</time>
      </trkpt>
      <trkpt lat="46.0558" lon="6.51561">
        <ele>734.045</ele>
        <time>2013-07-20T07:39:40Z</time>
      </trkpt>
      <trkpt lat="46.05569" lon="6.51618">
        <ele>729.782</ele>
        <time>2013-07-20T07:39:43Z</time>
      </trkpt>
      <trkpt lat="46.05575" lon="6.51701">
        <ele>724.881</ele>
        <time>2013-07-20T07:39:47Z</time>
      </trkpt>
      <trkpt lat="46.05575" lon="6.51723">
        <ele>723.294</ele>
        <time>2013-07-20T07:39:48Z</time>
      </trkpt>
      <trkpt lat="46.05565" lon="6.51787">
        <ele>719.337</ele>
        <time>2013-07-20T07:39:51Z</time>
      </trkpt>
      <trkpt lat="46.05558" lon="6.51844">
        <ele>713.584</ele>
        <time>2013-07-20T07:39:54Z</time>
      </trkpt>
      <trkpt lat="46.05557" lon="6.51948">
        <ele>706.849</ele>
        <time>2013-07-20T07:39:59Z</time>
      </trkpt>
      <trkpt lat="46.05551" lon="6.51968">
        <ele>705.183</ele>
        <time>2013-07-20T07:40:00Z</time>
      </trkpt>
      <trkpt lat="46.05521" lon="6.52071">
        <ele>698.004</ele>
        <time>2013-07-20T07:40:05Z</time>
      </trkpt>
      <trkpt lat="46.05494" lon="6.52129">
        <ele>692.912</ele>
        <time>2013-07-20T07:40:08Z</time>
      </trkpt>
      <trkpt lat="46.05459" lon="6.52178">
        <ele>689.367</ele>
        <time>2013-07-20T07:40:11Z</time>
      </trkpt>
      <trkpt lat="46.05427" lon="6.52256">
        <ele>682.233</ele>
        <time>2013-07-20T07:40:15Z</time>
      </trkpt>
      <trkpt lat="46.05406" lon="6.52309">
        <ele>677.213</ele>
        <time>2013-07-20T07:40:18Z</time>
      </trkpt>
      <trkpt lat="46.05384" lon="6.52353">
        <ele>671.548</ele>
        <time>2013-07-20T07:40:21Z</time>
      </trkpt>
      <trkpt lat="46.05364" lon="6.52387">
        <ele>667.277</ele>
        <time>2013-07-20T07:40:24Z</time>
      </trkpt>
      <trkpt lat="46.0534" lon="6.52386">
        <ele>663.818</ele>
        <time>2013-07-20T07:40:26Z</time>
      </trkpt>
      <trkpt lat="46.05316" lon="6.52393">
        <ele>661.782</ele>
        <time>2013-07-20T07:40:28Z</time>
      </trkpt>
      <trkpt lat="46.05306" lon="6.52401">
        <ele>660.471</ele>
        <time>2013-07-20T07:40:29Z</time>
      </trkpt>
      <trkpt lat="46.05284" lon="6.5242">
        <ele>658.203</ele>
        <time>2013-07-20T07:40:31Z</time>
      </trkpt>
      <trkpt lat="46.05235" lon="6.52438">
        <ele>654.027</ele>
        <time>2013-07-20T07:40:35Z</time>
      </trkpt>
      <trkpt lat="46.0522" lon="6.52464">
        <ele>648.943</ele>
        <time>2013-07-20T07:40:38Z</time>
      </trkpt>
      <trkpt lat="46.05222" lon="6.52501">
        <ele>645.768</ele>
        <time>2013-07-20T07:40:41Z</time>
      </trkpt>
      <trkpt lat="46.0524" lon="6.52538">
        <ele>643.205</ele>
        <time>2013-07-20T07:40:45Z</time>
      </trkpt>
      <trkpt lat="46.05257" lon="6.52547">
        <ele>642.181</ele>
        <time>2013-07-20T07:40:47Z</time>
      </trkpt>
      <trkpt lat="46.053" lon="6.52573">
        <ele>638.84</ele>
        <time>2013-07-20T07:40:51Z</time>
      </trkpt>
      <trkpt lat="46.05351" lon="6.52642">
        <ele>633.715</ele>
        <time>2013-07-20T07:40:56Z</time>
      </trkpt>
      <trkpt lat="46.05378" lon="6.5269">
        <ele>629.437</ele>
        <time>2013-07-20T07:40:59Z</time>
      </trkpt>
      <trkpt lat="46.05388" lon="6.52741">
        <ele>625.48</ele>
        <time>2013-07-20T07:41:02Z</time>
      </trkpt>
      <trkpt lat="46.05387" lon="6.52757">
        <ele>623.887</ele>
        <time>2013-07-20T07:41:03Z</time>
      </trkpt>
      <trkpt lat="46.05386" lon="6.52803">
        <ele>618.412</ele>
        <time>2013-07-20T07:41:07Z</time>
      </trkpt>
      <trkpt lat="46.05388" lon="6.52822">
        <ele>615.206</ele>
        <time>2013-07-20T07:41:11Z</time>
      </trkpt>
      <trkpt lat="46.05389" lon="6.52825">
        <ele>615.055</ele>
        <time>2013-07-20T07:41:12Z</time>
      </trkpt>
      <trkpt lat="46.0539" lon="6.52828">
        <ele>614.365</ele>
        <time>2013-07-20T07:41:15Z</time>
      </trkpt>
      <trkpt lat="46.05403" lon="6.52826">
        <ele>613.49</ele>
        <time>2013-07-20T07:41:32Z</time>
      </trkpt>
      <trkpt lat="46.0543" lon="6.5281">
        <ele>612.352</ele>
        <time>2013-07-20T07:41:39Z</time>
      </trkpt>
      <trkpt lat="46.05453" lon="6.52801">
        <ele>611.234</ele>
        <time>2013-07-20T07:41:43Z</time>
      </trkpt>
      <trkpt lat="46.05487" lon="6.52784">
        <ele>609.79</ele>
        <time>2013-07-20T07:41:48Z</time>
      </trkpt>
      <trkpt lat="46.05517" lon="6.52782">
        <ele>608.482</ele>
        <time>2013-07-20T07:41:52Z</time>
      </trkpt>
      <trkpt lat="46.05532" lon="6.52796">
        <ele>607.82</ele>
        <time>2013-07-20T07:41:54Z</time>
      </trkpt>
      <trkpt lat="46.05546" lon="6.5283">
        <ele>606.733</ele>
        <time>2013-07-20T07:41:57Z</time>
      </trkpt>
      <trkpt lat="46.05549" lon="6.52842">
        <ele>606.235</ele>
        <time>2013-07-20T07:41:58Z</time>
      </trkpt>
      <trkpt lat="46.05561" lon="6.52909">
        <ele>603.592</ele>
        <time>2013-07-20T07:42:03Z</time>
      </trkpt>
      <trkpt lat="46.05568" lon="6.52965">
        <ele>601.171</ele>
        <time>2013-07-20T07:42:07Z</time>
      </trkpt>
      <trkpt lat="46.05568" lon="6.52994">
        <ele>600.317</ele>
        <time>2013-07-20T07:42:09Z</time>
      </trkpt>
      <trkpt lat="46.05559" lon="6.53054">
        <ele>598.238</ele>
        <time>2013-07-20T07:42:13Z</time>
      </trkpt>
      <trkpt lat="46.05545" lon="6.53096">
        <ele>596.936</ele>
        <time>2013-07-20T07:42:16Z</time>
      </trkpt>
      <trkpt lat="46.05508" lon="6.53177">
        <ele>593.385</ele>
        <time>2013-07-20T07:42:22Z</time>
      </trkpt>
      <trkpt lat="46.05487" lon="6.53249">
        <ele>590.006</ele>
        <time>2013-07-20T07:42:27Z</time>
      </trkpt>
      <trkpt lat="46.05468" lon="6.53357">
        <ele>586.392</ele>
        <time>2013-07-20T07:42:34Z</time>
      </trkpt>
      <trkpt lat="46.0547" lon="6.53419">
        <ele>583.058</ele>
        <time>2013-07-20T07:42:38Z</time>
      </trkpt>
      <trkpt lat="46.05473" lon="6.53452">
        <ele>581.545</ele>
        <time>2013-07-20T07:42:40Z</time>
      </trkpt>
      <trkpt lat="46.05469" lon="6.5353">
        <ele>579.612</ele>
        <time>2013-07-20T07:42:45Z</time>
      </trkpt>
      <trkpt lat="46.05458" lon="6.53573">
        <ele>578.172</ele>
        <time>2013-07-20T07:42:48Z</time>
      </trkpt>
      <trkpt lat="46.0544" lon="6.53628">
        <ele>575.533</ele>
        <time>2013-07-20T07:42:52Z</time>
      </trkpt>
      <trkpt lat="46.05412" lon="6.53676">
        <ele>573.129</ele>
        <time>2013-07-20T07:42:56Z</time>
      </trkpt>
      <trkpt lat="46.05403" lon="6.53684">
        <ele>572.386</ele>
        <time>2013-07-20T07:42:57Z</time>
      </trkpt>
      <trkpt lat="46.05385" lon="6.537">
        <ele>571.279</ele>
        <time>2013-07-20T07:42:59Z</time>
      </trkpt>
      <trkpt lat="46.05365" lon="6.53735">
        <ele>569.77</ele>
        <time>2013-07-20T07:43:02Z</time>
      </trkpt>
      <trkpt lat="46.05363" lon="6.53766">
        <ele>568.756</ele>
        <time>2013-07-20T07:43:04Z</time>
      </trkpt>
      <trkpt lat="46.05364" lon="6.53828">
        <ele>566.242</ele>
        <time>2013-07-20T07:43:08Z</time>
      </trkpt>
      <trkpt lat="46.05348" lon="6.53869">
        <ele>564.275</ele>
        <time>2013-07-20T07:43:11Z</time>
      </trkpt>
      <trkpt lat="46.05319" lon="6.53917">
        <ele>562.352</ele>
        <time>2013-07-20T07:43:15Z</time>
      </trkpt>
      <trkpt lat="46.05304" lon="6.53974">
        <ele>559.983</ele>
        <time>2013-07-20T07:43:19Z</time>
      </trkpt>
      <trkpt lat="46.05297" lon="6.54035">
        <ele>557.678</ele>
        <time>2013-07-20T07:43:23Z</time>
      </trkpt>
      <trkpt lat="46.05289" lon="6.54063">
        <ele>556.919</ele>
        <time>2013-07-20T07:43:25Z</time>
      </trkpt>
      <trkpt lat="46.05272" lon="6.54082">
        <ele>555.814</ele>
        <time>2013-07-20T07:43:27Z</time>
      </trkpt>
      <trkpt lat="46.05263" lon="6.54087">
        <ele>555.233</ele>
        <time>2013-07-20T07:43:28Z</time>
      </trkpt>
      <trkpt lat="46.05233" lon="6.54102">
        <ele>553.561</ele>
        <time>2013-07-20T07:43:31Z</time>
      </trkpt>
      <trkpt lat="46.05211" lon="6.5413">
        <ele>552.43</ele>
        <time>2013-07-20T07:43:34Z</time>
      </trkpt>
      <trkpt lat="46.0521" lon="6.54172">
        <ele>550.357</ele>
        <time>2013-07-20T07:43:37Z</time>
      </trkpt>
      <trkpt lat="46.05223" lon="6.54195">
        <ele>549.373</ele>
        <time>2013-07-20T07:43:39Z</time>
      </trkpt>
      <trkpt lat="46.05232" lon="6.54204">
        <ele>548.74</ele>
        <time>2013-07-20T07:43:40Z</time>
      </trkpt>
      <trkpt lat="46.05258" lon="6.54229">
        <ele>546.996</ele>
        <time>2013-07-20T07:43:43Z</time>
      </trkpt>
      <trkpt lat="46.05273" lon="6.54254">
        <ele>546.249</ele>
        <time>2013-07-20T07:43:45Z</time>
      </trkpt>
      <trkpt lat="46.05278" lon="6.543">
        <ele>544.692</ele>
        <time>2013-07-20T07:43:48Z</time>
      </trkpt>
      <trkpt lat="46.05271" lon="6.54345">
        <ele>543.207</ele>
        <time>2013-07-20T07:43:51Z</time>
      </trkpt>
      <trkpt lat="46.05259" lon="6.54388">
        <ele>541.399</ele>
        <time>2013-07-20T07:43:54Z</time>
      </trkpt>
      <trkpt lat="46.0526" lon="6.54448">
        <ele>538.919</ele>
        <time>2013-07-20T07:43:58Z</time>
      </trkpt>
      <trkpt lat="46.05272" lon="6.5449">
        <ele>537.259</ele>
        <time>2013-07-20T07:44:01Z</time>
      </trkpt>
      <trkpt lat="46.05268" lon="6.54535">
        <ele>536.085</ele>
        <time>2013-07-20T07:44:04Z</time>
      </trkpt>
      <trkpt lat="46.05255" lon="6.5456">
        <ele>534.801</ele>
        <time>2013-07-20T07:44:06Z</time>
      </trkpt>
      <trkpt lat="46.05225" lon="6.54603">
        <ele>532.391</ele>
        <time>2013-07-20T07:44:10Z</time>
      </trkpt>
      <trkpt lat="46.05207" lon="6.54657">
        <ele>530.328</ele>
        <time>2013-07-20T07:44:14Z</time>
      </trkpt>
      <trkpt lat="46.05208" lon="6.54687">
        <ele>529.408</ele>
        <time>2013-07-20T07:44:16Z</time>
      </trkpt>
      <trkpt lat="46.0521" lon="6.54701">
        <ele>528.939</ele>
        <time>2013-07-20T07:44:17Z</time>
      </trkpt>
      <trkpt lat="46.05225" lon="6.54794">
        <ele>527.432</ele>
        <time>2013-07-20T07:44:24Z</time>
      </trkpt>
      <trkpt lat="46.05226" lon="6.54844">
        <ele>526.599</ele>
        <time>2013-07-20T07:44:28Z</time>
      </trkpt>
      <trkpt lat="46.05226" lon="6.54879">
        <ele>525.879</ele>
        <time>2013-07-20T07:44:31Z</time>
      </trkpt>
      <trkpt lat="46.05237" lon="6.54933">
        <ele>525.529</ele>
        <time>2013-07-20T07:44:36Z</time>
      </trkpt>
      <trkpt lat="46.05252" lon="6.54985">
        <ele>524.542</ele>
        <time>2013-07-20T07:44:41Z</time>
      </trkpt>
      <trkpt lat="46.05258" lon="6.55047">
        <ele>524.007</ele>
        <time>2013-07-20T07:44:47Z</time>
      </trkpt>
      <trkpt lat="46.05259" lon="6.55056">
        <ele>523.975</ele>
        <time>2013-07-20T07:44:48Z</time>
      </trkpt>
      <trkpt lat="46.05272" lon="6.55122">
        <ele>523.412</ele>
        <time>2013-07-20T07:44:55Z</time>
      </trkpt>
      <trkpt lat="46.05275" lon="6.55131">
        <ele>523.368</ele>
        <time>2013-07-20T07:44:56Z</time>
      </trkpt>
      <trkpt lat="46.05285" lon="6.55153">
        <ele>523.711</ele>
        <time>2013-07-20T07:44:59Z</time>
      </trkpt>
      <trkpt lat="46.05294" lon="6.55165">
        <ele>523.766</ele>
        <time>2013-07-20T07:45:01Z</time>
      </trkpt>
      <trkpt lat="46.05302" lon="6.5518">
        <ele>523.685</ele>
        <time>2013-07-20T07:45:03Z</time>
      </trkpt>
      <trkpt lat="46.0531" lon="6.55238">
        <ele>523.455</ele>
        <time>2013-07-20T07:45:09Z</time>
      </trkpt>
      <trkpt lat="46.05312" lon="6.55259">
        <ele>523.267</ele>
        <time>2013-07-20T07:45:11Z</time>
      </trkpt>
      <trkpt lat="46.05305" lon="6.5531">
        <ele>522.592</ele>
        <time>2013-07-20T07:45:16Z</time>
      </trkpt>
      <trkpt lat="46.05308" lon="6.55374">
        <ele>521.798</ele>
        <time>2013-07-20T07:45:22Z</time>
      </trkpt>
      <trkpt lat="46.05313" lon="6.5542">
        <ele>522.042</ele>
        <time>2013-07-20T07:45:26Z</time>
      </trkpt>
      <trkpt lat="46.05305" lon="6.55476">
        <ele>521.255</ele>
        <time>2013-07-20T07:45:31Z</time>
      </trkpt>
      <trkpt lat="46.053" lon="6.55498">
        <ele>521.164</ele>
        <time>2013-07-20T07:45:33Z</time>
      </trkpt>
      <trkpt lat="46.053" lon="6.55567">
        <ele>520.477</ele>
        <time>2013-07-20T07:45:39Z</time>
      </trkpt>
      <trkpt lat="46.05303" lon="6.55615">
        <ele>519.806</ele>
        <time>2013-07-20T07:45:43Z</time>
      </trkpt>
      <trkpt lat="46.05317" lon="6.55657">
        <ele>519.417</ele>
        <time>2013-07-20T07:45:47Z</time>
      </trkpt>
      <trkpt lat="46.0535" lon="6.55725">
        <ele>517.814</ele>
        <time>2013-07-20T07:45:54Z</time>
      </trkpt>
      <trkpt lat="46.05391" lon="6.55808">
        <ele>515.84</ele>
        <time>2013-07-20T07:46:02Z</time>
      </trkpt>
      <trkpt lat="46.05414" lon="6.55866">
        <ele>515.287</ele>
        <time>2013-07-20T07:46:07Z</time>
      </trkpt>
      <trkpt lat="46.0544" lon="6.5595">
        <ele>513.828</ele>
        <time>2013-07-20T07:46:14Z</time>
      </trkpt>
      <trkpt lat="46.05465" lon="6.5604">
        <ele>512.312</ele>
        <time>2013-07-20T07:46:22Z</time>
      </trkpt>
      <trkpt lat="46.05492" lon="6.56129">
        <ele>511.147</ele>
        <time>2013-07-20T07:46:30Z</time>
      </trkpt>
      <trkpt lat="46.05516" lon="6.5619">
        <ele>510.101</ele>
        <time>2013-07-20T07:46:36Z</time>
      </trkpt>
      <trkpt lat="46.05528" lon="6.56221">
        <ele>509.195</ele>
        <time>2013-07-20T07:46:40Z</time>
      </trkpt>
      <trkpt lat="46.0554" lon="6.56257">
        <ele>507.951</ele>
        <time>2013-07-20T07:46:45Z</time>
      </trkpt>
      <trkpt lat="46.05548" lon="6.56283">
        <ele>508.028</ele>
        <time>2013-07-20T07:46:48Z</time>
      </trkpt>
      <trkpt lat="46.05552" lon="6.56356">
        <ele>507.508</ele>
        <time>2013-07-20T07:46:55Z</time>
      </trkpt>
      <trkpt lat="46.0556" lon="6.56431">
        <ele>506.997</ele>
        <time>2013-07-20T07:47:02Z</time>
      </trkpt>
      <trkpt lat="46.05575" lon="6.56514">
        <ele>506.446</ele>
        <time>2013-07-20T07:47:10Z</time>
      </trkpt>
      <trkpt lat="46.05584" lon="6.56543">
        <ele>506.189</ele>
        <time>2013-07-20T07:47:13Z</time>
      </trkpt>
      <trkpt lat="46.0559" lon="6.56585">
        <ele>505.786</ele>
        <time>2013-07-20T07:47:17Z</time>
      </trkpt>
      <trkpt lat="46.05604" lon="6.5661">
        <ele>505.504</ele>
        <time>2013-07-20T07:47:20Z</time>
      </trkpt>
      <trkpt lat="46.05611" lon="6.56629">
        <ele>505.591</ele>
        <time>2013-07-20T07:47:22Z</time>
      </trkpt>
      <trkpt lat="46.05645" lon="6.56736">
        <ele>504.917</ele>
        <time>2013-07-20T07:47:33Z</time>
      </trkpt>
      <trkpt lat="46.05653" lon="6.56829">
        <ele>504.939</ele>
        <time>2013-07-20T07:47:42Z</time>
      </trkpt>
      <trkpt lat="46.05642" lon="6.56928">
        <ele>504.514</ele>
        <time>2013-07-20T07:47:52Z</time>
      </trkpt>
      <trkpt lat="46.05634" lon="6.56992">
        <ele>504.049</ele>
        <time>2013-07-20T07:47:59Z</time>
      </trkpt>
      <trkpt lat="46.05633" lon="6.57017">
        <ele>504.087</ele>
        <time>2013-07-20T07:48:02Z</time>
      </trkpt>
      <trkpt lat="46.05633" lon="6.57034">
        <ele>504.517</ele>
        <time>2013-07-20T07:48:04Z</time>
      </trkpt>
      <trkpt lat="46.05628" lon="6.57065">
        <ele>505.321</ele>
        <time>2013-07-20T07:48:08Z</time>
      </trkpt>
      <trkpt lat="46.05626" lon="6.57074">
        <ele>505.544</ele>
        <time>2013-07-20T07:48:09Z</time>
      </trkpt>
      <trkpt lat="46.05624" lon="6.57119">
        <ele>506.014</ele>
        <time>2013-07-20T07:48:14Z</time>
      </trkpt>
      <trkpt lat="46.05622" lon="6.57207">
        <ele>505.267</ele>
        <time>2013-07-20T07:48:23Z</time>
      </trkpt>
      <trkpt lat="46.05619" lon="6.57262">
        <ele>505.308</ele>
        <time>2013-07-20T07:48:29Z</time>
      </trkpt>
      <trkpt lat="46.05614" lon="6.57342">
        <ele>505.746</ele>
        <time>2013-07-20T07:48:38Z</time>
      </trkpt>
      <trkpt lat="46.05614" lon="6.57386">
        <ele>505.77</ele>
        <time>2013-07-20T07:48:43Z</time>
      </trkpt>
      <trkpt lat="46.05613" lon="6.57448">
        <ele>506.234</ele>
        <time>2013-07-20T07:48:50Z</time>
      </trkpt>
      <trkpt lat="46.05605" lon="6.57524">
        <ele>506.731</ele>
        <time>2013-07-20T07:48:59Z</time>
      </trkpt>
      <trkpt lat="46.05604" lon="6.57533">
        <ele>506.76</ele>
        <time>2013-07-20T07:49:00Z</time>
      </trkpt>
      <trkpt lat="46.05595" lon="6.57585">
        <ele>506.875</ele>
        <time>2013-07-20T07:49:06Z</time>
      </trkpt>
      <trkpt lat="46.05585" lon="6.57634">
        <ele>507.414</ele>
        <time>2013-07-20T07:49:12Z</time>
      </trkpt>
      <trkpt lat="46.05578" lon="6.57671">
        <ele>509.011</ele>
        <time>2013-07-20T07:49:18Z</time>
      </trkpt>
      <trkpt lat="46.05572" lon="6.577">
        <ele>511.241</ele>
        <time>2013-07-20T07:49:25Z</time>
      </trkpt>
      <trkpt lat="46.05565" lon="6.57726">
        <ele>513.501</ele>
        <time>2013-07-20T07:49:32Z</time>
      </trkpt>
      <trkpt lat="46.05557" lon="6.57753">
        <ele>515.72</ele>
        <time>2013-07-20T07:49:40Z</time>
      </trkpt>
      <trkpt lat="46.05547" lon="6.57781">
        <ele>517.694</ele>
        <time>2013-07-20T07:49:48Z</time>
      </trkpt>
      <trkpt lat="46.05536" lon="6.57813">
        <ele>520.427</ele>
        <time>2013-07-20T07:49:57Z</time>
      </trkpt>
      <trkpt lat="46.05522" lon="6.57847">
        <ele>523.233</ele>
        <time>2013-07-20T07:50:07Z</time>
      </trkpt>
      <trkpt lat="46.05508" lon="6.57871">
        <ele>525.793</ele>
        <time>2013-07-20T07:50:16Z</time>
      </trkpt>
      <trkpt lat="46.05491" lon="6.57883">
        <ele>528.02</ele>
        <time>2013-07-20T07:50:23Z</time>
      </trkpt>
      <trkpt lat="46.05478" lon="6.57904">
        <ele>530.191</ele>
        <time>2013-07-20T07:50:31Z</time>
      </trkpt>
      <trkpt lat="46.05463" lon="6.57918">
        <ele>532.709</ele>
        <time>2013-07-20T07:50:39Z</time>
      </trkpt>
      <trkpt lat="46.0545" lon="6.57924">
        <ele>534.542</ele>
        <time>2013-07-20T07:50:45Z</time>
      </trkpt>
      <trkpt lat="46.05434" lon="6.57928">
        <ele>536.96</ele>
        <time>2013-07-20T07:50:52Z</time>
      </trkpt>
      <trkpt lat="46.05417" lon="6.57936">
        <ele>539.236</ele>
        <time>2013-07-20T07:51:00Z</time>
      </trkpt>
      <trkpt lat="46.054" lon="6.57945">
        <ele>541.425</ele>
        <time>2013-07-20T07:51:08Z</time>
      </trkpt>
      <trkpt lat="46.05379" lon="6.57945">
        <ele>544.153</ele>
        <time>2013-07-20T07:51:18Z</time>
      </trkpt>
      <trkpt lat="46.05358" lon="6.57947">
        <ele>547.173</ele>
        <time>2013-07-20T07:51:29Z</time>
      </trkpt>
      <trkpt lat="46.05334" lon="6.57947">
        <ele>550.613</ele>
        <time>2013-07-20T07:51:41Z</time>
      </trkpt>
      <trkpt lat="46.05319" lon="6.57948">
        <ele>552.662</ele>
        <time>2013-07-20T07:51:49Z</time>
      </trkpt>
      <trkpt lat="46.05298" lon="6.57949">
        <ele>555.485</ele>
        <time>2013-07-20T07:52:00Z</time>
      </trkpt>
      <trkpt lat="46.05282" lon="6.57952">
        <ele>557.783</ele>
        <time>2013-07-20T07:52:08Z</time>
      </trkpt>
      <trkpt lat="46.05267" lon="6.57955">
        <ele>559.796</ele>
        <time>2013-07-20T07:52:16Z</time>
      </trkpt>
      <trkpt lat="46.05251" lon="6.57962">
        <ele>562.347</ele>
        <time>2013-07-20T07:52:25Z</time>
      </trkpt>
      <trkpt lat="46.05241" lon="6.57973">
        <ele>563.885</ele>
        <time>2013-07-20T07:52:31Z</time>
      </trkpt>
      <trkpt lat="46.0523" lon="6.57982">
        <ele>565.726</ele>
        <time>2013-07-20T07:52:38Z</time>
      </trkpt>
      <trkpt lat="46.05218" lon="6.57991">
        <ele>567.403</ele>
        <time>2013-07-20T07:52:45Z</time>
      </trkpt>
      <trkpt lat="46.05203" lon="6.57997">
        <ele>569.814</ele>
        <time>2013-07-20T07:52:53Z</time>
      </trkpt>
      <trkpt lat="46.05195" lon="6.58004">
        <ele>571.03</ele>
        <time>2013-07-20T07:52:58Z</time>
      </trkpt>
      <trkpt lat="46.0518" lon="6.58019">
        <ele>573.433</ele>
        <time>2013-07-20T07:53:07Z</time>
      </trkpt>
      <trkpt lat="46.0517" lon="6.58033">
        <ele>575.159</ele>
        <time>2013-07-20T07:53:14Z</time>
      </trkpt>
      <trkpt lat="46.05155" lon="6.58045">
        <ele>577.439</ele>
        <time>2013-07-20T07:53:22Z</time>
      </trkpt>
      <trkpt lat="46.05141" lon="6.58057">
        <ele>579.724</ele>
        <time>2013-07-20T07:53:30Z</time>
      </trkpt>
      <trkpt lat="46.05122" lon="6.58069">
        <ele>582.174</ele>
        <time>2013-07-20T07:53:40Z</time>
      </trkpt>
      <trkpt lat="46.0511" lon="6.58082">
        <ele>584.175</ele>
        <time>2013-07-20T07:53:47Z</time>
      </trkpt>
      <trkpt lat="46.05097" lon="6.5809">
        <ele>586.242</ele>
        <time>2013-07-20T07:53:54Z</time>
      </trkpt>
      <trkpt lat="46.0508" lon="6.58098">
        <ele>588.724</ele>
        <time>2013-07-20T07:54:03Z</time>
      </trkpt>
      <trkpt lat="46.05068" lon="6.58102">
        <ele>590.385</ele>
        <time>2013-07-20T07:54:09Z</time>
      </trkpt>
      <trkpt lat="46.05054" lon="6.58109">
        <ele>592.138</ele>
        <time>2013-07-20T07:54:16Z</time>
      </trkpt>
      <trkpt lat="46.05036" lon="6.58116">
        <ele>594.875</ele>
        <time>2013-07-20T07:54:25Z</time>
      </trkpt>
      <trkpt lat="46.05019" lon="6.58124">
        <ele>597.465</ele>
        <time>2013-07-20T07:54:34Z</time>
      </trkpt>
      <trkpt lat="46.05002" lon="6.58137">
        <ele>599.686</ele>
        <time>2013-07-20T07:54:43Z</time>
      </trkpt>
      <trkpt lat="46.04983" lon="6.5814">
        <ele>602.51</ele>
        <time>2013-07-20T07:54:52Z</time>
      </trkpt>
      <trkpt lat="46.04969" lon="6.58146">
        <ele>604.378</ele>
        <time>2013-07-20T07:55:00Z</time>
      </trkpt>
      <trkpt lat="46.04956" lon="6.58152">
        <ele>605.914</ele>
        <time>2013-07-20T07:55:06Z</time>
      </trkpt>
      <trkpt lat="46.04937" lon="6.58154">
        <ele>607.831</ele>
        <time>2013-07-20T07:55:13Z</time>
      </trkpt>
      <trkpt lat="46.04923" lon="6.58144">
        <ele>610.055</ele>
        <time>2013-07-20T07:55:18Z</time>
      </trkpt>
      <trkpt lat="46.0492" lon="6.58131">
        <ele>611.472</ele>
        <time>2013-07-20T07:55:22Z</time>
      </trkpt>
      <trkpt lat="46.04922" lon="6.58125">
        <ele>612.473</ele>
        <time>2013-07-20T07:55:24Z</time>
      </trkpt>
      <trkpt lat="46.04944" lon="6.58111">
        <ele>615.116</ele>
        <time>2013-07-20T07:55:34Z</time>
      </trkpt>
      <trkpt lat="46.04971" lon="6.58096">
        <ele>617.572</ele>
        <time>2013-07-20T07:55:45Z</time>
      </trkpt>
      <trkpt lat="46.0499" lon="6.58086">
        <ele>619.75</ele>
        <time>2013-07-20T07:55:54Z</time>
      </trkpt>
      <trkpt lat="46.0501" lon="6.58082">
        <ele>621.715</ele>
        <time>2013-07-20T07:56:02Z</time>
      </trkpt>
      <trkpt lat="46.05026" lon="6.58076">
        <ele>623.232</ele>
        <time>2013-07-20T07:56:09Z</time>
      </trkpt>
      <trkpt lat="46.05046" lon="6.58067">
        <ele>625.614</ele>
        <time>2013-07-20T07:56:18Z</time>
      </trkpt>
      <trkpt lat="46.05068" lon="6.58054">
        <ele>627.757</ele>
        <time>2013-07-20T07:56:28Z</time>
      </trkpt>
      <trkpt lat="46.05079" lon="6.58041">
        <ele>629.384</ele>
        <time>2013-07-20T07:56:34Z</time>
      </trkpt>
      <trkpt lat="46.05084" lon="6.58024">
        <ele>630.818</ele>
        <time>2013-07-20T07:56:40Z</time>
      </trkpt>
      <trkpt lat="46.05085" lon="6.58016">
        <ele>631.525</ele>
        <time>2013-07-20T07:56:43Z</time>
      </trkpt>
      <trkpt lat="46.05093" lon="6.58009">
        <ele>632.996</ele>
        <time>2013-07-20T07:56:48Z</time>
      </trkpt>
      <trkpt lat="46.05104" lon="6.58008">
        <ele>634.09</ele>
        <time>2013-07-20T07:56:52Z</time>
      </trkpt>
      <trkpt lat="46.05117" lon="6.58002">
        <ele>635.788</ele>
        <time>2013-07-20T07:56:58Z</time>
      </trkpt>
      <trkpt lat="46.05136" lon="6.57987">
        <ele>638.131</ele>
        <time>2013-07-20T07:57:07Z</time>
      </trkpt>
      <trkpt lat="46.0515" lon="6.5798">
        <ele>640.029</ele>
        <time>2013-07-20T07:57:13Z</time>
      </trkpt>
      <trkpt lat="46.05163" lon="6.57967">
        <ele>641.698</ele>
        <time>2013-07-20T07:57:19Z</time>
      </trkpt>
      <trkpt lat="46.05175" lon="6.57953">
        <ele>643.779</ele>
        <time>2013-07-20T07:57:25Z</time>
      </trkpt>
      <trkpt lat="46.05186" lon="6.57932">
        <ele>646.124</ele>
        <time>2013-07-20T07:57:32Z</time>
      </trkpt>
      <trkpt lat="46.05197" lon="6.57908">
        <ele>648.609</ele>
        <time>2013-07-20T07:57:40Z</time>
      </trkpt>
      <trkpt lat="46.05208" lon="6.57902">
        <ele>650.245</ele>
        <time>2013-07-20T07:57:46Z</time>
      </trkpt>
      <trkpt lat="46.05223" lon="6.57905">
        <ele>652.328</ele>
        <time>2013-07-20T07:57:53Z</time>
      </trkpt>
      <trkpt lat="46.05239" lon="6.57909">
        <ele>654.746</ele>
        <time>2013-07-20T07:58:01Z</time>
      </trkpt>
      <trkpt lat="46.0525" lon="6.57901">
        <ele>656.525</ele>
        <time>2013-07-20T07:58:07Z</time>
      </trkpt>
      <trkpt lat="46.05261" lon="6.57883">
        <ele>658.273</ele>
        <time>2013-07-20T07:58:14Z</time>
      </trkpt>
      <trkpt lat="46.05272" lon="6.57862">
        <ele>660.245</ele>
        <time>2013-07-20T07:58:22Z</time>
      </trkpt>
      <trkpt lat="46.05285" lon="6.5785">
        <ele>662.323</ele>
        <time>2013-07-20T07:58:29Z</time>
      </trkpt>
      <trkpt lat="46.053" lon="6.57843">
        <ele>664.596</ele>
        <time>2013-07-20T07:58:37Z</time>
      </trkpt>
      <trkpt lat="46.05316" lon="6.57823">
        <ele>667.287</ele>
        <time>2013-07-20T07:58:47Z</time>
      </trkpt>
      <trkpt lat="46.05328" lon="6.57805">
        <ele>669.409</ele>
        <time>2013-07-20T07:58:55Z</time>
      </trkpt>
      <trkpt lat="46.05346" lon="6.57785">
        <ele>672.152</ele>
        <time>2013-07-20T07:59:05Z</time>
      </trkpt>
      <trkpt lat="46.05353" lon="6.57773">
        <ele>673.842</ele>
        <time>2013-07-20T07:59:11Z</time>
      </trkpt>
      <trkpt lat="46.05358" lon="6.57756">
        <ele>675.524</ele>
        <time>2013-07-20T07:59:17Z</time>
      </trkpt>
      <trkpt lat="46.05364" lon="6.57744">
        <ele>676.855</ele>
        <time>2013-07-20T07:59:22Z</time>
      </trkpt>
      <trkpt lat="46.05377" lon="6.57737">
        <ele>678.573</ele>
        <time>2013-07-20T07:59:28Z</time>
      </trkpt>
      <trkpt lat="46.05391" lon="6.57739">
        <ele>680.241</ele>
        <time>2013-07-20T07:59:34Z</time>
      </trkpt>
      <trkpt lat="46.05406" lon="6.57744">
        <ele>682.435</ele>
        <time>2013-07-20T07:59:41Z</time>
      </trkpt>
      <trkpt lat="46.05411" lon="6.57743">
        <ele>683.062</ele>
        <time>2013-07-20T07:59:43Z</time>
      </trkpt>
      <trkpt lat="46.05421" lon="6.57732">
        <ele>684.474</ele>
        <time>2013-07-20T07:59:48Z</time>
      </trkpt>
      <trkpt lat="46.05422" lon="6.57728">
        <ele>684.83</ele>
        <time>2013-07-20T07:59:49Z</time>
      </trkpt>
      <trkpt lat="46.05421" lon="6.57704">
        <ele>686.888</ele>
        <time>2013-07-20T07:59:55Z</time>
      </trkpt>
      <trkpt lat="46.05418" lon="6.57679">
        <ele>688.95</ele>
        <time>2013-07-20T08:00:02Z</time>
      </trkpt>
      <trkpt lat="46.05417" lon="6.57663">
        <ele>690.257</ele>
        <time>2013-07-20T08:00:07Z</time>
      </trkpt>
      <trkpt lat="46.05416" lon="6.57643">
        <ele>691.748</ele>
        <time>2013-07-20T08:00:13Z</time>
      </trkpt>
      <trkpt lat="46.05414" lon="6.57625">
        <ele>692.986</ele>
        <time>2013-07-20T08:00:18Z</time>
      </trkpt>
      <trkpt lat="46.0541" lon="6.57597">
        <ele>694.873</ele>
        <time>2013-07-20T08:00:26Z</time>
      </trkpt>
      <trkpt lat="46.05407" lon="6.57582">
        <ele>696.311</ele>
        <time>2013-07-20T08:00:31Z</time>
      </trkpt>
      <trkpt lat="46.05406" lon="6.57564">
        <ele>697.486</ele>
        <time>2013-07-20T08:00:36Z</time>
      </trkpt>
      <trkpt lat="46.05405" lon="6.57539">
        <ele>699.266</ele>
        <time>2013-07-20T08:00:43Z</time>
      </trkpt>
      <trkpt lat="46.05398" lon="6.57526">
        <ele>700.782</ele>
        <time>2013-07-20T08:00:48Z</time>
      </trkpt>
      <trkpt lat="46.05385" lon="6.57529">
        <ele>702.148</ele>
        <time>2013-07-20T08:00:53Z</time>
      </trkpt>
      <trkpt lat="46.05382" lon="6.57543">
        <ele>703.459</ele>
        <time>2013-07-20T08:00:57Z</time>
      </trkpt>
      <trkpt lat="46.05386" lon="6.57567">
        <ele>705.692</ele>
        <time>2013-07-20T08:01:03Z</time>
      </trkpt>
      <trkpt lat="46.05389" lon="6.57596">
        <ele>707.472</ele>
        <time>2013-07-20T08:01:11Z</time>
      </trkpt>
      <trkpt lat="46.05387" lon="6.57622">
        <ele>709.151</ele>
        <time>2013-07-20T08:01:19Z</time>
      </trkpt>
      <trkpt lat="46.05388" lon="6.57646">
        <ele>710.771</ele>
        <time>2013-07-20T08:01:26Z</time>
      </trkpt>
      <trkpt lat="46.05385" lon="6.57667">
        <ele>712.266</ele>
        <time>2013-07-20T08:01:32Z</time>
      </trkpt>
      <trkpt lat="46.05375" lon="6.57675">
        <ele>713.699</ele>
        <time>2013-07-20T08:01:36Z</time>
      </trkpt>
      <trkpt lat="46.05364" lon="6.57664">
        <ele>715.314</ele>
        <time>2013-07-20T08:01:41Z</time>
      </trkpt>
      <trkpt lat="46.05364" lon="6.57656">
        <ele>715.82</ele>
        <time>2013-07-20T08:01:43Z</time>
      </trkpt>
      <trkpt lat="46.05365" lon="6.5764">
        <ele>717.66</ele>
        <time>2013-07-20T08:01:47Z</time>
      </trkpt>
      <trkpt lat="46.05367" lon="6.57616">
        <ele>719.189</ele>
        <time>2013-07-20T08:01:54Z</time>
      </trkpt>
      <trkpt lat="46.0537" lon="6.57589">
        <ele>720.98</ele>
        <time>2013-07-20T08:02:02Z</time>
      </trkpt>
      <trkpt lat="46.05366" lon="6.57567">
        <ele>722.727</ele>
        <time>2013-07-20T08:02:09Z</time>
      </trkpt>
      <trkpt lat="46.05357" lon="6.57546">
        <ele>724.487</ele>
        <time>2013-07-20T08:02:16Z</time>
      </trkpt>
      <trkpt lat="46.05348" lon="6.57526">
        <ele>726.074</ele>
        <time>2013-07-20T08:02:22Z</time>
      </trkpt>
      <trkpt lat="46.05343" lon="6.57509">
        <ele>727.72</ele>
        <time>2013-07-20T08:02:28Z</time>
      </trkpt>
      <trkpt lat="46.0534" lon="6.575">
        <ele>728.493</ele>
        <time>2013-07-20T08:02:31Z</time>
      </trkpt>
      <trkpt lat="46.05339" lon="6.57495">
        <ele>728.946</ele>
        <time>2013-07-20T08:02:33Z</time>
      </trkpt>
      <trkpt lat="46.05331" lon="6.57476">
        <ele>730.897</ele>
        <time>2013-07-20T08:02:40Z</time>
      </trkpt>
      <trkpt lat="46.05326" lon="6.57457">
        <ele>732.562</ele>
        <time>2013-07-20T08:02:47Z</time>
      </trkpt>
      <trkpt lat="46.05327" lon="6.57445">
        <ele>733.845</ele>
        <time>2013-07-20T08:02:51Z</time>
      </trkpt>
      <trkpt lat="46.05326" lon="6.57429">
        <ele>735.214</ele>
        <time>2013-07-20T08:02:56Z</time>
      </trkpt>
      <trkpt lat="46.05326" lon="6.57425">
        <ele>735.348</ele>
        <time>2013-07-20T08:02:57Z</time>
      </trkpt>
      <trkpt lat="46.05323" lon="6.57405">
        <ele>736.944</ele>
        <time>2013-07-20T08:03:03Z</time>
      </trkpt>
      <trkpt lat="46.05316" lon="6.57383">
        <ele>738.396</ele>
        <time>2013-07-20T08:03:09Z</time>
      </trkpt>
      <trkpt lat="46.05312" lon="6.57364">
        <ele>739.747</ele>
        <time>2013-07-20T08:03:15Z</time>
      </trkpt>
      <trkpt lat="46.05302" lon="6.57335">
        <ele>741.585</ele>
        <time>2013-07-20T08:03:23Z</time>
      </trkpt>
      <trkpt lat="46.05292" lon="6.57299">
        <ele>744.085</ele>
        <time>2013-07-20T08:03:33Z</time>
      </trkpt>
      <trkpt lat="46.05287" lon="6.57273">
        <ele>745.698</ele>
        <time>2013-07-20T08:03:40Z</time>
      </trkpt>
      <trkpt lat="46.05281" lon="6.57242">
        <ele>747.793</ele>
        <time>2013-07-20T08:03:48Z</time>
      </trkpt>
      <trkpt lat="46.05272" lon="6.57221">
        <ele>749.403</ele>
        <time>2013-07-20T08:03:54Z</time>
      </trkpt>
      <trkpt lat="46.05257" lon="6.57207">
        <ele>751.102</ele>
        <time>2013-07-20T08:04:00Z</time>
      </trkpt>
      <trkpt lat="46.05244" lon="6.5721">
        <ele>752.563</ele>
        <time>2013-07-20T08:04:05Z</time>
      </trkpt>
      <trkpt lat="46.05233" lon="6.57224">
        <ele>754.003</ele>
        <time>2013-07-20T08:04:10Z</time>
      </trkpt>
      <trkpt lat="46.05228" lon="6.57247">
        <ele>755.798</ele>
        <time>2013-07-20T08:04:16Z</time>
      </trkpt>
      <trkpt lat="46.05229" lon="6.57287">
        <ele>757.972</ele>
        <time>2013-07-20T08:04:26Z</time>
      </trkpt>
      <trkpt lat="46.05229" lon="6.57324">
        <ele>760.433</ele>
        <time>2013-07-20T08:04:36Z</time>
      </trkpt>
      <trkpt lat="46.05228" lon="6.57363">
        <ele>762.911</ele>
        <time>2013-07-20T08:04:47Z</time>
      </trkpt>
      <trkpt lat="46.05226" lon="6.57405">
        <ele>765.555</ele>
        <time>2013-07-20T08:04:59Z</time>
      </trkpt>
      <trkpt lat="46.05219" lon="6.57436">
        <ele>767.677</ele>
        <time>2013-07-20T08:05:08Z</time>
      </trkpt>
      <trkpt lat="46.05213" lon="6.5747">
        <ele>769.797</ele>
        <time>2013-07-20T08:05:18Z</time>
      </trkpt>
      <trkpt lat="46.05211" lon="6.57511">
        <ele>771.832</ele>
        <time>2013-07-20T08:05:29Z</time>
      </trkpt>
      <trkpt lat="46.05207" lon="6.57533">
        <ele>773.117</ele>
        <time>2013-07-20T08:05:35Z</time>
      </trkpt>
      <trkpt lat="46.05198" lon="6.5754">
        <ele>774.465</ele>
        <time>2013-07-20T08:05:39Z</time>
      </trkpt>
      <trkpt lat="46.0519" lon="6.57538">
        <ele>775.611</ele>
        <time>2013-07-20T08:05:43Z</time>
      </trkpt>
      <trkpt lat="46.05183" lon="6.57523">
        <ele>776.914</ele>
        <time>2013-07-20T08:05:48Z</time>
      </trkpt>
      <trkpt lat="46.05182" lon="6.57505">
        <ele>777.991</ele>
        <time>2013-07-20T08:05:52Z</time>
      </trkpt>
      <trkpt lat="46.05188" lon="6.57474">
        <ele>780.02</ele>
        <time>2013-07-20T08:05:59Z</time>
      </trkpt>
      <trkpt lat="46.05183" lon="6.57444">
        <ele>781.823</ele>
        <time>2013-07-20T08:06:06Z</time>
      </trkpt>
      <trkpt lat="46.05173" lon="6.57415">
        <ele>783.691</ele>
        <time>2013-07-20T08:06:14Z</time>
      </trkpt>
      <trkpt lat="46.05173" lon="6.57384">
        <ele>785.703</ele>
        <time>2013-07-20T08:06:22Z</time>
      </trkpt>
      <trkpt lat="46.05174" lon="6.57352">
        <ele>787.767</ele>
        <time>2013-07-20T08:06:30Z</time>
      </trkpt>
      <trkpt lat="46.05168" lon="6.57327">
        <ele>789.541</ele>
        <time>2013-07-20T08:06:37Z</time>
      </trkpt>
      <trkpt lat="46.05153" lon="6.57292">
        <ele>791.866</ele>
        <time>2013-07-20T08:06:47Z</time>
      </trkpt>
      <trkpt lat="46.05148" lon="6.57279">
        <ele>792.827</ele>
        <time>2013-07-20T08:06:51Z</time>
      </trkpt>
      <trkpt lat="46.0514" lon="6.57258">
        <ele>794.382</ele>
        <time>2013-07-20T08:06:57Z</time>
      </trkpt>
      <trkpt lat="46.05138" lon="6.57245">
        <ele>795.842</ele>
        <time>2013-07-20T08:07:02Z</time>
      </trkpt>
      <trkpt lat="46.05134" lon="6.5723">
        <ele>797.303</ele>
        <time>2013-07-20T08:07:07Z</time>
      </trkpt>
      <trkpt lat="46.05121" lon="6.57205">
        <ele>798.694</ele>
        <time>2013-07-20T08:07:13Z</time>
      </trkpt>
      <trkpt lat="46.05115" lon="6.57183">
        <ele>800.273</ele>
        <time>2013-07-20T08:07:19Z</time>
      </trkpt>
      <trkpt lat="46.0511" lon="6.57158">
        <ele>802.01</ele>
        <time>2013-07-20T08:07:26Z</time>
      </trkpt>
      <trkpt lat="46.05103" lon="6.57134">
        <ele>803.399</ele>
        <time>2013-07-20T08:07:32Z</time>
      </trkpt>
      <trkpt lat="46.05101" lon="6.57108">
        <ele>805.122</ele>
        <time>2013-07-20T08:07:39Z</time>
      </trkpt>
      <trkpt lat="46.05105" lon="6.57084">
        <ele>807.147</ele>
        <time>2013-07-20T08:07:46Z</time>
      </trkpt>
      <trkpt lat="46.05108" lon="6.57059">
        <ele>808.585</ele>
        <time>2013-07-20T08:07:52Z</time>
      </trkpt>
      <trkpt lat="46.05113" lon="6.57013">
        <ele>811.811</ele>
        <time>2013-07-20T08:08:04Z</time>
      </trkpt>
      <trkpt lat="46.05116" lon="6.5699">
        <ele>813.007</ele>
        <time>2013-07-20T08:08:10Z</time>
      </trkpt>
      <trkpt lat="46.05124" lon="6.5697">
        <ele>814.55</ele>
        <time>2013-07-20T08:08:16Z</time>
      </trkpt>
      <trkpt lat="46.05135" lon="6.56951">
        <ele>815.979</ele>
        <time>2013-07-20T08:08:22Z</time>
      </trkpt>
      <trkpt lat="46.05138" lon="6.5693">
        <ele>817.023</ele>
        <time>2013-07-20T08:08:27Z</time>
      </trkpt>
      <trkpt lat="46.05134" lon="6.56919">
        <ele>817.684</ele>
        <time>2013-07-20T08:08:30Z</time>
      </trkpt>
      <trkpt lat="46.05116" lon="6.56911">
        <ele>819.528</ele>
        <time>2013-07-20T08:08:36Z</time>
      </trkpt>
      <trkpt lat="46.05108" lon="6.56917">
        <ele>820.205</ele>
        <time>2013-07-20T08:08:39Z</time>
      </trkpt>
      <trkpt lat="46.05102" lon="6.56931">
        <ele>820.937</ele>
        <time>2013-07-20T08:08:43Z</time>
      </trkpt>
      <trkpt lat="46.05096" lon="6.56971">
        <ele>823.791</ele>
        <time>2013-07-20T08:08:53Z</time>
      </trkpt>
      <trkpt lat="46.05085" lon="6.56993">
        <ele>825.561</ele>
        <time>2013-07-20T08:09:00Z</time>
      </trkpt>
      <trkpt lat="46.05078" lon="6.57007">
        <ele>826.777</ele>
        <time>2013-07-20T08:09:04Z</time>
      </trkpt>
      <trkpt lat="46.05073" lon="6.57019">
        <ele>827.947</ele>
        <time>2013-07-20T08:09:08Z</time>
      </trkpt>
      <trkpt lat="46.05069" lon="6.57041">
        <ele>829.079</ele>
        <time>2013-07-20T08:09:14Z</time>
      </trkpt>
      <trkpt lat="46.05064" lon="6.57064">
        <ele>830.585</ele>
        <time>2013-07-20T08:09:20Z</time>
      </trkpt>
      <trkpt lat="46.05055" lon="6.57094">
        <ele>833.113</ele>
        <time>2013-07-20T08:09:29Z</time>
      </trkpt>
      <trkpt lat="46.05047" lon="6.5712">
        <ele>834.909</ele>
        <time>2013-07-20T08:09:37Z</time>
      </trkpt>
      <trkpt lat="46.05042" lon="6.57151">
        <ele>836.921</ele>
        <time>2013-07-20T08:09:46Z</time>
      </trkpt>
      <trkpt lat="46.05034" lon="6.57179">
        <ele>839.078</ele>
        <time>2013-07-20T08:09:55Z</time>
      </trkpt>
      <trkpt lat="46.05027" lon="6.57201">
        <ele>840.796</ele>
        <time>2013-07-20T08:10:02Z</time>
      </trkpt>
      <trkpt lat="46.05024" lon="6.57223">
        <ele>842.62</ele>
        <time>2013-07-20T08:10:09Z</time>
      </trkpt>
      <trkpt lat="46.05019" lon="6.57259">
        <ele>844.826</ele>
        <time>2013-07-20T08:10:19Z</time>
      </trkpt>
      <trkpt lat="46.05016" lon="6.57284">
        <ele>846.58</ele>
        <time>2013-07-20T08:10:26Z</time>
      </trkpt>
      <trkpt lat="46.05014" lon="6.57321">
        <ele>849.002</ele>
        <time>2013-07-20T08:10:36Z</time>
      </trkpt>
      <trkpt lat="46.05013" lon="6.57357">
        <ele>851.449</ele>
        <time>2013-07-20T08:10:45Z</time>
      </trkpt>
      <trkpt lat="46.05012" lon="6.57388">
        <ele>853.693</ele>
        <time>2013-07-20T08:10:53Z</time>
      </trkpt>
      <trkpt lat="46.05013" lon="6.57416">
        <ele>855.633</ele>
        <time>2013-07-20T08:11:00Z</time>
      </trkpt>
      <trkpt lat="46.05012" lon="6.57449">
        <ele>857.575</ele>
        <time>2013-07-20T08:11:09Z</time>
      </trkpt>
      <trkpt lat="46.05009" lon="6.57489">
        <ele>860.245</ele>
        <time>2013-07-20T08:11:20Z</time>
      </trkpt>
      <trkpt lat="46.05004" lon="6.5752">
        <ele>862.409</ele>
        <time>2013-07-20T08:11:29Z</time>
      </trkpt>
      <trkpt lat="46.04994" lon="6.57542">
        <ele>864.176</ele>
        <time>2013-07-20T08:11:36Z</time>
      </trkpt>
      <trkpt lat="46.04985" lon="6.5756">
        <ele>865.543</ele>
        <time>2013-07-20T08:11:42Z</time>
      </trkpt>
      <trkpt lat="46.04979" lon="6.57582">
        <ele>867.345</ele>
        <time>2013-07-20T08:11:48Z</time>
      </trkpt>
      <trkpt lat="46.04976" lon="6.57602">
        <ele>868.817</ele>
        <time>2013-07-20T08:11:53Z</time>
      </trkpt>
      <trkpt lat="46.04969" lon="6.57626">
        <ele>870.777</ele>
        <time>2013-07-20T08:11:59Z</time>
      </trkpt>
      <trkpt lat="46.04962" lon="6.57652">
        <ele>872.427</ele>
        <time>2013-07-20T08:12:06Z</time>
      </trkpt>
      <trkpt lat="46.04952" lon="6.57688">
        <ele>874.993</ele>
        <time>2013-07-20T08:12:16Z</time>
      </trkpt>
      <trkpt lat="46.04945" lon="6.57721">
        <ele>877.231</ele>
        <time>2013-07-20T08:12:25Z</time>
      </trkpt>
      <trkpt lat="46.04944" lon="6.57741">
        <ele>878.46</ele>
        <time>2013-07-20T08:12:30Z</time>
      </trkpt>
      <trkpt lat="46.0494" lon="6.57764">
        <ele>879.904</ele>
        <time>2013-07-20T08:12:36Z</time>
      </trkpt>
      <trkpt lat="46.04934" lon="6.57791">
        <ele>881.638</ele>
        <time>2013-07-20T08:12:43Z</time>
      </trkpt>
      <trkpt lat="46.04926" lon="6.5781">
        <ele>882.916</ele>
        <time>2013-07-20T08:12:48Z</time>
      </trkpt>
      <trkpt lat="46.04926" lon="6.5782">
        <ele>883.544</ele>
        <time>2013-07-20T08:12:51Z</time>
      </trkpt>
      <trkpt lat="46.04921" lon="6.57833">
        <ele>884.589</ele>
        <time>2013-07-20T08:12:55Z</time>
      </trkpt>
      <trkpt lat="46.04908" lon="6.57853">
        <ele>886.524</ele>
        <time>2013-07-20T08:13:02Z</time>
      </trkpt>
      <trkpt lat="46.04897" lon="6.57869">
        <ele>887.985</ele>
        <time>2013-07-20T08:13:08Z</time>
      </trkpt>
      <trkpt lat="46.04885" lon="6.57891">
        <ele>889.834</ele>
        <time>2013-07-20T08:13:16Z</time>
      </trkpt>
      <trkpt lat="46.04873" lon="6.57911">
        <ele>891.776</ele>
        <time>2013-07-20T08:13:23Z</time>
      </trkpt>
      <trkpt lat="46.04865" lon="6.57924">
        <ele>893.044</ele>
        <time>2013-07-20T08:13:28Z</time>
      </trkpt>
      <trkpt lat="46.04854" lon="6.57945">
        <ele>894.632</ele>
        <time>2013-07-20T08:13:35Z</time>
      </trkpt>
      <trkpt lat="46.04842" lon="6.57966">
        <ele>896.526</ele>
        <time>2013-07-20T08:13:42Z</time>
      </trkpt>
      <trkpt lat="46.04823" lon="6.57988">
        <ele>898.754</ele>
        <time>2013-07-20T08:13:50Z</time>
      </trkpt>
      <trkpt lat="46.04804" lon="6.58001">
        <ele>900.628</ele>
        <time>2013-07-20T08:13:57Z</time>
      </trkpt>
      <trkpt lat="46.04781" lon="6.58007">
        <ele>901.675</ele>
        <time>2013-07-20T08:14:04Z</time>
      </trkpt>
      <trkpt lat="46.04752" lon="6.58012">
        <ele>903.218</ele>
        <time>2013-07-20T08:14:13Z</time>
      </trkpt>
      <trkpt lat="46.04735" lon="6.58024">
        <ele>904.059</ele>
        <time>2013-07-20T08:14:18Z</time>
      </trkpt>
      <trkpt lat="46.04717" lon="6.58049">
        <ele>905.398</ele>
        <time>2013-07-20T08:14:24Z</time>
      </trkpt>
      <trkpt lat="46.04699" lon="6.58076">
        <ele>907.088</ele>
        <time>2013-07-20T08:14:31Z</time>
      </trkpt>
      <trkpt lat="46.04685" lon="6.58094">
        <ele>908.268</ele>
        <time>2013-07-20T08:14:36Z</time>
      </trkpt>
      <trkpt lat="46.04673" lon="6.58095">
        <ele>909.257</ele>
        <time>2013-07-20T08:14:40Z</time>
      </trkpt>
      <trkpt lat="46.04662" lon="6.58091">
        <ele>910.535</ele>
        <time>2013-07-20T08:14:45Z</time>
      </trkpt>
      <trkpt lat="46.04644" lon="6.58067">
        <ele>912.97</ele>
        <time>2013-07-20T08:14:54Z</time>
      </trkpt>
      <trkpt lat="46.04623" lon="6.58035">
        <ele>915.359</ele>
        <time>2013-07-20T08:15:04Z</time>
      </trkpt>
      <trkpt lat="46.0461" lon="6.57999">
        <ele>917.477</ele>
        <time>2013-07-20T08:15:13Z</time>
      </trkpt>
      <trkpt lat="46.04592" lon="6.57964">
        <ele>919.789</ele>
        <time>2013-07-20T08:15:22Z</time>
      </trkpt>
      <trkpt lat="46.04563" lon="6.57923">
        <ele>922.181</ele>
        <time>2013-07-20T08:15:33Z</time>
      </trkpt>
      <trkpt lat="46.04529" lon="6.57874">
        <ele>925.083</ele>
        <time>2013-07-20T08:15:44Z</time>
      </trkpt>
      <trkpt lat="46.04504" lon="6.57832">
        <ele>927.004</ele>
        <time>2013-07-20T08:15:54Z</time>
      </trkpt>
      <trkpt lat="46.04478" lon="6.57791">
        <ele>929.095</ele>
        <time>2013-07-20T08:16:04Z</time>
      </trkpt>
      <trkpt lat="46.04455" lon="6.57762">
        <ele>930.958</ele>
        <time>2013-07-20T08:16:12Z</time>
      </trkpt>
      <trkpt lat="46.04429" lon="6.57734">
        <ele>932.905</ele>
        <time>2013-07-20T08:16:20Z</time>
      </trkpt>
      <trkpt lat="46.04414" lon="6.57731">
        <ele>933.813</ele>
        <time>2013-07-20T08:16:24Z</time>
      </trkpt>
      <trkpt lat="46.04405" lon="6.57741">
        <ele>934.736</ele>
        <time>2013-07-20T08:16:27Z</time>
      </trkpt>
      <trkpt lat="46.04382" lon="6.57776">
        <ele>937.804</ele>
        <time>2013-07-20T08:16:36Z</time>
      </trkpt>
      <trkpt lat="46.04358" lon="6.57789">
        <ele>939.816</ele>
        <time>2013-07-20T08:16:44Z</time>
      </trkpt>
      <trkpt lat="46.04331" lon="6.57791">
        <ele>941.961</ele>
        <time>2013-07-20T08:16:53Z</time>
      </trkpt>
      <trkpt lat="46.04313" lon="6.57793">
        <ele>943.596</ele>
        <time>2013-07-20T08:16:59Z</time>
      </trkpt>
      <trkpt lat="46.0429" lon="6.57798">
        <ele>946.257</ele>
        <time>2013-07-20T08:17:08Z</time>
      </trkpt>
      <trkpt lat="46.04274" lon="6.57813">
        <ele>948.38</ele>
        <time>2013-07-20T08:17:16Z</time>
      </trkpt>
      <trkpt lat="46.04263" lon="6.57841">
        <ele>950.964</ele>
        <time>2013-07-20T08:17:25Z</time>
      </trkpt>
      <trkpt lat="46.04251" lon="6.57864">
        <ele>953.192</ele>
        <time>2013-07-20T08:17:33Z</time>
      </trkpt>
      <trkpt lat="46.04235" lon="6.57878">
        <ele>955.539</ele>
        <time>2013-07-20T08:17:41Z</time>
      </trkpt>
      <trkpt lat="46.04207" lon="6.57899">
        <ele>958.642</ele>
        <time>2013-07-20T08:17:54Z</time>
      </trkpt>
      <trkpt lat="46.04191" lon="6.57918">
        <ele>961.125</ele>
        <time>2013-07-20T08:18:03Z</time>
      </trkpt>
      <trkpt lat="46.04187" lon="6.57943">
        <ele>962.678</ele>
        <time>2013-07-20T08:18:10Z</time>
      </trkpt>
      <trkpt lat="46.04186" lon="6.5797">
        <ele>964.351</ele>
        <time>2013-07-20T08:18:17Z</time>
      </trkpt>
      <trkpt lat="46.04183" lon="6.58006">
        <ele>967.105</ele>
        <time>2013-07-20T08:18:26Z</time>
      </trkpt>
      <trkpt lat="46.04172" lon="6.58031">
        <ele>969.493</ele>
        <time>2013-07-20T08:18:33Z</time>
      </trkpt>
      <trkpt lat="46.04159" lon="6.58044">
        <ele>971.714</ele>
        <time>2013-07-20T08:18:40Z</time>
      </trkpt>
      <trkpt lat="46.04142" lon="6.58058">
        <ele>974.024</ele>
        <time>2013-07-20T08:18:49Z</time>
      </trkpt>
      <trkpt lat="46.04123" lon="6.58083">
        <ele>976.549</ele>
        <time>2013-07-20T08:19:00Z</time>
      </trkpt>
      <trkpt lat="46.0411" lon="6.58105">
        <ele>978.869</ele>
        <time>2013-07-20T08:19:09Z</time>
      </trkpt>
      <trkpt lat="46.04097" lon="6.58126">
        <ele>980.796</ele>
        <time>2013-07-20T08:19:18Z</time>
      </trkpt>
      <trkpt lat="46.04089" lon="6.58142">
        <ele>982.566</ele>
        <time>2013-07-20T08:19:25Z</time>
      </trkpt>
      <trkpt lat="46.04082" lon="6.58157">
        <ele>983.968</ele>
        <time>2013-07-20T08:19:31Z</time>
      </trkpt>
      <trkpt lat="46.04071" lon="6.58174">
        <ele>985.62</ele>
        <time>2013-07-20T08:19:37Z</time>
      </trkpt>
      <trkpt lat="46.04056" lon="6.58178">
        <ele>987.277</ele>
        <time>2013-07-20T08:19:43Z</time>
      </trkpt>
      <trkpt lat="46.0403" lon="6.58183">
        <ele>990.334</ele>
        <time>2013-07-20T08:19:54Z</time>
      </trkpt>
      <trkpt lat="46.04015" lon="6.582">
        <ele>992.249</ele>
        <time>2013-07-20T08:20:02Z</time>
      </trkpt>
      <trkpt lat="46.04009" lon="6.58214">
        <ele>993.365</ele>
        <time>2013-07-20T08:20:07Z</time>
      </trkpt>
      <trkpt lat="46.03994" lon="6.58238">
        <ele>995.101</ele>
        <time>2013-07-20T08:20:15Z</time>
      </trkpt>
      <trkpt lat="46.03976" lon="6.5825">
        <ele>997.381</ele>
        <time>2013-07-20T08:20:23Z</time>
      </trkpt>
      <trkpt lat="46.03958" lon="6.58255">
        <ele>999.602</ele>
        <time>2013-07-20T08:20:31Z</time>
      </trkpt>
      <trkpt lat="46.03943" lon="6.58265">
        <ele>1001.459</ele>
        <time>2013-07-20T08:20:38Z</time>
      </trkpt>
      <trkpt lat="46.03929" lon="6.5828">
        <ele>1003.293</ele>
        <time>2013-07-20T08:20:45Z</time>
      </trkpt>
      <trkpt lat="46.03919" lon="6.58289">
        <ele>1004.508</ele>
        <time>2013-07-20T08:20:51Z</time>
      </trkpt>
      <trkpt lat="46.03908" lon="6.58307">
        <ele>1006.464</ele>
        <time>2013-07-20T08:20:58Z</time>
      </trkpt>
      <trkpt lat="46.039" lon="6.58325">
        <ele>1008.134</ele>
        <time>2013-07-20T08:21:04Z</time>
      </trkpt>
      <trkpt lat="46.03886" lon="6.58338">
        <ele>1009.869</ele>
        <time>2013-07-20T08:21:10Z</time>
      </trkpt>
      <trkpt lat="46.03871" lon="6.58346">
        <ele>1011.376</ele>
        <time>2013-07-20T08:21:15Z</time>
      </trkpt>
      <trkpt lat="46.03849" lon="6.58353">
        <ele>1013.604</ele>
        <time>2013-07-20T08:21:22Z</time>
      </trkpt>
      <trkpt lat="46.03827" lon="6.58359">
        <ele>1015.913</ele>
        <time>2013-07-20T08:21:31Z</time>
      </trkpt>
      <trkpt lat="46.03799" lon="6.58356">
        <ele>1018.702</ele>
        <time>2013-07-20T08:21:42Z</time>
      </trkpt>
      <trkpt lat="46.03769" lon="6.58348">
        <ele>1021.76</ele>
        <time>2013-07-20T08:21:54Z</time>
      </trkpt>
      <trkpt lat="46.03746" lon="6.58342">
        <ele>1023.793</ele>
        <time>2013-07-20T08:22:03Z</time>
      </trkpt>
      <trkpt lat="46.0373" lon="6.58334">
        <ele>1025.008</ele>
        <time>2013-07-20T08:22:09Z</time>
      </trkpt>
      <trkpt lat="46.03721" lon="6.5832">
        <ele>1026.912</ele>
        <time>2013-07-20T08:22:14Z</time>
      </trkpt>
      <trkpt lat="46.03723" lon="6.58305">
        <ele>1028.132</ele>
        <time>2013-07-20T08:22:18Z</time>
      </trkpt>
      <trkpt lat="46.03736" lon="6.58294">
        <ele>1030.061</ele>
        <time>2013-07-20T08:22:23Z</time>
      </trkpt>
      <trkpt lat="46.03753" lon="6.58285">
        <ele>1032.019</ele>
        <time>2013-07-20T08:22:29Z</time>
      </trkpt>
      <trkpt lat="46.03772" lon="6.58265">
        <ele>1034.032</ele>
        <time>2013-07-20T08:22:38Z</time>
      </trkpt>
      <trkpt lat="46.03796" lon="6.58239">
        <ele>1037.185</ele>
        <time>2013-07-20T08:22:50Z</time>
      </trkpt>
      <trkpt lat="46.03815" lon="6.58223">
        <ele>1039.217</ele>
        <time>2013-07-20T08:22:59Z</time>
      </trkpt>
      <trkpt lat="46.03834" lon="6.58206">
        <ele>1041.551</ele>
        <time>2013-07-20T08:23:08Z</time>
      </trkpt>
      <trkpt lat="46.03841" lon="6.58191">
        <ele>1042.788</ele>
        <time>2013-07-20T08:23:14Z</time>
      </trkpt>
      <trkpt lat="46.03842" lon="6.58184">
        <ele>1043.377</ele>
        <time>2013-07-20T08:23:16Z</time>
      </trkpt>
      <trkpt lat="46.03837" lon="6.58169">
        <ele>1044.622</ele>
        <time>2013-07-20T08:23:21Z</time>
      </trkpt>
      <trkpt lat="46.03826" lon="6.5816">
        <ele>1046.116</ele>
        <time>2013-07-20T08:23:26Z</time>
      </trkpt>
      <trkpt lat="46.03812" lon="6.58161">
        <ele>1047.635</ele>
        <time>2013-07-20T08:23:31Z</time>
      </trkpt>
      <trkpt lat="46.03794" lon="6.58167">
        <ele>1049.197</ele>
        <time>2013-07-20T08:23:37Z</time>
      </trkpt>
      <trkpt lat="46.03777" lon="6.58172">
        <ele>1051.29</ele>
        <time>2013-07-20T08:23:44Z</time>
      </trkpt>
      <trkpt lat="46.03757" lon="6.58183">
        <ele>1053.077</ele>
        <time>2013-07-20T08:23:52Z</time>
      </trkpt>
      <trkpt lat="46.03743" lon="6.58191">
        <ele>1054.795</ele>
        <time>2013-07-20T08:23:58Z</time>
      </trkpt>
      <trkpt lat="46.03723" lon="6.58199">
        <ele>1056.774</ele>
        <time>2013-07-20T08:24:06Z</time>
      </trkpt>
      <trkpt lat="46.03704" lon="6.58209">
        <ele>1058.655</ele>
        <time>2013-07-20T08:24:14Z</time>
      </trkpt>
      <trkpt lat="46.03684" lon="6.58219">
        <ele>1060.982</ele>
        <time>2013-07-20T08:24:23Z</time>
      </trkpt>
      <trkpt lat="46.03667" lon="6.58228">
        <ele>1062.959</ele>
        <time>2013-07-20T08:24:30Z</time>
      </trkpt>
      <trkpt lat="46.03651" lon="6.58235">
        <ele>1064.943</ele>
        <time>2013-07-20T08:24:37Z</time>
      </trkpt>
      <trkpt lat="46.03637" lon="6.5824">
        <ele>1066.301</ele>
        <time>2013-07-20T08:24:43Z</time>
      </trkpt>
      <trkpt lat="46.03621" lon="6.58247">
        <ele>1068.29</ele>
        <time>2013-07-20T08:24:50Z</time>
      </trkpt>
      <trkpt lat="46.03605" lon="6.58244">
        <ele>1070.329</ele>
        <time>2013-07-20T08:24:57Z</time>
      </trkpt>
      <trkpt lat="46.03583" lon="6.58242">
        <ele>1072.642</ele>
        <time>2013-07-20T08:25:06Z</time>
      </trkpt>
      <trkpt lat="46.0356" lon="6.5824">
        <ele>1075.227</ele>
        <time>2013-07-20T08:25:15Z</time>
      </trkpt>
      <trkpt lat="46.03541" lon="6.58248">
        <ele>1077.057</ele>
        <time>2013-07-20T08:25:23Z</time>
      </trkpt>
      <trkpt lat="46.03521" lon="6.58262">
        <ele>1079.014</ele>
        <time>2013-07-20T08:25:31Z</time>
      </trkpt>
      <trkpt lat="46.03506" lon="6.58275">
        <ele>1081.08</ele>
        <time>2013-07-20T08:25:38Z</time>
      </trkpt>
      <trkpt lat="46.03494" lon="6.58288">
        <ele>1082.677</ele>
        <time>2013-07-20T08:25:44Z</time>
      </trkpt>
      <trkpt lat="46.03477" lon="6.58304">
        <ele>1084.731</ele>
        <time>2013-07-20T08:25:52Z</time>
      </trkpt>
      <trkpt lat="46.03466" lon="6.58313">
        <ele>1086.108</ele>
        <time>2013-07-20T08:25:57Z</time>
      </trkpt>
      <trkpt lat="46.03456" lon="6.5833">
        <ele>1087.809</ele>
        <time>2013-07-20T08:26:04Z</time>
      </trkpt>
      <trkpt lat="46.03447" lon="6.58344">
        <ele>1089.2</ele>
        <time>2013-07-20T08:26:09Z</time>
      </trkpt>
      <trkpt lat="46.03435" lon="6.5837">
        <ele>1091.511</ele>
        <time>2013-07-20T08:26:18Z</time>
      </trkpt>
      <trkpt lat="46.03426" lon="6.58395">
        <ele>1093.442</ele>
        <time>2013-07-20T08:26:26Z</time>
      </trkpt>
      <trkpt lat="46.03417" lon="6.58431">
        <ele>1095.712</ele>
        <time>2013-07-20T08:26:36Z</time>
      </trkpt>
      <trkpt lat="46.03412" lon="6.58447">
        <ele>1096.801</ele>
        <time>2013-07-20T08:26:41Z</time>
      </trkpt>
      <trkpt lat="46.03404" lon="6.58463">
        <ele>1098.31</ele>
        <time>2013-07-20T08:26:46Z</time>
      </trkpt>
      <trkpt lat="46.03391" lon="6.58466">
        <ele>1099.961</ele>
        <time>2013-07-20T08:26:51Z</time>
      </trkpt>
      <trkpt lat="46.03382" lon="6.58452">
        <ele>1101.706</ele>
        <time>2013-07-20T08:26:55Z</time>
      </trkpt>
      <trkpt lat="46.03379" lon="6.58438">
        <ele>1102.728</ele>
        <time>2013-07-20T08:26:58Z</time>
      </trkpt>
      <trkpt lat="46.0339" lon="6.58418">
        <ele>1104.892</ele>
        <time>2013-07-20T08:27:04Z</time>
      </trkpt>
      <trkpt lat="46.03392" lon="6.58415">
        <ele>1105.187</ele>
        <time>2013-07-20T08:27:05Z</time>
      </trkpt>
      <trkpt lat="46.03401" lon="6.58391">
        <ele>1107.01</ele>
        <time>2013-07-20T08:27:12Z</time>
      </trkpt>
      <trkpt lat="46.03407" lon="6.58372">
        <ele>1108.119</ele>
        <time>2013-07-20T08:27:18Z</time>
      </trkpt>
      <trkpt lat="46.03414" lon="6.58347">
        <ele>1109.782</ele>
        <time>2013-07-20T08:27:25Z</time>
      </trkpt>
      <trkpt lat="46.03419" lon="6.58323">
        <ele>1111.926</ele>
        <time>2013-07-20T08:27:33Z</time>
      </trkpt>
      <trkpt lat="46.03425" lon="6.58292">
        <ele>1114.208</ele>
        <time>2013-07-20T08:27:42Z</time>
      </trkpt>
      <trkpt lat="46.03429" lon="6.58267">
        <ele>1116.262</ele>
        <time>2013-07-20T08:27:50Z</time>
      </trkpt>
      <trkpt lat="46.03434" lon="6.5824">
        <ele>1118.277</ele>
        <time>2013-07-20T08:27:58Z</time>
      </trkpt>
      <trkpt lat="46.03439" lon="6.58213">
        <ele>1120.226</ele>
        <time>2013-07-20T08:28:06Z</time>
      </trkpt>
      <trkpt lat="46.03446" lon="6.58193">
        <ele>1121.951</ele>
        <time>2013-07-20T08:28:13Z</time>
      </trkpt>
      <trkpt lat="46.03452" lon="6.58167">
        <ele>1124.114</ele>
        <time>2013-07-20T08:28:21Z</time>
      </trkpt>
      <trkpt lat="46.03459" lon="6.58147">
        <ele>1125.964</ele>
        <time>2013-07-20T08:28:28Z</time>
      </trkpt>
      <trkpt lat="46.03466" lon="6.58126">
        <ele>1127.659</ele>
        <time>2013-07-20T08:28:35Z</time>
      </trkpt>
      <trkpt lat="46.03476" lon="6.58096">
        <ele>1129.916</ele>
        <time>2013-07-20T08:28:45Z</time>
      </trkpt>
      <trkpt lat="46.03486" lon="6.58072">
        <ele>1132.148</ele>
        <time>2013-07-20T08:28:53Z</time>
      </trkpt>
      <trkpt lat="46.035" lon="6.58057">
        <ele>1134.109</ele>
        <time>2013-07-20T08:29:01Z</time>
      </trkpt>
      <trkpt lat="46.03515" lon="6.58053">
        <ele>1135.644</ele>
        <time>2013-07-20T08:29:07Z</time>
      </trkpt>
      <trkpt lat="46.03535" lon="6.58047">
        <ele>1137.723</ele>
        <time>2013-07-20T08:29:15Z</time>
      </trkpt>
      <trkpt lat="46.03556" lon="6.58042">
        <ele>1139.977</ele>
        <time>2013-07-20T08:29:23Z</time>
      </trkpt>
      <trkpt lat="46.03578" lon="6.58037">
        <ele>1142.276</ele>
        <time>2013-07-20T08:29:32Z</time>
      </trkpt>
      <trkpt lat="46.03605" lon="6.58029">
        <ele>1145.075</ele>
        <time>2013-07-20T08:29:44Z</time>
      </trkpt>
      <trkpt lat="46.03631" lon="6.58017">
        <ele>1147.941</ele>
        <time>2013-07-20T08:29:55Z</time>
      </trkpt>
      <trkpt lat="46.03655" lon="6.58001">
        <ele>1150.414</ele>
        <time>2013-07-20T08:30:06Z</time>
      </trkpt>
      <trkpt lat="46.03672" lon="6.57984">
        <ele>1152.638</ele>
        <time>2013-07-20T08:30:15Z</time>
      </trkpt>
      <trkpt lat="46.0369" lon="6.57964">
        <ele>1154.866</ele>
        <time>2013-07-20T08:30:25Z</time>
      </trkpt>
      <trkpt lat="46.03709" lon="6.57943">
        <ele>1157.177</ele>
        <time>2013-07-20T08:30:35Z</time>
      </trkpt>
      <trkpt lat="46.03727" lon="6.57926">
        <ele>1159.384</ele>
        <time>2013-07-20T08:30:44Z</time>
      </trkpt>
      <trkpt lat="46.03744" lon="6.57919">
        <ele>1161.432</ele>
        <time>2013-07-20T08:30:52Z</time>
      </trkpt>
      <trkpt lat="46.03765" lon="6.57914">
        <ele>1163.843</ele>
        <time>2013-07-20T08:31:01Z</time>
      </trkpt>
      <trkpt lat="46.0377" lon="6.579">
        <ele>1164.736</ele>
        <time>2013-07-20T08:31:06Z</time>
      </trkpt>
      <trkpt lat="46.03768" lon="6.57882">
        <ele>1166.237</ele>
        <time>2013-07-20T08:31:11Z</time>
      </trkpt>
      <trkpt lat="46.03759" lon="6.57875">
        <ele>1167.495</ele>
        <time>2013-07-20T08:31:15Z</time>
      </trkpt>
      <trkpt lat="46.03745" lon="6.57877">
        <ele>1169.085</ele>
        <time>2013-07-20T08:31:20Z</time>
      </trkpt>
      <trkpt lat="46.03719" lon="6.57885">
        <ele>1171.373</ele>
        <time>2013-07-20T08:31:29Z</time>
      </trkpt>
      <trkpt lat="46.03695" lon="6.57885">
        <ele>1173.91</ele>
        <time>2013-07-20T08:31:38Z</time>
      </trkpt>
      <trkpt lat="46.03677" lon="6.57885">
        <ele>1176.094</ele>
        <time>2013-07-20T08:31:46Z</time>
      </trkpt>
      <trkpt lat="46.03655" lon="6.57885">
        <ele>1178.507</ele>
        <time>2013-07-20T08:31:55Z</time>
      </trkpt>
      <trkpt lat="46.03626" lon="6.57883">
        <ele>1181.226</ele>
        <time>2013-07-20T08:32:07Z</time>
      </trkpt>
      <trkpt lat="46.03603" lon="6.57881">
        <ele>1183.767</ele>
        <time>2013-07-20T08:32:17Z</time>
      </trkpt>
      <trkpt lat="46.03582" lon="6.5788">
        <ele>1186.076</ele>
        <time>2013-07-20T08:32:26Z</time>
      </trkpt>
      <trkpt lat="46.03564" lon="6.57873">
        <ele>1188.39</ele>
        <time>2013-07-20T08:32:34Z</time>
      </trkpt>
      <trkpt lat="46.03541" lon="6.57862">
        <ele>1190.746</ele>
        <time>2013-07-20T08:32:44Z</time>
      </trkpt>
      <trkpt lat="46.03521" lon="6.57858">
        <ele>1192.959</ele>
        <time>2013-07-20T08:32:53Z</time>
      </trkpt>
      <trkpt lat="46.03499" lon="6.57854">
        <ele>1195.029</ele>
        <time>2013-07-20T08:33:02Z</time>
      </trkpt>
      <trkpt lat="46.03481" lon="6.57845">
        <ele>1197.362</ele>
        <time>2013-07-20T08:33:10Z</time>
      </trkpt>
      <trkpt lat="46.03458" lon="6.57836">
        <ele>1199.688</ele>
        <time>2013-07-20T08:33:20Z</time>
      </trkpt>
      <trkpt lat="46.03437" lon="6.5783">
        <ele>1202.126</ele>
        <time>2013-07-20T08:33:29Z</time>
      </trkpt>
      <trkpt lat="46.0341" lon="6.57831">
        <ele>1204.722</ele>
        <time>2013-07-20T08:33:40Z</time>
      </trkpt>
      <trkpt lat="46.03389" lon="6.57841">
        <ele>1206.907</ele>
        <time>2013-07-20T08:33:49Z</time>
      </trkpt>
      <trkpt lat="46.03374" lon="6.57845">
        <ele>1208.188</ele>
        <time>2013-07-20T08:33:55Z</time>
      </trkpt>
      <trkpt lat="46.03365" lon="6.57831">
        <ele>1209.622</ele>
        <time>2013-07-20T08:34:00Z</time>
      </trkpt>
      <trkpt lat="46.03365" lon="6.57812">
        <ele>1211.425</ele>
        <time>2013-07-20T08:34:05Z</time>
      </trkpt>
      <trkpt lat="46.03375" lon="6.578">
        <ele>1213.042</ele>
        <time>2013-07-20T08:34:10Z</time>
      </trkpt>
      <trkpt lat="46.03393" lon="6.57789">
        <ele>1215.104</ele>
        <time>2013-07-20T08:34:18Z</time>
      </trkpt>
      <trkpt lat="46.03415" lon="6.57778">
        <ele>1217.59</ele>
        <time>2013-07-20T08:34:28Z</time>
      </trkpt>
      <trkpt lat="46.03433" lon="6.57768">
        <ele>1219.539</ele>
        <time>2013-07-20T08:34:37Z</time>
      </trkpt>
      <trkpt lat="46.03449" lon="6.57759">
        <ele>1221.506</ele>
        <time>2013-07-20T08:34:45Z</time>
      </trkpt>
      <trkpt lat="46.03469" lon="6.57749">
        <ele>1223.379</ele>
        <time>2013-07-20T08:34:53Z</time>
      </trkpt>
      <trkpt lat="46.03492" lon="6.57738">
        <ele>1225.88</ele>
        <time>2013-07-20T08:35:02Z</time>
      </trkpt>
      <trkpt lat="46.03509" lon="6.5773">
        <ele>1228.091</ele>
        <time>2013-07-20T08:35:09Z</time>
      </trkpt>
      <trkpt lat="46.03536" lon="6.57715">
        <ele>1231.225</ele>
        <time>2013-07-20T08:35:22Z</time>
      </trkpt>
      <trkpt lat="46.03558" lon="6.57703">
        <ele>1234.155</ele>
        <time>2013-07-20T08:35:33Z</time>
      </trkpt>
      <trkpt lat="46.03575" lon="6.57692">
        <ele>1236.45</ele>
        <time>2013-07-20T08:35:42Z</time>
      </trkpt>
      <trkpt lat="46.03597" lon="6.57679">
        <ele>1238.856</ele>
        <time>2013-07-20T08:35:52Z</time>
      </trkpt>
      <trkpt lat="46.03619" lon="6.57668">
        <ele>1240.73</ele>
        <time>2013-07-20T08:36:01Z</time>
      </trkpt>
      <trkpt lat="46.03642" lon="6.57667">
        <ele>1242.376</ele>
        <time>2013-07-20T08:36:09Z</time>
      </trkpt>
      <trkpt lat="46.03658" lon="6.57664">
        <ele>1243.631</ele>
        <time>2013-07-20T08:36:15Z</time>
      </trkpt>
      <trkpt lat="46.03667" lon="6.57649">
        <ele>1244.746</ele>
        <time>2013-07-20T08:36:20Z</time>
      </trkpt>
      <trkpt lat="46.03666" lon="6.57634">
        <ele>1245.527</ele>
        <time>2013-07-20T08:36:24Z</time>
      </trkpt>
      <trkpt lat="46.03655" lon="6.57623">
        <ele>1246.79</ele>
        <time>2013-07-20T08:36:29Z</time>
      </trkpt>
      <trkpt lat="46.03636" lon="6.57621">
        <ele>1248.425</ele>
        <time>2013-07-20T08:36:35Z</time>
      </trkpt>
      <trkpt lat="46.03603" lon="6.57631">
        <ele>1251.25</ele>
        <time>2013-07-20T08:36:46Z</time>
      </trkpt>
      <trkpt lat="46.03567" lon="6.57633">
        <ele>1253.724</ele>
        <time>2013-07-20T08:36:58Z</time>
      </trkpt>
      <trkpt lat="46.03542" lon="6.57628">
        <ele>1255.743</ele>
        <time>2013-07-20T08:37:07Z</time>
      </trkpt>
      <trkpt lat="46.0352" lon="6.57625">
        <ele>1257.632</ele>
        <time>2013-07-20T08:37:15Z</time>
      </trkpt>
      <trkpt lat="46.03498" lon="6.57624">
        <ele>1259.535</ele>
        <time>2013-07-20T08:37:23Z</time>
      </trkpt>
      <trkpt lat="46.03465" lon="6.57621">
        <ele>1262.439</ele>
        <time>2013-07-20T08:37:35Z</time>
      </trkpt>
      <trkpt lat="46.03429" lon="6.57617">
        <ele>1265.612</ele>
        <time>2013-07-20T08:37:48Z</time>
      </trkpt>
      <trkpt lat="46.03397" lon="6.5761">
        <ele>1268.463</ele>
        <time>2013-07-20T08:38:00Z</time>
      </trkpt>
      <trkpt lat="46.03369" lon="6.57605">
        <ele>1270.592</ele>
        <time>2013-07-20T08:38:10Z</time>
      </trkpt>
      <trkpt lat="46.03341" lon="6.57603">
        <ele>1272.908</ele>
        <time>2013-07-20T08:38:20Z</time>
      </trkpt>
      <trkpt lat="46.03315" lon="6.57596">
        <ele>1275.559</ele>
        <time>2013-07-20T08:38:30Z</time>
      </trkpt>
      <trkpt lat="46.03287" lon="6.57595">
        <ele>1277.501</ele>
        <time>2013-07-20T08:38:41Z</time>
      </trkpt>
      <trkpt lat="46.03261" lon="6.57605">
        <ele>1280.077</ele>
        <time>2013-07-20T08:38:52Z</time>
      </trkpt>
      <trkpt lat="46.03236" lon="6.5762">
        <ele>1282.433</ele>
        <time>2013-07-20T08:39:03Z</time>
      </trkpt>
      <trkpt lat="46.03217" lon="6.57638">
        <ele>1284.123</ele>
        <time>2013-07-20T08:39:10Z</time>
      </trkpt>
      <trkpt lat="46.03197" lon="6.57648">
        <ele>1285.642</ele>
        <time>2013-07-20T08:39:16Z</time>
      </trkpt>
      <trkpt lat="46.03177" lon="6.57648">
        <ele>1287.337</ele>
        <time>2013-07-20T08:39:22Z</time>
      </trkpt>
      <trkpt lat="46.0315" lon="6.57638">
        <ele>1289.401</ele>
        <time>2013-07-20T08:39:30Z</time>
      </trkpt>
      <trkpt lat="46.03125" lon="6.57629">
        <ele>1291.62</ele>
        <time>2013-07-20T08:39:38Z</time>
      </trkpt>
      <trkpt lat="46.03118" lon="6.57626">
        <ele>1292.159</ele>
        <time>2013-07-20T08:39:43Z</time>
      </trkpt>
      <trkpt lat="46.03116" lon="6.57626">
        <ele>1292.437</ele>
        <time>2013-07-20T08:39:45Z</time>
      </trkpt>
      <trkpt lat="46.03107" lon="6.57625">
        <ele>1292.68</ele>
        <time>2013-07-20T08:39:51Z</time>
      </trkpt>
      <trkpt lat="46.03104" lon="6.57624">
        <ele>1292.84</ele>
        <time>2013-07-20T08:39:55Z</time>
      </trkpt>
      <trkpt lat="46.03104" lon="6.57624">
        <ele>1292.907</ele>
        <time>2013-07-20T08:39:56Z</time>
      </trkpt>
      <trkpt lat="46.03098" lon="6.57622">
        <ele>1293.288</ele>
        <time>2013-07-20T08:40:10Z</time>
      </trkpt>
      <trkpt lat="46.03094" lon="6.5762">
        <ele>1293.548</ele>
        <time>2013-07-20T08:40:16Z</time>
      </trkpt>
      <trkpt lat="46.0309" lon="6.57589">
        <ele>1298.109</ele>
        <time>2013-07-20T08:47:15Z</time>
      </trkpt>
      <trkpt lat="46.03087" lon="6.57587">
        <ele>1298.337</ele>
        <time>2013-07-20T08:47:21Z</time>
      </trkpt>
      <trkpt lat="46.03083" lon="6.57581">
        <ele>1298.461</ele>
        <time>2013-07-20T08:47:25Z</time>
      </trkpt>
      <trkpt lat="46.03065" lon="6.57561">
        <ele>1299.38</ele>
        <time>2013-07-20T08:47:35Z</time>
      </trkpt>
      <trkpt lat="46.03056" lon="6.57548">
        <ele>1299.936</ele>
        <time>2013-07-20T08:47:42Z</time>
      </trkpt>
      <trkpt lat="46.03048" lon="6.57534">
        <ele>1300.387</ele>
        <time>2013-07-20T08:47:47Z</time>
      </trkpt>
      <trkpt lat="46.03038" lon="6.57515">
        <ele>1300.836</ele>
        <time>2013-07-20T08:47:53Z</time>
      </trkpt>
      <trkpt lat="46.03024" lon="6.57487">
        <ele>1301.788</ele>
        <time>2013-07-20T08:48:01Z</time>
      </trkpt>
      <trkpt lat="46.03006" lon="6.57456">
        <ele>1302.774</ele>
        <time>2013-07-20T08:48:10Z</time>
      </trkpt>
      <trkpt lat="46.02995" lon="6.57433">
        <ele>1303.269</ele>
        <time>2013-07-20T08:48:16Z</time>
      </trkpt>
      <trkpt lat="46.0299" lon="6.574">
        <ele>1302.986</ele>
        <time>2013-07-20T08:48:22Z</time>
      </trkpt>
      <trkpt lat="46.02981" lon="6.5736">
        <ele>1302.399</ele>
        <time>2013-07-20T08:48:28Z</time>
      </trkpt>
      <trkpt lat="46.02968" lon="6.57314">
        <ele>1301.13</ele>
        <time>2013-07-20T08:48:34Z</time>
      </trkpt>
      <trkpt lat="46.02961" lon="6.5729">
        <ele>1299.926</ele>
        <time>2013-07-20T08:48:37Z</time>
      </trkpt>
      <trkpt lat="46.02947" lon="6.57275">
        <ele>1298.184</ele>
        <time>2013-07-20T08:48:41Z</time>
      </trkpt>
      <trkpt lat="46.02933" lon="6.57286">
        <ele>1297.761</ele>
        <time>2013-07-20T08:48:45Z</time>
      </trkpt>
      <trkpt lat="46.02931" lon="6.57289">
        <ele>1297.668</ele>
        <time>2013-07-20T08:48:46Z</time>
      </trkpt>
      <trkpt lat="46.02911" lon="6.57309">
        <ele>1297.482</ele>
        <time>2013-07-20T08:48:54Z</time>
      </trkpt>
      <trkpt lat="46.02894" lon="6.57315">
        <ele>1297.981</ele>
        <time>2013-07-20T08:48:59Z</time>
      </trkpt>
      <trkpt lat="46.02881" lon="6.57315">
        <ele>1299.143</ele>
        <time>2013-07-20T08:49:04Z</time>
      </trkpt>
      <trkpt lat="46.02862" lon="6.57315">
        <ele>1301.063</ele>
        <time>2013-07-20T08:49:10Z</time>
      </trkpt>
      <trkpt lat="46.02853" lon="6.57316">
        <ele>1302.271</ele>
        <time>2013-07-20T08:49:13Z</time>
      </trkpt>
      <trkpt lat="46.0285" lon="6.57317">
        <ele>1302.511</ele>
        <time>2013-07-20T08:49:14Z</time>
      </trkpt>
      <trkpt lat="46.02836" lon="6.57322">
        <ele>1304.735</ele>
        <time>2013-07-20T08:49:19Z</time>
      </trkpt>
      <trkpt lat="46.02828" lon="6.57324">
        <ele>1305.597</ele>
        <time>2013-07-20T08:49:22Z</time>
      </trkpt>
      <trkpt lat="46.02811" lon="6.57322">
        <ele>1307.168</ele>
        <time>2013-07-20T08:49:28Z</time>
      </trkpt>
      <trkpt lat="46.02795" lon="6.57319">
        <ele>1309.262</ele>
        <time>2013-07-20T08:49:33Z</time>
      </trkpt>
      <trkpt lat="46.02783" lon="6.57323">
        <ele>1310.602</ele>
        <time>2013-07-20T08:49:38Z</time>
      </trkpt>
      <trkpt lat="46.02767" lon="6.57332">
        <ele>1311.618</ele>
        <time>2013-07-20T08:49:44Z</time>
      </trkpt>
      <trkpt lat="46.02745" lon="6.57343">
        <ele>1312.183</ele>
        <time>2013-07-20T08:49:52Z</time>
      </trkpt>
      <trkpt lat="46.02715" lon="6.57356">
        <ele>1312.269</ele>
        <time>2013-07-20T08:50:00Z</time>
      </trkpt>
      <trkpt lat="46.02689" lon="6.57369">
        <ele>1312.698</ele>
        <time>2013-07-20T08:50:07Z</time>
      </trkpt>
      <trkpt lat="46.02656" lon="6.5739">
        <ele>1312.611</ele>
        <time>2013-07-20T08:50:15Z</time>
      </trkpt>
      <trkpt lat="46.02628" lon="6.57404">
        <ele>1312.454</ele>
        <time>2013-07-20T08:50:21Z</time>
      </trkpt>
      <trkpt lat="46.02598" lon="6.57414">
        <ele>1312.747</ele>
        <time>2013-07-20T08:50:27Z</time>
      </trkpt>
      <trkpt lat="46.02578" lon="6.5742">
        <ele>1312.924</ele>
        <time>2013-07-20T08:50:31Z</time>
      </trkpt>
      <trkpt lat="46.02559" lon="6.57429">
        <ele>1313.191</ele>
        <time>2013-07-20T08:50:35Z</time>
      </trkpt>
      <trkpt lat="46.02516" lon="6.57439">
        <ele>1313.272</ele>
        <time>2013-07-20T08:50:43Z</time>
      </trkpt>
      <trkpt lat="46.02501" lon="6.5744">
        <ele>1313.334</ele>
        <time>2013-07-20T08:50:46Z</time>
      </trkpt>
      <trkpt lat="46.02435" lon="6.57439">
        <ele>1314.307</ele>
        <time>2013-07-20T08:50:59Z</time>
      </trkpt>
      <trkpt lat="46.0239" lon="6.57437">
        <ele>1315.141</ele>
        <time>2013-07-20T08:51:08Z</time>
      </trkpt>
      <trkpt lat="46.02366" lon="6.57434">
        <ele>1315.474</ele>
        <time>2013-07-20T08:51:13Z</time>
      </trkpt>
      <trkpt lat="46.02343" lon="6.5742">
        <ele>1315.569</ele>
        <time>2013-07-20T08:51:18Z</time>
      </trkpt>
      <trkpt lat="46.02312" lon="6.57402">
        <ele>1316.418</ele>
        <time>2013-07-20T08:51:25Z</time>
      </trkpt>
      <trkpt lat="46.02305" lon="6.57394">
        <ele>1316.702</ele>
        <time>2013-07-20T08:51:29Z</time>
      </trkpt>
      <trkpt lat="46.02305" lon="6.57393">
        <ele>1316.662</ele>
        <time>2013-07-20T08:51:30Z</time>
      </trkpt>
      <trkpt lat="46.02297" lon="6.57386">
        <ele>1317.027</ele>
        <time>2013-07-20T08:52:14Z</time>
      </trkpt>
      <trkpt lat="46.02288" lon="6.57383">
        <ele>1317.016</ele>
        <time>2013-07-20T08:52:18Z</time>
      </trkpt>
      <trkpt lat="46.02281" lon="6.57383">
        <ele>1317.263</ele>
        <time>2013-07-20T08:52:20Z</time>
      </trkpt>
      <trkpt lat="46.02263" lon="6.57376">
        <ele>1317.773</ele>
        <time>2013-07-20T08:52:24Z</time>
      </trkpt>
      <trkpt lat="46.02234" lon="6.57358">
        <ele>1318.499</ele>
        <time>2013-07-20T08:52:30Z</time>
      </trkpt>
      <trkpt lat="46.02216" lon="6.57332">
        <ele>1318.925</ele>
        <time>2013-07-20T08:52:35Z</time>
      </trkpt>
      <trkpt lat="46.02197" lon="6.57287">
        <ele>1319.738</ele>
        <time>2013-07-20T08:52:42Z</time>
      </trkpt>
      <trkpt lat="46.02186" lon="6.57248">
        <ele>1320.784</ele>
        <time>2013-07-20T08:52:48Z</time>
      </trkpt>
      <trkpt lat="46.02183" lon="6.57199">
        <ele>1321.478</ele>
        <time>2013-07-20T08:52:55Z</time>
      </trkpt>
      <trkpt lat="46.02183" lon="6.57138">
        <ele>1322.559</ele>
        <time>2013-07-20T08:53:04Z</time>
      </trkpt>
      <trkpt lat="46.02179" lon="6.571">
        <ele>1323.075</ele>
        <time>2013-07-20T08:53:11Z</time>
      </trkpt>
      <trkpt lat="46.02172" lon="6.5706">
        <ele>1323.927</ele>
        <time>2013-07-20T08:53:18Z</time>
      </trkpt>
      <trkpt lat="46.02162" lon="6.5701">
        <ele>1324.678</ele>
        <time>2013-07-20T08:53:26Z</time>
      </trkpt>
      <trkpt lat="46.0215" lon="6.56944">
        <ele>1325.891</ele>
        <time>2013-07-20T08:53:36Z</time>
      </trkpt>
      <trkpt lat="46.02139" lon="6.5689">
        <ele>1326.207</ele>
        <time>2013-07-20T08:53:44Z</time>
      </trkpt>
      <trkpt lat="46.02129" lon="6.56865">
        <ele>1326.9</ele>
        <time>2013-07-20T08:53:48Z</time>
      </trkpt>
      <trkpt lat="46.02114" lon="6.56845">
        <ele>1327.316</ele>
        <time>2013-07-20T08:53:52Z</time>
      </trkpt>
      <trkpt lat="46.02098" lon="6.56817">
        <ele>1327.611</ele>
        <time>2013-07-20T08:53:57Z</time>
      </trkpt>
      <trkpt lat="46.02098" lon="6.56803">
        <ele>1327.675</ele>
        <time>2013-07-20T08:53:59Z</time>
      </trkpt>
      <trkpt lat="46.02092" lon="6.56755">
        <ele>1328.699</ele>
        <time>2013-07-20T08:54:06Z</time>
      </trkpt>
      <trkpt lat="46.0207" lon="6.56708">
        <ele>1329.763</ele>
        <time>2013-07-20T08:54:14Z</time>
      </trkpt>
      <trkpt lat="46.02067" lon="6.56702">
        <ele>1329.822</ele>
        <time>2013-07-20T08:54:15Z</time>
      </trkpt>
      <trkpt lat="46.0206" lon="6.56683">
        <ele>1330.38</ele>
        <time>2013-07-20T08:54:18Z</time>
      </trkpt>
      <trkpt lat="46.02044" lon="6.56661">
        <ele>1330.551</ele>
        <time>2013-07-20T08:54:23Z</time>
      </trkpt>
      <trkpt lat="46.0203" lon="6.56657">
        <ele>1330.345</ele>
        <time>2013-07-20T08:54:26Z</time>
      </trkpt>
      <trkpt lat="46.01993" lon="6.56657">
        <ele>1329.59</ele>
        <time>2013-07-20T08:54:32Z</time>
      </trkpt>
      <trkpt lat="46.01948" lon="6.56658">
        <ele>1327.928</ele>
        <time>2013-07-20T08:54:38Z</time>
      </trkpt>
      <trkpt lat="46.01923" lon="6.56657">
        <ele>1327.172</ele>
        <time>2013-07-20T08:54:41Z</time>
      </trkpt>
      <trkpt lat="46.01888" lon="6.56645">
        <ele>1325.628</ele>
        <time>2013-07-20T08:54:45Z</time>
      </trkpt>
      <trkpt lat="46.01864" lon="6.56634">
        <ele>1324.938</ele>
        <time>2013-07-20T08:54:48Z</time>
      </trkpt>
      <trkpt lat="46.01832" lon="6.56633">
        <ele>1324.107</ele>
        <time>2013-07-20T08:54:52Z</time>
      </trkpt>
      <trkpt lat="46.01787" lon="6.56614">
        <ele>1323.124</ele>
        <time>2013-07-20T08:54:57Z</time>
      </trkpt>
      <trkpt lat="46.01722" lon="6.56573">
        <ele>1321.369</ele>
        <time>2013-07-20T08:55:05Z</time>
      </trkpt>
      <trkpt lat="46.01708" lon="6.56561">
        <ele>1321.05</ele>
        <time>2013-07-20T08:55:07Z</time>
      </trkpt>
      <trkpt lat="46.01675" lon="6.56511">
        <ele>1319.378</ele>
        <time>2013-07-20T08:55:13Z</time>
      </trkpt>
      <trkpt lat="46.0167" lon="6.56502">
        <ele>1319.13</ele>
        <time>2013-07-20T08:55:14Z</time>
      </trkpt>
      <trkpt lat="46.01653" lon="6.56476">
        <ele>1318.616</ele>
        <time>2013-07-20T08:55:17Z</time>
      </trkpt>
      <trkpt lat="46.01634" lon="6.56429">
        <ele>1316.847</ele>
        <time>2013-07-20T08:55:21Z</time>
      </trkpt>
      <trkpt lat="46.0163" lon="6.56383">
        <ele>1315</ele>
        <time>2013-07-20T08:55:24Z</time>
      </trkpt>
      <trkpt lat="46.01632" lon="6.56349">
        <ele>1313.301</ele>
        <time>2013-07-20T08:55:26Z</time>
      </trkpt>
      <trkpt lat="46.01638" lon="6.56313">
        <ele>1311.521</ele>
        <time>2013-07-20T08:55:28Z</time>
      </trkpt>
      <trkpt lat="46.01643" lon="6.56217">
        <ele>1306.536</ele>
        <time>2013-07-20T08:55:33Z</time>
      </trkpt>
      <trkpt lat="46.01643" lon="6.56139">
        <ele>1302.37</ele>
        <time>2013-07-20T08:55:37Z</time>
      </trkpt>
      <trkpt lat="46.01636" lon="6.56097">
        <ele>1297.117</ele>
        <time>2013-07-20T08:55:40Z</time>
      </trkpt>
      <trkpt lat="46.01619" lon="6.56085">
        <ele>1294.473</ele>
        <time>2013-07-20T08:55:42Z</time>
      </trkpt>
      <trkpt lat="46.01608" lon="6.56081">
        <ele>1294.04</ele>
        <time>2013-07-20T08:55:43Z</time>
      </trkpt>
      <trkpt lat="46.01554" lon="6.56071">
        <ele>1289.554</ele>
        <time>2013-07-20T08:55:48Z</time>
      </trkpt>
      <trkpt lat="46.0149" lon="6.5604">
        <ele>1284.532</ele>
        <time>2013-07-20T08:55:53Z</time>
      </trkpt>
      <trkpt lat="46.01461" lon="6.56022">
        <ele>1280.716</ele>
        <time>2013-07-20T08:55:56Z</time>
      </trkpt>
      <trkpt lat="46.01457" lon="6.56007">
        <ele>1280.048</ele>
        <time>2013-07-20T08:55:57Z</time>
      </trkpt>
      <trkpt lat="46.01433" lon="6.55963">
        <ele>1275.425</ele>
        <time>2013-07-20T08:56:01Z</time>
      </trkpt>
      <trkpt lat="46.01399" lon="6.55956">
        <ele>1272.963</ele>
        <time>2013-07-20T08:56:04Z</time>
      </trkpt>
      <trkpt lat="46.01366" lon="6.55925">
        <ele>1269.082</ele>
        <time>2013-07-20T08:56:08Z</time>
      </trkpt>
      <trkpt lat="46.01359" lon="6.55877">
        <ele>1265.415</ele>
        <time>2013-07-20T08:56:11Z</time>
      </trkpt>
      <trkpt lat="46.01365" lon="6.55848">
        <ele>1263.02</ele>
        <time>2013-07-20T08:56:13Z</time>
      </trkpt>
      <trkpt lat="46.01384" lon="6.55825">
        <ele>1261.249</ele>
        <time>2013-07-20T08:56:15Z</time>
      </trkpt>
      <trkpt lat="46.01415" lon="6.55783">
        <ele>1257.043</ele>
        <time>2013-07-20T08:56:19Z</time>
      </trkpt>
      <trkpt lat="46.01437" lon="6.55781">
        <ele>1253.363</ele>
        <time>2013-07-20T08:56:22Z</time>
      </trkpt>
      <trkpt lat="46.0144" lon="6.55802">
        <ele>1251.516</ele>
        <time>2013-07-20T08:56:24Z</time>
      </trkpt>
      <trkpt lat="46.01432" lon="6.55821">
        <ele>1250.5</ele>
        <time>2013-07-20T08:56:26Z</time>
      </trkpt>
      <trkpt lat="46.0142" lon="6.55869">
        <ele>1248.568</ele>
        <time>2013-07-20T08:56:30Z</time>
      </trkpt>
      <trkpt lat="46.01447" lon="6.55883">
        <ele>1245.803</ele>
        <time>2013-07-20T08:56:34Z</time>
      </trkpt>
      <trkpt lat="46.01468" lon="6.55892">
        <ele>1244.406</ele>
        <time>2013-07-20T08:56:36Z</time>
      </trkpt>
      <trkpt lat="46.01488" lon="6.55877">
        <ele>1242.113</ele>
        <time>2013-07-20T08:56:39Z</time>
      </trkpt>
      <trkpt lat="46.01483" lon="6.55857">
        <ele>1240.823</ele>
        <time>2013-07-20T08:56:41Z</time>
      </trkpt>
      <trkpt lat="46.0147" lon="6.55848">
        <ele>1239.617</ele>
        <time>2013-07-20T08:56:43Z</time>
      </trkpt>
      <trkpt lat="46.01458" lon="6.55834">
        <ele>1238.564</ele>
        <time>2013-07-20T08:56:45Z</time>
      </trkpt>
      <trkpt lat="46.01459" lon="6.55808">
        <ele>1237.26</ele>
        <time>2013-07-20T08:56:47Z</time>
      </trkpt>
      <trkpt lat="46.01463" lon="6.55794">
        <ele>1236.354</ele>
        <time>2013-07-20T08:56:48Z</time>
      </trkpt>
      <trkpt lat="46.01471" lon="6.55714">
        <ele>1232.616</ele>
        <time>2013-07-20T08:56:53Z</time>
      </trkpt>
      <trkpt lat="46.01465" lon="6.55649">
        <ele>1226.918</ele>
        <time>2013-07-20T08:56:57Z</time>
      </trkpt>
      <trkpt lat="46.01455" lon="6.55588">
        <ele>1220.793</ele>
        <time>2013-07-20T08:57:02Z</time>
      </trkpt>
      <trkpt lat="46.0145" lon="6.5552">
        <ele>1215.702</ele>
        <time>2013-07-20T08:57:07Z</time>
      </trkpt>
      <trkpt lat="46.01458" lon="6.55464">
        <ele>1211.756</ele>
        <time>2013-07-20T08:57:11Z</time>
      </trkpt>
      <trkpt lat="46.01472" lon="6.55428">
        <ele>1209.064</ele>
        <time>2013-07-20T08:57:15Z</time>
      </trkpt>
      <trkpt lat="46.01493" lon="6.5542">
        <ele>1206.638</ele>
        <time>2013-07-20T08:57:19Z</time>
      </trkpt>
      <trkpt lat="46.01498" lon="6.55439">
        <ele>1205.572</ele>
        <time>2013-07-20T08:57:21Z</time>
      </trkpt>
      <trkpt lat="46.01491" lon="6.55469">
        <ele>1204.16</ele>
        <time>2013-07-20T08:57:24Z</time>
      </trkpt>
      <trkpt lat="46.01482" lon="6.55493">
        <ele>1202.183</ele>
        <time>2013-07-20T08:57:27Z</time>
      </trkpt>
      <trkpt lat="46.01483" lon="6.55515">
        <ele>1200.998</ele>
        <time>2013-07-20T08:57:31Z</time>
      </trkpt>
      <trkpt lat="46.01492" lon="6.55522">
        <ele>1200.409</ele>
        <time>2013-07-20T08:57:34Z</time>
      </trkpt>
      <trkpt lat="46.01505" lon="6.55514">
        <ele>1199.711</ele>
        <time>2013-07-20T08:57:37Z</time>
      </trkpt>
      <trkpt lat="46.01516" lon="6.55484">
        <ele>1198.585</ele>
        <time>2013-07-20T08:57:41Z</time>
      </trkpt>
      <trkpt lat="46.01518" lon="6.55476">
        <ele>1198.163</ele>
        <time>2013-07-20T08:57:42Z</time>
      </trkpt>
      <trkpt lat="46.01521" lon="6.55442">
        <ele>1196.69</ele>
        <time>2013-07-20T08:57:46Z</time>
      </trkpt>
      <trkpt lat="46.01515" lon="6.55402">
        <ele>1195.15</ele>
        <time>2013-07-20T08:57:50Z</time>
      </trkpt>
      <trkpt lat="46.01496" lon="6.5538">
        <ele>1193.205</ele>
        <time>2013-07-20T08:57:53Z</time>
      </trkpt>
      <trkpt lat="46.01481" lon="6.55359">
        <ele>1191.334</ele>
        <time>2013-07-20T08:57:56Z</time>
      </trkpt>
      <trkpt lat="46.01459" lon="6.55307">
        <ele>1187.356</ele>
        <time>2013-07-20T08:58:02Z</time>
      </trkpt>
      <trkpt lat="46.01452" lon="6.5529">
        <ele>1186.166</ele>
        <time>2013-07-20T08:58:04Z</time>
      </trkpt>
      <trkpt lat="46.01435" lon="6.55264">
        <ele>1183.371</ele>
        <time>2013-07-20T08:58:08Z</time>
      </trkpt>
      <trkpt lat="46.01429" lon="6.55261">
        <ele>1183.128</ele>
        <time>2013-07-20T08:58:09Z</time>
      </trkpt>
      <trkpt lat="46.01407" lon="6.55256">
        <ele>1181.478</ele>
        <time>2013-07-20T08:58:12Z</time>
      </trkpt>
      <trkpt lat="46.01375" lon="6.55238">
        <ele>1178.781</ele>
        <time>2013-07-20T08:58:16Z</time>
      </trkpt>
      <trkpt lat="46.01361" lon="6.5522">
        <ele>1177.273</ele>
        <time>2013-07-20T08:58:18Z</time>
      </trkpt>
      <trkpt lat="46.01334" lon="6.55168">
        <ele>1173.593</ele>
        <time>2013-07-20T08:58:23Z</time>
      </trkpt>
      <trkpt lat="46.01324" lon="6.55149">
        <ele>1171.86</ele>
        <time>2013-07-20T08:58:25Z</time>
      </trkpt>
      <trkpt lat="46.0132" lon="6.55118">
        <ele>1168.907</ele>
        <time>2013-07-20T08:58:29Z</time>
      </trkpt>
      <trkpt lat="46.01325" lon="6.55104">
        <ele>1167.718</ele>
        <time>2013-07-20T08:58:31Z</time>
      </trkpt>
      <trkpt lat="46.01333" lon="6.55086">
        <ele>1167.034</ele>
        <time>2013-07-20T08:58:33Z</time>
      </trkpt>
      <trkpt lat="46.01347" lon="6.55064">
        <ele>1165.648</ele>
        <time>2013-07-20T08:58:36Z</time>
      </trkpt>
      <trkpt lat="46.01359" lon="6.55013">
        <ele>1162.001</ele>
        <time>2013-07-20T08:58:41Z</time>
      </trkpt>
      <trkpt lat="46.0136" lon="6.55003">
        <ele>1161.089</ele>
        <time>2013-07-20T08:58:42Z</time>
      </trkpt>
      <trkpt lat="46.01376" lon="6.54931">
        <ele>1155.745</ele>
        <time>2013-07-20T08:58:49Z</time>
      </trkpt>
      <trkpt lat="46.0138" lon="6.54921">
        <ele>1154.928</ele>
        <time>2013-07-20T08:58:50Z</time>
      </trkpt>
      <trkpt lat="46.01391" lon="6.54896">
        <ele>1153.279</ele>
        <time>2013-07-20T08:58:53Z</time>
      </trkpt>
      <trkpt lat="46.01396" lon="6.54885">
        <ele>1152.77</ele>
        <time>2013-07-20T08:58:54Z</time>
      </trkpt>
      <trkpt lat="46.01404" lon="6.54849">
        <ele>1150.358</ele>
        <time>2013-07-20T08:58:57Z</time>
      </trkpt>
      <trkpt lat="46.01402" lon="6.54794">
        <ele>1147.28</ele>
        <time>2013-07-20T08:59:01Z</time>
      </trkpt>
      <trkpt lat="46.0139" lon="6.54758">
        <ele>1144.223</ele>
        <time>2013-07-20T08:59:04Z</time>
      </trkpt>
      <trkpt lat="46.0137" lon="6.54736">
        <ele>1141.783</ele>
        <time>2013-07-20T08:59:07Z</time>
      </trkpt>
      <trkpt lat="46.01343" lon="6.54733">
        <ele>1139.893</ele>
        <time>2013-07-20T08:59:10Z</time>
      </trkpt>
      <trkpt lat="46.01313" lon="6.54729">
        <ele>1137.519</ele>
        <time>2013-07-20T08:59:14Z</time>
      </trkpt>
      <trkpt lat="46.01311" lon="6.5469">
        <ele>1132.749</ele>
        <time>2013-07-20T08:59:18Z</time>
      </trkpt>
      <trkpt lat="46.01317" lon="6.54674">
        <ele>1131.358</ele>
        <time>2013-07-20T08:59:20Z</time>
      </trkpt>
      <trkpt lat="46.01324" lon="6.54658">
        <ele>1129.343</ele>
        <time>2013-07-20T08:59:22Z</time>
      </trkpt>
      <trkpt lat="46.01332" lon="6.54603">
        <ele>1124.99</ele>
        <time>2013-07-20T08:59:27Z</time>
      </trkpt>
      <trkpt lat="46.01332" lon="6.54569">
        <ele>1123.771</ele>
        <time>2013-07-20T08:59:30Z</time>
      </trkpt>
      <trkpt lat="46.01331" lon="6.54508">
        <ele>1122.353</ele>
        <time>2013-07-20T08:59:35Z</time>
      </trkpt>
      <trkpt lat="46.01319" lon="6.54458">
        <ele>1120.086</ele>
        <time>2013-07-20T08:59:39Z</time>
      </trkpt>
      <trkpt lat="46.01297" lon="6.54398">
        <ele>1115.168</ele>
        <time>2013-07-20T08:59:44Z</time>
      </trkpt>
      <trkpt lat="46.01282" lon="6.54364">
        <ele>1112.878</ele>
        <time>2013-07-20T08:59:47Z</time>
      </trkpt>
      <trkpt lat="46.01261" lon="6.54331">
        <ele>1111.393</ele>
        <time>2013-07-20T08:59:50Z</time>
      </trkpt>
      <trkpt lat="46.01233" lon="6.54279">
        <ele>1108.057</ele>
        <time>2013-07-20T08:59:54Z</time>
      </trkpt>
      <trkpt lat="46.01227" lon="6.54264">
        <ele>1107.186</ele>
        <time>2013-07-20T08:59:55Z</time>
      </trkpt>
      <trkpt lat="46.01193" lon="6.54229">
        <ele>1103.635</ele>
        <time>2013-07-20T08:59:59Z</time>
      </trkpt>
      <trkpt lat="46.01184" lon="6.54223">
        <ele>1102.156</ele>
        <time>2013-07-20T09:00:00Z</time>
      </trkpt>
      <trkpt lat="46.01157" lon="6.54202">
        <ele>1096.307</ele>
        <time>2013-07-20T09:00:05Z</time>
      </trkpt>
      <trkpt lat="46.0116" lon="6.54187">
        <ele>1094.934</ele>
        <time>2013-07-20T09:00:07Z</time>
      </trkpt>
      <trkpt lat="46.01173" lon="6.54186">
        <ele>1094.349</ele>
        <time>2013-07-20T09:00:09Z</time>
      </trkpt>
      <trkpt lat="46.01188" lon="6.5419">
        <ele>1093.483</ele>
        <time>2013-07-20T09:00:11Z</time>
      </trkpt>
      <trkpt lat="46.01251" lon="6.54217">
        <ele>1090.277</ele>
        <time>2013-07-20T09:00:18Z</time>
      </trkpt>
      <trkpt lat="46.01261" lon="6.5422">
        <ele>1089.709</ele>
        <time>2013-07-20T09:00:19Z</time>
      </trkpt>
      <trkpt lat="46.01304" lon="6.5422">
        <ele>1086.727</ele>
        <time>2013-07-20T09:00:23Z</time>
      </trkpt>
      <trkpt lat="46.01338" lon="6.54233">
        <ele>1082.485</ele>
        <time>2013-07-20T09:00:27Z</time>
      </trkpt>
      <trkpt lat="46.01343" lon="6.54243">
        <ele>1082.035</ele>
        <time>2013-07-20T09:00:28Z</time>
      </trkpt>
      <trkpt lat="46.01389" lon="6.54297">
        <ele>1077.695</ele>
        <time>2013-07-20T09:00:34Z</time>
      </trkpt>
      <trkpt lat="46.01425" lon="6.54333">
        <ele>1073.954</ele>
        <time>2013-07-20T09:00:38Z</time>
      </trkpt>
      <trkpt lat="46.01468" lon="6.54362">
        <ele>1068.941</ele>
        <time>2013-07-20T09:00:43Z</time>
      </trkpt>
      <trkpt lat="46.01477" lon="6.54354">
        <ele>1068</ele>
        <time>2013-07-20T09:00:44Z</time>
      </trkpt>
      <trkpt lat="46.01499" lon="6.54365">
        <ele>1066.347</ele>
        <time>2013-07-20T09:00:46Z</time>
      </trkpt>
      <trkpt lat="46.01535" lon="6.54391">
        <ele>1063.92</ele>
        <time>2013-07-20T09:00:50Z</time>
      </trkpt>
      <trkpt lat="46.01544" lon="6.544">
        <ele>1063.038</ele>
        <time>2013-07-20T09:00:51Z</time>
      </trkpt>
      <trkpt lat="46.01573" lon="6.54449">
        <ele>1057.924</ele>
        <time>2013-07-20T09:00:55Z</time>
      </trkpt>
      <trkpt lat="46.01578" lon="6.54464">
        <ele>1056.624</ele>
        <time>2013-07-20T09:00:56Z</time>
      </trkpt>
      <trkpt lat="46.01603" lon="6.54552">
        <ele>1051.138</ele>
        <time>2013-07-20T09:01:02Z</time>
      </trkpt>
      <trkpt lat="46.0162" lon="6.54575">
        <ele>1047.484</ele>
        <time>2013-07-20T09:01:06Z</time>
      </trkpt>
      <trkpt lat="46.01632" lon="6.54566">
        <ele>1046.339</ele>
        <time>2013-07-20T09:01:08Z</time>
      </trkpt>
      <trkpt lat="46.01638" lon="6.54549">
        <ele>1045.336</ele>
        <time>2013-07-20T09:01:10Z</time>
      </trkpt>
      <trkpt lat="46.01631" lon="6.54516">
        <ele>1043.981</ele>
        <time>2013-07-20T09:01:13Z</time>
      </trkpt>
      <trkpt lat="46.01622" lon="6.54484">
        <ele>1042.575</ele>
        <time>2013-07-20T09:01:16Z</time>
      </trkpt>
      <trkpt lat="46.01608" lon="6.54409">
        <ele>1038.993</ele>
        <time>2013-07-20T09:01:22Z</time>
      </trkpt>
      <trkpt lat="46.01593" lon="6.54316">
        <ele>1034.41</ele>
        <time>2013-07-20T09:01:28Z</time>
      </trkpt>
      <trkpt lat="46.01577" lon="6.54276">
        <ele>1031.275</ele>
        <time>2013-07-20T09:01:31Z</time>
      </trkpt>
      <trkpt lat="46.01568" lon="6.54265">
        <ele>1029.95</ele>
        <time>2013-07-20T09:01:32Z</time>
      </trkpt>
      <trkpt lat="46.01537" lon="6.54236">
        <ele>1027.503</ele>
        <time>2013-07-20T09:01:35Z</time>
      </trkpt>
      <trkpt lat="46.01496" lon="6.54164">
        <ele>1022.978</ele>
        <time>2013-07-20T09:01:40Z</time>
      </trkpt>
      <trkpt lat="46.01489" lon="6.54148">
        <ele>1021.674</ele>
        <time>2013-07-20T09:01:41Z</time>
      </trkpt>
      <trkpt lat="46.01481" lon="6.54099">
        <ele>1018.189</ele>
        <time>2013-07-20T09:01:44Z</time>
      </trkpt>
      <trkpt lat="46.01482" lon="6.54082">
        <ele>1016.854</ele>
        <time>2013-07-20T09:01:45Z</time>
      </trkpt>
      <trkpt lat="46.01478" lon="6.54038">
        <ele>1013.262</ele>
        <time>2013-07-20T09:01:48Z</time>
      </trkpt>
      <trkpt lat="46.01465" lon="6.54017">
        <ele>1011.346</ele>
        <time>2013-07-20T09:01:50Z</time>
      </trkpt>
      <trkpt lat="46.01403" lon="6.53945">
        <ele>1005.094</ele>
        <time>2013-07-20T09:01:57Z</time>
      </trkpt>
      <trkpt lat="46.01359" lon="6.53911">
        <ele>1001.757</ele>
        <time>2013-07-20T09:02:01Z</time>
      </trkpt>
      <trkpt lat="46.01315" lon="6.53872">
        <ele>997.66</ele>
        <time>2013-07-20T09:02:05Z</time>
      </trkpt>
      <trkpt lat="46.01269" lon="6.53854">
        <ele>992.541</ele>
        <time>2013-07-20T09:02:09Z</time>
      </trkpt>
      <trkpt lat="46.01258" lon="6.53851">
        <ele>992.108</ele>
        <time>2013-07-20T09:02:10Z</time>
      </trkpt>
      <trkpt lat="46.01232" lon="6.53831">
        <ele>989.167</ele>
        <time>2013-07-20T09:02:13Z</time>
      </trkpt>
      <trkpt lat="46.01228" lon="6.53821">
        <ele>989.167</ele>
        <time>2013-07-20T09:02:14Z</time>
      </trkpt>
      <trkpt lat="46.01224" lon="6.53796">
        <ele>987.843</ele>
        <time>2013-07-20T09:02:16Z</time>
      </trkpt>
      <trkpt lat="46.01221" lon="6.53754">
        <ele>985.513</ele>
        <time>2013-07-20T09:02:20Z</time>
      </trkpt>
      <trkpt lat="46.01218" lon="6.53738">
        <ele>984.648</ele>
        <time>2013-07-20T09:02:22Z</time>
      </trkpt>
      <trkpt lat="46.01203" lon="6.53709">
        <ele>984.879</ele>
        <time>2013-07-20T09:02:27Z</time>
      </trkpt>
      <trkpt lat="46.01193" lon="6.53682">
        <ele>985.963</ele>
        <time>2013-07-20T09:02:32Z</time>
      </trkpt>
      <trkpt lat="46.01186" lon="6.53655">
        <ele>986.537</ele>
        <time>2013-07-20T09:02:37Z</time>
      </trkpt>
      <trkpt lat="46.0118" lon="6.53627">
        <ele>987.52</ele>
        <time>2013-07-20T09:02:42Z</time>
      </trkpt>
      <trkpt lat="46.01176" lon="6.53607">
        <ele>988.178</ele>
        <time>2013-07-20T09:02:46Z</time>
      </trkpt>
      <trkpt lat="46.01168" lon="6.53571">
        <ele>989.521</ele>
        <time>2013-07-20T09:02:53Z</time>
      </trkpt>
      <trkpt lat="46.01161" lon="6.53542">
        <ele>990.855</ele>
        <time>2013-07-20T09:02:59Z</time>
      </trkpt>
      <trkpt lat="46.01149" lon="6.53491">
        <ele>992.644</ele>
        <time>2013-07-20T09:03:09Z</time>
      </trkpt>
      <trkpt lat="46.01146" lon="6.53459">
        <ele>994.21</ele>
        <time>2013-07-20T09:03:16Z</time>
      </trkpt>
      <trkpt lat="46.01148" lon="6.53422">
        <ele>996.756</ele>
        <time>2013-07-20T09:03:25Z</time>
      </trkpt>
      <trkpt lat="46.01163" lon="6.53411">
        <ele>998.495</ele>
        <time>2013-07-20T09:03:32Z</time>
      </trkpt>
      <trkpt lat="46.01179" lon="6.53416">
        <ele>1000.166</ele>
        <time>2013-07-20T09:03:39Z</time>
      </trkpt>
      <trkpt lat="46.01201" lon="6.53437">
        <ele>1002.035</ele>
        <time>2013-07-20T09:03:48Z</time>
      </trkpt>
      <trkpt lat="46.01221" lon="6.53452">
        <ele>1003.924</ele>
        <time>2013-07-20T09:03:56Z</time>
      </trkpt>
      <trkpt lat="46.01247" lon="6.53475">
        <ele>1005.706</ele>
        <time>2013-07-20T09:04:06Z</time>
      </trkpt>
      <trkpt lat="46.01262" lon="6.53493">
        <ele>1007.662</ele>
        <time>2013-07-20T09:04:13Z</time>
      </trkpt>
      <trkpt lat="46.01275" lon="6.53511">
        <ele>1009.014</ele>
        <time>2013-07-20T09:04:20Z</time>
      </trkpt>
      <trkpt lat="46.01291" lon="6.5353">
        <ele>1010.998</ele>
        <time>2013-07-20T09:04:28Z</time>
      </trkpt>
      <trkpt lat="46.01313" lon="6.5355">
        <ele>1012.647</ele>
        <time>2013-07-20T09:04:37Z</time>
      </trkpt>
      <trkpt lat="46.01334" lon="6.53559">
        <ele>1014.238</ele>
        <time>2013-07-20T09:04:45Z</time>
      </trkpt>
      <trkpt lat="46.01348" lon="6.53551">
        <ele>1015.383</ele>
        <time>2013-07-20T09:04:50Z</time>
      </trkpt>
      <trkpt lat="46.01353" lon="6.5353">
        <ele>1016.523</ele>
        <time>2013-07-20T09:04:55Z</time>
      </trkpt>
      <trkpt lat="46.01348" lon="6.53517">
        <ele>1017.328</ele>
        <time>2013-07-20T09:04:59Z</time>
      </trkpt>
      <trkpt lat="46.01335" lon="6.53497">
        <ele>1018.489</ele>
        <time>2013-07-20T09:05:05Z</time>
      </trkpt>
      <trkpt lat="46.01313" lon="6.53471">
        <ele>1020.458</ele>
        <time>2013-07-20T09:05:14Z</time>
      </trkpt>
      <trkpt lat="46.01295" lon="6.53458">
        <ele>1022.096</ele>
        <time>2013-07-20T09:05:21Z</time>
      </trkpt>
      <trkpt lat="46.01283" lon="6.53446">
        <ele>1023.397</ele>
        <time>2013-07-20T09:05:26Z</time>
      </trkpt>
      <trkpt lat="46.01269" lon="6.5342">
        <ele>1025.564</ele>
        <time>2013-07-20T09:05:34Z</time>
      </trkpt>
      <trkpt lat="46.01253" lon="6.53382">
        <ele>1028.176</ele>
        <time>2013-07-20T09:05:45Z</time>
      </trkpt>
      <trkpt lat="46.01241" lon="6.53347">
        <ele>1030.742</ele>
        <time>2013-07-20T09:05:55Z</time>
      </trkpt>
      <trkpt lat="46.0123" lon="6.53307">
        <ele>1033.093</ele>
        <time>2013-07-20T09:06:06Z</time>
      </trkpt>
      <trkpt lat="46.01221" lon="6.5328">
        <ele>1034.59</ele>
        <time>2013-07-20T09:06:14Z</time>
      </trkpt>
      <trkpt lat="46.01206" lon="6.53253">
        <ele>1036.548</ele>
        <time>2013-07-20T09:06:23Z</time>
      </trkpt>
      <trkpt lat="46.01189" lon="6.53231">
        <ele>1038.223</ele>
        <time>2013-07-20T09:06:31Z</time>
      </trkpt>
      <trkpt lat="46.0117" lon="6.53204">
        <ele>1040.628</ele>
        <time>2013-07-20T09:06:41Z</time>
      </trkpt>
      <trkpt lat="46.01152" lon="6.5317">
        <ele>1043.169</ele>
        <time>2013-07-20T09:06:52Z</time>
      </trkpt>
      <trkpt lat="46.01145" lon="6.53141">
        <ele>1045.159</ele>
        <time>2013-07-20T09:07:00Z</time>
      </trkpt>
      <trkpt lat="46.0114" lon="6.53115">
        <ele>1047.04</ele>
        <time>2013-07-20T09:07:07Z</time>
      </trkpt>
      <trkpt lat="46.01132" lon="6.5308">
        <ele>1049.246</ele>
        <time>2013-07-20T09:07:16Z</time>
      </trkpt>
      <trkpt lat="46.0112" lon="6.53059">
        <ele>1050.722</ele>
        <time>2013-07-20T09:07:23Z</time>
      </trkpt>
      <trkpt lat="46.01104" lon="6.53036">
        <ele>1052.49</ele>
        <time>2013-07-20T09:07:31Z</time>
      </trkpt>
      <trkpt lat="46.01094" lon="6.53009">
        <ele>1054.358</ele>
        <time>2013-07-20T09:07:39Z</time>
      </trkpt>
      <trkpt lat="46.0108" lon="6.52997">
        <ele>1056.019</ele>
        <time>2013-07-20T09:07:45Z</time>
      </trkpt>
      <trkpt lat="46.01062" lon="6.52985">
        <ele>1057.866</ele>
        <time>2013-07-20T09:07:53Z</time>
      </trkpt>
      <trkpt lat="46.01056" lon="6.52973">
        <ele>1058.659</ele>
        <time>2013-07-20T09:07:57Z</time>
      </trkpt>
      <trkpt lat="46.01062" lon="6.52957">
        <ele>1059.994</ele>
        <time>2013-07-20T09:08:02Z</time>
      </trkpt>
      <trkpt lat="46.01072" lon="6.52962">
        <ele>1061.7</ele>
        <time>2013-07-20T09:08:06Z</time>
      </trkpt>
      <trkpt lat="46.01086" lon="6.52975">
        <ele>1063.575</ele>
        <time>2013-07-20T09:08:12Z</time>
      </trkpt>
      <trkpt lat="46.01108" lon="6.5298">
        <ele>1065.186</ele>
        <time>2013-07-20T09:08:20Z</time>
      </trkpt>
      <trkpt lat="46.01125" lon="6.52994">
        <ele>1066.894</ele>
        <time>2013-07-20T09:08:27Z</time>
      </trkpt>
      <trkpt lat="46.01136" lon="6.53012">
        <ele>1068.746</ele>
        <time>2013-07-20T09:08:34Z</time>
      </trkpt>
      <trkpt lat="46.01152" lon="6.53025">
        <ele>1070.249</ele>
        <time>2013-07-20T09:08:41Z</time>
      </trkpt>
      <trkpt lat="46.0116" lon="6.53043">
        <ele>1071.904</ele>
        <time>2013-07-20T09:08:47Z</time>
      </trkpt>
      <trkpt lat="46.01168" lon="6.53073">
        <ele>1074.036</ele>
        <time>2013-07-20T09:08:56Z</time>
      </trkpt>
      <trkpt lat="46.0118" lon="6.53087">
        <ele>1075.28</ele>
        <time>2013-07-20T09:09:02Z</time>
      </trkpt>
      <trkpt lat="46.01196" lon="6.53096">
        <ele>1077.056</ele>
        <time>2013-07-20T09:09:09Z</time>
      </trkpt>
      <trkpt lat="46.01214" lon="6.53107">
        <ele>1078.469</ele>
        <time>2013-07-20T09:09:17Z</time>
      </trkpt>
      <trkpt lat="46.01233" lon="6.53119">
        <ele>1079.966</ele>
        <time>2013-07-20T09:09:25Z</time>
      </trkpt>
      <trkpt lat="46.01252" lon="6.53124">
        <ele>1081.633</ele>
        <time>2013-07-20T09:09:32Z</time>
      </trkpt>
      <trkpt lat="46.0127" lon="6.53126">
        <ele>1083.549</ele>
        <time>2013-07-20T09:09:39Z</time>
      </trkpt>
      <trkpt lat="46.01288" lon="6.53131">
        <ele>1085.54</ele>
        <time>2013-07-20T09:09:47Z</time>
      </trkpt>
      <trkpt lat="46.01302" lon="6.53138">
        <ele>1086.876</ele>
        <time>2013-07-20T09:09:53Z</time>
      </trkpt>
      <trkpt lat="46.01324" lon="6.53148">
        <ele>1088.728</ele>
        <time>2013-07-20T09:10:02Z</time>
      </trkpt>
      <trkpt lat="46.01347" lon="6.53165">
        <ele>1090.785</ele>
        <time>2013-07-20T09:10:12Z</time>
      </trkpt>
      <trkpt lat="46.01365" lon="6.53175">
        <ele>1092.964</ele>
        <time>2013-07-20T09:10:20Z</time>
      </trkpt>
      <trkpt lat="46.01378" lon="6.53181">
        <ele>1094.374</ele>
        <time>2013-07-20T09:10:26Z</time>
      </trkpt>
      <trkpt lat="46.01406" lon="6.53198">
        <ele>1096.809</ele>
        <time>2013-07-20T09:10:38Z</time>
      </trkpt>
      <trkpt lat="46.01429" lon="6.53213">
        <ele>1098.929</ele>
        <time>2013-07-20T09:10:48Z</time>
      </trkpt>
      <trkpt lat="46.01441" lon="6.53211">
        <ele>1099.717</ele>
        <time>2013-07-20T09:10:52Z</time>
      </trkpt>
      <trkpt lat="46.01448" lon="6.53198">
        <ele>1100.74</ele>
        <time>2013-07-20T09:10:56Z</time>
      </trkpt>
      <trkpt lat="46.01446" lon="6.53181">
        <ele>1101.41</ele>
        <time>2013-07-20T09:11:00Z</time>
      </trkpt>
      <trkpt lat="46.01436" lon="6.53169">
        <ele>1102.079</ele>
        <time>2013-07-20T09:11:04Z</time>
      </trkpt>
      <trkpt lat="46.01409" lon="6.53153">
        <ele>1104.486</ele>
        <time>2013-07-20T09:11:14Z</time>
      </trkpt>
      <trkpt lat="46.01392" lon="6.53136">
        <ele>1106.366</ele>
        <time>2013-07-20T09:11:22Z</time>
      </trkpt>
      <trkpt lat="46.0138" lon="6.53118">
        <ele>1108.552</ele>
        <time>2013-07-20T09:11:29Z</time>
      </trkpt>
      <trkpt lat="46.01367" lon="6.53097">
        <ele>1110.368</ele>
        <time>2013-07-20T09:11:37Z</time>
      </trkpt>
      <trkpt lat="46.01351" lon="6.53067">
        <ele>1112.303</ele>
        <time>2013-07-20T09:11:47Z</time>
      </trkpt>
      <trkpt lat="46.0134" lon="6.53051">
        <ele>1114.1</ele>
        <time>2013-07-20T09:11:54Z</time>
      </trkpt>
      <trkpt lat="46.01322" lon="6.53036">
        <ele>1116.186</ele>
        <time>2013-07-20T09:12:03Z</time>
      </trkpt>
      <trkpt lat="46.013" lon="6.53026">
        <ele>1118.057</ele>
        <time>2013-07-20T09:12:13Z</time>
      </trkpt>
      <trkpt lat="46.01283" lon="6.53017">
        <ele>1120.083</ele>
        <time>2013-07-20T09:12:21Z</time>
      </trkpt>
      <trkpt lat="46.01272" lon="6.52993">
        <ele>1121.999</ele>
        <time>2013-07-20T09:12:29Z</time>
      </trkpt>
      <trkpt lat="46.01259" lon="6.52969">
        <ele>1123.772</ele>
        <time>2013-07-20T09:12:37Z</time>
      </trkpt>
      <trkpt lat="46.01242" lon="6.52947">
        <ele>1125.503</ele>
        <time>2013-07-20T09:12:45Z</time>
      </trkpt>
      <trkpt lat="46.01229" lon="6.52924">
        <ele>1127.506</ele>
        <time>2013-07-20T09:12:52Z</time>
      </trkpt>
      <trkpt lat="46.01218" lon="6.52897">
        <ele>1129.846</ele>
        <time>2013-07-20T09:13:00Z</time>
      </trkpt>
      <trkpt lat="46.01213" lon="6.52871">
        <ele>1131.63</ele>
        <time>2013-07-20T09:13:07Z</time>
      </trkpt>
      <trkpt lat="46.01206" lon="6.52835">
        <ele>1134.077</ele>
        <time>2013-07-20T09:13:17Z</time>
      </trkpt>
      <trkpt lat="46.01199" lon="6.52811">
        <ele>1135.595</ele>
        <time>2013-07-20T09:13:24Z</time>
      </trkpt>
      <trkpt lat="46.01185" lon="6.52772">
        <ele>1137.946</ele>
        <time>2013-07-20T09:13:35Z</time>
      </trkpt>
      <trkpt lat="46.01174" lon="6.52739">
        <ele>1140.146</ele>
        <time>2013-07-20T09:13:44Z</time>
      </trkpt>
      <trkpt lat="46.01164" lon="6.52708">
        <ele>1142.209</ele>
        <time>2013-07-20T09:13:52Z</time>
      </trkpt>
      <trkpt lat="46.01157" lon="6.52684">
        <ele>1144.112</ele>
        <time>2013-07-20T09:13:59Z</time>
      </trkpt>
      <trkpt lat="46.01147" lon="6.52656">
        <ele>1146.235</ele>
        <time>2013-07-20T09:14:07Z</time>
      </trkpt>
      <trkpt lat="46.01133" lon="6.52637">
        <ele>1147.812</ele>
        <time>2013-07-20T09:14:14Z</time>
      </trkpt>
      <trkpt lat="46.0112" lon="6.52611">
        <ele>1149.533</ele>
        <time>2013-07-20T09:14:22Z</time>
      </trkpt>
      <trkpt lat="46.01108" lon="6.52588">
        <ele>1151.396</ele>
        <time>2013-07-20T09:14:29Z</time>
      </trkpt>
      <trkpt lat="46.01097" lon="6.52579">
        <ele>1152.767</ele>
        <time>2013-07-20T09:14:34Z</time>
      </trkpt>
      <trkpt lat="46.01084" lon="6.52564">
        <ele>1154.063</ele>
        <time>2013-07-20T09:14:40Z</time>
      </trkpt>
      <trkpt lat="46.01083" lon="6.52545">
        <ele>1155.194</ele>
        <time>2013-07-20T09:14:45Z</time>
      </trkpt>
      <trkpt lat="46.01086" lon="6.52517">
        <ele>1157.088</ele>
        <time>2013-07-20T09:14:52Z</time>
      </trkpt>
      <trkpt lat="46.01091" lon="6.52482">
        <ele>1159.548</ele>
        <time>2013-07-20T09:15:01Z</time>
      </trkpt>
      <trkpt lat="46.01086" lon="6.52459">
        <ele>1161.102</ele>
        <time>2013-07-20T09:15:07Z</time>
      </trkpt>
      <trkpt lat="46.01072" lon="6.52447">
        <ele>1162.889</ele>
        <time>2013-07-20T09:15:13Z</time>
      </trkpt>
      <trkpt lat="46.01061" lon="6.52428">
        <ele>1164.903</ele>
        <time>2013-07-20T09:15:20Z</time>
      </trkpt>
      <trkpt lat="46.01056" lon="6.52398">
        <ele>1166.281</ele>
        <time>2013-07-20T09:15:28Z</time>
      </trkpt>
      <trkpt lat="46.01044" lon="6.52372">
        <ele>1167.914</ele>
        <time>2013-07-20T09:15:36Z</time>
      </trkpt>
      <trkpt lat="46.01022" lon="6.52356">
        <ele>1169.992</ele>
        <time>2013-07-20T09:15:45Z</time>
      </trkpt>
      <trkpt lat="46.01003" lon="6.52336">
        <ele>1172.323</ele>
        <time>2013-07-20T09:15:54Z</time>
      </trkpt>
      <trkpt lat="46.01001" lon="6.5231">
        <ele>1174.06</ele>
        <time>2013-07-20T09:16:01Z</time>
      </trkpt>
      <trkpt lat="46.00996" lon="6.5228">
        <ele>1175.696</ele>
        <time>2013-07-20T09:16:08Z</time>
      </trkpt>
      <trkpt lat="46.00989" lon="6.52262">
        <ele>1177.135</ele>
        <time>2013-07-20T09:16:13Z</time>
      </trkpt>
      <trkpt lat="46.0098" lon="6.52251">
        <ele>1178.355</ele>
        <time>2013-07-20T09:16:18Z</time>
      </trkpt>
      <trkpt lat="46.0097" lon="6.52239">
        <ele>1179.551</ele>
        <time>2013-07-20T09:16:23Z</time>
      </trkpt>
      <trkpt lat="46.0096" lon="6.52225">
        <ele>1180.765</ele>
        <time>2013-07-20T09:16:28Z</time>
      </trkpt>
      <trkpt lat="46.00948" lon="6.52208">
        <ele>1182.261</ele>
        <time>2013-07-20T09:16:34Z</time>
      </trkpt>
      <trkpt lat="46.00937" lon="6.5219">
        <ele>1183.674</ele>
        <time>2013-07-20T09:16:40Z</time>
      </trkpt>
      <trkpt lat="46.00926" lon="6.5217">
        <ele>1184.986</ele>
        <time>2013-07-20T09:16:47Z</time>
      </trkpt>
      <trkpt lat="46.00915" lon="6.52155">
        <ele>1186.694</ele>
        <time>2013-07-20T09:16:54Z</time>
      </trkpt>
      <trkpt lat="46.00897" lon="6.52141">
        <ele>1188.742</ele>
        <time>2013-07-20T09:17:01Z</time>
      </trkpt>
      <trkpt lat="46.00884" lon="6.52131">
        <ele>1190.252</ele>
        <time>2013-07-20T09:17:06Z</time>
      </trkpt>
      <trkpt lat="46.00868" lon="6.52114">
        <ele>1192.088</ele>
        <time>2013-07-20T09:17:13Z</time>
      </trkpt>
      <trkpt lat="46.00853" lon="6.52096">
        <ele>1194.145</ele>
        <time>2013-07-20T09:17:20Z</time>
      </trkpt>
      <trkpt lat="46.00842" lon="6.52084">
        <ele>1195.43</ele>
        <time>2013-07-20T09:17:25Z</time>
      </trkpt>
      <trkpt lat="46.00832" lon="6.52063">
        <ele>1196.935</ele>
        <time>2013-07-20T09:17:31Z</time>
      </trkpt>
      <trkpt lat="46.00827" lon="6.52038">
        <ele>1198.684</ele>
        <time>2013-07-20T09:17:37Z</time>
      </trkpt>
      <trkpt lat="46.0082" lon="6.52023">
        <ele>1200.057</ele>
        <time>2013-07-20T09:17:42Z</time>
      </trkpt>
      <trkpt lat="46.00812" lon="6.52011">
        <ele>1201.306</ele>
        <time>2013-07-20T09:17:46Z</time>
      </trkpt>
      <trkpt lat="46.00802" lon="6.52001">
        <ele>1202.387</ele>
        <time>2013-07-20T09:17:50Z</time>
      </trkpt>
      <trkpt lat="46.0079" lon="6.5199">
        <ele>1203.134</ele>
        <time>2013-07-20T09:17:55Z</time>
      </trkpt>
      <trkpt lat="46.00777" lon="6.51978">
        <ele>1204.324</ele>
        <time>2013-07-20T09:18:00Z</time>
      </trkpt>
      <trkpt lat="46.00763" lon="6.51958">
        <ele>1205.88</ele>
        <time>2013-07-20T09:18:06Z</time>
      </trkpt>
      <trkpt lat="46.00753" lon="6.5194">
        <ele>1207.313</ele>
        <time>2013-07-20T09:18:11Z</time>
      </trkpt>
      <trkpt lat="46.00737" lon="6.51924">
        <ele>1208.783</ele>
        <time>2013-07-20T09:18:17Z</time>
      </trkpt>
      <trkpt lat="46.00723" lon="6.51916">
        <ele>1210.337</ele>
        <time>2013-07-20T09:18:22Z</time>
      </trkpt>
      <trkpt lat="46.00714" lon="6.51905">
        <ele>1211.015</ele>
        <time>2013-07-20T09:18:26Z</time>
      </trkpt>
      <trkpt lat="46.00697" lon="6.51877">
        <ele>1212.972</ele>
        <time>2013-07-20T09:18:34Z</time>
      </trkpt>
      <trkpt lat="46.00678" lon="6.51844">
        <ele>1214.827</ele>
        <time>2013-07-20T09:18:43Z</time>
      </trkpt>
      <trkpt lat="46.00663" lon="6.51819">
        <ele>1215.34</ele>
        <time>2013-07-20T09:18:49Z</time>
      </trkpt>
      <trkpt lat="46.00657" lon="6.51797">
        <ele>1216.398</ele>
        <time>2013-07-20T09:18:54Z</time>
      </trkpt>
      <trkpt lat="46.00652" lon="6.51768">
        <ele>1217.125</ele>
        <time>2013-07-20T09:19:00Z</time>
      </trkpt>
      <trkpt lat="46.00639" lon="6.51751">
        <ele>1217.75</ele>
        <time>2013-07-20T09:19:05Z</time>
      </trkpt>
      <trkpt lat="46.00625" lon="6.51743">
        <ele>1218.585</ele>
        <time>2013-07-20T09:19:10Z</time>
      </trkpt>
      <trkpt lat="46.00607" lon="6.51723">
        <ele>1221.863</ele>
        <time>2013-07-20T09:19:18Z</time>
      </trkpt>
      <trkpt lat="46.00594" lon="6.51713">
        <ele>1223.808</ele>
        <time>2013-07-20T09:19:23Z</time>
      </trkpt>
      <trkpt lat="46.00576" lon="6.5171">
        <ele>1225.909</ele>
        <time>2013-07-20T09:19:29Z</time>
      </trkpt>
      <trkpt lat="46.00562" lon="6.51705">
        <ele>1228.334</ele>
        <time>2013-07-20T09:19:34Z</time>
      </trkpt>
      <trkpt lat="46.00543" lon="6.51697">
        <ele>1230.623</ele>
        <time>2013-07-20T09:19:40Z</time>
      </trkpt>
      <trkpt lat="46.00523" lon="6.51681">
        <ele>1232.922</ele>
        <time>2013-07-20T09:19:48Z</time>
      </trkpt>
      <trkpt lat="46.00511" lon="6.51654">
        <ele>1234.82</ele>
        <time>2013-07-20T09:19:56Z</time>
      </trkpt>
      <trkpt lat="46.005" lon="6.51619">
        <ele>1236.795</ele>
        <time>2013-07-20T09:20:05Z</time>
      </trkpt>
      <trkpt lat="46.00494" lon="6.51588">
        <ele>1238.671</ele>
        <time>2013-07-20T09:20:13Z</time>
      </trkpt>
      <trkpt lat="46.00488" lon="6.51552">
        <ele>1240.867</ele>
        <time>2013-07-20T09:20:22Z</time>
      </trkpt>
      <trkpt lat="46.00487" lon="6.51515">
        <ele>1242.955</ele>
        <time>2013-07-20T09:20:31Z</time>
      </trkpt>
      <trkpt lat="46.00486" lon="6.51472">
        <ele>1245.04</ele>
        <time>2013-07-20T09:20:41Z</time>
      </trkpt>
      <trkpt lat="46.00485" lon="6.51441">
        <ele>1246.757</ele>
        <time>2013-07-20T09:20:49Z</time>
      </trkpt>
      <trkpt lat="46.00477" lon="6.51416">
        <ele>1248.836</ele>
        <time>2013-07-20T09:20:55Z</time>
      </trkpt>
      <trkpt lat="46.00462" lon="6.51406">
        <ele>1250.483</ele>
        <time>2013-07-20T09:21:01Z</time>
      </trkpt>
      <trkpt lat="46.00445" lon="6.51395">
        <ele>1252.486</ele>
        <time>2013-07-20T09:21:08Z</time>
      </trkpt>
      <trkpt lat="46.00425" lon="6.5137">
        <ele>1254.693</ele>
        <time>2013-07-20T09:21:17Z</time>
      </trkpt>
      <trkpt lat="46.00412" lon="6.51362">
        <ele>1256.221</ele>
        <time>2013-07-20T09:21:23Z</time>
      </trkpt>
      <trkpt lat="46.00401" lon="6.51352">
        <ele>1257.274</ele>
        <time>2013-07-20T09:21:28Z</time>
      </trkpt>
      <trkpt lat="46.00388" lon="6.51336">
        <ele>1258.458</ele>
        <time>2013-07-20T09:21:34Z</time>
      </trkpt>
      <trkpt lat="46.00374" lon="6.51326">
        <ele>1260.14</ele>
        <time>2013-07-20T09:21:40Z</time>
      </trkpt>
      <trkpt lat="46.00358" lon="6.51317">
        <ele>1261.449</ele>
        <time>2013-07-20T09:21:46Z</time>
      </trkpt>
      <trkpt lat="46.0035" lon="6.51294">
        <ele>1262.89</ele>
        <time>2013-07-20T09:21:52Z</time>
      </trkpt>
      <trkpt lat="46.00343" lon="6.51261">
        <ele>1265.011</ele>
        <time>2013-07-20T09:22:01Z</time>
      </trkpt>
      <trkpt lat="46.00334" lon="6.51227">
        <ele>1266.961</ele>
        <time>2013-07-20T09:22:10Z</time>
      </trkpt>
      <trkpt lat="46.00321" lon="6.51204">
        <ele>1268.712</ele>
        <time>2013-07-20T09:22:17Z</time>
      </trkpt>
      <trkpt lat="46.00306" lon="6.5117">
        <ele>1270.96</ele>
        <time>2013-07-20T09:22:27Z</time>
      </trkpt>
      <trkpt lat="46.00294" lon="6.51144">
        <ele>1272.815</ele>
        <time>2013-07-20T09:22:35Z</time>
      </trkpt>
      <trkpt lat="46.00278" lon="6.51119">
        <ele>1274.948</ele>
        <time>2013-07-20T09:22:43Z</time>
      </trkpt>
      <trkpt lat="46.0026" lon="6.51091">
        <ele>1277.074</ele>
        <time>2013-07-20T09:22:52Z</time>
      </trkpt>
      <trkpt lat="46.00239" lon="6.51064">
        <ele>1279.518</ele>
        <time>2013-07-20T09:23:02Z</time>
      </trkpt>
      <trkpt lat="46.00221" lon="6.51038">
        <ele>1281.954</ele>
        <time>2013-07-20T09:23:11Z</time>
      </trkpt>
      <trkpt lat="46.00204" lon="6.5101">
        <ele>1283.979</ele>
        <time>2013-07-20T09:23:20Z</time>
      </trkpt>
      <trkpt lat="46.00192" lon="6.50986">
        <ele>1285.451</ele>
        <time>2013-07-20T09:23:27Z</time>
      </trkpt>
      <trkpt lat="46.00182" lon="6.50952">
        <ele>1287.154</ele>
        <time>2013-07-20T09:23:35Z</time>
      </trkpt>
      <trkpt lat="46.00171" lon="6.50916">
        <ele>1288.81</ele>
        <time>2013-07-20T09:23:44Z</time>
      </trkpt>
      <trkpt lat="46.0016" lon="6.50894">
        <ele>1290.191</ele>
        <time>2013-07-20T09:23:50Z</time>
      </trkpt>
      <trkpt lat="46.00155" lon="6.50872">
        <ele>1290.812</ele>
        <time>2013-07-20T09:23:55Z</time>
      </trkpt>
      <trkpt lat="46.00157" lon="6.50864">
        <ele>1291.293</ele>
        <time>2013-07-20T09:23:57Z</time>
      </trkpt>
      <trkpt lat="46.00168" lon="6.50861">
        <ele>1292.352</ele>
        <time>2013-07-20T09:24:01Z</time>
      </trkpt>
      <trkpt lat="46.00177" lon="6.50873">
        <ele>1293.526</ele>
        <time>2013-07-20T09:24:05Z</time>
      </trkpt>
      <trkpt lat="46.00191" lon="6.50902">
        <ele>1295.783</ele>
        <time>2013-07-20T09:24:13Z</time>
      </trkpt>
      <trkpt lat="46.00203" lon="6.50923">
        <ele>1297.333</ele>
        <time>2013-07-20T09:24:19Z</time>
      </trkpt>
      <trkpt lat="46.00222" lon="6.50937">
        <ele>1299.043</ele>
        <time>2013-07-20T09:24:26Z</time>
      </trkpt>
      <trkpt lat="46.00246" lon="6.50952">
        <ele>1300.992</ele>
        <time>2013-07-20T09:24:35Z</time>
      </trkpt>
      <trkpt lat="46.0027" lon="6.50975">
        <ele>1303.409</ele>
        <time>2013-07-20T09:24:45Z</time>
      </trkpt>
      <trkpt lat="46.00286" lon="6.50993">
        <ele>1304.908</ele>
        <time>2013-07-20T09:24:52Z</time>
      </trkpt>
      <trkpt lat="46.003" lon="6.50997">
        <ele>1305.955</ele>
        <time>2013-07-20T09:24:57Z</time>
      </trkpt>
      <trkpt lat="46.00312" lon="6.50983">
        <ele>1306.991</ele>
        <time>2013-07-20T09:25:02Z</time>
      </trkpt>
      <trkpt lat="46.00312" lon="6.50967">
        <ele>1308.009</ele>
        <time>2013-07-20T09:25:06Z</time>
      </trkpt>
      <trkpt lat="46.00302" lon="6.50956">
        <ele>1308.438</ele>
        <time>2013-07-20T09:25:10Z</time>
      </trkpt>
      <trkpt lat="46.00283" lon="6.50938">
        <ele>1310.101</ele>
        <time>2013-07-20T09:25:17Z</time>
      </trkpt>
      <trkpt lat="46.00262" lon="6.50917">
        <ele>1312.358</ele>
        <time>2013-07-20T09:25:26Z</time>
      </trkpt>
      <trkpt lat="46.00241" lon="6.50883">
        <ele>1314.847</ele>
        <time>2013-07-20T09:25:37Z</time>
      </trkpt>
      <trkpt lat="46.00234" lon="6.50857">
        <ele>1316.652</ele>
        <time>2013-07-20T09:25:44Z</time>
      </trkpt>
      <trkpt lat="46.00226" lon="6.50811">
        <ele>1319.464</ele>
        <time>2013-07-20T09:25:56Z</time>
      </trkpt>
      <trkpt lat="46.00211" lon="6.50782">
        <ele>1321.863</ele>
        <time>2013-07-20T09:26:06Z</time>
      </trkpt>
      <trkpt lat="46.00195" lon="6.5076">
        <ele>1324.247</ele>
        <time>2013-07-20T09:26:15Z</time>
      </trkpt>
      <trkpt lat="46.00175" lon="6.50737">
        <ele>1326.774</ele>
        <time>2013-07-20T09:26:25Z</time>
      </trkpt>
      <trkpt lat="46.00165" lon="6.50717">
        <ele>1328.223</ele>
        <time>2013-07-20T09:26:31Z</time>
      </trkpt>
      <trkpt lat="46.00158" lon="6.50691">
        <ele>1329.799</ele>
        <time>2013-07-20T09:26:38Z</time>
      </trkpt>
      <trkpt lat="46.00155" lon="6.5066">
        <ele>1332.51</ele>
        <time>2013-07-20T09:26:46Z</time>
      </trkpt>
      <trkpt lat="46.0016" lon="6.50633">
        <ele>1334.75</ele>
        <time>2013-07-20T09:26:53Z</time>
      </trkpt>
      <trkpt lat="46.00168" lon="6.50608">
        <ele>1336.272</ele>
        <time>2013-07-20T09:27:00Z</time>
      </trkpt>
      <trkpt lat="46.00183" lon="6.50562">
        <ele>1339.188</ele>
        <time>2013-07-20T09:27:13Z</time>
      </trkpt>
      <trkpt lat="46.00195" lon="6.50527">
        <ele>1341.66</ele>
        <time>2013-07-20T09:27:23Z</time>
      </trkpt>
      <trkpt lat="46.00212" lon="6.50475">
        <ele>1344.432</ele>
        <time>2013-07-20T09:27:37Z</time>
      </trkpt>
      <trkpt lat="46.00222" lon="6.50443">
        <ele>1346.388</ele>
        <time>2013-07-20T09:27:46Z</time>
      </trkpt>
      <trkpt lat="46.00235" lon="6.50404">
        <ele>1348.845</ele>
        <time>2013-07-20T09:27:57Z</time>
      </trkpt>
      <trkpt lat="46.00251" lon="6.50374">
        <ele>1351.234</ele>
        <time>2013-07-20T09:28:07Z</time>
      </trkpt>
      <trkpt lat="46.00264" lon="6.50342">
        <ele>1353.363</ele>
        <time>2013-07-20T09:28:16Z</time>
      </trkpt>
      <trkpt lat="46.00273" lon="6.50307">
        <ele>1355.447</ele>
        <time>2013-07-20T09:28:25Z</time>
      </trkpt>
      <trkpt lat="46.0028" lon="6.50265">
        <ele>1357.936</ele>
        <time>2013-07-20T09:28:36Z</time>
      </trkpt>
      <trkpt lat="46.00284" lon="6.50223">
        <ele>1360.213</ele>
        <time>2013-07-20T09:28:47Z</time>
      </trkpt>
      <trkpt lat="46.0028" lon="6.50189">
        <ele>1362.301</ele>
        <time>2013-07-20T09:28:56Z</time>
      </trkpt>
      <trkpt lat="46.00271" lon="6.50154">
        <ele>1364.356</ele>
        <time>2013-07-20T09:29:06Z</time>
      </trkpt>
      <trkpt lat="46.00258" lon="6.50109">
        <ele>1367.364</ele>
        <time>2013-07-20T09:29:18Z</time>
      </trkpt>
      <trkpt lat="46.0025" lon="6.50079">
        <ele>1369.416</ele>
        <time>2013-07-20T09:29:26Z</time>
      </trkpt>
      <trkpt lat="46.00238" lon="6.50043">
        <ele>1371.669</ele>
        <time>2013-07-20T09:29:35Z</time>
      </trkpt>
      <trkpt lat="46.00228" lon="6.5002">
        <ele>1372.957</ele>
        <time>2013-07-20T09:29:41Z</time>
      </trkpt>
      <trkpt lat="46.00214" lon="6.49997">
        <ele>1375.113</ele>
        <time>2013-07-20T09:29:48Z</time>
      </trkpt>
      <trkpt lat="46.00207" lon="6.49973">
        <ele>1376.844</ele>
        <time>2013-07-20T09:29:55Z</time>
      </trkpt>
      <trkpt lat="46.00204" lon="6.49938">
        <ele>1379.532</ele>
        <time>2013-07-20T09:30:05Z</time>
      </trkpt>
      <trkpt lat="46.00199" lon="6.49905">
        <ele>1381.669</ele>
        <time>2013-07-20T09:30:15Z</time>
      </trkpt>
      <trkpt lat="46.0019" lon="6.49874">
        <ele>1384.161</ele>
        <time>2013-07-20T09:30:25Z</time>
      </trkpt>
      <trkpt lat="46.00183" lon="6.49846">
        <ele>1386.597</ele>
        <time>2013-07-20T09:30:34Z</time>
      </trkpt>
      <trkpt lat="46.00175" lon="6.49826">
        <ele>1388.336</ele>
        <time>2013-07-20T09:30:41Z</time>
      </trkpt>
      <trkpt lat="46.00162" lon="6.49798">
        <ele>1390.915</ele>
        <time>2013-07-20T09:30:51Z</time>
      </trkpt>
      <trkpt lat="46.00149" lon="6.49774">
        <ele>1392.997</ele>
        <time>2013-07-20T09:31:00Z</time>
      </trkpt>
      <trkpt lat="46.00132" lon="6.49741">
        <ele>1396.068</ele>
        <time>2013-07-20T09:31:12Z</time>
      </trkpt>
      <trkpt lat="46.00119" lon="6.49716">
        <ele>1398.288</ele>
        <time>2013-07-20T09:31:21Z</time>
      </trkpt>
      <trkpt lat="46.00109" lon="6.49696">
        <ele>1400.144</ele>
        <time>2013-07-20T09:31:29Z</time>
      </trkpt>
      <trkpt lat="46.00096" lon="6.49668">
        <ele>1402.461</ele>
        <time>2013-07-20T09:31:39Z</time>
      </trkpt>
      <trkpt lat="46.00081" lon="6.49639">
        <ele>1405.364</ele>
        <time>2013-07-20T09:31:50Z</time>
      </trkpt>
      <trkpt lat="46.00067" lon="6.49612">
        <ele>1407.635</ele>
        <time>2013-07-20T09:32:00Z</time>
      </trkpt>
      <trkpt lat="46.00051" lon="6.49583">
        <ele>1410.474</ele>
        <time>2013-07-20T09:32:11Z</time>
      </trkpt>
      <trkpt lat="46.00042" lon="6.49563">
        <ele>1412.347</ele>
        <time>2013-07-20T09:32:18Z</time>
      </trkpt>
      <trkpt lat="46.00033" lon="6.49537">
        <ele>1414.72</ele>
        <time>2013-07-20T09:32:26Z</time>
      </trkpt>
      <trkpt lat="46.00034" lon="6.49515">
        <ele>1416.44</ele>
        <time>2013-07-20T09:32:32Z</time>
      </trkpt>
      <trkpt lat="46.00039" lon="6.49484">
        <ele>1418.519</ele>
        <time>2013-07-20T09:32:40Z</time>
      </trkpt>
      <trkpt lat="46.00041" lon="6.49456">
        <ele>1420.544</ele>
        <time>2013-07-20T09:32:48Z</time>
      </trkpt>
      <trkpt lat="46.00043" lon="6.49428">
        <ele>1422.657</ele>
        <time>2013-07-20T09:32:56Z</time>
      </trkpt>
      <trkpt lat="46.00045" lon="6.49395">
        <ele>1424.696</ele>
        <time>2013-07-20T09:33:05Z</time>
      </trkpt>
      <trkpt lat="46.00045" lon="6.49355">
        <ele>1427.816</ele>
        <time>2013-07-20T09:33:17Z</time>
      </trkpt>
      <trkpt lat="46.00044" lon="6.4933">
        <ele>1429.83</ele>
        <time>2013-07-20T09:33:25Z</time>
      </trkpt>
      <trkpt lat="46.00031" lon="6.49286">
        <ele>1433.974</ele>
        <time>2013-07-20T09:33:40Z</time>
      </trkpt>
      <trkpt lat="46.00022" lon="6.49262">
        <ele>1436.709</ele>
        <time>2013-07-20T09:33:50Z</time>
      </trkpt>
      <trkpt lat="46.00008" lon="6.49244">
        <ele>1438.984</ele>
        <time>2013-07-20T09:33:58Z</time>
      </trkpt>
      <trkpt lat="45.9999" lon="6.4923">
        <ele>1440.865</ele>
        <time>2013-07-20T09:34:06Z</time>
      </trkpt>
      <trkpt lat="45.99969" lon="6.49223">
        <ele>1442.762</ele>
        <time>2013-07-20T09:34:14Z</time>
      </trkpt>
      <trkpt lat="45.99956" lon="6.49212">
        <ele>1444.228</ele>
        <time>2013-07-20T09:34:20Z</time>
      </trkpt>
      <trkpt lat="45.99944" lon="6.49184">
        <ele>1447.263</ele>
        <time>2013-07-20T09:34:29Z</time>
      </trkpt>
      <trkpt lat="45.99933" lon="6.49164">
        <ele>1449.129</ele>
        <time>2013-07-20T09:34:36Z</time>
      </trkpt>
      <trkpt lat="45.99909" lon="6.49122">
        <ele>1453.152</ele>
        <time>2013-07-20T09:34:51Z</time>
      </trkpt>
      <trkpt lat="45.99898" lon="6.49099">
        <ele>1455.225</ele>
        <time>2013-07-20T09:34:59Z</time>
      </trkpt>
      <trkpt lat="45.99891" lon="6.49083">
        <ele>1456.43</ele>
        <time>2013-07-20T09:35:04Z</time>
      </trkpt>
      <trkpt lat="45.99878" lon="6.4907">
        <ele>1458.448</ele>
        <time>2013-07-20T09:35:11Z</time>
      </trkpt>
      <trkpt lat="45.99863" lon="6.49058">
        <ele>1460.138</ele>
        <time>2013-07-20T09:35:18Z</time>
      </trkpt>
      <trkpt lat="45.99846" lon="6.49036">
        <ele>1462.314</ele>
        <time>2013-07-20T09:35:27Z</time>
      </trkpt>
      <trkpt lat="45.99827" lon="6.49007">
        <ele>1465.259</ele>
        <time>2013-07-20T09:35:38Z</time>
      </trkpt>
      <trkpt lat="45.99811" lon="6.48978">
        <ele>1468.017</ele>
        <time>2013-07-20T09:35:48Z</time>
      </trkpt>
      <trkpt lat="45.99801" lon="6.48954">
        <ele>1470.059</ele>
        <time>2013-07-20T09:35:56Z</time>
      </trkpt>
      <trkpt lat="45.99794" lon="6.48924">
        <ele>1472.487</ele>
        <time>2013-07-20T09:36:05Z</time>
      </trkpt>
      <trkpt lat="45.99786" lon="6.48893">
        <ele>1474.986</ele>
        <time>2013-07-20T09:36:15Z</time>
      </trkpt>
      <trkpt lat="45.9978" lon="6.48861">
        <ele>1477.507</ele>
        <time>2013-07-20T09:36:24Z</time>
      </trkpt>
      <trkpt lat="45.99773" lon="6.48832">
        <ele>1479.561</ele>
        <time>2013-07-20T09:36:31Z</time>
      </trkpt>
      <trkpt lat="45.99767" lon="6.48805">
        <ele>1481.399</ele>
        <time>2013-07-20T09:36:39Z</time>
      </trkpt>
      <trkpt lat="45.99764" lon="6.4878">
        <ele>1483.514</ele>
        <time>2013-07-20T09:36:48Z</time>
      </trkpt>
      <trkpt lat="45.99764" lon="6.48751">
        <ele>1485.896</ele>
        <time>2013-07-20T09:36:57Z</time>
      </trkpt>
      <trkpt lat="45.99764" lon="6.48733">
        <ele>1487.403</ele>
        <time>2013-07-20T09:37:03Z</time>
      </trkpt>
      <trkpt lat="45.99762" lon="6.487">
        <ele>1489.886</ele>
        <time>2013-07-20T09:37:13Z</time>
      </trkpt>
      <trkpt lat="45.9976" lon="6.48672">
        <ele>1492.224</ele>
        <time>2013-07-20T09:37:22Z</time>
      </trkpt>
      <trkpt lat="45.99762" lon="6.48644">
        <ele>1494.548</ele>
        <time>2013-07-20T09:37:31Z</time>
      </trkpt>
      <trkpt lat="45.99766" lon="6.48612">
        <ele>1497.128</ele>
        <time>2013-07-20T09:37:41Z</time>
      </trkpt>
      <trkpt lat="45.99761" lon="6.48588">
        <ele>1499.181</ele>
        <time>2013-07-20T09:37:49Z</time>
      </trkpt>
      <trkpt lat="45.99757" lon="6.48574">
        <ele>1500.239</ele>
        <time>2013-07-20T09:37:54Z</time>
      </trkpt>
      <trkpt lat="45.99747" lon="6.48548">
        <ele>1502.381</ele>
        <time>2013-07-20T09:38:02Z</time>
      </trkpt>
      <trkpt lat="45.9974" lon="6.48527">
        <ele>1504.299</ele>
        <time>2013-07-20T09:38:09Z</time>
      </trkpt>
      <trkpt lat="45.99733" lon="6.48507">
        <ele>1506.18</ele>
        <time>2013-07-20T09:38:16Z</time>
      </trkpt>
      <trkpt lat="45.99727" lon="6.4848">
        <ele>1508.448</ele>
        <time>2013-07-20T09:38:25Z</time>
      </trkpt>
      <trkpt lat="45.99722" lon="6.48456">
        <ele>1510.293</ele>
        <time>2013-07-20T09:38:33Z</time>
      </trkpt>
      <trkpt lat="45.99716" lon="6.48429">
        <ele>1512.523</ele>
        <time>2013-07-20T09:38:42Z</time>
      </trkpt>
      <trkpt lat="45.99707" lon="6.48395">
        <ele>1515.565</ele>
        <time>2013-07-20T09:38:53Z</time>
      </trkpt>
      <trkpt lat="45.99694" lon="6.48367">
        <ele>1517.953</ele>
        <time>2013-07-20T09:39:03Z</time>
      </trkpt>
      <trkpt lat="45.99678" lon="6.4834">
        <ele>1520.881</ele>
        <time>2013-07-20T09:39:14Z</time>
      </trkpt>
      <trkpt lat="45.9967" lon="6.48326">
        <ele>1522.378</ele>
        <time>2013-07-20T09:39:20Z</time>
      </trkpt>
      <trkpt lat="45.99665" lon="6.48306">
        <ele>1523.915</ele>
        <time>2013-07-20T09:39:27Z</time>
      </trkpt>
      <trkpt lat="45.99656" lon="6.48265">
        <ele>1527.113</ele>
        <time>2013-07-20T09:39:41Z</time>
      </trkpt>
      <trkpt lat="45.99646" lon="6.48242">
        <ele>1529.318</ele>
        <time>2013-07-20T09:39:50Z</time>
      </trkpt>
      <trkpt lat="45.99633" lon="6.48223">
        <ele>1531.388</ele>
        <time>2013-07-20T09:39:59Z</time>
      </trkpt>
      <trkpt lat="45.99616" lon="6.4821">
        <ele>1533.574</ele>
        <time>2013-07-20T09:40:08Z</time>
      </trkpt>
      <trkpt lat="45.996" lon="6.48199">
        <ele>1535.611</ele>
        <time>2013-07-20T09:40:17Z</time>
      </trkpt>
      <trkpt lat="45.99584" lon="6.4818">
        <ele>1538.305</ele>
        <time>2013-07-20T09:40:27Z</time>
      </trkpt>
      <trkpt lat="45.99569" lon="6.48163">
        <ele>1540.087</ele>
        <time>2013-07-20T09:40:35Z</time>
      </trkpt>
      <trkpt lat="45.99553" lon="6.48145">
        <ele>1542.434</ele>
        <time>2013-07-20T09:40:43Z</time>
      </trkpt>
      <trkpt lat="45.99535" lon="6.48123">
        <ele>1544.872</ele>
        <time>2013-07-20T09:40:52Z</time>
      </trkpt>
      <trkpt lat="45.99522" lon="6.48109">
        <ele>1547.083</ele>
        <time>2013-07-20T09:40:58Z</time>
      </trkpt>
      <trkpt lat="45.99504" lon="6.4809">
        <ele>1549.461</ele>
        <time>2013-07-20T09:41:08Z</time>
      </trkpt>
      <trkpt lat="45.99491" lon="6.48068">
        <ele>1551.885</ele>
        <time>2013-07-20T09:41:18Z</time>
      </trkpt>
      <trkpt lat="45.99483" lon="6.48039">
        <ele>1554.504</ele>
        <time>2013-07-20T09:41:29Z</time>
      </trkpt>
      <trkpt lat="45.99474" lon="6.48011">
        <ele>1556.793</ele>
        <time>2013-07-20T09:41:39Z</time>
      </trkpt>
      <trkpt lat="45.99462" lon="6.47981">
        <ele>1559.516</ele>
        <time>2013-07-20T09:41:50Z</time>
      </trkpt>
      <trkpt lat="45.99453" lon="6.47954">
        <ele>1561.988</ele>
        <time>2013-07-20T09:42:00Z</time>
      </trkpt>
      <trkpt lat="45.99445" lon="6.47924">
        <ele>1564.643</ele>
        <time>2013-07-20T09:42:10Z</time>
      </trkpt>
      <trkpt lat="45.99439" lon="6.47898">
        <ele>1566.524</ele>
        <time>2013-07-20T09:42:19Z</time>
      </trkpt>
      <trkpt lat="45.99426" lon="6.47841">
        <ele>1571.246</ele>
        <time>2013-07-20T09:42:38Z</time>
      </trkpt>
      <trkpt lat="45.99408" lon="6.47818">
        <ele>1573.697</ele>
        <time>2013-07-20T09:42:48Z</time>
      </trkpt>
      <trkpt lat="45.99391" lon="6.47802">
        <ele>1575.78</ele>
        <time>2013-07-20T09:42:57Z</time>
      </trkpt>
      <trkpt lat="45.99377" lon="6.47789">
        <ele>1577.731</ele>
        <time>2013-07-20T09:43:04Z</time>
      </trkpt>
      <trkpt lat="45.9936" lon="6.47773">
        <ele>1580.115</ele>
        <time>2013-07-20T09:43:12Z</time>
      </trkpt>
      <trkpt lat="45.99343" lon="6.47757">
        <ele>1582.126</ele>
        <time>2013-07-20T09:43:20Z</time>
      </trkpt>
      <trkpt lat="45.99324" lon="6.47742">
        <ele>1585.011</ele>
        <time>2013-07-20T09:43:30Z</time>
      </trkpt>
      <trkpt lat="45.99306" lon="6.47735">
        <ele>1586.617</ele>
        <time>2013-07-20T09:43:38Z</time>
      </trkpt>
      <trkpt lat="45.99287" lon="6.47714">
        <ele>1589.734</ele>
        <time>2013-07-20T09:43:48Z</time>
      </trkpt>
      <trkpt lat="45.9927" lon="6.47693">
        <ele>1592.183</ele>
        <time>2013-07-20T09:43:58Z</time>
      </trkpt>
      <trkpt lat="45.99252" lon="6.47664">
        <ele>1595.09</ele>
        <time>2013-07-20T09:44:10Z</time>
      </trkpt>
      <trkpt lat="45.99242" lon="6.47646">
        <ele>1596.904</ele>
        <time>2013-07-20T09:44:17Z</time>
      </trkpt>
      <trkpt lat="45.99234" lon="6.4762">
        <ele>1599.228</ele>
        <time>2013-07-20T09:44:25Z</time>
      </trkpt>
      <trkpt lat="45.99226" lon="6.47591">
        <ele>1601.249</ele>
        <time>2013-07-20T09:44:33Z</time>
      </trkpt>
      <trkpt lat="45.99223" lon="6.47579">
        <ele>1602.411</ele>
        <time>2013-07-20T09:44:38Z</time>
      </trkpt>
      <trkpt lat="45.99221" lon="6.47569">
        <ele>1602.31</ele>
        <time>2013-07-20T09:44:43Z</time>
      </trkpt>
      <trkpt lat="45.99222" lon="6.47567">
        <ele>1602.45</ele>
        <time>2013-07-20T09:44:46Z</time>
      </trkpt>
      <trkpt lat="45.99222" lon="6.47571">
        <ele>1602.6</ele>
        <time>2013-07-20T09:45:12Z</time>
      </trkpt>
      <trkpt lat="45.99223" lon="6.47572">
        <ele>1602.696</ele>
        <time>2013-07-20T09:45:13Z</time>
      </trkpt>
      <trkpt lat="45.99225" lon="6.47572">
        <ele>1602.917</ele>
        <time>2013-07-20T09:45:16Z</time>
      </trkpt>
      <trkpt lat="45.99198" lon="6.4749">
        <ele>1610.141</ele>
        <time>2013-07-20T10:12:30Z</time>
      </trkpt>
      <trkpt lat="45.99192" lon="6.4747">
        <ele>1609.419</ele>
        <time>2013-07-20T10:12:34Z</time>
      </trkpt>
      <trkpt lat="45.99182" lon="6.47433">
        <ele>1607.616</ele>
        <time>2013-07-20T10:12:38Z</time>
      </trkpt>
      <trkpt lat="45.99169" lon="6.47384">
        <ele>1605.033</ele>
        <time>2013-07-20T10:12:42Z</time>
      </trkpt>
      <trkpt lat="45.99144" lon="6.47311">
        <ele>1601.09</ele>
        <time>2013-07-20T10:12:47Z</time>
      </trkpt>
      <trkpt lat="45.99109" lon="6.4723">
        <ele>1596.074</ele>
        <time>2013-07-20T10:12:52Z</time>
      </trkpt>
      <trkpt lat="45.99074" lon="6.47139">
        <ele>1589.94</ele>
        <time>2013-07-20T10:12:57Z</time>
      </trkpt>
      <trkpt lat="45.9904" lon="6.47016">
        <ele>1581.895</ele>
        <time>2013-07-20T10:13:03Z</time>
      </trkpt>
      <trkpt lat="45.99031" lon="6.46984">
        <ele>1578.255</ele>
        <time>2013-07-20T10:13:05Z</time>
      </trkpt>
      <trkpt lat="45.99011" lon="6.46964">
        <ele>1573.167</ele>
        <time>2013-07-20T10:13:08Z</time>
      </trkpt>
      <trkpt lat="45.98998" lon="6.46984">
        <ele>1571.327</ele>
        <time>2013-07-20T10:13:10Z</time>
      </trkpt>
      <trkpt lat="45.98999" lon="6.47021">
        <ele>1569.854</ele>
        <time>2013-07-20T10:13:12Z</time>
      </trkpt>
      <trkpt lat="45.99002" lon="6.47035">
        <ele>1569.202</ele>
        <time>2013-07-20T10:13:13Z</time>
      </trkpt>
      <trkpt lat="45.99031" lon="6.4713">
        <ele>1565.672</ele>
        <time>2013-07-20T10:13:20Z</time>
      </trkpt>
      <trkpt lat="45.99019" lon="6.47155">
        <ele>1563.533</ele>
        <time>2013-07-20T10:13:23Z</time>
      </trkpt>
      <trkpt lat="45.99002" lon="6.47144">
        <ele>1561.547</ele>
        <time>2013-07-20T10:13:25Z</time>
      </trkpt>
      <trkpt lat="45.98993" lon="6.4712">
        <ele>1560.47</ele>
        <time>2013-07-20T10:13:27Z</time>
      </trkpt>
      <trkpt lat="45.9897" lon="6.47031">
        <ele>1556.881</ele>
        <time>2013-07-20T10:13:33Z</time>
      </trkpt>
      <trkpt lat="45.98956" lon="6.46958">
        <ele>1552.78</ele>
        <time>2013-07-20T10:13:37Z</time>
      </trkpt>
      <trkpt lat="45.98939" lon="6.46844">
        <ele>1546.977</ele>
        <time>2013-07-20T10:13:43Z</time>
      </trkpt>
      <trkpt lat="45.98925" lon="6.46804">
        <ele>1543.63</ele>
        <time>2013-07-20T10:13:46Z</time>
      </trkpt>
      <trkpt lat="45.98908" lon="6.4681">
        <ele>1541.359</ele>
        <time>2013-07-20T10:13:48Z</time>
      </trkpt>
      <trkpt lat="45.98903" lon="6.46838">
        <ele>1539.427</ele>
        <time>2013-07-20T10:13:50Z</time>
      </trkpt>
      <trkpt lat="45.9891" lon="6.46864">
        <ele>1538.411</ele>
        <time>2013-07-20T10:13:52Z</time>
      </trkpt>
      <trkpt lat="45.98918" lon="6.46893">
        <ele>1537.358</ele>
        <time>2013-07-20T10:13:54Z</time>
      </trkpt>
      <trkpt lat="45.98922" lon="6.46957">
        <ele>1534.82</ele>
        <time>2013-07-20T10:13:58Z</time>
      </trkpt>
      <trkpt lat="45.98917" lon="6.47007">
        <ele>1532.713</ele>
        <time>2013-07-20T10:14:01Z</time>
      </trkpt>
      <trkpt lat="45.98897" lon="6.47052">
        <ele>1530.739</ele>
        <time>2013-07-20T10:14:04Z</time>
      </trkpt>
      <trkpt lat="45.98866" lon="6.47081">
        <ele>1528.479</ele>
        <time>2013-07-20T10:14:07Z</time>
      </trkpt>
      <trkpt lat="45.98829" lon="6.47091">
        <ele>1526.075</ele>
        <time>2013-07-20T10:14:10Z</time>
      </trkpt>
      <trkpt lat="45.98792" lon="6.4708">
        <ele>1523.647</ele>
        <time>2013-07-20T10:14:13Z</time>
      </trkpt>
      <trkpt lat="45.98759" lon="6.47048">
        <ele>1521.371</ele>
        <time>2013-07-20T10:14:16Z</time>
      </trkpt>
      <trkpt lat="45.98733" lon="6.47003">
        <ele>1518.36</ele>
        <time>2013-07-20T10:14:19Z</time>
      </trkpt>
      <trkpt lat="45.98654" lon="6.46814">
        <ele>1506.85</ele>
        <time>2013-07-20T10:14:30Z</time>
      </trkpt>
      <trkpt lat="45.98611" lon="6.46713">
        <ele>1500.625</ele>
        <time>2013-07-20T10:14:36Z</time>
      </trkpt>
      <trkpt lat="45.98574" lon="6.46654">
        <ele>1496.147</ele>
        <time>2013-07-20T10:14:40Z</time>
      </trkpt>
      <trkpt lat="45.98527" lon="6.46612">
        <ele>1490.984</ele>
        <time>2013-07-20T10:14:44Z</time>
      </trkpt>
      <trkpt lat="45.98473" lon="6.46589">
        <ele>1487.083</ele>
        <time>2013-07-20T10:14:48Z</time>
      </trkpt>
      <trkpt lat="45.98348" lon="6.46547">
        <ele>1476.696</ele>
        <time>2013-07-20T10:14:57Z</time>
      </trkpt>
      <trkpt lat="45.98307" lon="6.46533">
        <ele>1473.435</ele>
        <time>2013-07-20T10:15:00Z</time>
      </trkpt>
      <trkpt lat="45.98251" lon="6.46534">
        <ele>1469.15</ele>
        <time>2013-07-20T10:15:04Z</time>
      </trkpt>
      <trkpt lat="45.98137" lon="6.46565">
        <ele>1458.715</ele>
        <time>2013-07-20T10:15:12Z</time>
      </trkpt>
      <trkpt lat="45.98035" lon="6.46592">
        <ele>1450.426</ele>
        <time>2013-07-20T10:15:19Z</time>
      </trkpt>
      <trkpt lat="45.97981" lon="6.46628">
        <ele>1445.417</ele>
        <time>2013-07-20T10:15:23Z</time>
      </trkpt>
      <trkpt lat="45.97904" lon="6.46696">
        <ele>1438.297</ele>
        <time>2013-07-20T10:15:29Z</time>
      </trkpt>
      <trkpt lat="45.97862" lon="6.46758">
        <ele>1432.917</ele>
        <time>2013-07-20T10:15:33Z</time>
      </trkpt>
      <trkpt lat="45.97855" lon="6.46777">
        <ele>1431.841</ele>
        <time>2013-07-20T10:15:34Z</time>
      </trkpt>
      <trkpt lat="45.97811" lon="6.46857">
        <ele>1426.984</ele>
        <time>2013-07-20T10:15:39Z</time>
      </trkpt>
      <trkpt lat="45.97787" lon="6.46875">
        <ele>1425.255</ele>
        <time>2013-07-20T10:15:41Z</time>
      </trkpt>
      <trkpt lat="45.97734" lon="6.46901">
        <ele>1421.309</ele>
        <time>2013-07-20T10:15:45Z</time>
      </trkpt>
      <trkpt lat="45.97691" lon="6.46949">
        <ele>1417.555</ele>
        <time>2013-07-20T10:15:49Z</time>
      </trkpt>
      <trkpt lat="45.97669" lon="6.46988">
        <ele>1413.967</ele>
        <time>2013-07-20T10:15:52Z</time>
      </trkpt>
      <trkpt lat="45.97663" lon="6.46998">
        <ele>1412.798</ele>
        <time>2013-07-20T10:15:53Z</time>
      </trkpt>
      <trkpt lat="45.97642" lon="6.47007">
        <ele>1410.658</ele>
        <time>2013-07-20T10:15:56Z</time>
      </trkpt>
      <trkpt lat="45.97636" lon="6.46999">
        <ele>1410.344</ele>
        <time>2013-07-20T10:15:57Z</time>
      </trkpt>
      <trkpt lat="45.97631" lon="6.46975">
        <ele>1409.687</ele>
        <time>2013-07-20T10:15:59Z</time>
      </trkpt>
      <trkpt lat="45.97641" lon="6.4695">
        <ele>1408.782</ele>
        <time>2013-07-20T10:16:01Z</time>
      </trkpt>
      <trkpt lat="45.9765" lon="6.46937">
        <ele>1408.194</ele>
        <time>2013-07-20T10:16:02Z</time>
      </trkpt>
      <trkpt lat="45.97691" lon="6.46851">
        <ele>1403.986</ele>
        <time>2013-07-20T10:16:08Z</time>
      </trkpt>
      <trkpt lat="45.97736" lon="6.46735">
        <ele>1397.656</ele>
        <time>2013-07-20T10:16:15Z</time>
      </trkpt>
      <trkpt lat="45.97759" lon="6.46643">
        <ele>1392.977</ele>
        <time>2013-07-20T10:16:20Z</time>
      </trkpt>
      <trkpt lat="45.97784" lon="6.4653">
        <ele>1387.374</ele>
        <time>2013-07-20T10:16:26Z</time>
      </trkpt>
      <trkpt lat="45.97823" lon="6.4636">
        <ele>1378.251</ele>
        <time>2013-07-20T10:16:35Z</time>
      </trkpt>
      <trkpt lat="45.97827" lon="6.46342">
        <ele>1378.251</ele>
        <time>2013-07-20T10:16:36Z</time>
      </trkpt>
      <trkpt lat="45.9784" lon="6.46288">
        <ele>1375.769</ele>
        <time>2013-07-20T10:16:39Z</time>
      </trkpt>
      <trkpt lat="45.97841" lon="6.46243">
        <ele>1371.978</ele>
        <time>2013-07-20T10:16:42Z</time>
      </trkpt>
      <trkpt lat="45.97824" lon="6.46233">
        <ele>1370.731</ele>
        <time>2013-07-20T10:16:44Z</time>
      </trkpt>
      <trkpt lat="45.97806" lon="6.46249">
        <ele>1369.038</ele>
        <time>2013-07-20T10:16:46Z</time>
      </trkpt>
      <trkpt lat="45.97794" lon="6.46276">
        <ele>1368.302</ele>
        <time>2013-07-20T10:16:48Z</time>
      </trkpt>
      <trkpt lat="45.97776" lon="6.46335">
        <ele>1367.065</ele>
        <time>2013-07-20T10:16:52Z</time>
      </trkpt>
      <trkpt lat="45.97715" lon="6.46417">
        <ele>1362.007</ele>
        <time>2013-07-20T10:16:59Z</time>
      </trkpt>
      <trkpt lat="45.97646" lon="6.46502">
        <ele>1355.49</ele>
        <time>2013-07-20T10:17:06Z</time>
      </trkpt>
      <trkpt lat="45.9762" lon="6.46508">
        <ele>1352.029</ele>
        <time>2013-07-20T10:17:09Z</time>
      </trkpt>
      <trkpt lat="45.97614" lon="6.4648">
        <ele>1350.481</ele>
        <time>2013-07-20T10:17:11Z</time>
      </trkpt>
      <trkpt lat="45.97616" lon="6.46465">
        <ele>1349.578</ele>
        <time>2013-07-20T10:17:12Z</time>
      </trkpt>
      <trkpt lat="45.97628" lon="6.46351">
        <ele>1345</ele>
        <time>2013-07-20T10:17:19Z</time>
      </trkpt>
      <trkpt lat="45.97637" lon="6.46244">
        <ele>1338.17</ele>
        <time>2013-07-20T10:17:25Z</time>
      </trkpt>
      <trkpt lat="45.97633" lon="6.46132">
        <ele>1332.902</ele>
        <time>2013-07-20T10:17:31Z</time>
      </trkpt>
      <trkpt lat="45.97627" lon="6.46037">
        <ele>1328.141</ele>
        <time>2013-07-20T10:17:36Z</time>
      </trkpt>
      <trkpt lat="45.9761" lon="6.45989">
        <ele>1327.115</ele>
        <time>2013-07-20T10:17:39Z</time>
      </trkpt>
      <trkpt lat="45.97584" lon="6.45957">
        <ele>1325.47</ele>
        <time>2013-07-20T10:17:42Z</time>
      </trkpt>
      <trkpt lat="45.9754" lon="6.45888">
        <ele>1322.823</ele>
        <time>2013-07-20T10:17:48Z</time>
      </trkpt>
      <trkpt lat="45.97508" lon="6.45833">
        <ele>1320.994</ele>
        <time>2013-07-20T10:17:53Z</time>
      </trkpt>
      <trkpt lat="45.97485" lon="6.45789">
        <ele>1320.489</ele>
        <time>2013-07-20T10:17:57Z</time>
      </trkpt>
      <trkpt lat="45.9745" lon="6.45717">
        <ele>1318.12</ele>
        <time>2013-07-20T10:18:03Z</time>
      </trkpt>
      <trkpt lat="45.97424" lon="6.45649">
        <ele>1315.049</ele>
        <time>2013-07-20T10:18:08Z</time>
      </trkpt>
      <trkpt lat="45.974" lon="6.45579">
        <ele>1312.242</ele>
        <time>2013-07-20T10:18:13Z</time>
      </trkpt>
      <trkpt lat="45.97382" lon="6.45501">
        <ele>1310.295</ele>
        <time>2013-07-20T10:18:18Z</time>
      </trkpt>
      <trkpt lat="45.97364" lon="6.45412">
        <ele>1307.921</ele>
        <time>2013-07-20T10:18:24Z</time>
      </trkpt>
      <trkpt lat="45.97344" lon="6.45313">
        <ele>1304.914</ele>
        <time>2013-07-20T10:18:31Z</time>
      </trkpt>
      <trkpt lat="45.97341" lon="6.45297">
        <ele>1304.703</ele>
        <time>2013-07-20T10:18:32Z</time>
      </trkpt>
      <trkpt lat="45.97335" lon="6.45247">
        <ele>1303.749</ele>
        <time>2013-07-20T10:18:35Z</time>
      </trkpt>
      <trkpt lat="45.97312" lon="6.45166">
        <ele>1300.174</ele>
        <time>2013-07-20T10:18:40Z</time>
      </trkpt>
      <trkpt lat="45.97294" lon="6.45117">
        <ele>1296.787</ele>
        <time>2013-07-20T10:18:43Z</time>
      </trkpt>
      <trkpt lat="45.97265" lon="6.45059">
        <ele>1293.777</ele>
        <time>2013-07-20T10:18:47Z</time>
      </trkpt>
      <trkpt lat="45.97237" lon="6.45002">
        <ele>1290.971</ele>
        <time>2013-07-20T10:18:51Z</time>
      </trkpt>
      <trkpt lat="45.9722" lon="6.4498">
        <ele>1290.004</ele>
        <time>2013-07-20T10:18:53Z</time>
      </trkpt>
      <trkpt lat="45.97182" lon="6.44952">
        <ele>1288.991</ele>
        <time>2013-07-20T10:18:57Z</time>
      </trkpt>
      <trkpt lat="45.97111" lon="6.4491">
        <ele>1287.079</ele>
        <time>2013-07-20T10:19:05Z</time>
      </trkpt>
      <trkpt lat="45.97034" lon="6.44866">
        <ele>1285.735</ele>
        <time>2013-07-20T10:19:14Z</time>
      </trkpt>
      <trkpt lat="45.96953" lon="6.44818">
        <ele>1283.66</ele>
        <time>2013-07-20T10:19:23Z</time>
      </trkpt>
      <trkpt lat="45.96935" lon="6.44805">
        <ele>1282.784</ele>
        <time>2013-07-20T10:19:25Z</time>
      </trkpt>
      <trkpt lat="45.96893" lon="6.44757">
        <ele>1279.946</ele>
        <time>2013-07-20T10:19:30Z</time>
      </trkpt>
      <trkpt lat="45.9685" lon="6.44699">
        <ele>1275.958</ele>
        <time>2013-07-20T10:19:35Z</time>
      </trkpt>
      <trkpt lat="45.96822" lon="6.44638">
        <ele>1271.074</ele>
        <time>2013-07-20T10:19:39Z</time>
      </trkpt>
      <trkpt lat="45.96789" lon="6.44487">
        <ele>1261.956</ele>
        <time>2013-07-20T10:19:47Z</time>
      </trkpt>
      <trkpt lat="45.96776" lon="6.44428">
        <ele>1258.849</ele>
        <time>2013-07-20T10:19:50Z</time>
      </trkpt>
      <trkpt lat="45.96746" lon="6.44363">
        <ele>1255.3</ele>
        <time>2013-07-20T10:19:54Z</time>
      </trkpt>
      <trkpt lat="45.96685" lon="6.44286">
        <ele>1249.806</ele>
        <time>2013-07-20T10:20:00Z</time>
      </trkpt>
      <trkpt lat="45.96642" lon="6.4422">
        <ele>1246.437</ele>
        <time>2013-07-20T10:20:05Z</time>
      </trkpt>
      <trkpt lat="45.96612" lon="6.44152">
        <ele>1244.037</ele>
        <time>2013-07-20T10:20:10Z</time>
      </trkpt>
      <trkpt lat="45.96577" lon="6.44064">
        <ele>1242.093</ele>
        <time>2013-07-20T10:20:17Z</time>
      </trkpt>
      <trkpt lat="45.96548" lon="6.4399">
        <ele>1240.75</ele>
        <time>2013-07-20T10:20:23Z</time>
      </trkpt>
      <trkpt lat="45.9652" lon="6.43918">
        <ele>1241.419</ele>
        <time>2013-07-20T10:20:29Z</time>
      </trkpt>
      <trkpt lat="45.96493" lon="6.43859">
        <ele>1239.944</ele>
        <time>2013-07-20T10:20:34Z</time>
      </trkpt>
      <trkpt lat="45.96465" lon="6.43815">
        <ele>1238.486</ele>
        <time>2013-07-20T10:20:38Z</time>
      </trkpt>
      <trkpt lat="45.96425" lon="6.43759">
        <ele>1235.757</ele>
        <time>2013-07-20T10:20:43Z</time>
      </trkpt>
      <trkpt lat="45.96382" lon="6.43693">
        <ele>1234.046</ele>
        <time>2013-07-20T10:20:49Z</time>
      </trkpt>
      <trkpt lat="45.9634" lon="6.4366">
        <ele>1233.721</ele>
        <time>2013-07-20T10:20:54Z</time>
      </trkpt>
      <trkpt lat="45.96293" lon="6.43629">
        <ele>1232.672</ele>
        <time>2013-07-20T10:21:00Z</time>
      </trkpt>
      <trkpt lat="45.96286" lon="6.43623">
        <ele>1232.423</ele>
        <time>2013-07-20T10:21:01Z</time>
      </trkpt>
      <trkpt lat="45.96262" lon="6.4359">
        <ele>1232.185</ele>
        <time>2013-07-20T10:21:05Z</time>
      </trkpt>
      <trkpt lat="45.96258" lon="6.43577">
        <ele>1232.22</ele>
        <time>2013-07-20T10:21:06Z</time>
      </trkpt>
      <trkpt lat="45.96233" lon="6.43532">
        <ele>1231.428</ele>
        <time>2013-07-20T10:21:10Z</time>
      </trkpt>
      <trkpt lat="45.96204" lon="6.43512">
        <ele>1230.203</ele>
        <time>2013-07-20T10:21:13Z</time>
      </trkpt>
      <trkpt lat="45.96175" lon="6.43484">
        <ele>1228.409</ele>
        <time>2013-07-20T10:21:16Z</time>
      </trkpt>
      <trkpt lat="45.96142" lon="6.43481">
        <ele>1225.737</ele>
        <time>2013-07-20T10:21:19Z</time>
      </trkpt>
      <trkpt lat="45.96129" lon="6.435">
        <ele>1224.533</ele>
        <time>2013-07-20T10:21:21Z</time>
      </trkpt>
      <trkpt lat="45.96123" lon="6.43514">
        <ele>1223.868</ele>
        <time>2013-07-20T10:21:22Z</time>
      </trkpt>
      <trkpt lat="45.961" lon="6.43573">
        <ele>1221.129</ele>
        <time>2013-07-20T10:21:26Z</time>
      </trkpt>
      <trkpt lat="45.96087" lon="6.43622">
        <ele>1219.934</ele>
        <time>2013-07-20T10:21:29Z</time>
      </trkpt>
      <trkpt lat="45.96059" lon="6.43681">
        <ele>1216.871</ele>
        <time>2013-07-20T10:21:33Z</time>
      </trkpt>
      <trkpt lat="45.96049" lon="6.43692">
        <ele>1215.953</ele>
        <time>2013-07-20T10:21:34Z</time>
      </trkpt>
      <trkpt lat="45.95983" lon="6.43745">
        <ele>1210.833</ele>
        <time>2013-07-20T10:21:40Z</time>
      </trkpt>
      <trkpt lat="45.95934" lon="6.43764">
        <ele>1208.088</ele>
        <time>2013-07-20T10:21:44Z</time>
      </trkpt>
      <trkpt lat="45.9586" lon="6.43783">
        <ele>1203.066</ele>
        <time>2013-07-20T10:21:50Z</time>
      </trkpt>
      <trkpt lat="45.9576" lon="6.43802">
        <ele>1197.004</ele>
        <time>2013-07-20T10:21:58Z</time>
      </trkpt>
      <trkpt lat="45.9571" lon="6.43793">
        <ele>1192.781</ele>
        <time>2013-07-20T10:22:02Z</time>
      </trkpt>
      <trkpt lat="45.9561" lon="6.43755">
        <ele>1186.077</ele>
        <time>2013-07-20T10:22:10Z</time>
      </trkpt>
      <trkpt lat="45.95548" lon="6.4373">
        <ele>1182.327</ele>
        <time>2013-07-20T10:22:15Z</time>
      </trkpt>
      <trkpt lat="45.9552" lon="6.43735">
        <ele>1179.21</ele>
        <time>2013-07-20T10:22:18Z</time>
      </trkpt>
      <trkpt lat="45.95519" lon="6.43761">
        <ele>1177.53</ele>
        <time>2013-07-20T10:22:20Z</time>
      </trkpt>
      <trkpt lat="45.95537" lon="6.4378">
        <ele>1176.553</ele>
        <time>2013-07-20T10:22:22Z</time>
      </trkpt>
      <trkpt lat="45.95547" lon="6.43785">
        <ele>1176.275</ele>
        <time>2013-07-20T10:22:23Z</time>
      </trkpt>
      <trkpt lat="45.95599" lon="6.43818">
        <ele>1173.83</ele>
        <time>2013-07-20T10:22:28Z</time>
      </trkpt>
      <trkpt lat="45.95635" lon="6.43862">
        <ele>1171.69</ele>
        <time>2013-07-20T10:22:32Z</time>
      </trkpt>
      <trkpt lat="45.95664" lon="6.43919">
        <ele>1169.127</ele>
        <time>2013-07-20T10:22:36Z</time>
      </trkpt>
      <trkpt lat="45.95671" lon="6.43934">
        <ele>1168.728</ele>
        <time>2013-07-20T10:22:37Z</time>
      </trkpt>
      <trkpt lat="45.95675" lon="6.43976">
        <ele>1165.434</ele>
        <time>2013-07-20T10:22:40Z</time>
      </trkpt>
      <trkpt lat="45.95657" lon="6.43987">
        <ele>1164.146</ele>
        <time>2013-07-20T10:22:42Z</time>
      </trkpt>
      <trkpt lat="45.95641" lon="6.4397">
        <ele>1161.714</ele>
        <time>2013-07-20T10:22:44Z</time>
      </trkpt>
      <trkpt lat="45.95634" lon="6.43958">
        <ele>1160.523</ele>
        <time>2013-07-20T10:22:45Z</time>
      </trkpt>
      <trkpt lat="45.9562" lon="6.43933">
        <ele>1159.373</ele>
        <time>2013-07-20T10:22:47Z</time>
      </trkpt>
      <trkpt lat="45.95582" lon="6.43896">
        <ele>1157.709</ele>
        <time>2013-07-20T10:22:51Z</time>
      </trkpt>
      <trkpt lat="45.9557" lon="6.43891">
        <ele>1156.954</ele>
        <time>2013-07-20T10:22:52Z</time>
      </trkpt>
      <trkpt lat="45.95546" lon="6.43883">
        <ele>1155.975</ele>
        <time>2013-07-20T10:22:54Z</time>
      </trkpt>
      <trkpt lat="45.95533" lon="6.43878">
        <ele>1155.354</ele>
        <time>2013-07-20T10:22:55Z</time>
      </trkpt>
      <trkpt lat="45.95487" lon="6.43847">
        <ele>1152.437</ele>
        <time>2013-07-20T10:22:59Z</time>
      </trkpt>
      <trkpt lat="45.95461" lon="6.4381">
        <ele>1149.454</ele>
        <time>2013-07-20T10:23:02Z</time>
      </trkpt>
      <trkpt lat="45.95437" lon="6.43805">
        <ele>1145.703</ele>
        <time>2013-07-20T10:23:05Z</time>
      </trkpt>
      <trkpt lat="45.95438" lon="6.43832">
        <ele>1144.696</ele>
        <time>2013-07-20T10:23:07Z</time>
      </trkpt>
      <trkpt lat="45.95455" lon="6.43853">
        <ele>1143.04</ele>
        <time>2013-07-20T10:23:09Z</time>
      </trkpt>
      <trkpt lat="45.95464" lon="6.43862">
        <ele>1142.635</ele>
        <time>2013-07-20T10:23:10Z</time>
      </trkpt>
      <trkpt lat="45.95498" lon="6.43907">
        <ele>1140.841</ele>
        <time>2013-07-20T10:23:14Z</time>
      </trkpt>
      <trkpt lat="45.9552" lon="6.43968">
        <ele>1137.351</ele>
        <time>2013-07-20T10:23:18Z</time>
      </trkpt>
      <trkpt lat="45.95523" lon="6.43984">
        <ele>1136.979</ele>
        <time>2013-07-20T10:23:19Z</time>
      </trkpt>
      <trkpt lat="45.95512" lon="6.44017">
        <ele>1133.693</ele>
        <time>2013-07-20T10:23:22Z</time>
      </trkpt>
      <trkpt lat="45.95496" lon="6.44003">
        <ele>1131.88</ele>
        <time>2013-07-20T10:23:24Z</time>
      </trkpt>
      <trkpt lat="45.95493" lon="6.43988">
        <ele>1130.866</ele>
        <time>2013-07-20T10:23:25Z</time>
      </trkpt>
      <trkpt lat="45.95473" lon="6.43937">
        <ele>1128.397</ele>
        <time>2013-07-20T10:23:29Z</time>
      </trkpt>
      <trkpt lat="45.95465" lon="6.43927">
        <ele>1127.994</ele>
        <time>2013-07-20T10:23:30Z</time>
      </trkpt>
      <trkpt lat="45.95395" lon="6.43863">
        <ele>1124.412</ele>
        <time>2013-07-20T10:23:37Z</time>
      </trkpt>
      <trkpt lat="45.95355" lon="6.43818">
        <ele>1120.996</ele>
        <time>2013-07-20T10:23:41Z</time>
      </trkpt>
      <trkpt lat="45.95338" lon="6.43791">
        <ele>1120.177</ele>
        <time>2013-07-20T10:23:43Z</time>
      </trkpt>
      <trkpt lat="45.95321" lon="6.43764">
        <ele>1118.691</ele>
        <time>2013-07-20T10:23:45Z</time>
      </trkpt>
      <trkpt lat="45.95277" lon="6.43727">
        <ele>1114.949</ele>
        <time>2013-07-20T10:23:49Z</time>
      </trkpt>
      <trkpt lat="45.95189" lon="6.43687">
        <ele>1109.744</ele>
        <time>2013-07-20T10:23:56Z</time>
      </trkpt>
      <trkpt lat="45.95116" lon="6.43644">
        <ele>1102.971</ele>
        <time>2013-07-20T10:24:02Z</time>
      </trkpt>
      <trkpt lat="45.95055" lon="6.436">
        <ele>1098.582</ele>
        <time>2013-07-20T10:24:07Z</time>
      </trkpt>
      <trkpt lat="45.94997" lon="6.4355">
        <ele>1093.229</ele>
        <time>2013-07-20T10:24:12Z</time>
      </trkpt>
      <trkpt lat="45.94986" lon="6.43537">
        <ele>1092.313</ele>
        <time>2013-07-20T10:24:13Z</time>
      </trkpt>
      <trkpt lat="45.94943" lon="6.43503">
        <ele>1087.503</ele>
        <time>2013-07-20T10:24:17Z</time>
      </trkpt>
      <trkpt lat="45.9491" lon="6.43491">
        <ele>1085.404</ele>
        <time>2013-07-20T10:24:20Z</time>
      </trkpt>
      <trkpt lat="45.94889" lon="6.43471">
        <ele>1084.247</ele>
        <time>2013-07-20T10:24:22Z</time>
      </trkpt>
      <trkpt lat="45.94859" lon="6.43437">
        <ele>1082.767</ele>
        <time>2013-07-20T10:24:25Z</time>
      </trkpt>
      <trkpt lat="45.94797" lon="6.43374">
        <ele>1077.241</ele>
        <time>2013-07-20T10:24:31Z</time>
      </trkpt>
      <trkpt lat="45.94746" lon="6.43317">
        <ele>1073.04</ele>
        <time>2013-07-20T10:24:36Z</time>
      </trkpt>
      <trkpt lat="45.94674" lon="6.43237">
        <ele>1066.885</ele>
        <time>2013-07-20T10:24:43Z</time>
      </trkpt>
      <trkpt lat="45.94642" lon="6.43179">
        <ele>1063.766</ele>
        <time>2013-07-20T10:24:47Z</time>
      </trkpt>
      <trkpt lat="45.94626" lon="6.43151">
        <ele>1061.995</ele>
        <time>2013-07-20T10:24:49Z</time>
      </trkpt>
      <trkpt lat="45.94608" lon="6.43104">
        <ele>1060.753</ele>
        <time>2013-07-20T10:24:52Z</time>
      </trkpt>
      <trkpt lat="45.94607" lon="6.43086">
        <ele>1060.369</ele>
        <time>2013-07-20T10:24:53Z</time>
      </trkpt>
      <trkpt lat="45.94606" lon="6.43053">
        <ele>1058.609</ele>
        <time>2013-07-20T10:24:55Z</time>
      </trkpt>
      <trkpt lat="45.94592" lon="6.43019">
        <ele>1056.654</ele>
        <time>2013-07-20T10:24:58Z</time>
      </trkpt>
      <trkpt lat="45.94578" lon="6.43034">
        <ele>1055.027</ele>
        <time>2013-07-20T10:25:00Z</time>
      </trkpt>
      <trkpt lat="45.94576" lon="6.43074">
        <ele>1053.338</ele>
        <time>2013-07-20T10:25:03Z</time>
      </trkpt>
      <trkpt lat="45.94588" lon="6.43102">
        <ele>1052.562</ele>
        <time>2013-07-20T10:25:05Z</time>
      </trkpt>
      <trkpt lat="45.94607" lon="6.43177">
        <ele>1049.981</ele>
        <time>2013-07-20T10:25:10Z</time>
      </trkpt>
      <trkpt lat="45.94625" lon="6.43238">
        <ele>1048.231</ele>
        <time>2013-07-20T10:25:14Z</time>
      </trkpt>
      <trkpt lat="45.94656" lon="6.4333">
        <ele>1044.688</ele>
        <time>2013-07-20T10:25:20Z</time>
      </trkpt>
      <trkpt lat="45.94663" lon="6.43344">
        <ele>1043.885</ele>
        <time>2013-07-20T10:25:21Z</time>
      </trkpt>
      <trkpt lat="45.94679" lon="6.4337">
        <ele>1042.758</ele>
        <time>2013-07-20T10:25:23Z</time>
      </trkpt>
      <trkpt lat="45.94687" lon="6.43402">
        <ele>1040.188</ele>
        <time>2013-07-20T10:25:26Z</time>
      </trkpt>
      <trkpt lat="45.94671" lon="6.43399">
        <ele>1038.354</ele>
        <time>2013-07-20T10:25:28Z</time>
      </trkpt>
      <trkpt lat="45.94657" lon="6.43381">
        <ele>1037.103</ele>
        <time>2013-07-20T10:25:30Z</time>
      </trkpt>
      <trkpt lat="45.94616" lon="6.43305">
        <ele>1034.06</ele>
        <time>2013-07-20T10:25:36Z</time>
      </trkpt>
      <trkpt lat="45.94567" lon="6.43227">
        <ele>1029.853</ele>
        <time>2013-07-20T10:25:42Z</time>
      </trkpt>
      <trkpt lat="45.94544" lon="6.43163">
        <ele>1026.403</ele>
        <time>2013-07-20T10:25:46Z</time>
      </trkpt>
      <trkpt lat="45.94528" lon="6.43077">
        <ele>1022.36</ele>
        <time>2013-07-20T10:25:51Z</time>
      </trkpt>
      <trkpt lat="45.94519" lon="6.42952">
        <ele>1016.134</ele>
        <time>2013-07-20T10:25:58Z</time>
      </trkpt>
      <trkpt lat="45.94514" lon="6.42897">
        <ele>1014.289</ele>
        <time>2013-07-20T10:26:01Z</time>
      </trkpt>
      <trkpt lat="45.94495" lon="6.42828">
        <ele>1011.292</ele>
        <time>2013-07-20T10:26:05Z</time>
      </trkpt>
      <trkpt lat="45.94449" lon="6.42714">
        <ele>1005.953</ele>
        <time>2013-07-20T10:26:12Z</time>
      </trkpt>
      <trkpt lat="45.94402" lon="6.42623">
        <ele>1001.371</ele>
        <time>2013-07-20T10:26:18Z</time>
      </trkpt>
      <trkpt lat="45.94395" lon="6.42608">
        <ele>1000.561</ele>
        <time>2013-07-20T10:26:19Z</time>
      </trkpt>
      <trkpt lat="45.94365" lon="6.42573">
        <ele>998.318</ele>
        <time>2013-07-20T10:26:22Z</time>
      </trkpt>
      <trkpt lat="45.94319" lon="6.42513">
        <ele>994.086</ele>
        <time>2013-07-20T10:26:27Z</time>
      </trkpt>
      <trkpt lat="45.94238" lon="6.42398">
        <ele>987.172</ele>
        <time>2013-07-20T10:26:36Z</time>
      </trkpt>
      <trkpt lat="45.94199" lon="6.4235">
        <ele>984.364</ele>
        <time>2013-07-20T10:26:40Z</time>
      </trkpt>
      <trkpt lat="45.94167" lon="6.42292">
        <ele>981.208</ele>
        <time>2013-07-20T10:26:44Z</time>
      </trkpt>
      <trkpt lat="45.94134" lon="6.42244">
        <ele>979.376</ele>
        <time>2013-07-20T10:26:48Z</time>
      </trkpt>
      <trkpt lat="45.94122" lon="6.42238">
        <ele>979.027</ele>
        <time>2013-07-20T10:26:49Z</time>
      </trkpt>
      <trkpt lat="45.94088" lon="6.4222">
        <ele>976.716</ele>
        <time>2013-07-20T10:26:52Z</time>
      </trkpt>
      <trkpt lat="45.94048" lon="6.42181">
        <ele>974.713</ele>
        <time>2013-07-20T10:26:56Z</time>
      </trkpt>
      <trkpt lat="45.94038" lon="6.42169">
        <ele>974.029</ele>
        <time>2013-07-20T10:26:57Z</time>
      </trkpt>
      <trkpt lat="45.94017" lon="6.42132">
        <ele>970.017</ele>
        <time>2013-07-20T10:27:00Z</time>
      </trkpt>
      <trkpt lat="45.94" lon="6.42123">
        <ele>966.455</ele>
        <time>2013-07-20T10:27:03Z</time>
      </trkpt>
      <trkpt lat="45.93998" lon="6.4214">
        <ele>964.383</ele>
        <time>2013-07-20T10:27:05Z</time>
      </trkpt>
      <trkpt lat="45.94004" lon="6.42155">
        <ele>962.982</ele>
        <time>2013-07-20T10:27:07Z</time>
      </trkpt>
      <trkpt lat="45.94034" lon="6.42189">
        <ele>961.434</ele>
        <time>2013-07-20T10:27:11Z</time>
      </trkpt>
      <trkpt lat="45.94036" lon="6.422">
        <ele>961.142</ele>
        <time>2013-07-20T10:27:12Z</time>
      </trkpt>
      <trkpt lat="45.94058" lon="6.42282">
        <ele>957.253</ele>
        <time>2013-07-20T10:27:18Z</time>
      </trkpt>
      <trkpt lat="45.94078" lon="6.42368">
        <ele>951.319</ele>
        <time>2013-07-20T10:27:24Z</time>
      </trkpt>
      <trkpt lat="45.94077" lon="6.42396">
        <ele>948.442</ele>
        <time>2013-07-20T10:27:27Z</time>
      </trkpt>
      <trkpt lat="45.94063" lon="6.42407">
        <ele>945.363</ele>
        <time>2013-07-20T10:27:30Z</time>
      </trkpt>
      <trkpt lat="45.94046" lon="6.42398">
        <ele>944.239</ele>
        <time>2013-07-20T10:27:33Z</time>
      </trkpt>
      <trkpt lat="45.94036" lon="6.42384">
        <ele>943.416</ele>
        <time>2013-07-20T10:27:35Z</time>
      </trkpt>
      <trkpt lat="45.94009" lon="6.42336">
        <ele>941.858</ele>
        <time>2013-07-20T10:27:40Z</time>
      </trkpt>
      <trkpt lat="45.93987" lon="6.4229">
        <ele>941.858</ele>
        <time>2013-07-20T10:27:44Z</time>
      </trkpt>
      <trkpt lat="45.9398" lon="6.42278">
        <ele>941.788</ele>
        <time>2013-07-20T10:27:45Z</time>
      </trkpt>
      <trkpt lat="45.93944" lon="6.42207">
        <ele>939.273</ele>
        <time>2013-07-20T10:27:51Z</time>
      </trkpt>
      <trkpt lat="45.93909" lon="6.4214">
        <ele>939.365</ele>
        <time>2013-07-20T10:27:57Z</time>
      </trkpt>
      <trkpt lat="45.93884" lon="6.42097">
        <ele>940.204</ele>
        <time>2013-07-20T10:28:02Z</time>
      </trkpt>
      <trkpt lat="45.93863" lon="6.42058">
        <ele>940.189</ele>
        <time>2013-07-20T10:28:07Z</time>
      </trkpt>
      <trkpt lat="45.9384" lon="6.42013">
        <ele>940.76</ele>
        <time>2013-07-20T10:28:13Z</time>
      </trkpt>
      <trkpt lat="45.93812" lon="6.41958">
        <ele>940.259</ele>
        <time>2013-07-20T10:28:20Z</time>
      </trkpt>
      <trkpt lat="45.93786" lon="6.41919">
        <ele>939.096</ele>
        <time>2013-07-20T10:28:25Z</time>
      </trkpt>
      <trkpt lat="45.9375" lon="6.41862">
        <ele>938.357</ele>
        <time>2013-07-20T10:28:31Z</time>
      </trkpt>
      <trkpt lat="45.93719" lon="6.41789">
        <ele>936.082</ele>
        <time>2013-07-20T10:28:37Z</time>
      </trkpt>
      <trkpt lat="45.93678" lon="6.41719">
        <ele>934.218</ele>
        <time>2013-07-20T10:28:43Z</time>
      </trkpt>
      <trkpt lat="45.93634" lon="6.41657">
        <ele>932.672</ele>
        <time>2013-07-20T10:28:49Z</time>
      </trkpt>
      <trkpt lat="45.936" lon="6.41623">
        <ele>930.198</ele>
        <time>2013-07-20T10:28:53Z</time>
      </trkpt>
      <trkpt lat="45.93547" lon="6.41571">
        <ele>927.85</ele>
        <time>2013-07-20T10:28:59Z</time>
      </trkpt>
      <trkpt lat="45.93505" lon="6.41554">
        <ele>924.748</ele>
        <time>2013-07-20T10:29:03Z</time>
      </trkpt>
      <trkpt lat="45.93422" lon="6.41552">
        <ele>919.182</ele>
        <time>2013-07-20T10:29:10Z</time>
      </trkpt>
      <trkpt lat="45.93409" lon="6.41551">
        <ele>918.527</ele>
        <time>2013-07-20T10:29:11Z</time>
      </trkpt>
      <trkpt lat="45.93355" lon="6.41527">
        <ele>918.425</ele>
        <time>2013-07-20T10:29:16Z</time>
      </trkpt>
      <trkpt lat="45.93322" lon="6.41493">
        <ele>921.149</ele>
        <time>2013-07-20T10:29:21Z</time>
      </trkpt>
      <trkpt lat="45.93299" lon="6.41465">
        <ele>920.732</ele>
        <time>2013-07-20T10:29:26Z</time>
      </trkpt>
      <trkpt lat="45.93277" lon="6.41436">
        <ele>922.541</ele>
        <time>2013-07-20T10:29:32Z</time>
      </trkpt>
      <trkpt lat="45.93257" lon="6.41408">
        <ele>923.576</ele>
        <time>2013-07-20T10:29:38Z</time>
      </trkpt>
      <trkpt lat="45.93247" lon="6.41394">
        <ele>924.196</ele>
        <time>2013-07-20T10:29:41Z</time>
      </trkpt>
      <trkpt lat="45.93224" lon="6.41366">
        <ele>926.049</ele>
        <time>2013-07-20T10:29:47Z</time>
      </trkpt>
      <trkpt lat="45.93195" lon="6.41336">
        <ele>928.205</ele>
        <time>2013-07-20T10:29:55Z</time>
      </trkpt>
      <trkpt lat="45.93156" lon="6.41306">
        <ele>930.918</ele>
        <time>2013-07-20T10:30:06Z</time>
      </trkpt>
      <trkpt lat="45.93111" lon="6.41273">
        <ele>933.789</ele>
        <time>2013-07-20T10:30:19Z</time>
      </trkpt>
      <trkpt lat="45.93072" lon="6.41247">
        <ele>936.298</ele>
        <time>2013-07-20T10:30:30Z</time>
      </trkpt>
      <trkpt lat="45.93042" lon="6.41227">
        <ele>937.981</ele>
        <time>2013-07-20T10:30:39Z</time>
      </trkpt>
      <trkpt lat="45.93023" lon="6.41216">
        <ele>939.257</ele>
        <time>2013-07-20T10:30:45Z</time>
      </trkpt>
      <trkpt lat="45.92999" lon="6.41206">
        <ele>940.621</ele>
        <time>2013-07-20T10:30:51Z</time>
      </trkpt>
      <trkpt lat="45.92962" lon="6.41202">
        <ele>942.431</ele>
        <time>2013-07-20T10:31:00Z</time>
      </trkpt>
      <trkpt lat="45.92929" lon="6.41212">
        <ele>944.005</ele>
        <time>2013-07-20T10:31:08Z</time>
      </trkpt>
      <trkpt lat="45.92898" lon="6.41218">
        <ele>945.964</ele>
        <time>2013-07-20T10:31:16Z</time>
      </trkpt>
      <trkpt lat="45.9286" lon="6.41217">
        <ele>948.332</ele>
        <time>2013-07-20T10:31:26Z</time>
      </trkpt>
      <trkpt lat="45.92821" lon="6.41215">
        <ele>950.392</ele>
        <time>2013-07-20T10:31:36Z</time>
      </trkpt>
      <trkpt lat="45.92778" lon="6.41212">
        <ele>952.782</ele>
        <time>2013-07-20T10:31:47Z</time>
      </trkpt>
      <trkpt lat="45.92737" lon="6.41205">
        <ele>955.166</ele>
        <time>2013-07-20T10:31:57Z</time>
      </trkpt>
      <trkpt lat="45.92696" lon="6.41189">
        <ele>957.523</ele>
        <time>2013-07-20T10:32:07Z</time>
      </trkpt>
      <trkpt lat="45.92651" lon="6.41168">
        <ele>960.343</ele>
        <time>2013-07-20T10:32:19Z</time>
      </trkpt>
      <trkpt lat="45.92623" lon="6.4115">
        <ele>962.086</ele>
        <time>2013-07-20T10:32:27Z</time>
      </trkpt>
      <trkpt lat="45.92607" lon="6.41126">
        <ele>963.289</ele>
        <time>2013-07-20T10:32:33Z</time>
      </trkpt>
      <trkpt lat="45.92585" lon="6.41077">
        <ele>965.687</ele>
        <time>2013-07-20T10:32:43Z</time>
      </trkpt>
      <trkpt lat="45.92559" lon="6.41026">
        <ele>968.516</ele>
        <time>2013-07-20T10:32:54Z</time>
      </trkpt>
      <trkpt lat="45.92535" lon="6.40987">
        <ele>970.056</ele>
        <time>2013-07-20T10:33:03Z</time>
      </trkpt>
      <trkpt lat="45.92514" lon="6.40958">
        <ele>971.692</ele>
        <time>2013-07-20T10:33:10Z</time>
      </trkpt>
      <trkpt lat="45.92489" lon="6.40939">
        <ele>973.227</ele>
        <time>2013-07-20T10:33:17Z</time>
      </trkpt>
      <trkpt lat="45.9248" lon="6.40936">
        <ele>973.696</ele>
        <time>2013-07-20T10:33:19Z</time>
      </trkpt>
      <trkpt lat="45.92468" lon="6.40934">
        <ele>974.247</ele>
        <time>2013-07-20T10:33:22Z</time>
      </trkpt>
      <trkpt lat="45.92456" lon="6.40935">
        <ele>974.684</ele>
        <time>2013-07-20T10:33:25Z</time>
      </trkpt>
      <trkpt lat="45.92436" lon="6.40943">
        <ele>975.92</ele>
        <time>2013-07-20T10:33:30Z</time>
      </trkpt>
      <trkpt lat="45.92401" lon="6.40971">
        <ele>977.484</ele>
        <time>2013-07-20T10:33:39Z</time>
      </trkpt>
      <trkpt lat="45.92367" lon="6.40995">
        <ele>978.954</ele>
        <time>2013-07-20T10:33:48Z</time>
      </trkpt>
      <trkpt lat="45.92337" lon="6.41012">
        <ele>979.322</ele>
        <time>2013-07-20T10:33:55Z</time>
      </trkpt>
      <trkpt lat="45.92298" lon="6.4103">
        <ele>980.109</ele>
        <time>2013-07-20T10:34:03Z</time>
      </trkpt>
      <trkpt lat="45.92276" lon="6.41037">
        <ele>980.182</ele>
        <time>2013-07-20T10:34:08Z</time>
      </trkpt>
      <trkpt lat="45.92259" lon="6.4103">
        <ele>980.465</ele>
        <time>2013-07-20T10:34:12Z</time>
      </trkpt>
      <trkpt lat="45.9225" lon="6.41011">
        <ele>980.245</ele>
        <time>2013-07-20T10:34:15Z</time>
      </trkpt>
      <trkpt lat="45.92246" lon="6.40996">
        <ele>980.136</ele>
        <time>2013-07-20T10:34:17Z</time>
      </trkpt>
      <trkpt lat="45.92238" lon="6.40963">
        <ele>979.617</ele>
        <time>2013-07-20T10:34:21Z</time>
      </trkpt>
      <trkpt lat="45.92229" lon="6.40922">
        <ele>978.813</ele>
        <time>2013-07-20T10:34:26Z</time>
      </trkpt>
      <trkpt lat="45.92228" lon="6.40914">
        <ele>978.661</ele>
        <time>2013-07-20T10:34:27Z</time>
      </trkpt>
      <trkpt lat="45.92216" lon="6.40855">
        <ele>978.378</ele>
        <time>2013-07-20T10:34:35Z</time>
      </trkpt>
      <trkpt lat="45.92208" lon="6.40813">
        <ele>978.496</ele>
        <time>2013-07-20T10:34:40Z</time>
      </trkpt>
      <trkpt lat="45.92195" lon="6.4075">
        <ele>978.272</ele>
        <time>2013-07-20T10:34:48Z</time>
      </trkpt>
      <trkpt lat="45.92189" lon="6.40713">
        <ele>977.242</ele>
        <time>2013-07-20T10:34:54Z</time>
      </trkpt>
      <trkpt lat="45.92189" lon="6.40711">
        <ele>976.629</ele>
        <time>2013-07-20T10:34:57Z</time>
      </trkpt>
      <trkpt lat="45.92191" lon="6.40708">
        <ele>974.21</ele>
        <time>2013-07-20T10:38:34Z</time>
      </trkpt>
      <trkpt lat="45.9219" lon="6.40705">
        <ele>974.196</ele>
        <time>2013-07-20T10:38:35Z</time>
      </trkpt>
      <trkpt lat="45.92187" lon="6.40682">
        <ele>973.755</ele>
        <time>2013-07-20T10:38:40Z</time>
      </trkpt>
      <trkpt lat="45.92183" lon="6.40648">
        <ele>973.47</ele>
        <time>2013-07-20T10:38:45Z</time>
      </trkpt>
      <trkpt lat="45.9218" lon="6.40603">
        <ele>972.521</ele>
        <time>2013-07-20T10:38:51Z</time>
      </trkpt>
      <trkpt lat="45.92174" lon="6.40543">
        <ele>971.603</ele>
        <time>2013-07-20T10:38:58Z</time>
      </trkpt>
      <trkpt lat="45.92165" lon="6.40487">
        <ele>970.332</ele>
        <time>2013-07-20T10:39:04Z</time>
      </trkpt>
      <trkpt lat="45.92155" lon="6.40437">
        <ele>968.765</ele>
        <time>2013-07-20T10:39:09Z</time>
      </trkpt>
      <trkpt lat="45.92138" lon="6.40344">
        <ele>965.816</ele>
        <time>2013-07-20T10:39:18Z</time>
      </trkpt>
      <trkpt lat="45.92136" lon="6.40278">
        <ele>964.633</ele>
        <time>2013-07-20T10:39:24Z</time>
      </trkpt>
      <trkpt lat="45.92134" lon="6.40225">
        <ele>964.789</ele>
        <time>2013-07-20T10:39:28Z</time>
      </trkpt>
      <trkpt lat="45.9213" lon="6.40182">
        <ele>964.602</ele>
        <time>2013-07-20T10:39:31Z</time>
      </trkpt>
      <trkpt lat="45.9213" lon="6.40167">
        <ele>964.448</ele>
        <time>2013-07-20T10:39:32Z</time>
      </trkpt>
      <trkpt lat="45.92136" lon="6.40111">
        <ele>963.347</ele>
        <time>2013-07-20T10:39:36Z</time>
      </trkpt>
      <trkpt lat="45.92146" lon="6.40069">
        <ele>962.676</ele>
        <time>2013-07-20T10:39:39Z</time>
      </trkpt>
      <trkpt lat="45.92152" lon="6.40026">
        <ele>962.096</ele>
        <time>2013-07-20T10:39:42Z</time>
      </trkpt>
      <trkpt lat="45.92147" lon="6.39968">
        <ele>960.804</ele>
        <time>2013-07-20T10:39:46Z</time>
      </trkpt>
      <trkpt lat="45.92126" lon="6.39868">
        <ele>958.857</ele>
        <time>2013-07-20T10:39:53Z</time>
      </trkpt>
      <trkpt lat="45.9211" lon="6.39762">
        <ele>956.563</ele>
        <time>2013-07-20T10:40:00Z</time>
      </trkpt>
      <trkpt lat="45.92109" lon="6.39731">
        <ele>956.074</ele>
        <time>2013-07-20T10:40:02Z</time>
      </trkpt>
      <trkpt lat="45.92122" lon="6.39639">
        <ele>954.736</ele>
        <time>2013-07-20T10:40:08Z</time>
      </trkpt>
      <trkpt lat="45.92127" lon="6.39609">
        <ele>953.902</ele>
        <time>2013-07-20T10:40:10Z</time>
      </trkpt>
      <trkpt lat="45.92136" lon="6.3958">
        <ele>953.25</ele>
        <time>2013-07-20T10:40:12Z</time>
      </trkpt>
      <trkpt lat="45.92139" lon="6.39533">
        <ele>952.215</ele>
        <time>2013-07-20T10:40:15Z</time>
      </trkpt>
      <trkpt lat="45.92135" lon="6.39517">
        <ele>951.727</ele>
        <time>2013-07-20T10:40:16Z</time>
      </trkpt>
      <trkpt lat="45.92127" lon="6.39433">
        <ele>948.592</ele>
        <time>2013-07-20T10:40:21Z</time>
      </trkpt>
      <trkpt lat="45.92122" lon="6.39399">
        <ele>947.426</ele>
        <time>2013-07-20T10:40:23Z</time>
      </trkpt>
      <trkpt lat="45.92103" lon="6.39295">
        <ele>943.416</ele>
        <time>2013-07-20T10:40:29Z</time>
      </trkpt>
      <trkpt lat="45.92099" lon="6.39278">
        <ele>943.159</ele>
        <time>2013-07-20T10:40:30Z</time>
      </trkpt>
      <trkpt lat="45.92077" lon="6.39193">
        <ele>939.709</ele>
        <time>2013-07-20T10:40:35Z</time>
      </trkpt>
      <trkpt lat="45.9207" lon="6.39159">
        <ele>938.856</ele>
        <time>2013-07-20T10:40:37Z</time>
      </trkpt>
      <trkpt lat="45.92052" lon="6.39053">
        <ele>934.903</ele>
        <time>2013-07-20T10:40:43Z</time>
      </trkpt>
      <trkpt lat="45.9204" lon="6.38979">
        <ele>931.23</ele>
        <time>2013-07-20T10:40:47Z</time>
      </trkpt>
      <trkpt lat="45.92033" lon="6.38882">
        <ele>927.865</ele>
        <time>2013-07-20T10:40:52Z</time>
      </trkpt>
      <trkpt lat="45.9203" lon="6.38844">
        <ele>926.978</ele>
        <time>2013-07-20T10:40:54Z</time>
      </trkpt>
      <trkpt lat="45.92007" lon="6.38776">
        <ele>925.017</ele>
        <time>2013-07-20T10:40:58Z</time>
      </trkpt>
      <trkpt lat="45.9199" lon="6.38702">
        <ele>922.844</ele>
        <time>2013-07-20T10:41:02Z</time>
      </trkpt>
      <trkpt lat="45.91987" lon="6.38623">
        <ele>918.621</ele>
        <time>2013-07-20T10:41:06Z</time>
      </trkpt>
      <trkpt lat="45.91967" lon="6.3855">
        <ele>915.782</ele>
        <time>2013-07-20T10:41:10Z</time>
      </trkpt>
      <trkpt lat="45.9196" lon="6.38533">
        <ele>914.869</ele>
        <time>2013-07-20T10:41:11Z</time>
      </trkpt>
      <trkpt lat="45.91907" lon="6.38436">
        <ele>910.17</ele>
        <time>2013-07-20T10:41:17Z</time>
      </trkpt>
      <trkpt lat="45.91891" lon="6.38404">
        <ele>908.159</ele>
        <time>2013-07-20T10:41:19Z</time>
      </trkpt>
      <trkpt lat="45.91871" lon="6.38331">
        <ele>904.577</ele>
        <time>2013-07-20T10:41:23Z</time>
      </trkpt>
      <trkpt lat="45.9186" lon="6.38256">
        <ele>901.459</ele>
        <time>2013-07-20T10:41:27Z</time>
      </trkpt>
      <trkpt lat="45.91833" lon="6.38188">
        <ele>898.191</ele>
        <time>2013-07-20T10:41:31Z</time>
      </trkpt>
      <trkpt lat="45.91813" lon="6.38158">
        <ele>896.813</ele>
        <time>2013-07-20T10:41:33Z</time>
      </trkpt>
      <trkpt lat="45.91785" lon="6.38084">
        <ele>893.141</ele>
        <time>2013-07-20T10:41:37Z</time>
      </trkpt>
      <trkpt lat="45.91772" lon="6.38046">
        <ele>891.885</ele>
        <time>2013-07-20T10:41:39Z</time>
      </trkpt>
      <trkpt lat="45.9172" lon="6.37946">
        <ele>886.675</ele>
        <time>2013-07-20T10:41:45Z</time>
      </trkpt>
      <trkpt lat="45.91663" lon="6.37851">
        <ele>881.153</ele>
        <time>2013-07-20T10:41:51Z</time>
      </trkpt>
      <trkpt lat="45.91585" lon="6.37754">
        <ele>874.745</ele>
        <time>2013-07-20T10:41:58Z</time>
      </trkpt>
      <trkpt lat="45.91524" lon="6.37671">
        <ele>869.375</ele>
        <time>2013-07-20T10:42:04Z</time>
      </trkpt>
      <trkpt lat="45.91508" lon="6.37639">
        <ele>867.437</ele>
        <time>2013-07-20T10:42:06Z</time>
      </trkpt>
      <trkpt lat="45.91469" lon="6.37586">
        <ele>864.993</ele>
        <time>2013-07-20T10:42:10Z</time>
      </trkpt>
      <trkpt lat="45.91458" lon="6.37575">
        <ele>863.738</ele>
        <time>2013-07-20T10:42:11Z</time>
      </trkpt>
      <trkpt lat="45.9142" lon="6.37514">
        <ele>860.093</ele>
        <time>2013-07-20T10:42:15Z</time>
      </trkpt>
      <trkpt lat="45.91403" lon="6.37482">
        <ele>858.288</ele>
        <time>2013-07-20T10:42:17Z</time>
      </trkpt>
      <trkpt lat="45.91369" lon="6.37417">
        <ele>854.817</ele>
        <time>2013-07-20T10:42:21Z</time>
      </trkpt>
      <trkpt lat="45.91325" lon="6.37372">
        <ele>850.804</ele>
        <time>2013-07-20T10:42:25Z</time>
      </trkpt>
      <trkpt lat="45.91286" lon="6.37351">
        <ele>848.972</ele>
        <time>2013-07-20T10:42:28Z</time>
      </trkpt>
      <trkpt lat="45.91208" lon="6.37308">
        <ele>843.514</ele>
        <time>2013-07-20T10:42:34Z</time>
      </trkpt>
      <trkpt lat="45.91162" lon="6.37263">
        <ele>840.649</ele>
        <time>2013-07-20T10:42:38Z</time>
      </trkpt>
      <trkpt lat="45.91108" lon="6.37203">
        <ele>835.709</ele>
        <time>2013-07-20T10:42:43Z</time>
      </trkpt>
      <trkpt lat="45.9106" lon="6.37131">
        <ele>831.255</ele>
        <time>2013-07-20T10:42:48Z</time>
      </trkpt>
      <trkpt lat="45.91031" lon="6.37064">
        <ele>828.021</ele>
        <time>2013-07-20T10:42:52Z</time>
      </trkpt>
      <trkpt lat="45.90995" lon="6.36955">
        <ele>823.659</ele>
        <time>2013-07-20T10:42:58Z</time>
      </trkpt>
      <trkpt lat="45.90974" lon="6.36858">
        <ele>818.801</ele>
        <time>2013-07-20T10:43:03Z</time>
      </trkpt>
      <trkpt lat="45.90963" lon="6.36822">
        <ele>817.882</ele>
        <time>2013-07-20T10:43:05Z</time>
      </trkpt>
      <trkpt lat="45.90918" lon="6.36723">
        <ele>813.042</ele>
        <time>2013-07-20T10:43:11Z</time>
      </trkpt>
      <trkpt lat="45.9087" lon="6.36605">
        <ele>808.544</ele>
        <time>2013-07-20T10:43:18Z</time>
      </trkpt>
      <trkpt lat="45.90856" lon="6.36572">
        <ele>806.707</ele>
        <time>2013-07-20T10:43:20Z</time>
      </trkpt>
      <trkpt lat="45.90839" lon="6.36543">
        <ele>804.364</ele>
        <time>2013-07-20T10:43:22Z</time>
      </trkpt>
      <trkpt lat="45.90825" lon="6.36516">
        <ele>802.467</ele>
        <time>2013-07-20T10:43:24Z</time>
      </trkpt>
      <trkpt lat="45.90765" lon="6.36433">
        <ele>799.277</ele>
        <time>2013-07-20T10:43:31Z</time>
      </trkpt>
      <trkpt lat="45.90737" lon="6.36356">
        <ele>795.343</ele>
        <time>2013-07-20T10:43:36Z</time>
      </trkpt>
      <trkpt lat="45.90704" lon="6.36302">
        <ele>792.496</ele>
        <time>2013-07-20T10:43:40Z</time>
      </trkpt>
      <trkpt lat="45.90614" lon="6.36215">
        <ele>786.805</ele>
        <time>2013-07-20T10:43:48Z</time>
      </trkpt>
      <trkpt lat="45.90547" lon="6.3615">
        <ele>781.552</ele>
        <time>2013-07-20T10:43:54Z</time>
      </trkpt>
      <trkpt lat="45.90512" lon="6.36096">
        <ele>778.336</ele>
        <time>2013-07-20T10:43:58Z</time>
      </trkpt>
      <trkpt lat="45.90497" lon="6.36065">
        <ele>777.43</ele>
        <time>2013-07-20T10:44:00Z</time>
      </trkpt>
      <trkpt lat="45.9046" lon="6.35991">
        <ele>775.81</ele>
        <time>2013-07-20T10:44:05Z</time>
      </trkpt>
      <trkpt lat="45.90427" lon="6.35915">
        <ele>773.744</ele>
        <time>2013-07-20T10:44:10Z</time>
      </trkpt>
      <trkpt lat="45.90403" lon="6.35855">
        <ele>772.575</ele>
        <time>2013-07-20T10:44:14Z</time>
      </trkpt>
      <trkpt lat="45.90384" lon="6.35813">
        <ele>771.672</ele>
        <time>2013-07-20T10:44:17Z</time>
      </trkpt>
      <trkpt lat="45.9034" lon="6.35716">
        <ele>768.755</ele>
        <time>2013-07-20T10:44:24Z</time>
      </trkpt>
      <trkpt lat="45.90288" lon="6.35603">
        <ele>763.815</ele>
        <time>2013-07-20T10:44:32Z</time>
      </trkpt>
      <trkpt lat="45.90235" lon="6.35495">
        <ele>757.048</ele>
        <time>2013-07-20T10:44:39Z</time>
      </trkpt>
      <trkpt lat="45.90194" lon="6.35418">
        <ele>751.626</ele>
        <time>2013-07-20T10:44:44Z</time>
      </trkpt>
      <trkpt lat="45.90151" lon="6.35337">
        <ele>746.723</ele>
        <time>2013-07-20T10:44:49Z</time>
      </trkpt>
      <trkpt lat="45.90117" lon="6.35271">
        <ele>742.295</ele>
        <time>2013-07-20T10:44:53Z</time>
      </trkpt>
      <trkpt lat="45.9009" lon="6.35222">
        <ele>739.678</ele>
        <time>2013-07-20T10:44:56Z</time>
      </trkpt>
      <trkpt lat="45.90082" lon="6.35205">
        <ele>738.603</ele>
        <time>2013-07-20T10:44:57Z</time>
      </trkpt>
      <trkpt lat="45.90064" lon="6.35171">
        <ele>736.306</ele>
        <time>2013-07-20T10:44:59Z</time>
      </trkpt>
      <trkpt lat="45.89983" lon="6.35018">
        <ele>726.243</ele>
        <time>2013-07-20T10:45:08Z</time>
      </trkpt>
      <trkpt lat="45.89934" lon="6.34912">
        <ele>720.005</ele>
        <time>2013-07-20T10:45:14Z</time>
      </trkpt>
      <trkpt lat="45.89886" lon="6.34781">
        <ele>713.019</ele>
        <time>2013-07-20T10:45:21Z</time>
      </trkpt>
      <trkpt lat="45.89832" lon="6.34634">
        <ele>703.978</ele>
        <time>2013-07-20T10:45:29Z</time>
      </trkpt>
      <trkpt lat="45.89787" lon="6.34531">
        <ele>697.377</ele>
        <time>2013-07-20T10:45:35Z</time>
      </trkpt>
      <trkpt lat="45.89741" lon="6.34436">
        <ele>692.712</ele>
        <time>2013-07-20T10:45:41Z</time>
      </trkpt>
      <trkpt lat="45.89727" lon="6.34393">
        <ele>692.104</ele>
        <time>2013-07-20T10:45:44Z</time>
      </trkpt>
      <trkpt lat="45.89694" lon="6.34336">
        <ele>690.855</ele>
        <time>2013-07-20T10:45:48Z</time>
      </trkpt>
      <trkpt lat="45.89679" lon="6.34309">
        <ele>689.843</ele>
        <time>2013-07-20T10:45:50Z</time>
      </trkpt>
      <trkpt lat="45.89664" lon="6.34282">
        <ele>689.061</ele>
        <time>2013-07-20T10:45:52Z</time>
      </trkpt>
      <trkpt lat="45.89617" lon="6.34194">
        <ele>687.358</ele>
        <time>2013-07-20T10:45:59Z</time>
      </trkpt>
      <trkpt lat="45.89586" lon="6.34134">
        <ele>685.65</ele>
        <time>2013-07-20T10:46:04Z</time>
      </trkpt>
      <trkpt lat="45.89561" lon="6.34086">
        <ele>684.38</ele>
        <time>2013-07-20T10:46:08Z</time>
      </trkpt>
      <trkpt lat="45.89542" lon="6.3405">
        <ele>683.978</ele>
        <time>2013-07-20T10:46:11Z</time>
      </trkpt>
      <trkpt lat="45.89506" lon="6.33981">
        <ele>682.16</ele>
        <time>2013-07-20T10:46:17Z</time>
      </trkpt>
      <trkpt lat="45.89452" lon="6.33879">
        <ele>679.19</ele>
        <time>2013-07-20T10:46:26Z</time>
      </trkpt>
      <trkpt lat="45.8942" lon="6.33813">
        <ele>679.44</ele>
        <time>2013-07-20T10:46:31Z</time>
      </trkpt>
      <trkpt lat="45.89388" lon="6.33748">
        <ele>678.743</ele>
        <time>2013-07-20T10:46:36Z</time>
      </trkpt>
      <trkpt lat="45.89362" lon="6.33698">
        <ele>677.634</ele>
        <time>2013-07-20T10:46:40Z</time>
      </trkpt>
      <trkpt lat="45.89342" lon="6.33661">
        <ele>676.361</ele>
        <time>2013-07-20T10:46:43Z</time>
      </trkpt>
      <trkpt lat="45.89281" lon="6.33553">
        <ele>674.927</ele>
        <time>2013-07-20T10:46:52Z</time>
      </trkpt>
      <trkpt lat="45.89223" lon="6.3344">
        <ele>672.958</ele>
        <time>2013-07-20T10:47:01Z</time>
      </trkpt>
      <trkpt lat="45.89174" lon="6.3334">
        <ele>671.758</ele>
        <time>2013-07-20T10:47:09Z</time>
      </trkpt>
      <trkpt lat="45.89142" lon="6.33281">
        <ele>671.407</ele>
        <time>2013-07-20T10:47:14Z</time>
      </trkpt>
      <trkpt lat="45.89112" lon="6.33224">
        <ele>669.674</ele>
        <time>2013-07-20T10:47:19Z</time>
      </trkpt>
      <trkpt lat="45.89067" lon="6.33165">
        <ele>670.094</ele>
        <time>2013-07-20T10:47:25Z</time>
      </trkpt>
      <trkpt lat="45.89021" lon="6.33128">
        <ele>668.986</ele>
        <time>2013-07-20T10:47:30Z</time>
      </trkpt>
      <trkpt lat="45.88975" lon="6.33084">
        <ele>666.606</ele>
        <time>2013-07-20T10:47:35Z</time>
      </trkpt>
      <trkpt lat="45.88938" lon="6.33025">
        <ele>664.617</ele>
        <time>2013-07-20T10:47:40Z</time>
      </trkpt>
      <trkpt lat="45.88907" lon="6.32981">
        <ele>663.817</ele>
        <time>2013-07-20T10:47:44Z</time>
      </trkpt>
      <trkpt lat="45.8887" lon="6.32949">
        <ele>663.45</ele>
        <time>2013-07-20T10:47:48Z</time>
      </trkpt>
      <trkpt lat="45.8883" lon="6.3293">
        <ele>662.872</ele>
        <time>2013-07-20T10:47:52Z</time>
      </trkpt>
      <trkpt lat="45.88768" lon="6.32909">
        <ele>661.777</ele>
        <time>2013-07-20T10:47:58Z</time>
      </trkpt>
      <trkpt lat="45.8873" lon="6.32879">
        <ele>660.873</ele>
        <time>2013-07-20T10:48:02Z</time>
      </trkpt>
      <trkpt lat="45.88625" lon="6.32776">
        <ele>659.038</ele>
        <time>2013-07-20T10:48:14Z</time>
      </trkpt>
      <trkpt lat="45.88535" lon="6.3269">
        <ele>657.154</ele>
        <time>2013-07-20T10:48:24Z</time>
      </trkpt>
      <trkpt lat="45.88494" lon="6.32638">
        <ele>656.58</ele>
        <time>2013-07-20T10:48:29Z</time>
      </trkpt>
      <trkpt lat="45.88446" lon="6.32556">
        <ele>655.632</ele>
        <time>2013-07-20T10:48:36Z</time>
      </trkpt>
      <trkpt lat="45.88396" lon="6.3248">
        <ele>654.822</ele>
        <time>2013-07-20T10:48:43Z</time>
      </trkpt>
      <trkpt lat="45.88343" lon="6.32433">
        <ele>654.172</ele>
        <time>2013-07-20T10:48:49Z</time>
      </trkpt>
      <trkpt lat="45.88325" lon="6.32418">
        <ele>654.236</ele>
        <time>2013-07-20T10:48:51Z</time>
      </trkpt>
      <trkpt lat="45.88299" lon="6.32375">
        <ele>654.196</ele>
        <time>2013-07-20T10:48:55Z</time>
      </trkpt>
      <trkpt lat="45.88294" lon="6.32347">
        <ele>653.423</ele>
        <time>2013-07-20T10:48:57Z</time>
      </trkpt>
      <trkpt lat="45.88288" lon="6.32289">
        <ele>650.61</ele>
        <time>2013-07-20T10:49:02Z</time>
      </trkpt>
      <trkpt lat="45.88292" lon="6.32255">
        <ele>648.917</ele>
        <time>2013-07-20T10:49:06Z</time>
      </trkpt>
      <trkpt lat="45.88297" lon="6.32226">
        <ele>648.597</ele>
        <time>2013-07-20T10:49:09Z</time>
      </trkpt>
      <trkpt lat="45.88301" lon="6.32217">
        <ele>648.56</ele>
        <time>2013-07-20T10:49:10Z</time>
      </trkpt>
      <trkpt lat="45.8834" lon="6.32154">
        <ele>649.02</ele>
        <time>2013-07-20T10:49:17Z</time>
      </trkpt>
      <trkpt lat="45.88376" lon="6.321">
        <ele>647.582</ele>
        <time>2013-07-20T10:49:23Z</time>
      </trkpt>
      <trkpt lat="45.88424" lon="6.32023">
        <ele>645.976</ele>
        <time>2013-07-20T10:49:31Z</time>
      </trkpt>
      <trkpt lat="45.88466" lon="6.31954">
        <ele>645.79</ele>
        <time>2013-07-20T10:49:38Z</time>
      </trkpt>
      <trkpt lat="45.8851" lon="6.31872">
        <ele>644.21</ele>
        <time>2013-07-20T10:49:46Z</time>
      </trkpt>
      <trkpt lat="45.8854" lon="6.31807">
        <ele>644.713</ele>
        <time>2013-07-20T10:49:52Z</time>
      </trkpt>
      <trkpt lat="45.88555" lon="6.31775">
        <ele>643.871</ele>
        <time>2013-07-20T10:49:55Z</time>
      </trkpt>
      <trkpt lat="45.88573" lon="6.3174">
        <ele>642.47</ele>
        <time>2013-07-20T10:49:59Z</time>
      </trkpt>
      <trkpt lat="45.88593" lon="6.31685">
        <ele>641.194</ele>
        <time>2013-07-20T10:50:04Z</time>
      </trkpt>
      <trkpt lat="45.8862" lon="6.31615">
        <ele>641.403</ele>
        <time>2013-07-20T10:50:10Z</time>
      </trkpt>
      <trkpt lat="45.8866" lon="6.31534">
        <ele>640.655</ele>
        <time>2013-07-20T10:50:17Z</time>
      </trkpt>
      <trkpt lat="45.88697" lon="6.31488">
        <ele>639.424</ele>
        <time>2013-07-20T10:50:22Z</time>
      </trkpt>
      <trkpt lat="45.8876" lon="6.31418">
        <ele>636.786</ele>
        <time>2013-07-20T10:50:30Z</time>
      </trkpt>
      <trkpt lat="45.88829" lon="6.31342">
        <ele>634.637</ele>
        <time>2013-07-20T10:50:39Z</time>
      </trkpt>
      <trkpt lat="45.8888" lon="6.31283">
        <ele>634.048</ele>
        <time>2013-07-20T10:50:46Z</time>
      </trkpt>
      <trkpt lat="45.88942" lon="6.31215">
        <ele>632.6</ele>
        <time>2013-07-20T10:50:54Z</time>
      </trkpt>
      <trkpt lat="45.89009" lon="6.31141">
        <ele>631.107</ele>
        <time>2013-07-20T10:51:03Z</time>
      </trkpt>
      <trkpt lat="45.89016" lon="6.31133">
        <ele>630.83</ele>
        <time>2013-07-20T10:51:04Z</time>
      </trkpt>
      <trkpt lat="45.89082" lon="6.31059">
        <ele>630.858</ele>
        <time>2013-07-20T10:51:13Z</time>
      </trkpt>
      <trkpt lat="45.89143" lon="6.30989">
        <ele>629.864</ele>
        <time>2013-07-20T10:51:22Z</time>
      </trkpt>
      <trkpt lat="45.89185" lon="6.30938">
        <ele>629.772</ele>
        <time>2013-07-20T10:51:29Z</time>
      </trkpt>
      <trkpt lat="45.8922" lon="6.30892">
        <ele>628.914</ele>
        <time>2013-07-20T10:51:35Z</time>
      </trkpt>
      <trkpt lat="45.89259" lon="6.30824">
        <ele>628.362</ele>
        <time>2013-07-20T10:51:42Z</time>
      </trkpt>
      <trkpt lat="45.893" lon="6.30736">
        <ele>628.272</ele>
        <time>2013-07-20T10:51:50Z</time>
      </trkpt>
      <trkpt lat="45.89338" lon="6.30649">
        <ele>628.141</ele>
        <time>2013-07-20T10:51:57Z</time>
      </trkpt>
      <trkpt lat="45.89378" lon="6.30562">
        <ele>626.968</ele>
        <time>2013-07-20T10:52:04Z</time>
      </trkpt>
      <trkpt lat="45.89404" lon="6.30519">
        <ele>626.535</ele>
        <time>2013-07-20T10:52:08Z</time>
      </trkpt>
      <trkpt lat="45.89413" lon="6.30478">
        <ele>625.568</ele>
        <time>2013-07-20T10:52:11Z</time>
      </trkpt>
      <trkpt lat="45.89455" lon="6.30379">
        <ele>623.706</ele>
        <time>2013-07-20T10:52:19Z</time>
      </trkpt>
      <trkpt lat="45.89502" lon="6.30272">
        <ele>622.69</ele>
        <time>2013-07-20T10:52:28Z</time>
      </trkpt>
      <trkpt lat="45.89536" lon="6.30195">
        <ele>622.357</ele>
        <time>2013-07-20T10:52:35Z</time>
      </trkpt>
      <trkpt lat="45.89569" lon="6.3012">
        <ele>623.232</ele>
        <time>2013-07-20T10:52:42Z</time>
      </trkpt>
      <trkpt lat="45.89601" lon="6.30048">
        <ele>624.323</ele>
        <time>2013-07-20T10:52:49Z</time>
      </trkpt>
      <trkpt lat="45.89628" lon="6.29987">
        <ele>624.222</ele>
        <time>2013-07-20T10:52:55Z</time>
      </trkpt>
      <trkpt lat="45.89676" lon="6.29876">
        <ele>622.16</ele>
        <time>2013-07-20T10:53:05Z</time>
      </trkpt>
      <trkpt lat="45.89742" lon="6.29728">
        <ele>618.494</ele>
        <time>2013-07-20T10:53:18Z</time>
      </trkpt>
      <trkpt lat="45.89788" lon="6.29625">
        <ele>614.312</ele>
        <time>2013-07-20T10:53:27Z</time>
      </trkpt>
      <trkpt lat="45.8983" lon="6.29537">
        <ele>612.711</ele>
        <time>2013-07-20T10:53:35Z</time>
      </trkpt>
      <trkpt lat="45.89871" lon="6.29474">
        <ele>610.872</ele>
        <time>2013-07-20T10:53:42Z</time>
      </trkpt>
      <trkpt lat="45.8988" lon="6.29458">
        <ele>609.935</ele>
        <time>2013-07-20T10:53:44Z</time>
      </trkpt>
      <trkpt lat="45.89901" lon="6.29445">
        <ele>609.175</ele>
        <time>2013-07-20T10:53:48Z</time>
      </trkpt>
      <trkpt lat="45.89918" lon="6.29444">
        <ele>609.18</ele>
        <time>2013-07-20T10:53:52Z</time>
      </trkpt>
      <trkpt lat="45.89928" lon="6.29425">
        <ele>609.336</ele>
        <time>2013-07-20T10:53:55Z</time>
      </trkpt>
      <trkpt lat="45.89932" lon="6.29409">
        <ele>609.559</ele>
        <time>2013-07-20T10:53:57Z</time>
      </trkpt>
      <trkpt lat="45.89945" lon="6.29324">
        <ele>609.484</ele>
        <time>2013-07-20T10:54:07Z</time>
      </trkpt>
      <trkpt lat="45.89958" lon="6.29238">
        <ele>608.725</ele>
        <time>2013-07-20T10:54:16Z</time>
      </trkpt>
      <trkpt lat="45.89977" lon="6.29192">
        <ele>608.463</ele>
        <time>2013-07-20T10:54:21Z</time>
      </trkpt>
      <trkpt lat="45.89987" lon="6.29153">
        <ele>608.666</ele>
        <time>2013-07-20T10:54:25Z</time>
      </trkpt>
      <trkpt lat="45.89986" lon="6.29133">
        <ele>608.614</ele>
        <time>2013-07-20T10:54:27Z</time>
      </trkpt>
      <trkpt lat="45.8998" lon="6.29081">
        <ele>608.698</ele>
        <time>2013-07-20T10:54:32Z</time>
      </trkpt>
      <trkpt lat="45.89993" lon="6.29027">
        <ele>607.471</ele>
        <time>2013-07-20T10:54:37Z</time>
      </trkpt>
      <trkpt lat="45.90012" lon="6.28976">
        <ele>606.614</ele>
        <time>2013-07-20T10:54:42Z</time>
      </trkpt>
      <trkpt lat="45.90021" lon="6.28958">
        <ele>606.112</ele>
        <time>2013-07-20T10:54:44Z</time>
      </trkpt>
      <trkpt lat="45.90037" lon="6.28935">
        <ele>605.709</ele>
        <time>2013-07-20T10:54:47Z</time>
      </trkpt>
      <trkpt lat="45.90061" lon="6.28885">
        <ele>606.117</ele>
        <time>2013-07-20T10:54:53Z</time>
      </trkpt>
      <trkpt lat="45.90081" lon="6.2883">
        <ele>607.382</ele>
        <time>2013-07-20T10:55:00Z</time>
      </trkpt>
      <trkpt lat="45.90093" lon="6.28786">
        <ele>609.207</ele>
        <time>2013-07-20T10:55:07Z</time>
      </trkpt>
      <trkpt lat="45.90094" lon="6.2876">
        <ele>610.469</ele>
        <time>2013-07-20T10:55:11Z</time>
      </trkpt>
      <trkpt lat="45.90088" lon="6.28731">
        <ele>611.701</ele>
        <time>2013-07-20T10:55:15Z</time>
      </trkpt>
      <trkpt lat="45.90089" lon="6.28719">
        <ele>612.163</ele>
        <time>2013-07-20T10:55:17Z</time>
      </trkpt>
      <trkpt lat="45.90099" lon="6.28655">
        <ele>615.164</ele>
        <time>2013-07-20T10:55:27Z</time>
      </trkpt>
      <trkpt lat="45.9011" lon="6.28617">
        <ele>616.906</ele>
        <time>2013-07-20T10:55:33Z</time>
      </trkpt>
      <trkpt lat="45.90111" lon="6.28611">
        <ele>617.212</ele>
        <time>2013-07-20T10:55:34Z</time>
      </trkpt>
      <trkpt lat="45.90114" lon="6.28556">
        <ele>619.171</ele>
        <time>2013-07-20T10:55:42Z</time>
      </trkpt>
      <trkpt lat="45.90112" lon="6.28536">
        <ele>620.156</ele>
        <time>2013-07-20T10:55:45Z</time>
      </trkpt>
      <trkpt lat="45.9011" lon="6.28517">
        <ele>620.935</ele>
        <time>2013-07-20T10:55:48Z</time>
      </trkpt>
      <trkpt lat="45.90102" lon="6.28479">
        <ele>622.59</ele>
        <time>2013-07-20T10:55:54Z</time>
      </trkpt>
      <trkpt lat="45.90089" lon="6.28447">
        <ele>624.153</ele>
        <time>2013-07-20T10:56:00Z</time>
      </trkpt>
      <trkpt lat="45.90074" lon="6.28416">
        <ele>625.668</ele>
        <time>2013-07-20T10:56:06Z</time>
      </trkpt>
      <trkpt lat="45.9007" lon="6.28404">
        <ele>626.195</ele>
        <time>2013-07-20T10:56:08Z</time>
      </trkpt>
      <trkpt lat="45.90066" lon="6.28353">
        <ele>627.026</ele>
        <time>2013-07-20T10:56:16Z</time>
      </trkpt>
      <trkpt lat="45.90065" lon="6.28297">
        <ele>629.469</ele>
        <time>2013-07-20T10:56:25Z</time>
      </trkpt>
      <trkpt lat="45.90066" lon="6.2824">
        <ele>631.717</ele>
        <time>2013-07-20T10:56:34Z</time>
      </trkpt>
      <trkpt lat="45.90071" lon="6.28173">
        <ele>634.875</ele>
        <time>2013-07-20T10:56:45Z</time>
      </trkpt>
      <trkpt lat="45.90076" lon="6.28117">
        <ele>636.811</ele>
        <time>2013-07-20T10:56:54Z</time>
      </trkpt>
      <trkpt lat="45.90082" lon="6.28041">
        <ele>639.561</ele>
        <time>2013-07-20T10:57:06Z</time>
      </trkpt>
      <trkpt lat="45.90085" lon="6.27994">
        <ele>640.648</ele>
        <time>2013-07-20T10:57:13Z</time>
      </trkpt>
      <trkpt lat="45.90091" lon="6.2792">
        <ele>641.159</ele>
        <time>2013-07-20T10:57:23Z</time>
      </trkpt>
      <trkpt lat="45.90094" lon="6.27856">
        <ele>641.545</ele>
        <time>2013-07-20T10:57:31Z</time>
      </trkpt>
      <trkpt lat="45.90098" lon="6.27803">
        <ele>641.919</ele>
        <time>2013-07-20T10:57:38Z</time>
      </trkpt>
      <trkpt lat="45.90092" lon="6.27749">
        <ele>642.032</ele>
        <time>2013-07-20T10:57:45Z</time>
      </trkpt>
      <trkpt lat="45.90088" lon="6.27697">
        <ele>642.307</ele>
        <time>2013-07-20T10:57:52Z</time>
      </trkpt>
      <trkpt lat="45.90085" lon="6.27616">
        <ele>642.028</ele>
        <time>2013-07-20T10:58:02Z</time>
      </trkpt>
      <trkpt lat="45.90088" lon="6.27563">
        <ele>640.802</ele>
        <time>2013-07-20T10:58:08Z</time>
      </trkpt>
      <trkpt lat="45.90089" lon="6.27553">
        <ele>640.406</ele>
        <time>2013-07-20T10:58:09Z</time>
      </trkpt>
      <trkpt lat="45.90091" lon="6.27534">
        <ele>639.971</ele>
        <time>2013-07-20T10:58:11Z</time>
      </trkpt>
      <trkpt lat="45.90089" lon="6.27484">
        <ele>639.668</ele>
        <time>2013-07-20T10:58:16Z</time>
      </trkpt>
      <trkpt lat="45.90078" lon="6.27446">
        <ele>640.24</ele>
        <time>2013-07-20T10:58:20Z</time>
      </trkpt>
      <trkpt lat="45.90058" lon="6.27364">
        <ele>639.967</ele>
        <time>2013-07-20T10:58:29Z</time>
      </trkpt>
      <trkpt lat="45.90054" lon="6.27306">
        <ele>640.154</ele>
        <time>2013-07-20T10:58:35Z</time>
      </trkpt>
      <trkpt lat="45.90058" lon="6.27237">
        <ele>639.767</ele>
        <time>2013-07-20T10:58:42Z</time>
      </trkpt>
      <trkpt lat="45.9006" lon="6.27167">
        <ele>639.862</ele>
        <time>2013-07-20T10:58:49Z</time>
      </trkpt>
      <trkpt lat="45.90049" lon="6.27111">
        <ele>640.123</ele>
        <time>2013-07-20T10:58:55Z</time>
      </trkpt>
      <trkpt lat="45.90043" lon="6.27094">
        <ele>640.281</ele>
        <time>2013-07-20T10:58:57Z</time>
      </trkpt>
      <trkpt lat="45.90016" lon="6.2705">
        <ele>640.589</ele>
        <time>2013-07-20T10:59:03Z</time>
      </trkpt>
      <trkpt lat="45.90005" lon="6.27025">
        <ele>640.656</ele>
        <time>2013-07-20T10:59:06Z</time>
      </trkpt>
      <trkpt lat="45.89994" lon="6.26979">
        <ele>640.738</ele>
        <time>2013-07-20T10:59:11Z</time>
      </trkpt>
      <trkpt lat="45.89986" lon="6.26953">
        <ele>640.644</ele>
        <time>2013-07-20T10:59:14Z</time>
      </trkpt>
      <trkpt lat="45.89957" lon="6.26905">
        <ele>641.687</ele>
        <time>2013-07-20T10:59:21Z</time>
      </trkpt>
      <trkpt lat="45.89925" lon="6.26856">
        <ele>642.667</ele>
        <time>2013-07-20T10:59:29Z</time>
      </trkpt>
      <trkpt lat="45.89894" lon="6.26801">
        <ele>643.854</ele>
        <time>2013-07-20T10:59:37Z</time>
      </trkpt>
      <trkpt lat="45.89879" lon="6.26757">
        <ele>644.917</ele>
        <time>2013-07-20T10:59:43Z</time>
      </trkpt>
      <trkpt lat="45.89872" lon="6.26733">
        <ele>644.838</ele>
        <time>2013-07-20T10:59:46Z</time>
      </trkpt>
      <trkpt lat="45.89869" lon="6.26717">
        <ele>645.333</ele>
        <time>2013-07-20T10:59:48Z</time>
      </trkpt>
      <trkpt lat="45.89872" lon="6.26676">
        <ele>646.023</ele>
        <time>2013-07-20T10:59:53Z</time>
      </trkpt>
      <trkpt lat="45.8987" lon="6.26651">
        <ele>645.963</ele>
        <time>2013-07-20T10:59:56Z</time>
      </trkpt>
      <trkpt lat="45.89866" lon="6.26644">
        <ele>646.225</ele>
        <time>2013-07-20T10:59:57Z</time>
      </trkpt>
      <trkpt lat="45.8985" lon="6.26616">
        <ele>647.744</ele>
        <time>2013-07-20T11:00:01Z</time>
      </trkpt>
      <trkpt lat="45.89836" lon="6.26565">
        <ele>647.817</ele>
        <time>2013-07-20T11:00:08Z</time>
      </trkpt>
      <trkpt lat="45.89818" lon="6.26511">
        <ele>647.707</ele>
        <time>2013-07-20T11:00:14Z</time>
      </trkpt>
      <trkpt lat="45.89802" lon="6.2646">
        <ele>646.495</ele>
        <time>2013-07-20T11:00:19Z</time>
      </trkpt>
      <trkpt lat="45.89777" lon="6.26393">
        <ele>645.437</ele>
        <time>2013-07-20T11:00:25Z</time>
      </trkpt>
      <trkpt lat="45.89774" lon="6.26343">
        <ele>644.219</ele>
        <time>2013-07-20T11:00:29Z</time>
      </trkpt>
      <trkpt lat="45.89775" lon="6.26291">
        <ele>641.415</ele>
        <time>2013-07-20T11:00:33Z</time>
      </trkpt>
      <trkpt lat="45.89762" lon="6.2627">
        <ele>641.33</ele>
        <time>2013-07-20T11:00:35Z</time>
      </trkpt>
      <trkpt lat="45.8975" lon="6.26232">
        <ele>640.18</ele>
        <time>2013-07-20T11:00:38Z</time>
      </trkpt>
      <trkpt lat="45.89749" lon="6.26218">
        <ele>639.897</ele>
        <time>2013-07-20T11:00:39Z</time>
      </trkpt>
      <trkpt lat="45.89747" lon="6.26189">
        <ele>639.102</ele>
        <time>2013-07-20T11:00:41Z</time>
      </trkpt>
      <trkpt lat="45.89732" lon="6.26138">
        <ele>637.604</ele>
        <time>2013-07-20T11:00:45Z</time>
      </trkpt>
      <trkpt lat="45.89726" lon="6.26127">
        <ele>637.4</ele>
        <time>2013-07-20T11:00:46Z</time>
      </trkpt>
      <trkpt lat="45.89696" lon="6.26077">
        <ele>636.665</ele>
        <time>2013-07-20T11:00:51Z</time>
      </trkpt>
      <trkpt lat="45.89686" lon="6.26024">
        <ele>634.641</ele>
        <time>2013-07-20T11:00:55Z</time>
      </trkpt>
      <trkpt lat="45.89686" lon="6.25995">
        <ele>633.534</ele>
        <time>2013-07-20T11:00:57Z</time>
      </trkpt>
      <trkpt lat="45.8968" lon="6.25927">
        <ele>631.897</ele>
        <time>2013-07-20T11:01:02Z</time>
      </trkpt>
      <trkpt lat="45.89687" lon="6.25863">
        <ele>630.297</ele>
        <time>2013-07-20T11:01:07Z</time>
      </trkpt>
      <trkpt lat="45.89703" lon="6.25792">
        <ele>631.873</ele>
        <time>2013-07-20T11:01:13Z</time>
      </trkpt>
      <trkpt lat="45.89722" lon="6.25718">
        <ele>628.562</ele>
        <time>2013-07-20T11:01:19Z</time>
      </trkpt>
      <trkpt lat="45.89722" lon="6.25648">
        <ele>627.343</ele>
        <time>2013-07-20T11:01:24Z</time>
      </trkpt>
      <trkpt lat="45.8971" lon="6.25567">
        <ele>626.757</ele>
        <time>2013-07-20T11:01:30Z</time>
      </trkpt>
      <trkpt lat="45.89709" lon="6.25528">
        <ele>625.59</ele>
        <time>2013-07-20T11:01:33Z</time>
      </trkpt>
      <trkpt lat="45.89716" lon="6.25475">
        <ele>623.757</ele>
        <time>2013-07-20T11:01:37Z</time>
      </trkpt>
      <trkpt lat="45.8973" lon="6.25438">
        <ele>622.281</ele>
        <time>2013-07-20T11:01:40Z</time>
      </trkpt>
      <trkpt lat="45.89734" lon="6.25398">
        <ele>621.698</ele>
        <time>2013-07-20T11:01:43Z</time>
      </trkpt>
      <trkpt lat="45.89732" lon="6.25385">
        <ele>621.643</ele>
        <time>2013-07-20T11:01:44Z</time>
      </trkpt>
      <trkpt lat="45.89723" lon="6.25308">
        <ele>621.937</ele>
        <time>2013-07-20T11:01:50Z</time>
      </trkpt>
      <trkpt lat="45.89723" lon="6.25224">
        <ele>621.962</ele>
        <time>2013-07-20T11:01:57Z</time>
      </trkpt>
      <trkpt lat="45.89724" lon="6.25212">
        <ele>621.864</ele>
        <time>2013-07-20T11:01:58Z</time>
      </trkpt>
      <trkpt lat="45.89735" lon="6.25155">
        <ele>621.049</ele>
        <time>2013-07-20T11:02:03Z</time>
      </trkpt>
      <trkpt lat="45.89756" lon="6.25068">
        <ele>620.974</ele>
        <time>2013-07-20T11:02:11Z</time>
      </trkpt>
      <trkpt lat="45.89756" lon="6.25006">
        <ele>620.499</ele>
        <time>2013-07-20T11:02:17Z</time>
      </trkpt>
      <trkpt lat="45.89755" lon="6.2493">
        <ele>621.147</ele>
        <time>2013-07-20T11:02:25Z</time>
      </trkpt>
      <trkpt lat="45.89765" lon="6.24898">
        <ele>622.309</ele>
        <time>2013-07-20T11:02:29Z</time>
      </trkpt>
      <trkpt lat="45.8977" lon="6.24892">
        <ele>622.488</ele>
        <time>2013-07-20T11:02:30Z</time>
      </trkpt>
      <trkpt lat="45.89789" lon="6.24854">
        <ele>624.752</ele>
        <time>2013-07-20T11:02:36Z</time>
      </trkpt>
      <trkpt lat="45.89796" lon="6.24786">
        <ele>628.657</ele>
        <time>2013-07-20T11:02:45Z</time>
      </trkpt>
      <trkpt lat="45.898" lon="6.24731">
        <ele>630.548</ele>
        <time>2013-07-20T11:02:52Z</time>
      </trkpt>
      <trkpt lat="45.89801" lon="6.24715">
        <ele>630.776</ele>
        <time>2013-07-20T11:02:54Z</time>
      </trkpt>
      <trkpt lat="45.89815" lon="6.24644">
        <ele>630.596</ele>
        <time>2013-07-20T11:03:02Z</time>
      </trkpt>
      <trkpt lat="45.89822" lon="6.2459">
        <ele>630.255</ele>
        <time>2013-07-20T11:03:07Z</time>
      </trkpt>
      <trkpt lat="45.8984" lon="6.24543">
        <ele>629.463</ele>
        <time>2013-07-20T11:03:12Z</time>
      </trkpt>
      <trkpt lat="45.89862" lon="6.24498">
        <ele>630.269</ele>
        <time>2013-07-20T11:03:18Z</time>
      </trkpt>
      <trkpt lat="45.89885" lon="6.24446">
        <ele>631.692</ele>
        <time>2013-07-20T11:03:26Z</time>
      </trkpt>
      <trkpt lat="45.89912" lon="6.24386">
        <ele>632.195</ele>
        <time>2013-07-20T11:03:35Z</time>
      </trkpt>
      <trkpt lat="45.8994" lon="6.24333">
        <ele>632.78</ele>
        <time>2013-07-20T11:03:42Z</time>
      </trkpt>
      <trkpt lat="45.89971" lon="6.24275">
        <ele>633.618</ele>
        <time>2013-07-20T11:03:50Z</time>
      </trkpt>
      <trkpt lat="45.89997" lon="6.24228">
        <ele>634.129</ele>
        <time>2013-07-20T11:03:57Z</time>
      </trkpt>
      <trkpt lat="45.90027" lon="6.24191">
        <ele>635.148</ele>
        <time>2013-07-20T11:04:04Z</time>
      </trkpt>
      <trkpt lat="45.90056" lon="6.24168">
        <ele>636.226</ele>
        <time>2013-07-20T11:04:10Z</time>
      </trkpt>
      <trkpt lat="45.90072" lon="6.24146">
        <ele>636.758</ele>
        <time>2013-07-20T11:04:14Z</time>
      </trkpt>
      <trkpt lat="45.90093" lon="6.2409">
        <ele>637.174</ele>
        <time>2013-07-20T11:04:22Z</time>
      </trkpt>
      <trkpt lat="45.90116" lon="6.24041">
        <ele>636.472</ele>
        <time>2013-07-20T11:04:29Z</time>
      </trkpt>
      <trkpt lat="45.90125" lon="6.24017">
        <ele>635.946</ele>
        <time>2013-07-20T11:04:32Z</time>
      </trkpt>
      <trkpt lat="45.90141" lon="6.23952">
        <ele>634.04</ele>
        <time>2013-07-20T11:04:39Z</time>
      </trkpt>
      <trkpt lat="45.90144" lon="6.23942">
        <ele>633.898</ele>
        <time>2013-07-20T11:04:40Z</time>
      </trkpt>
      <trkpt lat="45.90166" lon="6.23893">
        <ele>633.382</ele>
        <time>2013-07-20T11:04:46Z</time>
      </trkpt>
      <trkpt lat="45.90181" lon="6.23867">
        <ele>633.949</ele>
        <time>2013-07-20T11:04:50Z</time>
      </trkpt>
      <trkpt lat="45.9019" lon="6.23851">
        <ele>634.025</ele>
        <time>2013-07-20T11:04:53Z</time>
      </trkpt>
      <trkpt lat="45.90193" lon="6.23846">
        <ele>633.955</ele>
        <time>2013-07-20T11:04:54Z</time>
      </trkpt>
      <trkpt lat="45.90206" lon="6.23824">
        <ele>633.769</ele>
        <time>2013-07-20T11:04:58Z</time>
      </trkpt>
      <trkpt lat="45.90214" lon="6.2381">
        <ele>633.318</ele>
        <time>2013-07-20T11:05:00Z</time>
      </trkpt>
      <trkpt lat="45.90231" lon="6.23751">
        <ele>630.457</ele>
        <time>2013-07-20T11:05:06Z</time>
      </trkpt>
      <trkpt lat="45.90243" lon="6.23689">
        <ele>628.062</ele>
        <time>2013-07-20T11:05:11Z</time>
      </trkpt>
      <trkpt lat="45.90261" lon="6.23619">
        <ele>625.947</ele>
        <time>2013-07-20T11:05:16Z</time>
      </trkpt>
      <trkpt lat="45.90276" lon="6.23572">
        <ele>625.426</ele>
        <time>2013-07-20T11:05:20Z</time>
      </trkpt>
      <trkpt lat="45.90299" lon="6.23488">
        <ele>625.449</ele>
        <time>2013-07-20T11:05:28Z</time>
      </trkpt>
      <trkpt lat="45.90317" lon="6.23468">
        <ele>625.986</ele>
        <time>2013-07-20T11:05:32Z</time>
      </trkpt>
      <trkpt lat="45.90332" lon="6.23467">
        <ele>626.231</ele>
        <time>2013-07-20T11:05:35Z</time>
      </trkpt>
      <trkpt lat="45.90355" lon="6.23456">
        <ele>627.181</ele>
        <time>2013-07-20T11:05:40Z</time>
      </trkpt>
      <trkpt lat="45.9036" lon="6.23437">
        <ele>627.587</ele>
        <time>2013-07-20T11:05:43Z</time>
      </trkpt>
      <trkpt lat="45.90361" lon="6.23414">
        <ele>628.26</ele>
        <time>2013-07-20T11:05:47Z</time>
      </trkpt>
      <trkpt lat="45.90363" lon="6.23388">
        <ele>629.346</ele>
        <time>2013-07-20T11:05:52Z</time>
      </trkpt>
      <trkpt lat="45.90365" lon="6.23362">
        <ele>630.658</ele>
        <time>2013-07-20T11:05:57Z</time>
      </trkpt>
      <trkpt lat="45.90368" lon="6.23324">
        <ele>632.816</ele>
        <time>2013-07-20T11:06:04Z</time>
      </trkpt>
      <trkpt lat="45.90376" lon="6.23291">
        <ele>634.446</ele>
        <time>2013-07-20T11:06:11Z</time>
      </trkpt>
      <trkpt lat="45.90384" lon="6.23268">
        <ele>635.393</ele>
        <time>2013-07-20T11:06:18Z</time>
      </trkpt>
      <trkpt lat="45.90389" lon="6.23261">
        <ele>635.494</ele>
        <time>2013-07-20T11:06:23Z</time>
      </trkpt>
      <trkpt lat="45.90389" lon="6.23261">
        <ele>635.456</ele>
        <time>2013-07-20T11:06:24Z</time>
      </trkpt>
      <trkpt lat="45.9039" lon="6.2326">
        <ele>634.806</ele>
        <time>2013-07-20T11:07:49Z</time>
      </trkpt>
      <trkpt lat="45.90391" lon="6.23258">
        <ele>634.876</ele>
        <time>2013-07-20T11:07:50Z</time>
      </trkpt>
      <trkpt lat="45.90396" lon="6.23251">
        <ele>635.385</ele>
        <time>2013-07-20T11:07:55Z</time>
      </trkpt>
      <trkpt lat="45.90401" lon="6.23239">
        <ele>636.361</ele>
        <time>2013-07-20T11:07:58Z</time>
      </trkpt>
      <trkpt lat="45.90408" lon="6.23222">
        <ele>637.869</ele>
        <time>2013-07-20T11:08:01Z</time>
      </trkpt>
      <trkpt lat="45.90421" lon="6.23197">
        <ele>640.333</ele>
        <time>2013-07-20T11:08:05Z</time>
      </trkpt>
      <trkpt lat="45.90437" lon="6.23182">
        <ele>641.74</ele>
        <time>2013-07-20T11:08:08Z</time>
      </trkpt>
      <trkpt lat="45.9046" lon="6.23175">
        <ele>643.135</ele>
        <time>2013-07-20T11:08:11Z</time>
      </trkpt>
      <trkpt lat="45.90476" lon="6.23168">
        <ele>643.927</ele>
        <time>2013-07-20T11:08:13Z</time>
      </trkpt>
      <trkpt lat="45.90494" lon="6.23143">
        <ele>645.183</ele>
        <time>2013-07-20T11:08:16Z</time>
      </trkpt>
      <trkpt lat="45.905" lon="6.2313">
        <ele>646.035</ele>
        <time>2013-07-20T11:08:19Z</time>
      </trkpt>
      <trkpt lat="45.90501" lon="6.2313">
        <ele>645.936</ele>
        <time>2013-07-20T11:08:21Z</time>
      </trkpt>
      <trkpt lat="45.90499" lon="6.23132">
        <ele>645.374</ele>
        <time>2013-07-20T11:08:31Z</time>
      </trkpt>
    </trkseg>
  </trk>
</gpx>